# Wetter Temperatur Luftdruck Luftfeuchtigkeit Sichtweite Windgeschwindigkeit Windrichtung Zeit
1 Clear 18 1018 82 10000 9.26 50 13:19 22.04.2021
2 Clear 17 1018 94 10000 5.66 50 12:44 22.04.2021
3 Clear 17 1018 94 10000 5.66 50 12:20 22.04.2021
4 Clear 17 1016 94 10000 5.66 70 11:45 22.04.2021
5 Clear 17 1016 94 10000 5.66 70 11:23 22.04.2021
6 Clear 17 1016 94 10000 5.66 70 11:23 22.04.2021
7 Clear 17 1018 88 10000 5.66 60 10:45 22.04.2021
8 Clear 17 1018 88 10000 5.66 60 10:22 22.04.2021
9 Clear 18 1018 82 10000 6.69 50 09:44 22.04.2021
10 Clear 18 1018 82 10000 6.69 50 09:19 22.04.2021
11 Clear 18 1018 82 10000 7.2 60 08:38 22.04.2021
12 Clear 18 1018 82 10000 7.2 60 08:18 22.04.2021
13 Clear 18 1019 82 10000 5.66 50 07:44 22.04.2021
14 Clear 18 1019 82 10000 5.66 50 07:20 22.04.2021
15 Clear 18 1020 82 10000 5.14 60 06:27 22.04.2021
16 Clear 18 1020 82 10000 5.14 60 06:27 22.04.2021
17 Clear 18 1020 77 10000 4.63 60 05:26 22.04.2021
18 Clear 18 1020 77 10000 4.12 70 04:29 22.04.2021
19 Clear 21 1017 73 10000 5.66 60 00:57 22.04.2021
20 Clear 22 1016 68 10000 6.17 70 23:48 21.04.2021
21 Clear 22 1016 68 10000 6.17 70 23:28 21.04.2021
22 Clouds 24 1017 60 10000 8.23 60 22:44 21.04.2021
23 Clouds 24 1017 60 10000 8.23 60 22:24 21.04.2021
24 Clouds 24 1018 60 10000 6.69 50 21:49 21.04.2021
25 Clouds 24 1018 60 10000 6.69 50 21:24 21.04.2021
26 Clouds 24 1018 60 10000 8.75 40 20:59 21.04.2021
27 Clouds 24 1018 60 10000 8.75 40 20:21 21.04.2021
28 Clouds 26 1019 57 10000 8.23 50 19:43 21.04.2021
29 Clouds 25 1021 64 10000 7.2 70 19:25 21.04.2021
30 Clouds 24 1021 64 10000 7.2 70 18:46 21.04.2021
31 Clouds 24 1021 64 10000 7.2 70 18:28 21.04.2021
32 Clouds 23 1021 64 10000 8.75 50 17:49 21.04.2021
33 Clouds 23 1021 64 10000 8.75 50 17:25 21.04.2021
34 Clouds 23 1021 64 10000 8.75 50 17:25 21.04.2021
35 Clouds 23 1021 64 10000 8.75 50 17:25 21.04.2021
36 Clouds 23 1021 64 10000 8.75 50 17:25 21.04.2021
37 Clouds 23 1022 60 10000 7.2 50 16:55 21.04.2021
38 Clouds 23 1022 60 10000 7.2 50 16:23 21.04.2021
39 Clouds 22 1022 68 10000 5.66 70 15:42 21.04.2021
40 Clouds 22 1022 68 10000 5.66 70 15:18 21.04.2021
41 Clear 19 1021 94 10000 4.63 90 14:42 21.04.2021
42 Clear 19 1022 73 10000 5.66 100 14:22 21.04.2021
43 Clear 19 1022 77 10000 4.12 100 13:44 21.04.2021
44 Clear 18 1022 77 10000 4.12 100 13:21 21.04.2021
45 Clear 19 1021 50 10000 3.6 100 12:32 21.04.2021
46 Clear 17 1021 82 10000 2.57 80 11:50 21.04.2021
47 Clear 17 1021 82 10000 2.57 80 11:32 21.04.2021
48 Clear 18 1020 82 10000 4.63 70 10:57 21.04.2021
49 Clear 18 1020 82 10000 4.63 70 10:36 21.04.2021
50 Clouds 18 1020 77 10000 6.17 80 09:56 21.04.2021
51 Clouds 18 1020 77 10000 6.17 80 09:20 21.04.2021
52 Clouds 18 1020 82 10000 4.63 90 08:41 21.04.2021
53 Clouds 18 1020 82 10000 4.63 90 08:22 21.04.2021
54 Clouds 17 1021 82 10000 4.12 80 07:32 21.04.2021
55 Clear 18 1021 77 10000 4.12 80 06:59 21.04.2021
56 Clear 17 1021 82 10000 4.63 90 05:45 21.04.2021
57 Clouds 20 1021 73 10000 7.2 90 01:34 21.04.2021
58 Clouds 22 1020 60 10000 4.12 90 23:59 20.04.2021
59 Clouds 22 1020 60 10000 4.12 90 23:32 20.04.2021
60 Clouds 23 1020 53 10000 5.14 80 22:42 20.04.2021
61 Clouds 23 1020 53 10000 5.14 80 22:23 20.04.2021
62 Clouds 25 1021 50 10000 5.14 50 21:48 20.04.2021
63 Clouds 25 1021 50 10000 5.14 50 21:28 20.04.2021
64 Clouds 24 1021 57 10000 6.17 70 20:58 20.04.2021
65 Clouds 24 1021 57 10000 6.17 70 20:38 20.04.2021
66 Clouds 24 1021 57 10000 6.17 70 20:18 20.04.2021
67 Clouds 24 1021 57 10000 6.69 50 19:44 20.04.2021
68 Clouds 24 1021 57 10000 6.69 50 19:26 20.04.2021
69 Clouds 23 1022 60 10000 7.2 50 18:41 20.04.2021
70 Clouds 24 1022 60 10000 7.2 50 18:21 20.04.2021
71 Clouds 24 1023 64 10000 7.72 60 17:39 20.04.2021
72 Clouds 22 1023 68 10000 7.72 60 16:50 20.04.2021
73 Clouds 22 1023 73 10000 6.17 60 15:53 20.04.2021
74 Clouds 22 1023 73 10000 6.17 60 15:30 20.04.2021
75 Clouds 22 1023 73 10000 6.17 60 15:30 20.04.2021
76 Clear 19 1023 88 10000 4.63 90 14:59 20.04.2021
77 Clear 19 1023 88 10000 4.63 90 14:35 20.04.2021
78 Clear 17 1023 94 10000 3.6 90 13:54 20.04.2021
79 Clear 17 1023 94 10000 3.6 90 13:24 20.04.2021
80 Clear 16 1022 94 10000 3.6 90 12:48 20.04.2021
81 Clear 16 1022 94 10000 3.6 90 12:22 20.04.2021
82 Clear 17 1022 88 10000 3.6 70 11:46 20.04.2021
83 Clear 17 1022 88 10000 3.6 70 11:24 20.04.2021
84 Clear 17 1022 88 10000 4.12 80 10:45 20.04.2021
85 Clear 17 1022 88 10000 4.12 80 10:23 20.04.2021
86 Clear 17 1021 88 10000 4.12 90 09:44 20.04.2021
87 Clear 17 1022 88 10000 4.12 90 08:56 20.04.2021
88 Clear 17 1022 88 10000 4.12 90 08:29 20.04.2021
89 Clear 17 1022 88 10000 4.63 90 07:50 20.04.2021
90 Clear 17 1022 82 10000 4.12 90 06:54 20.04.2021
91 Clear 17 1022 77 10000 4.63 90 05:40 20.04.2021
92 Clear 18 1022 77 10000 5.14 80 04:42 20.04.2021
93 Clear 19 1022 68 10000 4.63 80 02:47 20.04.2021
94 Clouds 20 1020 68 10000 3.6 80 00:49 20.04.2021
95 Clouds 22 1020 64 10000 4.12 80 23:47 19.04.2021
96 Clouds 22 1020 64 10000 4.12 80 23:27 19.04.2021
97 Clouds 24 1020 53 10000 4.12 60 22:36 19.04.2021
98 Clouds 24 1020 50 10000 5.14 60 21:59 19.04.2021
99 Clouds 24 1020 50 10000 5.14 60 21:37 19.04.2021
100 Clouds 24 1020 50 10000 5.14 60 21:19 19.04.2021
101 Clouds 24 1021 57 10000 3.6 90 20:40 19.04.2021
102 Clouds 24 1021 57 10000 3.6 90 20:20 19.04.2021
103 Clouds 24 1021 60 10000 3.6 60 19:43 19.04.2021
104 Clouds 24 1021 60 10000 3.6 60 19:24 19.04.2021
105 Clouds 23 1022 60 10000 6.17 40 18:47 19.04.2021
106 Clouds 23 1022 60 10000 6.17 40 18:23 19.04.2021
107 Clouds 22 1022 64 10000 6.69 50 17:55 19.04.2021
108 Clouds 22 1022 64 10000 6.69 50 17:30 19.04.2021
109 Clouds 21 1023 68 10000 5.66 50 16:58 19.04.2021
110 Clouds 21 1023 68 10000 5.66 50 16:39 19.04.2021
111 Clouds 21 1023 68 10000 5.66 50 16:20 19.04.2021
112 Clear 20 1023 73 10000 5.66 50 15:40 19.04.2021
113 Clear 20 1023 73 10000 5.66 50 15:20 19.04.2021
114 Rain 18 1023 88 10000 4.12 60 14:37 19.04.2021
115 Clear 18 1023 88 10000 4.12 60 14:19 19.04.2021
116 Clear 17 1022 88 10000 4.12 60 13:36 19.04.2021
117 Clear 16 1022 88 10000 4.12 60 13:18 19.04.2021
118 Rain 15 1021 94 10000 3.6 60 12:42 19.04.2021
119 Clear 15 1021 94 10000 3.6 60 12:22 19.04.2021
120 Rain 16 1021 88 10000 2.57 60 11:53 19.04.2021
121 Clear 16 1021 88 10000 2.57 60 11:21 19.04.2021
122 Clear 15 1021 88 10000 2.06 70 10:45 19.04.2021
123 Clear 15 1021 88 10000 2.06 70 10:21 19.04.2021
124 Clear 16 1020 82 10000 3.09 50 09:49 19.04.2021
125 Clear 16 1020 82 10000 3.09 50 09:27 19.04.2021
126 Clear 16 1021 88 10000 3.09 50 08:58 19.04.2021
127 Clear 16 1021 88 10000 3.09 50 08:25 19.04.2021
128 Clear 17 1021 88 10000 3.09 60 07:48 19.04.2021
129 Clear 17 1021 88 10000 3.09 60 07:19 19.04.2021
130 Clear 19 1020 77 10000 5.14 60 05:44 19.04.2021
131 Clear 19 1019 83 10000 3.09 80 02:34 19.04.2021
132 Clear 20 1019 88 10000 3.6 110 00:47 19.04.2021
133 Clear 23 1019 64 10000 2.57 50 23:49 18.04.2021
134 Clear 23 1019 64 10000 2.57 50 23:18 18.04.2021
135 Clouds 24 1019 60 10000 4.12 30 22:46 18.04.2021
136 Clouds 24 1019 60 10000 4.12 30 22:24 18.04.2021
137 Clouds 25 1019 57 10000 3.6 10 21:29 18.04.2021
138 Clouds 25 1019 57 10000 3.6 10 20:57 18.04.2021
139 Clouds 25 1019 57 10000 4.12 20 20:38 18.04.2021
140 Clouds 25 1019 57 10000 4.12 20 20:20 18.04.2021
141 Clouds 25 1019 60 10000 6.17 30 19:44 18.04.2021
142 Clouds 25 1019 60 10000 6.17 30 19:23 18.04.2021
143 Clouds 24 1020 64 10000 5.14 20 18:50 18.04.2021
144 Clouds 23 1020 64 10000 5.14 20 18:27 18.04.2021
145 Clouds 23 1021 73 10000 6.69 30 17:50 18.04.2021
146 Clouds 23 1021 73 10000 6.69 30 17:30 18.04.2021
147 Clouds 22 1021 73 10000 6.69 30 16:54 18.04.2021
148 Clouds 22 1021 73 10000 6.69 20 16:35 18.04.2021
149 Clouds 21 1020 83 10000 6.17 20 15:51 18.04.2021
150 Clouds 21 1021 83 10000 5.14 30 15:30 18.04.2021
151 Clouds 19 1021 83 10000 5.14 30 14:58 18.04.2021
152 Clear 18 1020 88 10000 4.63 30 14:40 18.04.2021
153 Clear 18 1020 88 10000 4.63 30 14:18 18.04.2021
154 Clouds 17 1020 94 10000 4.12 30 13:44 18.04.2021
155 Clouds 16 1020 94 10000 4.12 30 13:26 18.04.2021
156 Mist 15 1020 100 5000 3.09 30 12:36 18.04.2021
157 Fog 15 1019 100 200 2.06 20 11:52 18.04.2021
158 Fog 15 1019 100 500 2.57 30 11:27 18.04.2021
159 Clear 16 1019 94 10000 3.6 50 10:58 18.04.2021
160 Clear 16 1019 94 10000 3.6 50 10:40 18.04.2021
161 Clear 16 1019 94 10000 3.2 28 09:58 18.04.2021
162 Clear 16 1019 94 10000 3.2 28 09:39 18.04.2021
163 Clear 16 1019 94 10000 2.95 28 09:19 18.04.2021
164 Clear 16 1028 94 10000 0.45 106 08:41 18.04.2021
165 Clear 16 1019 94 10000 1.54 50 08:19 18.04.2021
166 Clear 16 1019 94 10000 1.54 50 07:40 18.04.2021
167 Clear 17 1019 88 10000 1.54 90 05:56 18.04.2021
168 Clear 17 1019 94 10000 2.06 100 05:26 18.04.2021
169 Clear 18 1019 88 10000 3.09 80 04:30 18.04.2021
170 Clear 19 1018 83 10000 4.63 110 02:23 18.04.2021
171 Clear 20 1018 83 10000 3.6 110 00:55 18.04.2021
172 Clear 21 1017 83 10000 4.12 100 23:52 17.04.2021
173 Clear 21 1017 83 10000 4.12 100 23:22 17.04.2021
174 Clouds 23 1017 68 10000 5.14 100 22:43 17.04.2021
175 Clouds 23 1017 68 10000 5.14 100 22:21 17.04.2021
176 Clouds 24 1017 64 10000 2.57 50 21:41 17.04.2021
177 Clouds 24 1017 64 10000 2.57 50 21:21 17.04.2021
178 Clouds 23 1017 73 10000 2.57 80 20:29 17.04.2021
179 Clouds 24 1018 64 10000 3.09 100 19:46 17.04.2021
180 Clouds 24 1018 64 10000 3.09 100 19:46 17.04.2021
181 Clouds 24 1018 64 10000 3.09 100 19:23 17.04.2021
182 Clouds 24 1018 78 10000 2.57 10 18:59 17.04.2021
183 Clouds 24 1018 78 10000 2.57 10 18:40 17.04.2021
184 Clouds 25 1018 78 10000 2.57 10 18:20 17.04.2021
185 Clouds 23 1019 94 8000 3.09 20 17:41 17.04.2021
186 Mist 21 1019 88 3000 2.06 30 16:56 17.04.2021
187 Mist 20 1019 100 1600 1.54 0 16:34 17.04.2021
188 Fog 18 1019 100 50 1.03 0 15:56 17.04.2021
189 Fog 17 1019 100 50 1.54 0 14:51 17.04.2021
190 Fog 16 1019 100 500 1.03 20 14:33 17.04.2021
191 Fog 16 1019 100 500 1.03 20 14:33 17.04.2021
192 Rain 16 1019 100 1800 1.54 0 13:59 17.04.2021
193 Mist 16 1019 100 1800 1.54 0 13:40 17.04.2021
194 Fog 13 1018 100 200 1.03 0 12:42 17.04.2021
195 Fog 13 1018 100 200 1.03 0 12:22 17.04.2021
196 Fog 14 1017 100 50 1.09 42 11:50 17.04.2021
197 Fog 14 1017 100 50 1.09 42 11:31 17.04.2021
198 Fog 14 1016 100 50 1.26 32 10:47 17.04.2021
199 Fog 13 1016 100 50 1.17 52 10:29 17.04.2021
200 Fog 12 1017 100 100 1.17 52 09:44 17.04.2021
201 Fog 14 1016 100 50 1.54 350 08:41 17.04.2021
202 Fog 14 1016 100 50 1.54 350 08:22 17.04.2021
203 Fog 15 1016 100 100 2.12 70 07:20 17.04.2021
204 Rain 16 1016 94 100 2.34 89 03:56 17.04.2021
205 Rain 16 1016 94 100 2.34 89 03:38 17.04.2021
206 Clouds 19 1015 94 10000 2.06 140 00:49 17.04.2021
207 Clouds 20 1015 94 10000 2.06 140 00:29 17.04.2021
208 Clouds 21 1015 83 10000 1.54 180 23:48 16.04.2021
209 Clouds 21 1015 83 10000 1.54 180 23:25 16.04.2021
210 Clouds 23 1014 73 10000 2.57 200 22:50 16.04.2021
211 Clouds 23 1014 73 10000 2.57 200 22:21 16.04.2021
212 Clouds 23 1014 73 10000 4.12 180 21:51 16.04.2021
213 Clouds 23 1014 73 10000 4.12 180 21:30 16.04.2021
214 Clouds 24 1014 78 10000 4.12 220 20:50 16.04.2021
215 Clouds 24 1014 78 10000 4.12 220 20:25 16.04.2021
216 Clouds 24 1014 78 10000 3.09 240 19:54 16.04.2021
217 Clouds 24 1014 78 10000 3.09 240 19:30 16.04.2021
218 Clouds 23 1015 78 7000 2.06 10 18:43 16.04.2021
219 Clouds 24 1015 78 7000 2.06 10 18:20 16.04.2021
220 Mist 21 1016 100 1500 2.06 340 17:43 16.04.2021
221 Mist 21 1016 100 1500 2.06 340 17:19 16.04.2021
222 Clouds 21 1016 88 8000 0.51 30 16:42 16.04.2021
223 Fog 20 1016 100 400 2.06 40 16:23 16.04.2021
224 Fog 19 1016 100 100 1.54 30 15:45 16.04.2021
225 Fog 18 1016 100 100 1.54 30 15:20 16.04.2021
226 Fog 17 1016 100 550 2.06 20 14:42 16.04.2021
227 Fog 17 1015 100 50 2.06 50 14:19 16.04.2021
228 Fog 16 1014 100 50 1.55 290 13:45 16.04.2021
229 Fog 16 1014 100 50 1.79 300 13:20 16.04.2021
230 Fog 16 1014 100 50 1.79 300 12:47 16.04.2021
231 Fog 15 1014 100 50 2.06 303 12:27 16.04.2021
232 Fog 16 1013 100 500 1.54 360 11:52 16.04.2021
233 Fog 16 1013 100 500 1.54 360 11:26 16.04.2021
234 Fog 16 1013 100 500 1.54 360 11:26 16.04.2021
235 Fog 16 1013 100 100 1.03 350 10:53 16.04.2021
236 Fog 16 1013 100 100 1.03 350 10:34 16.04.2021
237 Fog 16 1013 100 100 1.03 350 10:34 16.04.2021
238 Fog 17 1013 100 100 1.54 360 09:53 16.04.2021
239 Fog 17 1013 100 100 1.54 360 09:24 16.04.2021
240 Fog 17 1013 100 300 1.54 10 08:47 16.04.2021
241 Fog 17 1013 100 300 1.54 10 08:28 16.04.2021
242 Clouds 17 1014 100 10000 1.03 330 07:53 16.04.2021
243 Clouds 17 1014 100 10000 1.03 330 07:34 16.04.2021
244 Clouds 17 1014 100 10000 1.03 310 06:56 16.04.2021
245 Clouds 18 1014 100 10000 2.57 20 05:34 16.04.2021
246 Fog 18 1014 94 9000 1.03 330 04:20 16.04.2021
247 Clouds 21 1013 83 10000 1.54 50 00:55 16.04.2021
248 Clouds 21 1013 83 10000 1.54 50 00:36 16.04.2021
249 Clouds 21 1013 83 10000 1.54 50 00:18 16.04.2021
250 Clouds 22 1013 78 10000 2.06 20 23:37 15.04.2021
251 Clouds 24 1013 73 10000 2.57 60 22:54 15.04.2021
252 Clouds 24 1013 73 10000 2.57 60 22:35 15.04.2021
253 Clouds 23 1013 73 10000 3.6 360 21:59 15.04.2021
254 Clouds 23 1013 73 10000 3.6 360 21:41 15.04.2021
255 Clouds 23 1013 73 10000 3.6 360 21:20 15.04.2021
256 Clouds 24 1013 73 10000 4.63 360 20:42 15.04.2021
257 Clouds 24 1013 73 10000 4.63 360 20:21 15.04.2021
258 Clouds 24 1013 73 10000 4.63 20 19:44 15.04.2021
259 Clouds 24 1013 73 10000 4.63 20 19:24 15.04.2021
260 Clouds 24 1014 73 10000 3.09 360 18:42 15.04.2021
261 Clouds 23 1014 73 10000 3.09 360 18:21 15.04.2021
262 Clouds 24 1014 69 10000 3.09 10 17:55 15.04.2021
263 Clouds 24 1014 69 10000 3.09 10 17:55 15.04.2021
264 Clouds 24 1015 73 10000 4.12 330 17:36 15.04.2021
265 Clear 22 1015 78 10000 4.12 360 16:57 15.04.2021
266 Clear 22 1015 78 10000 4.12 360 16:57 15.04.2021
267 Clear 22 1015 78 10000 4.12 360 16:39 15.04.2021
268 Clear 22 1015 78 10000 4.12 360 16:20 15.04.2021
269 Clear 21 1015 83 10000 2.8 1 15:44 15.04.2021
270 Clear 20 1015 83 10000 2.66 6 15:25 15.04.2021
271 Clouds 18 1015 88 10000 6.17 20 14:40 15.04.2021
272 Clouds 18 1015 88 10000 6.17 20 14:22 15.04.2021
273 Clear 18 1014 88 10000 5.14 30 13:42 15.04.2021
274 Clear 17 1014 88 10000 5.14 30 13:18 15.04.2021
275 Clear 17 1015 88 10000 5.14 40 12:40 15.04.2021
276 Clear 17 1015 88 10000 5.14 40 12:40 15.04.2021
277 Clear 17 1015 88 10000 5.14 40 12:21 15.04.2021
278 Clear 17 1015 88 10000 5.14 40 12:21 15.04.2021
279 Clear 17 1014 88 10000 3.6 30 11:45 15.04.2021
280 Clear 17 1014 88 10000 3.6 30 11:23 15.04.2021
281 Clear 17 1014 88 10000 3.09 30 10:50 15.04.2021
282 Clear 17 1014 88 10000 3.09 30 10:28 15.04.2021
283 Clear 17 1014 88 10000 3.6 30 09:48 15.04.2021
284 Clear 17 1014 88 10000 3.6 30 09:25 15.04.2021
285 Clear 17 1015 82 10000 3.09 40 08:49 15.04.2021
286 Clear 17 1015 82 10000 3.09 40 08:21 15.04.2021
287 Clouds 17 1015 77 10000 2.06 60 07:24 15.04.2021
288 Clouds 18 1015 77 10000 3.09 70 06:40 15.04.2021
289 Clouds 18 1015 77 10000 3.09 70 06:21 15.04.2021
290 Clear 18 1016 72 10000 3.09 70 04:52 15.04.2021
291 Clear 19 1016 60 10000 3.6 70 01:58 15.04.2021
292 Clouds 22 1016 53 10000 2.57 60 23:43 14.04.2021
293 Clouds 22 1016 53 10000 2.57 60 23:43 14.04.2021
294 Clouds 22 1016 53 10000 2.57 60 23:25 14.04.2021
295 Clear 23 1016 40 10000 4.12 60 22:47 14.04.2021
296 Clear 23 1016 40 10000 4.12 60 22:26 14.04.2021
297 Clear 23 1016 40 10000 6.69 90 21:51 14.04.2021
298 Clear 23 1016 40 10000 6.69 90 21:32 14.04.2021
299 Clear 24 1016 41 10000 6.17 90 20:58 14.04.2021
300 Clear 24 1016 41 10000 6.17 90 20:34 14.04.2021
301 Clear 24 1017 43 10000 5.66 60 19:55 14.04.2021
302 Clear 24 1017 43 10000 5.66 60 19:21 14.04.2021
303 Clear 23 1018 46 10000 4.12 60 18:57 14.04.2021
304 Clear 23 1018 46 10000 4.12 60 18:36 14.04.2021
305 Clear 23 1018 46 10000 4.12 60 18:18 14.04.2021
306 Clear 22 1019 56 10000 4.63 60 17:29 14.04.2021
307 Clear 21 1020 60 10000 4.12 60 16:58 14.04.2021
308 Clear 21 1020 60 10000 4.12 60 16:29 14.04.2021
309 Clear 19 1020 68 10000 4.12 360 15:47 14.04.2021
310 Clear 19 1020 68 10000 4.12 360 15:28 14.04.2021
311 Clear 18 1020 68 10000 3.6 30 14:56 14.04.2021
312 Clear 18 1020 68 10000 3.6 30 14:38 14.04.2021
313 Clear 18 1020 68 10000 3.6 30 14:19 14.04.2021
314 Clear 15 1020 77 10000 2.06 30 13:45 14.04.2021
315 Clear 13 1020 88 10000 2.06 40 12:43 14.04.2021
316 Clear 13 1020 88 10000 2.06 40 12:18 14.04.2021
317 Clear 14 1019 88 10000 2.06 30 11:41 14.04.2021
318 Clear 14 1019 88 10000 2.06 30 11:22 14.04.2021
319 Rain 14 1019 88 10000 2.57 20 10:34 14.04.2021
320 Rain 14 1019 88 10000 2.57 20 09:43 14.04.2021
321 Rain 14 1019 88 10000 2.57 20 09:25 14.04.2021
322 Clear 14 1020 94 10000 2.57 20 08:52 14.04.2021
323 Clear 14 1020 94 10000 2.57 20 08:29 14.04.2021
324 Fog 14 1020 94 7000 1.54 10 07:36 14.04.2021
325 Clear 15 1021 88 10000 2.81 35 06:34 14.04.2021
326 Rain 16 1021 88 8000 2.84 35 05:31 14.04.2021
327 Rain 18 1021 72 10000 1.54 120 02:27 14.04.2021
328 Clear 19 1021 77 10000 1.54 160 00:50 14.04.2021
329 Clear 19 1021 77 10000 1.54 160 00:50 14.04.2021
330 Clear 19 1021 77 10000 1.54 160 00:32 14.04.2021
331 Rain 21 1021 68 10000 2.06 200 23:34 13.04.2021
332 Clouds 23 1021 64 10000 3.09 200 22:44 13.04.2021
333 Clouds 23 1021 64 10000 3.09 200 22:22 13.04.2021
334 Clouds 23 1021 64 10000 3.09 220 21:49 13.04.2021
335 Clouds 23 1021 64 10000 3.09 220 21:30 13.04.2021
336 Clouds 24 1021 60 10000 1.54 200 20:51 13.04.2021
337 Clouds 24 1021 60 10000 1.54 200 20:25 13.04.2021
338 Clouds 24 1021 60 10000 1.54 200 19:58 13.04.2021
339 Clouds 24 1021 57 10000 3.09 260 19:26 13.04.2021
340 Clouds 23 1022 56 10000 3.09 230 18:51 13.04.2021
341 Clouds 23 1022 56 10000 3.09 230 18:31 13.04.2021
342 Clouds 23 1023 56 10000 2.06 260 17:41 13.04.2021
343 Clouds 23 1023 56 10000 2.06 260 17:21 13.04.2021
344 Clear 22 1023 64 10000 2.78 290 16:49 13.04.2021
345 Clear 22 1023 64 10000 2.78 290 16:31 13.04.2021
346 Clear 19 1023 72 10000 2.57 310 15:56 13.04.2021
347 Clear 18 1023 72 10000 2.57 310 15:38 13.04.2021
348 Clear 16 1022 77 10000 2.06 360 14:58 13.04.2021
349 Clear 16 1022 77 10000 2.06 360 14:29 13.04.2021
350 Clear 15 1022 88 10000 1.54 360 13:58 13.04.2021
351 Clear 15 1022 88 10000 1.54 360 13:40 13.04.2021
352 Clear 14 1022 88 10000 1.54 360 13:20 13.04.2021
353 Clear 13 1022 88 10000 2.06 360 12:49 13.04.2021
354 Clear 13 1022 88 10000 2.06 360 12:23 13.04.2021
355 Clear 12 1021 87 10000 2.06 350 11:38 13.04.2021
356 Rain 13 1021 82 10000 2.06 360 10:58 13.04.2021
357 Clear 13 1021 82 10000 2.06 360 10:40 13.04.2021
358 Clear 13 1021 82 10000 2.06 360 10:19 13.04.2021
359 Clear 13 1021 82 10000 1.54 10 09:51 13.04.2021
360 Clear 13 1021 82 10000 1.54 10 09:26 13.04.2021
361 Clear 13 1021 76 10000 2.06 20 08:44 13.04.2021
362 Clear 13 1021 76 10000 2.06 20 08:22 13.04.2021
363 Clear 13 1021 72 10000 2.06 10 07:43 13.04.2021
364 Clear 14 1021 72 10000 2.06 10 07:23 13.04.2021
365 Clear 14 1021 72 10000 1.54 360 06:24 13.04.2021
366 Clear 15 1020 72 10000 1.54 350 03:44 13.04.2021
367 Clear 17 1020 63 10000 3.08 301 01:32 13.04.2021
368 Clear 20 1019 60 10000 2.06 270 23:52 12.04.2021
369 Clear 20 1019 60 10000 2.06 270 23:32 12.04.2021
370 Clear 22 1019 49 10000 3.6 280 22:52 12.04.2021
371 Clear 22 1019 49 10000 3.6 280 22:33 12.04.2021
372 Clear 22 1019 49 10000 3.6 280 22:33 12.04.2021
373 Clear 23 1019 49 10000 3.6 270 21:48 12.04.2021
374 Clear 23 1019 49 10000 3.6 270 21:25 12.04.2021
375 Clouds 23 1019 46 10000 4.12 290 20:59 12.04.2021
376 Clouds 23 1019 46 10000 4.12 290 20:36 12.04.2021
377 Clouds 23 1019 46 10000 4.12 290 20:18 12.04.2021
378 Clouds 23 1020 49 10000 4.12 260 19:40 12.04.2021
379 Clouds 23 1020 49 10000 4.12 260 19:21 12.04.2021
380 Clouds 23 1020 53 10000 4.12 280 18:51 12.04.2021
381 Clouds 23 1020 53 10000 4.12 280 18:33 12.04.2021
382 Clouds 22 1020 56 10000 3.09 270 17:59 12.04.2021
383 Clouds 22 1020 56 10000 3.09 270 17:40 12.04.2021
384 Clouds 22 1020 56 10000 3.09 270 17:19 12.04.2021
385 Clouds 21 1020 64 10000 3.09 280 16:38 12.04.2021
386 Clouds 21 1020 64 10000 3.09 280 16:19 12.04.2021
387 Clear 20 1020 73 10000 2.06 270 15:39 12.04.2021
388 Clear 18 1019 88 10000 1.54 0 14:57 12.04.2021
389 Clear 18 1019 88 10000 1.54 0 14:39 12.04.2021
390 Clear 18 1019 88 10000 1.54 0 14:19 12.04.2021
391 Clear 15 1019 100 10000 1.54 0 13:40 12.04.2021
392 Clear 14 1019 100 10000 1.54 0 13:19 12.04.2021
393 Clear 11 1018 93 10000 2.06 350 12:43 12.04.2021
394 Clear 11 1018 93 10000 2.06 350 12:22 12.04.2021
395 Clear 17 1018 74 10000 3.24 232 11:41 12.04.2021
396 Clear 13 1017 82 10000 1.54 330 10:51 12.04.2021
397 Clear 13 1017 82 10000 1.54 330 10:28 12.04.2021
398 Clear 13 1017 82 10000 1.54 350 09:53 12.04.2021
399 Clear 13 1017 82 10000 1.54 350 09:31 12.04.2021
400 Clear 15 1017 77 10000 2.06 310 08:54 12.04.2021
401 Clear 14 1017 77 10000 2.06 310 08:22 12.04.2021
402 Clear 16 1017 63 10000 2.57 230 07:30 12.04.2021
403 Clear 16 1017 63 10000 2.57 230 07:30 12.04.2021
404 Clear 17 1017 55 10000 4.12 210 06:47 12.04.2021
405 Clear 18 1017 52 10000 5.14 220 05:48 12.04.2021
406 Clouds 19 1016 55 10000 6.69 220 03:33 12.04.2021
407 Clouds 19 1014 68 10000 6.69 210 00:43 12.04.2021
408 Clouds 19 1014 68 10000 6.69 210 00:22 12.04.2021
409 Clouds 19 1013 63 10000 8.23 210 23:44 11.04.2021
410 Clouds 19 1013 63 10000 8.23 210 23:22 11.04.2021
411 Clouds 19 1012 63 10000 10.29 210 22:39 11.04.2021
412 Clouds 19 1012 63 10000 10.29 210 22:19 11.04.2021
413 Clouds 19 1011 68 10000 8.75 210 21:44 11.04.2021
414 Clouds 19 1011 68 10000 8.75 210 21:24 11.04.2021
415 Clouds 19 1011 68 10000 8.75 210 21:24 11.04.2021
416 Clouds 19 1011 72 10000 8.23 200 20:46 11.04.2021
417 Drizzle 19 1010 82 4000 8.23 220 20:25 11.04.2021
418 Clouds 19 1009 88 10000 9.77 220 19:44 11.04.2021
419 Clouds 19 1009 88 10000 9.77 220 19:21 11.04.2021
420 Drizzle 18 1009 94 1000 10.8 220 18:58 11.04.2021
421 Drizzle 18 1009 94 1000 10.8 220 18:40 11.04.2021
422 Clouds 19 1009 82 10000 7.72 200 18:21 11.04.2021
423 Mist 18 1007 94 2500 8.75 220 17:41 11.04.2021
424 Mist 18 1007 94 2500 8.75 220 17:22 11.04.2021
425 Drizzle 19 1006 94 1000 8.23 220 16:46 11.04.2021
426 Drizzle 19 1006 94 1000 8.23 220 16:22 11.04.2021
427 Clouds 19 1005 94 7000 7.72 220 15:47 11.04.2021
428 Drizzle 19 1005 94 1500 6.17 210 15:26 11.04.2021
429 Drizzle 19 1005 94 1500 6.17 210 15:26 11.04.2021
430 Drizzle 20 1003 94 1500 7.72 270 14:52 11.04.2021
431 Drizzle 20 1003 94 1500 7.72 270 14:27 11.04.2021
432 Clouds 19 1003 100 800 5.66 250 13:45 11.04.2021
433 Clouds 19 1002 100 10000 5.14 270 13:27 11.04.2021
434 Clouds 20 1002 94 1500 7.72 320 12:44 11.04.2021
435 Drizzle 21 1001 94 1500 6.17 310 12:20 11.04.2021
436 Drizzle 21 1001 94 3000 4.12 320 11:48 11.04.2021
437 Drizzle 21 1001 94 3000 4.12 320 11:22 11.04.2021
438 Drizzle 21 1001 94 5000 4.12 350 10:47 11.04.2021
439 Drizzle 21 1001 94 5000 4.12 350 10:26 11.04.2021
440 Drizzle 21 1001 94 5000 2.06 10 09:53 11.04.2021
441 Rain 21 1001 94 5000 2.06 10 09:32 11.04.2021
442 Drizzle 21 1002 94 3000 3.09 40 08:42 11.04.2021
443 Clouds 21 1004 94 10000 3.09 40 07:59 11.04.2021
444 Clouds 21 1004 94 10000 3.09 40 07:21 11.04.2021
445 Clouds 21 1006 94 10000 1.54 30 05:59 11.04.2021
446 Clouds 21 1006 94 10000 1.54 30 05:37 11.04.2021
447 Clouds 21 1006 94 10000 1.54 30 05:18 11.04.2021
448 Clouds 20 1006 100 10000 2.06 60 04:33 11.04.2021
449 Clouds 21 1007 88 10000 1.54 100 01:40 11.04.2021
450 Clouds 21 1006 88 10000 3.6 50 00:33 11.04.2021
451 Rain 21 1005 88 10000 6.69 50 23:47 10.04.2021
452 Rain 20 1006 94 10000 7.2 80 22:59 10.04.2021
453 Rain 20 1006 94 10000 7.2 80 22:31 10.04.2021
454 Rain 20 1007 94 10000 5.14 80 21:57 10.04.2021
455 Rain 20 1007 94 10000 5.14 80 21:57 10.04.2021
456 Rain 20 1008 94 10000 5.66 80 21:37 10.04.2021
457 Rain 20 1008 94 10000 5.66 80 21:19 10.04.2021
458 Rain 20 1009 94 10000 6.17 80 20:41 10.04.2021
459 Rain 20 1009 94 10000 6.17 80 20:22 10.04.2021
460 Rain 20 1009 94 10000 7.2 60 19:43 10.04.2021
461 Rain 20 1009 94 10000 7.2 60 19:25 10.04.2021
462 Rain 20 1011 100 6000 4.63 80 18:44 10.04.2021
463 Rain 20 1011 100 6000 4.63 80 18:25 10.04.2021
464 Rain 20 1011 100 1000 7.2 90 17:37 10.04.2021
465 Rain 21 1012 100 4000 3.6 90 16:57 10.04.2021
466 Rain 21 1012 94 800 6.17 90 16:26 10.04.2021
467 Rain 21 1013 88 5000 5.66 100 15:53 10.04.2021
468 Rain 21 1013 88 5000 5.66 100 14:58 10.04.2021
469 Rain 21 1013 88 8000 5.14 100 14:38 10.04.2021
470 Clouds 21 1013 88 8000 5.14 100 13:59 10.04.2021
471 Clouds 21 1013 94 10000 4.12 100 13:40 10.04.2021
472 Drizzle 21 1013 94 8000 4.63 90 12:49 10.04.2021
473 Drizzle 21 1013 94 8000 4.63 90 12:26 10.04.2021
474 Rain 21 1013 83 10000 6.17 110 11:47 10.04.2021
475 Rain 20 1013 83 10000 6.17 110 11:24 10.04.2021
476 Rain 20 1013 88 10000 6.69 120 10:52 10.04.2021
477 Rain 20 1013 88 10000 6.69 120 10:31 10.04.2021
478 Clouds 20 1014 94 10000 6.69 120 09:45 10.04.2021
479 Clouds 20 1014 94 10000 6.69 120 09:19 10.04.2021
480 Clouds 20 1015 88 10000 6.69 130 08:46 10.04.2021
481 Clouds 20 1015 88 10000 6.69 130 08:28 10.04.2021
482 Clouds 21 1015 88 10000 6.17 130 07:29 10.04.2021
483 Clouds 21 1015 88 10000 6.17 140 06:49 10.04.2021
484 Clouds 20 1014 100 10000 6.17 140 05:54 10.04.2021
485 Fog 19 1015 100 4000 2.57 360 03:46 10.04.2021
486 Fog 20 1014 94 7000 0.51 330 02:50 10.04.2021
487 Fog 20 1014 94 7000 0.51 330 02:18 10.04.2021
488 Clouds 20 1015 94 10000 1.54 0 00:41 10.04.2021
489 Rain 20 1015 94 10000 1.54 0 00:19 10.04.2021
490 Rain 21 1014 94 10000 2.06 270 23:37 09.04.2021
491 Rain 22 1014 88 10000 3.09 270 22:58 09.04.2021
492 Clouds 22 1014 88 10000 3.09 270 22:37 09.04.2021
493 Clouds 22 1013 88 10000 3.09 270 21:55 09.04.2021
494 Clouds 22 1013 88 10000 3.09 270 21:37 09.04.2021
495 Rain 22 1013 88 10000 3.09 270 21:18 09.04.2021
496 Clouds 22 1013 94 10000 2.57 280 20:40 09.04.2021
497 Clouds 22 1013 94 10000 2.57 280 20:21 09.04.2021
498 Rain 21 1013 94 10000 2.57 280 19:43 09.04.2021
499 Rain 21 1013 94 10000 2.57 280 19:23 09.04.2021
500 Rain 21 1014 94 10000 4.63 270 18:50 09.04.2021
501 Rain 21 1014 94 10000 4.63 270 18:29 09.04.2021
502 Rain 20 1014 94 10000 3.09 260 17:52 09.04.2021
503 Rain 20 1014 94 10000 3.09 260 17:33 09.04.2021
504 Rain 20 1013 94 10000 3.6 230 16:55 09.04.2021
505 Rain 20 1013 94 10000 3.6 230 16:32 09.04.2021
506 Rain 20 1013 94 10000 3.6 340 15:50 09.04.2021
507 Rain 20 1013 94 10000 3.6 340 15:25 09.04.2021
508 Rain 20 1013 94 10000 5.14 360 14:51 09.04.2021
509 Rain 20 1013 94 10000 5.14 360 14:30 09.04.2021
510 Rain 20 1013 100 10000 3.6 340 13:51 09.04.2021
511 Rain 19 1013 100 10000 3.6 340 13:23 09.04.2021
512 Rain 20 1012 94 10000 3.09 350 12:49 09.04.2021
513 Rain 20 1012 94 10000 3.09 350 12:30 09.04.2021
514 Rain 20 1011 100 10000 3.6 350 11:44 09.04.2021
515 Rain 20 1011 100 10000 3.6 350 11:21 09.04.2021
516 Rain 20 1010 94 10000 5.66 10 10:45 09.04.2021
517 Rain 21 1010 94 10000 5.66 10 10:18 09.04.2021
518 Rain 21 1011 94 10000 3.09 30 09:29 09.04.2021
519 Rain 21 1011 100 10000 5.14 70 08:56 09.04.2021
520 Rain 21 1011 100 10000 5.14 70 08:37 09.04.2021
521 Rain 22 1011 94 1000 3.09 170 07:35 09.04.2021
522 Rain 22 1011 94 5000 4.12 70 06:33 09.04.2021
523 Rain 22 1012 94 1500 2.57 300 05:47 09.04.2021
524 Rain 25 1010 69 10000 4.12 40 03:48 09.04.2021
525 Rain 26 1011 65 10000 3.6 50 01:27 09.04.2021
526 Clouds 26 1011 73 10000 3.09 60 00:36 09.04.2021
527 Rain 26 1011 73 10000 3.09 60 00:18 09.04.2021
528 Rain 27 1011 65 10000 5.14 20 22:58 08.04.2021
529 Rain 27 1011 65 10000 5.14 20 22:40 08.04.2021
530 Rain 27 1011 65 10000 5.14 20 22:40 08.04.2021
531 Clear 28 1011 65 10000 5.14 20 22:20 08.04.2021
532 Clear 28 1011 65 10000 5.14 20 21:54 08.04.2021
533 Clear 28 1011 65 10000 5.14 20 21:54 08.04.2021
534 Clear 28 1011 61 10000 5.14 30 21:36 08.04.2021
535 Clear 28 1011 61 10000 5.14 30 21:18 08.04.2021
536 Clear 28 1011 61 10000 7.72 10 20:45 08.04.2021
537 Clear 28 1011 61 10000 7.72 10 20:25 08.04.2021
538 Clear 28 1012 61 10000 6.69 30 19:42 08.04.2021
539 Clear 28 1012 61 10000 6.69 30 19:19 08.04.2021
540 Clear 27 1012 65 10000 8.75 30 18:45 08.04.2021
541 Clear 27 1012 65 10000 8.75 30 18:20 08.04.2021
542 Clear 27 1014 65 10000 8.23 20 17:48 08.04.2021
543 Clear 27 1014 65 10000 8.23 20 17:24 08.04.2021
544 Clear 26 1014 61 10000 8.75 20 16:46 08.04.2021
545 Clear 26 1014 61 10000 8.75 20 16:25 08.04.2021
546 Clear 23 1015 73 10000 7.2 30 15:47 08.04.2021
547 Clear 24 1015 73 10000 7.2 30 15:28 08.04.2021
548 Clear 22 1015 88 10000 6.69 30 14:45 08.04.2021
549 Clear 21 1015 88 10000 6.69 30 14:24 08.04.2021
550 Clear 20 1015 94 10000 6.69 40 13:56 08.04.2021
551 Clear 20 1015 94 10000 6.69 40 13:38 08.04.2021
552 Rain 20 1015 94 10000 6.69 40 13:19 08.04.2021
553 Clear 20 1015 88 10000 7.72 40 12:38 08.04.2021
554 Clear 20 1015 83 10000 6.17 30 11:59 08.04.2021
555 Clear 20 1015 83 10000 6.17 30 11:41 08.04.2021
556 Clear 20 1014 83 10000 5.66 30 10:57 08.04.2021
557 Clear 20 1014 83 10000 5.66 30 10:28 08.04.2021
558 Clear 20 1014 88 10000 6.17 30 09:51 08.04.2021
559 Clear 20 1014 88 10000 6.17 30 09:33 08.04.2021
560 Clear 21 1015 83 10000 4.63 30 08:45 08.04.2021
561 Clear 21 1015 83 10000 4.63 30 08:25 08.04.2021
562 Clear 21 1015 83 10000 5.14 40 07:53 08.04.2021
563 Clear 21 1016 83 10000 6.17 50 06:55 08.04.2021
564 Clouds 23 1016 64 10000 4.12 60 02:34 08.04.2021
565 Clouds 25 1016 65 10000 3.6 60 00:44 08.04.2021
566 Clouds 26 1016 65 10000 3.6 60 23:57 07.04.2021
567 Clouds 27 1015 61 10000 4.63 60 23:38 07.04.2021
568 Clouds 27 1015 61 10000 4.63 60 23:19 07.04.2021
569 Clouds 28 1015 51 10000 5.66 30 22:43 07.04.2021
570 Clouds 28 1015 51 10000 5.66 30 22:25 07.04.2021
571 Clouds 29 1015 48 10000 5.14 40 21:44 07.04.2021
572 Clouds 29 1015 48 10000 5.14 40 21:22 07.04.2021
573 Clouds 29 1016 45 10000 5.66 30 20:43 07.04.2021
574 Clouds 29 1016 45 10000 5.66 30 20:21 07.04.2021
575 Clouds 28 1016 47 10000 6.17 20 19:43 07.04.2021
576 Clouds 28 1016 47 10000 6.17 20 19:24 07.04.2021
577 Clear 28 1017 47 10000 9.77 30 18:47 07.04.2021
578 Clear 28 1017 47 10000 9.77 30 18:19 07.04.2021
579 Clear 27 1018 61 10000 6.69 60 17:54 07.04.2021
580 Clear 27 1018 61 10000 6.69 60 17:36 07.04.2021
581 Clear 25 1019 69 10000 7.2 20 16:49 07.04.2021
582 Clear 25 1019 69 10000 7.2 20 16:23 07.04.2021
583 Clear 24 1019 78 10000 7.2 30 15:59 07.04.2021
584 Clear 24 1019 78 10000 7.2 30 15:38 07.04.2021
585 Clear 24 1019 78 10000 7.2 30 15:38 07.04.2021
586 Clear 22 1019 83 10000 7.72 30 14:57 07.04.2021
587 Clear 22 1019 83 10000 7.72 30 14:31 07.04.2021
588 Clear 20 1018 88 10000 5.26 31 13:52 07.04.2021
589 Clear 20 1018 88 10000 4.61 36 13:24 07.04.2021
590 Clear 19 1018 94 10000 5.14 40 12:51 07.04.2021
591 Clear 19 1018 94 10000 5.14 40 12:25 07.04.2021
592 Clear 19 1018 94 10000 2.57 30 11:55 07.04.2021
593 Clear 18 1018 94 10000 2.57 30 11:26 07.04.2021
594 Clouds 19 1018 88 10000 2.57 30 10:52 07.04.2021
595 Clouds 19 1018 88 10000 2.57 30 10:20 07.04.2021
596 Clear 19 1018 94 10000 1.54 30 09:42 07.04.2021
597 Clear 19 1018 94 10000 1.54 30 09:23 07.04.2021
598 Clear 19 1018 88 10000 2.06 40 08:41 07.04.2021
599 Clear 20 1018 88 10000 2.06 40 08:18 07.04.2021
600 Clear 20 1018 83 10000 2.06 50 07:42 07.04.2021
601 Clear 20 1018 83 10000 2.06 50 07:21 07.04.2021
602 Clear 20 1018 83 10000 3.6 50 06:26 07.04.2021
603 Clear 21 1018 83 10000 4.63 70 04:23 07.04.2021
604 Clear 23 1017 83 10000 4.63 110 00:21 07.04.2021
605 Clouds 24 1016 78 10000 6.17 120 23:46 06.04.2021
606 Clouds 25 1016 78 10000 6.17 120 23:21 06.04.2021
607 Clouds 26 1016 69 10000 6.17 100 22:40 06.04.2021
608 Clouds 26 1016 69 10000 6.17 100 22:19 06.04.2021
609 Clouds 26 1017 65 10000 5.14 130 21:41 06.04.2021
610 Clouds 26 1017 65 10000 5.14 130 21:22 06.04.2021
611 Clouds 26 1017 69 10000 5.14 130 20:54 06.04.2021
612 Clouds 26 1017 69 10000 5.14 130 20:24 06.04.2021
613 Clouds 26 1017 73 10000 4.63 120 19:56 06.04.2021
614 Clouds 26 1017 73 10000 4.63 120 19:34 06.04.2021
615 Clouds 26 1018 69 10000 3.6 130 18:57 06.04.2021
616 Clouds 26 1018 69 10000 3.6 130 18:38 06.04.2021
617 Clouds 26 1018 69 10000 3.6 130 18:18 06.04.2021
618 Clouds 25 1018 73 10000 3.09 80 17:40 06.04.2021
619 Clouds 25 1018 73 10000 3.09 80 17:18 06.04.2021
620 Clouds 24 1019 78 10000 3.09 100 16:42 06.04.2021
621 Clouds 23 1018 83 10000 3.6 80 15:53 06.04.2021
622 Clouds 23 1018 83 10000 3.6 80 15:24 06.04.2021
623 Clouds 21 1018 100 10000 2.57 80 14:43 06.04.2021
624 Clouds 20 1018 100 10000 2.57 80 14:24 06.04.2021
625 Mist 20 1018 94 3500 3.6 60 13:46 06.04.2021
626 Mist 20 1018 94 3500 3.6 60 13:25 06.04.2021
627 Mist 20 1018 100 3500 2.57 70 12:44 06.04.2021
628 Mist 20 1018 100 3500 2.57 70 12:26 06.04.2021
629 Clouds 20 1017 94 10000 3.6 40 11:55 06.04.2021
630 Clouds 20 1017 94 10000 3.6 40 11:36 06.04.2021
631 Clouds 20 1017 94 10000 3.6 40 11:18 06.04.2021
632 Clouds 20 1017 94 10000 2.57 50 10:39 06.04.2021
633 Clouds 20 1017 94 10000 2.57 50 10:19 06.04.2021
634 Clouds 19 1017 94 10000 1.54 100 09:43 06.04.2021
635 Clear 20 1017 94 10000 1.54 90 08:50 06.04.2021
636 Clear 20 1017 94 10000 1.54 90 08:19 06.04.2021
637 Clear 20 1017 88 10000 1.54 120 07:22 06.04.2021
638 Clear 21 1017 83 10000 2.57 60 06:47 06.04.2021
639 Clouds 22 1017 78 10000 3.6 100 03:54 06.04.2021
640 Clouds 24 1015 73 10000 2.57 110 00:49 06.04.2021
641 Clouds 24 1015 73 10000 2.57 110 00:22 06.04.2021
642 Clouds 27 1015 61 10000 3.09 70 23:50 05.04.2021
643 Clouds 27 1015 61 10000 3.09 70 23:28 05.04.2021
644 Clouds 27 1014 61 10000 5.14 80 22:54 05.04.2021
645 Clouds 27 1014 61 10000 5.14 80 22:35 05.04.2021
646 Clouds 27 1014 57 10000 6.17 60 21:48 05.04.2021
647 Clouds 27 1014 57 10000 6.17 60 21:27 05.04.2021
648 Clouds 27 1014 57 10000 6.17 60 21:27 05.04.2021
649 Clouds 28 1014 54 10000 3.6 70 20:49 05.04.2021
650 Clouds 28 1014 54 10000 3.6 70 20:30 05.04.2021
651 Clouds 28 1015 57 10000 5.14 40 19:55 05.04.2021
652 Clouds 28 1015 57 10000 5.14 40 19:36 05.04.2021
653 Clouds 28 1015 57 10000 5.14 40 19:18 05.04.2021
654 Clouds 28 1016 54 10000 6.69 20 18:40 05.04.2021
655 Clouds 28 1016 54 10000 6.69 20 18:19 05.04.2021
656 Clouds 27 1016 65 10000 6.69 40 17:47 05.04.2021
657 Clouds 27 1016 65 10000 6.69 40 17:21 05.04.2021
658 Clouds 26 1017 65 10000 6.69 50 16:45 05.04.2021
659 Clouds 25 1017 65 10000 6.69 50 16:22 05.04.2021
660 Clouds 25 1017 68 10000 5.14 50 15:56 05.04.2021
661 Clouds 24 1017 83 10000 5.66 50 15:32 05.04.2021
662 Clouds 22 1017 83 10000 5.66 50 14:58 05.04.2021
663 Clouds 22 1017 83 10000 5.66 50 14:36 05.04.2021
664 Clouds 21 1017 83 10000 5.66 50 13:46 05.04.2021
665 Clouds 20 1017 83 10000 5.66 50 13:26 05.04.2021
666 Clouds 19 1017 88 10000 5.66 50 12:46 05.04.2021
667 Clouds 19 1017 88 10000 5.66 50 12:24 05.04.2021
668 Clear 19 1016 88 10000 3.6 40 11:46 05.04.2021
669 Clear 20 1016 88 10000 3.6 40 11:28 05.04.2021
670 Clear 20 1016 88 10000 3.6 40 10:55 05.04.2021
671 Clear 20 1016 88 10000 3.6 40 10:29 05.04.2021
672 Clear 19 1016 88 10000 3.6 40 09:48 05.04.2021
673 Clear 19 1016 88 10000 3.6 40 09:26 05.04.2021
674 Clear 20 1016 83 10000 4.12 30 08:46 05.04.2021
675 Clear 20 1016 83 10000 4.12 30 08:26 05.04.2021
676 Clear 20 1016 88 10000 4.12 40 07:38 05.04.2021
677 Clear 20 1016 88 10000 4.12 40 07:18 05.04.2021
678 Clear 21 1017 78 10000 4.63 80 03:42 05.04.2021
679 Clouds 22 1016 83 10000 3.09 110 00:54 05.04.2021
680 Clouds 23 1015 83 10000 4.12 100 23:53 04.04.2021
681 Clouds 23 1015 83 10000 4.12 100 23:30 04.04.2021
682 Clouds 23 1016 73 10000 4.12 120 22:56 04.04.2021
683 Clouds 23 1016 73 10000 4.12 120 22:33 04.04.2021
684 Clouds 23 1016 68 10000 4.63 120 21:48 04.04.2021
685 Clouds 24 1016 68 10000 4.63 120 21:21 04.04.2021
686 Clouds 25 1016 61 10000 4.63 90 20:42 04.04.2021
687 Clouds 25 1016 61 10000 4.63 90 20:20 04.04.2021
688 Clouds 25 1016 61 10000 4.63 90 20:20 04.04.2021
689 Clouds 24 1017 61 10000 3.6 40 19:40 04.04.2021
690 Clouds 24 1017 61 10000 3.6 40 19:19 04.04.2021
691 Clouds 25 1018 64 10000 2.06 60 18:49 04.04.2021
692 Clouds 25 1018 64 10000 2.06 60 18:24 04.04.2021
693 Clouds 23 1019 73 10000 3.09 60 17:56 04.04.2021
694 Clouds 23 1019 73 10000 3.09 60 17:24 04.04.2021
695 Clouds 23 1019 73 10000 4.63 30 16:54 04.04.2021
696 Clouds 23 1019 73 10000 4.63 30 16:33 04.04.2021
697 Clouds 21 1020 78 10000 4.63 30 15:46 04.04.2021
698 Clouds 22 1020 78 10000 4.63 30 15:28 04.04.2021
699 Clouds 19 1020 88 10000 3.6 60 14:38 04.04.2021
700 Clouds 19 1020 88 10000 3.6 60 14:19 04.04.2021
701 Clouds 18 1020 88 10000 2.06 70 13:26 04.04.2021
702 Clouds 17 1019 94 10000 2.57 80 12:51 04.04.2021
703 Clouds 17 1019 94 10000 2.57 80 12:27 04.04.2021
704 Clear 18 1019 88 10000 2.57 80 11:49 04.04.2021
705 Clear 18 1019 88 10000 2.57 80 11:30 04.04.2021
706 Clear 18 1019 88 10000 1.54 80 10:46 04.04.2021
707 Clear 17 1019 88 10000 1.54 80 10:20 04.04.2021
708 Clear 17 1019 88 10000 2.06 100 09:37 04.04.2021
709 Clear 17 1019 88 10000 2.06 100 09:18 04.04.2021
710 Clear 17 1019 88 10000 1.03 100 08:42 04.04.2021
711 Clear 17 1019 88 10000 1.03 100 08:24 04.04.2021
712 Clear 18 1020 82 10000 2.06 80 06:39 04.04.2021
713 Clear 18 1020 82 10000 2.57 80 05:43 04.04.2021
714 Clear 20 1019 73 10000 5.14 100 01:49 04.04.2021
715 Clear 20 1019 77 10000 4.63 110 00:47 04.04.2021
716 Clear 21 1019 77 10000 4.63 110 00:18 04.04.2021
717 Clouds 22 1019 73 10000 6.17 110 23:39 03.04.2021
718 Clouds 23 1019 73 10000 6.17 110 22:56 03.04.2021
719 Clouds 24 1019 64 10000 5.66 110 22:25 03.04.2021
720 Clouds 24 1019 64 10000 5.14 100 21:59 03.04.2021
721 Clouds 24 1019 64 10000 5.14 100 21:39 03.04.2021
722 Clouds 24 1019 64 10000 5.14 100 21:20 03.04.2021
723 Clouds 24 1019 68 10000 5.14 110 20:38 03.04.2021
724 Clouds 24 1019 68 10000 5.14 110 20:18 03.04.2021
725 Clouds 25 1020 53 10000 3.6 80 19:43 03.04.2021
726 Clouds 24 1020 53 10000 3.6 80 19:18 03.04.2021
727 Clouds 24 1021 57 10000 4.12 60 18:44 03.04.2021
728 Clouds 24 1021 57 10000 4.12 60 18:18 03.04.2021
729 Clouds 24 1021 60 10000 5.14 20 17:39 03.04.2021
730 Clouds 24 1021 60 10000 5.14 20 17:20 03.04.2021
731 Clouds 22 1021 68 10000 4.63 60 16:43 03.04.2021
732 Clouds 22 1021 68 10000 4.63 60 16:21 03.04.2021
733 Clear 20 1022 77 10000 4.12 80 15:42 03.04.2021
734 Clear 20 1022 77 10000 4.12 80 15:19 03.04.2021
735 Clear 20 1021 82 10000 3.6 90 14:42 03.04.2021
736 Clear 19 1021 82 10000 3.6 90 14:20 03.04.2021
737 Clear 18 1021 88 10000 4.63 80 13:46 03.04.2021
738 Clear 17 1021 88 10000 4.63 80 13:21 03.04.2021
739 Clear 15 1021 94 10000 4.12 90 12:47 03.04.2021
740 Clear 15 1021 94 10000 4.12 90 12:20 03.04.2021
741 Clear 15 1021 88 10000 2.06 70 11:35 03.04.2021
742 Clear 15 1020 88 10000 2.57 70 10:50 03.04.2021
743 Clear 15 1020 88 10000 2.57 70 10:31 03.04.2021
744 Clear 15 1020 88 10000 1.54 40 09:51 03.04.2021
745 Clear 16 1020 88 10000 1.54 40 09:28 03.04.2021
746 Clear 16 1020 88 10000 1.54 90 08:47 03.04.2021
747 Clear 16 1020 88 10000 1.54 90 08:28 03.04.2021
748 Clear 15 1021 94 10000 4.8 48 07:28 03.04.2021
749 Clear 17 1021 77 10000 3.09 90 05:50 03.04.2021
750 Clear 19 1021 72 10000 4.12 90 03:50 03.04.2021
751 Clear 19 1020 72 10000 3.09 90 02:49 03.04.2021
752 Clear 19 1020 72 10000 3.09 90 02:23 03.04.2021
753 Clouds 21 1019 68 10000 5.14 110 00:20 03.04.2021
754 Clouds 22 1019 68 10000 4.63 120 23:48 02.04.2021
755 Clouds 22 1019 68 10000 4.63 120 23:24 02.04.2021
756 Clouds 23 1019 64 10000 7.2 110 22:52 02.04.2021
757 Clouds 23 1019 64 10000 7.2 110 22:33 02.04.2021
758 Clouds 23 1019 60 10000 5.14 130 21:46 02.04.2021
759 Clouds 23 1019 60 10000 5.14 130 21:23 02.04.2021
760 Clouds 23 1020 64 10000 5.66 120 20:48 02.04.2021
761 Clouds 23 1020 64 10000 5.66 120 20:28 02.04.2021
762 Clouds 23 1020 64 10000 5.66 120 19:57 02.04.2021
763 Clouds 24 1020 57 10000 5.14 120 19:38 02.04.2021
764 Clouds 24 1020 57 10000 5.14 120 19:20 02.04.2021
765 Clouds 23 1021 56 10000 4.63 70 18:38 02.04.2021
766 Clouds 23 1021 56 10000 4.63 70 18:20 02.04.2021
767 Clouds 22 1021 68 10000 2.57 100 17:37 02.04.2021
768 Clouds 22 1022 68 10000 4.12 70 16:48 02.04.2021
769 Clouds 22 1022 68 10000 4.12 70 16:22 02.04.2021
770 Clouds 21 1022 73 10000 3.6 90 15:33 02.04.2021
771 Clouds 19 1022 77 10000 3.09 80 14:55 02.04.2021
772 Clouds 19 1022 77 10000 3.09 80 14:29 02.04.2021
773 Clouds 15 1022 88 10000 3.09 100 13:42 02.04.2021
774 Clouds 15 1022 88 10000 3.09 100 13:20 02.04.2021
775 Clouds 15 1021 94 10000 3.09 100 12:41 02.04.2021
776 Clouds 14 1021 94 10000 3.09 100 12:20 02.04.2021
777 Clear 14 1021 88 10000 1.03 320 11:56 02.04.2021
778 Clear 14 1021 88 10000 1.03 320 11:21 02.04.2021
779 Clear 15 1020 88 10000 2.06 110 10:50 02.04.2021
780 Clear 16 1020 88 10000 2.06 110 10:29 02.04.2021
781 Clear 15 1020 82 10000 2.57 100 09:53 02.04.2021
782 Clear 15 1020 82 10000 2.57 100 09:53 02.04.2021
783 Clear 16 1020 82 10000 2.57 100 09:27 02.04.2021
784 Clear 16 1020 82 10000 2.57 80 08:54 02.04.2021
785 Clear 16 1020 82 10000 2.57 80 08:30 02.04.2021
786 Clear 16 1020 82 10000 2.57 80 07:31 02.04.2021
787 Clear 17 1020 77 10000 1.54 60 06:52 02.04.2021
788 Clear 18 1020 72 10000 3.6 80 05:28 02.04.2021
789 Clear 19 1019 64 10000 5.14 100 02:45 02.04.2021
790 Clouds 20 1019 68 10000 5.14 120 00:52 02.04.2021
791 Clouds 20 1019 68 10000 5.14 120 00:22 02.04.2021
792 Clouds 20 1019 68 10000 5.14 120 00:22 02.04.2021
793 Clouds 21 1018 64 10000 6.17 120 23:39 01.04.2021
794 Clouds 22 1018 60 10000 5.14 120 22:59 01.04.2021
795 Clouds 22 1018 60 10000 5.14 120 22:20 01.04.2021
796 Clouds 22 1018 60 10000 5.66 100 21:50 01.04.2021
797 Clouds 22 1018 60 10000 5.66 100 21:28 01.04.2021
798 Clouds 21 1018 64 10000 7.2 120 20:49 01.04.2021
799 Clouds 21 1018 64 10000 7.2 120 20:26 01.04.2021
800 Clouds 21 1019 64 10000 4.12 110 19:56 01.04.2021
801 Clouds 21 1019 64 10000 4.12 110 19:35 01.04.2021
802 Clouds 22 1020 64 10000 4.12 120 18:46 01.04.2021
803 Clouds 22 1020 64 10000 4.12 120 18:19 01.04.2021
804 Clouds 22 1020 60 10000 2.57 60 17:53 01.04.2021
805 Clouds 22 1020 60 10000 2.57 60 17:33 01.04.2021
806 Clouds 22 1020 68 10000 2.06 150 16:53 01.04.2021
807 Clouds 22 1020 68 10000 2.06 150 16:31 01.04.2021
808 Clouds 20 1020 77 10000 1.54 0 15:48 01.04.2021
809 Clouds 20 1020 77 10000 1.54 0 15:20 01.04.2021
810 Clouds 18 1020 77 10000 1.03 0 14:46 01.04.2021
811 Clouds 18 1020 77 10000 1.03 0 14:26 01.04.2021
812 Clouds 16 1019 82 10000 1.03 0 13:56 01.04.2021
813 Clouds 16 1019 82 10000 1.03 0 13:31 01.04.2021
814 Clouds 16 1019 82 10000 1.03 0 12:54 01.04.2021
815 Clouds 16 1019 82 10000 1.03 0 12:33 01.04.2021
816 Clouds 16 1019 82 10000 2.37 78 11:55 01.04.2021
817 Clouds 15 1018 88 10000 2.06 230 11:37 01.04.2021
818 Clouds 15 1018 88 10000 2.06 230 11:18 01.04.2021
819 Clouds 15 1018 82 10000 2.33 81 10:42 01.04.2021
820 Clouds 16 1018 82 10000 2.76 80 10:22 01.04.2021
821 Clouds 15 1018 88 10000 0.51 10 09:31 01.04.2021
822 Clouds 16 1018 82 10000 0.51 310 08:42 01.04.2021
823 Clouds 16 1018 82 10000 0.51 310 08:24 01.04.2021
824 Clouds 16 1018 82 10000 2.57 60 07:21 01.04.2021
825 Clouds 16 1018 72 10000 1.54 40 06:54 01.04.2021
826 Clouds 17 1018 68 10000 3.6 110 05:32 01.04.2021
827 Clouds 19 1018 72 10000 5.14 130 02:58 01.04.2021
828 Clouds 20 1018 73 10000 5.66 130 23:52 31.03.2021
829 Clouds 20 1018 73 10000 5.66 130 23:34 31.03.2021
830 Clouds 21 1017 68 10000 5.66 140 22:43 31.03.2021
831 Clouds 21 1017 68 10000 5.66 140 22:22 31.03.2021
832 Clouds 21 1018 64 10000 5.14 130 21:54 31.03.2021
833 Clouds 21 1018 64 10000 5.14 130 21:36 31.03.2021
834 Clouds 21 1018 64 10000 5.14 130 21:18 31.03.2021
835 Clouds 22 1018 60 10000 5.66 160 20:40 31.03.2021
836 Clouds 22 1018 60 10000 5.66 160 20:20 31.03.2021
837 Clouds 23 1019 53 10000 5.14 130 19:42 31.03.2021
838 Clouds 23 1019 53 10000 5.14 130 19:20 31.03.2021
839 Clouds 22 1019 56 10000 3.09 150 18:54 31.03.2021
840 Clouds 22 1019 56 10000 3.09 150 18:35 31.03.2021
841 Clouds 22 1020 56 10000 5.14 110 17:41 31.03.2021
842 Clouds 22 1020 56 10000 5.14 110 17:19 31.03.2021
843 Clouds 21 1019 64 10000 4.63 90 16:53 31.03.2021
844 Clouds 21 1019 64 10000 4.63 90 16:34 31.03.2021
845 Clouds 21 1020 77 10000 1.54 270 15:53 31.03.2021
846 Clouds 20 1020 77 10000 1.54 270 15:22 31.03.2021
847 Clouds 18 1019 82 10000 1.03 0 14:50 31.03.2021
848 Clouds 18 1019 82 10000 1.03 0 14:25 31.03.2021
849 Clouds 15 1019 88 10000 0.6 86 13:55 31.03.2021
850 Clouds 15 1019 88 10000 0.95 70 13:24 31.03.2021
851 Clouds 14 1019 100 10000 1.54 270 12:41 31.03.2021
852 Clouds 14 1019 100 10000 1.54 270 12:18 31.03.2021
853 Clouds 14 1018 94 10000 1.54 310 11:23 31.03.2021
854 Clouds 14 1018 82 10000 2.06 340 10:51 31.03.2021
855 Clouds 14 1018 82 10000 2.06 340 10:28 31.03.2021
856 Clear 16 1017 59 10000 2.46 90 09:57 31.03.2021
857 Clear 16 1017 59 10000 2.46 90 09:33 31.03.2021
858 Clouds 16 1018 59 10000 3.09 120 08:48 31.03.2021
859 Clouds 17 1018 59 10000 3.09 120 08:27 31.03.2021
860 Clouds 17 1018 63 10000 4.12 130 07:37 31.03.2021
861 Clouds 18 1018 63 10000 3.6 120 05:52 31.03.2021
862 Clouds 18 1018 72 10000 4.12 150 02:42 31.03.2021
863 Clouds 19 1018 72 10000 2.06 130 00:54 31.03.2021
864 Clouds 19 1018 72 10000 2.06 130 00:26 31.03.2021
865 Clouds 20 1018 64 10000 2.06 140 23:57 30.03.2021
866 Clouds 21 1018 64 10000 2.06 140 23:25 30.03.2021
867 Clouds 22 1018 56 10000 5.14 140 22:50 30.03.2021
868 Clouds 22 1018 56 10000 5.14 140 22:31 30.03.2021
869 Clouds 22 1018 56 10000 5.14 150 21:59 30.03.2021
870 Clouds 22 1018 56 10000 5.14 150 21:31 30.03.2021
871 Clouds 22 1018 56 10000 5.14 150 20:59 30.03.2021
872 Clouds 22 1018 60 10000 4.12 120 20:40 30.03.2021
873 Clouds 22 1018 60 10000 4.12 120 20:20 30.03.2021
874 Clouds 22 1018 60 10000 6.17 120 19:43 30.03.2021
875 Clouds 22 1018 60 10000 6.17 120 19:18 30.03.2021
876 Clouds 22 1018 64 10000 4.12 150 18:33 30.03.2021
877 Clouds 22 1018 64 10000 5.14 170 17:49 30.03.2021
878 Clouds 22 1018 64 10000 5.14 170 17:31 30.03.2021
879 Clouds 21 1018 68 10000 4.63 170 16:47 30.03.2021
880 Clouds 21 1018 68 10000 4.63 170 16:28 30.03.2021
881 Clouds 21 1018 64 10000 5.14 160 15:39 30.03.2021
882 Clouds 21 1018 64 10000 5.14 160 15:19 30.03.2021
883 Clouds 20 1018 82 10000 4.12 150 14:45 30.03.2021
884 Clouds 20 1018 82 10000 4.12 150 14:45 30.03.2021
885 Clouds 20 1018 82 10000 4.12 150 14:21 30.03.2021
886 Clouds 20 1017 82 10000 4.12 180 13:49 30.03.2021
887 Clouds 20 1017 82 10000 4.12 180 13:29 30.03.2021
888 Clouds 19 1017 88 10000 2.06 180 12:42 30.03.2021
889 Clouds 18 1017 88 10000 2.06 180 12:22 30.03.2021
890 Clouds 19 1016 82 10000 4.12 180 11:47 30.03.2021
891 Clouds 19 1016 82 10000 4.12 180 11:20 30.03.2021
892 Clouds 19 1016 82 10000 4.63 170 10:42 30.03.2021
893 Clouds 19 1016 82 10000 4.63 170 10:19 30.03.2021
894 Clouds 19 1016 82 10000 3.6 170 09:43 30.03.2021
895 Clouds 19 1016 82 10000 3.6 170 09:23 30.03.2021
896 Clouds 19 1016 82 10000 4.12 180 08:44 30.03.2021
897 Clouds 19 1016 82 10000 4.12 180 08:21 30.03.2021
898 Clouds 19 1016 82 10000 5.14 190 07:42 30.03.2021
899 Clouds 19 1016 82 10000 4.63 180 06:53 30.03.2021
900 Clouds 19 1016 82 10000 5.66 170 05:25 30.03.2021
901 Clouds 20 1014 94 10000 4.63 180 01:57 30.03.2021
902 Clouds 20 1015 94 10000 6.17 180 23:56 29.03.2021
903 Clouds 21 1014 88 10000 8.23 160 23:27 29.03.2021
904 Clouds 22 1014 83 10000 5.14 190 22:43 29.03.2021
905 Clouds 22 1014 83 10000 7.2 190 21:58 29.03.2021
906 Clouds 22 1014 83 10000 7.2 190 21:37 29.03.2021
907 Clouds 22 1014 83 10000 7.2 190 20:57 29.03.2021
908 Clouds 23 1014 78 10000 7.72 190 20:37 29.03.2021
909 Clouds 23 1014 78 10000 7.72 190 19:56 29.03.2021
910 Clouds 23 1014 73 10000 8.23 200 19:32 29.03.2021
911 Clouds 22 1014 78 10000 8.23 190 18:57 29.03.2021
912 Clouds 22 1014 78 10000 8.23 190 18:38 29.03.2021
913 Clouds 21 1014 88 4000 5.14 190 18:19 29.03.2021
914 Clouds 22 1014 78 4000 8.23 190 17:37 29.03.2021
915 Clouds 22 1014 73 10000 5.14 190 16:55 29.03.2021
916 Clouds 22 1014 73 10000 5.14 190 16:34 29.03.2021
917 Clouds 22 1014 83 10000 6.69 200 15:47 29.03.2021
918 Clouds 22 1014 83 10000 6.69 200 15:28 29.03.2021
919 Clouds 21 1013 88 10000 3.09 200 14:49 29.03.2021
920 Clouds 21 1013 88 10000 3.09 200 14:28 29.03.2021
921 Clouds 19 1013 100 10000 3.09 210 13:47 29.03.2021
922 Clouds 19 1013 100 10000 3.09 210 13:22 29.03.2021
923 Clouds 18 1013 100 3000 5.14 200 12:49 29.03.2021
924 Clouds 18 1011 94 10000 5.02 191 11:49 29.03.2021
925 Clouds 18 1011 94 10000 5.02 191 11:30 29.03.2021
926 Drizzle 18 1011 94 8000 4.93 194 10:55 29.03.2021
927 Drizzle 18 1011 94 8000 4.93 194 10:34 29.03.2021
928 Mist 18 1011 94 3000 4.6 203 09:37 29.03.2021
929 Clouds 18 1011 94 8000 2.06 340 08:52 29.03.2021
930 Clouds 18 1011 94 8000 2.06 340 08:28 29.03.2021
931 Rain 18 1011 94 3000 2.57 270 07:28 29.03.2021
932 Rain 18 1011 94 8000 3.41 199 06:27 29.03.2021
933 Rain 18 1012 88 10000 3.43 260 03:51 29.03.2021
934 Clouds 19 1012 83 10000 1.95 234 01:43 29.03.2021
935 Clouds 20 1012 83 10000 1.54 230 00:22 29.03.2021
936 Clouds 21 1011 78 10000 4.12 220 23:42 28.03.2021
937 Clouds 22 1011 78 10000 4.12 220 23:19 28.03.2021
938 Clouds 23 1011 64 10000 4.12 220 22:39 28.03.2021
939 Clouds 23 1011 64 10000 4.12 220 22:20 28.03.2021
940 Clouds 23 1011 64 10000 4.12 200 21:41 28.03.2021
941 Clouds 23 1011 64 10000 4.12 200 21:22 28.03.2021
942 Clouds 22 1012 73 10000 4.63 200 20:48 28.03.2021
943 Clouds 22 1012 73 10000 4.63 200 20:29 28.03.2021
944 Clouds 23 1011 73 10000 5.14 200 19:44 28.03.2021
945 Clouds 23 1011 73 10000 5.14 200 19:23 28.03.2021
946 Clouds 24 1011 57 10000 4.12 360 18:58 28.03.2021
947 Clouds 24 1011 57 10000 4.12 360 18:27 28.03.2021
948 Clouds 23 1012 68 10000 3.09 340 17:47 28.03.2021
949 Clouds 23 1012 68 10000 3.09 340 17:27 28.03.2021
950 Clouds 22 1012 78 10000 1.54 290 16:46 28.03.2021
951 Clouds 22 1012 78 10000 1.54 290 16:23 28.03.2021
952 Clouds 20 1012 82 10000 3.09 360 15:27 28.03.2021
953 Clouds 18 1012 94 10000 1.54 360 14:57 28.03.2021
954 Clouds 18 1012 94 10000 1.54 360 14:31 28.03.2021
955 Clouds 17 1012 94 10000 1.03 0 13:46 28.03.2021
956 Clouds 16 1012 94 10000 1.03 0 13:21 28.03.2021
957 Clouds 15 1012 100 10000 1.54 360 12:50 28.03.2021
958 Clouds 15 1012 100 10000 1.54 360 12:32 28.03.2021
959 Clouds 16 1011 94 10000 2.06 330 11:45 28.03.2021
960 Clouds 16 1011 94 10000 2.06 330 11:25 28.03.2021
961 Clouds 17 1011 94 10000 1.54 360 10:44 28.03.2021
962 Clouds 17 1011 94 10000 1.54 360 10:25 28.03.2021
963 Rain 17 1011 94 10000 1.54 250 09:47 28.03.2021
964 Rain 17 1011 94 10000 1.54 250 09:24 28.03.2021
965 Rain 18 1011 88 10000 2.57 340 08:46 28.03.2021
966 Clouds 18 1011 88 10000 2.57 340 07:50 28.03.2021
967 Clouds 18 1011 94 10000 2.06 320 06:40 28.03.2021
968 Clouds 19 1012 88 10000 2.06 300 04:18 28.03.2021
969 Clouds 20 1012 83 10000 2.06 10 01:22 28.03.2021
970 Clouds 21 1011 83 10000 3.09 280 00:20 28.03.2021
971 Clouds 21 1011 88 10000 5.14 270 23:43 27.03.2021
972 Clouds 22 1011 88 10000 5.14 270 22:58 27.03.2021
973 Clouds 22 1011 83 10000 4.12 270 22:36 27.03.2021
974 Clouds 24 1010 73 10000 3.6 10 21:58 27.03.2021
975 Clouds 24 1010 73 10000 3.6 10 21:37 27.03.2021
976 Clouds 24 1010 73 10000 3.6 10 21:19 27.03.2021
977 Clouds 24 1010 73 10000 5.14 330 20:38 27.03.2021
978 Clouds 24 1010 73 10000 5.14 330 20:20 27.03.2021
979 Rain 24 1010 78 10000 4.63 360 19:42 27.03.2021
980 Rain 24 1010 78 10000 4.63 360 19:23 27.03.2021
981 Clouds 24 1010 78 10000 4.12 360 18:49 27.03.2021
982 Clouds 24 1010 78 10000 4.12 360 18:28 27.03.2021
983 Clouds 24 1010 78 10000 4.12 360 17:54 27.03.2021
984 Mist 22 1011 83 5000 4.12 30 17:24 27.03.2021
985 Mist 22 1011 94 5000 3.09 60 16:49 27.03.2021
986 Mist 22 1011 94 5000 3.09 60 16:29 27.03.2021
987 Drizzle 20 1011 100 5000 4.12 40 15:50 27.03.2021
988 Drizzle 20 1011 100 5000 4.12 40 15:24 27.03.2021
989 Mist 19 1011 100 3000 3.6 40 14:49 27.03.2021
990 Fog 19 1010 100 1000 3.6 30 13:51 27.03.2021
991 Fog 19 1010 100 1000 3.6 30 13:26 27.03.2021
992 Fog 19 1010 100 800 4.63 10 12:55 27.03.2021
993 Fog 19 1010 100 800 4.63 10 12:24 27.03.2021
994 Mist 19 1010 94 5000 1.54 10 11:42 27.03.2021
995 Mist 19 1010 94 3000 2.57 360 11:20 27.03.2021
996 Mist 19 1009 100 5000 2.57 350 10:45 27.03.2021
997 Mist 19 1009 100 5000 2.57 350 10:23 27.03.2021
998 Mist 19 1009 100 2000 1.54 10 09:28 27.03.2021
999 Fog 19 1009 100 200 1.03 40 08:43 27.03.2021
1000 Fog 19 1009 100 200 1.03 40 08:21 27.03.2021
1001 Fog 19 1009 100 500 1.54 40 07:34 27.03.2021
1002 Fog 20 1009 94 100 2.57 10 06:47 27.03.2021
1003 Fog 20 1009 94 100 2.57 10 06:27 27.03.2021
1004 Fog 21 1009 94 10000 1.03 30 04:39 27.03.2021
1005 Clouds 21 1009 94 10000 4.12 120 00:54 27.03.2021
1006 Clouds 22 1009 94 10000 4.12 120 00:29 27.03.2021
1007 Clouds 22 1008 94 10000 2.57 110 23:54 26.03.2021
1008 Clouds 22 1008 94 10000 2.57 110 23:54 26.03.2021
1009 Clouds 22 1008 94 10000 2.57 110 23:19 26.03.2021
1010 Clouds 22 1008 94 10000 3.09 100 22:35 26.03.2021
1011 Clouds 22 1008 94 10000 3.6 90 21:36 26.03.2021
1012 Clouds 22 1008 94 10000 3.6 90 21:18 26.03.2021
1013 Rain 23 1008 94 10000 2.06 160 20:38 26.03.2021
1014 Clouds 22 1008 94 6000 3.09 170 20:19 26.03.2021
1015 Clouds 24 1008 78 4000 2.57 110 19:47 26.03.2021
1016 Rain 25 1008 78 4000 2.57 110 19:28 26.03.2021
1017 Clouds 24 1009 83 10000 3.09 130 18:42 26.03.2021
1018 Clouds 25 1009 83 10000 3.09 130 18:20 26.03.2021
1019 Clouds 25 1009 78 10000 4.12 110 17:46 26.03.2021
1020 Clouds 25 1009 78 10000 4.12 110 16:56 26.03.2021
1021 Rain 25 1010 83 10000 3.09 100 16:33 26.03.2021
1022 Clouds 24 1010 88 10000 3.6 120 15:53 26.03.2021
1023 Rain 24 1010 88 10000 3.6 120 15:23 26.03.2021
1024 Clouds 23 1010 94 8000 2.57 110 14:31 26.03.2021
1025 Rain 23 1010 94 10000 2.57 110 13:38 26.03.2021
1026 Rain 21 1010 94 8000 1.54 120 12:56 26.03.2021
1027 Rain 21 1010 94 8000 1.54 120 12:33 26.03.2021
1028 Clouds 21 1010 100 7000 1.54 120 11:35 26.03.2021
1029 Clouds 21 1009 94 10000 2.06 170 10:58 26.03.2021
1030 Clouds 21 1009 94 10000 2.06 170 10:39 26.03.2021
1031 Clouds 20 1009 88 10000 0.85 242 09:54 26.03.2021
1032 Clouds 20 1009 88 10000 0.85 242 09:35 26.03.2021
1033 Clouds 20 1009 88 10000 2.06 130 08:44 26.03.2021
1034 Clouds 21 1009 88 10000 2.06 130 08:23 26.03.2021
1035 Clear 20 1010 88 10000 2.06 200 07:40 26.03.2021
1036 Clear 20 1010 88 10000 2.06 200 07:18 26.03.2021
1037 Clear 20 1011 94 10000 1.46 339 06:53 26.03.2021
1038 Clear 20 1011 88 10000 1.54 80 05:31 26.03.2021
1039 Rain 19 1012 83 10000 2.57 50 02:31 26.03.2021
1040 Clouds 19 1012 88 10000 3.09 40 00:32 26.03.2021
1041 Rain 19 1012 94 10000 3.6 50 23:45 25.03.2021
1042 Rain 19 1012 94 10000 3.6 50 23:21 25.03.2021
1043 Rain 19 1011 94 10000 3.6 100 22:37 25.03.2021
1044 Rain 19 1012 94 10000 4.63 350 21:53 25.03.2021
1045 Rain 19 1012 94 10000 4.63 350 21:35 25.03.2021
1046 Rain 19 1011 94 10000 6.69 40 20:47 25.03.2021
1047 Rain 19 1011 94 10000 6.69 40 20:27 25.03.2021
1048 Clouds 18 1013 100 8000 5.66 90 19:50 25.03.2021
1049 Rain 18 1013 100 8000 5.66 90 19:32 25.03.2021
1050 Rain 18 1013 100 8000 5.66 90 19:32 25.03.2021
1051 Rain 19 1014 94 6000 7.2 90 18:58 25.03.2021
1052 Rain 19 1014 94 6000 7.2 90 18:39 25.03.2021
1053 Rain 19 1014 94 6000 7.2 90 18:18 25.03.2021
1054 Rain 19 1015 94 5000 6.69 40 17:37 25.03.2021
1055 Rain 19 1016 94 4000 5.66 40 16:57 25.03.2021
1056 Rain 19 1016 94 4000 5.66 40 16:34 25.03.2021
1057 Rain 19 1016 100 5000 5.66 40 15:49 25.03.2021
1058 Rain 19 1016 100 5000 5.66 40 15:26 25.03.2021
1059 Rain 19 1014 100 5000 7.2 50 14:50 25.03.2021
1060 Rain 19 1014 100 5000 7.2 50 14:30 25.03.2021
1061 Rain 19 1015 100 4000 6.17 60 13:28 25.03.2021
1062 Rain 19 1016 100 4000 1.54 0 12:46 25.03.2021
1063 Rain 19 1016 100 4000 1.54 0 12:22 25.03.2021
1064 Rain 20 1015 94 4000 1.54 0 11:58 25.03.2021
1065 Rain 20 1015 94 4000 1.54 0 11:40 25.03.2021
1066 Rain 20 1015 94 4000 1.54 0 11:21 25.03.2021
1067 Rain 20 1014 94 7000 5.66 60 10:48 25.03.2021
1068 Rain 20 1014 94 7000 5.66 60 10:21 25.03.2021
1069 Rain 20 1014 94 7000 3.6 60 09:47 25.03.2021
1070 Rain 20 1014 94 7000 3.6 60 09:29 25.03.2021
1071 Rain 20 1015 88 5000 2.57 60 08:36 25.03.2021
1072 Rain 20 1015 83 9000 4.63 60 07:43 25.03.2021
1073 Rain 21 1015 78 10000 5.14 60 06:48 25.03.2021
1074 Rain 21 1015 78 10000 5.14 60 06:24 25.03.2021
1075 Clear 22 1016 68 10000 5.14 60 04:52 25.03.2021
1076 Clear 23 1016 68 10000 3.09 90 02:28 25.03.2021
1077 Clear 23 1016 68 10000 2.06 70 00:20 25.03.2021
1078 Clear 24 1015 69 10000 3.6 80 23:42 24.03.2021
1079 Rain 24 1015 69 10000 3.6 80 23:23 24.03.2021
1080 Clouds 25 1015 65 10000 4.63 100 22:40 24.03.2021
1081 Clouds 27 1015 44 10000 4.12 60 21:59 24.03.2021
1082 Clouds 27 1015 44 10000 4.12 60 21:39 24.03.2021
1083 Clouds 27 1015 44 10000 4.12 60 21:19 24.03.2021
1084 Clouds 27 1016 44 10000 4.12 50 20:41 24.03.2021
1085 Clouds 27 1016 44 10000 4.12 50 20:19 24.03.2021
1086 Clouds 27 1016 44 10000 5.66 30 19:34 24.03.2021
1087 Clouds 28 1017 36 10000 4.63 50 18:56 24.03.2021
1088 Clouds 28 1017 36 10000 4.63 50 18:38 24.03.2021
1089 Clouds 28 1017 36 10000 4.63 50 18:19 24.03.2021
1090 Clouds 27 1018 50 10000 6.69 10 17:34 24.03.2021
1091 Clear 26 1018 47 10000 5.66 20 16:59 24.03.2021
1092 Clear 26 1018 47 10000 5.66 20 16:41 24.03.2021
1093 Clear 26 1018 47 10000 5.66 20 16:20 24.03.2021
1094 Clear 25 1018 50 10000 6.17 10 15:41 24.03.2021
1095 Clear 25 1018 50 10000 6.17 10 15:21 24.03.2021
1096 Clear 22 1018 73 10000 5.14 30 14:41 24.03.2021
1097 Clear 22 1018 73 10000 5.14 30 14:21 24.03.2021
1098 Clear 22 1018 83 10000 5.66 30 13:44 24.03.2021
1099 Clear 20 1018 83 10000 5.66 30 13:24 24.03.2021
1100 Clear 18 1018 94 10000 5.14 30 12:40 24.03.2021
1101 Clear 18 1018 94 10000 5.14 30 12:20 24.03.2021
1102 Clear 17 1018 94 10000 4.12 30 11:41 24.03.2021
1103 Clear 17 1017 88 10000 3.09 20 10:49 24.03.2021
1104 Clear 17 1017 88 10000 3.09 20 10:31 24.03.2021
1105 Clear 17 1016 88 10000 3.09 20 09:55 24.03.2021
1106 Clear 17 1016 88 10000 3.09 20 09:33 24.03.2021
1107 Clear 17 1016 88 10000 3.09 20 08:58 24.03.2021
1108 Clear 18 1017 94 10000 3.09 20 08:39 24.03.2021
1109 Clear 18 1017 88 10000 3.09 30 07:50 24.03.2021
1110 Clear 18 1017 88 10000 3.09 30 07:19 24.03.2021
1111 Clear 18 1017 88 10000 3.6 40 06:45 24.03.2021
1112 Clear 20 1017 77 10000 3.6 80 02:41 24.03.2021
1113 Clear 20 1016 83 10000 3.6 110 00:42 24.03.2021
1114 Clouds 21 1016 83 10000 5.14 110 23:52 23.03.2021
1115 Clouds 21 1016 83 10000 5.14 110 23:20 23.03.2021
1116 Clouds 22 1016 73 10000 4.12 140 22:50 23.03.2021
1117 Clouds 23 1016 73 10000 4.12 140 22:25 23.03.2021
1118 Clouds 23 1016 73 10000 4.12 160 21:46 23.03.2021
1119 Clouds 23 1016 73 10000 4.12 160 21:27 23.03.2021
1120 Clouds 24 1016 69 10000 4.63 170 20:47 23.03.2021
1121 Clouds 24 1016 69 10000 4.63 170 20:25 23.03.2021
1122 Clouds 24 1016 73 10000 5.14 150 19:48 23.03.2021
1123 Clouds 24 1016 73 10000 5.14 150 19:26 23.03.2021
1124 Clouds 24 1016 69 10000 2.57 160 18:47 23.03.2021
1125 Clouds 24 1016 69 10000 2.57 160 18:23 23.03.2021
1126 Clouds 25 1017 65 10000 0.51 0 17:49 23.03.2021
1127 Clouds 25 1017 65 10000 0.51 0 17:23 23.03.2021
1128 Clouds 24 1018 68 10000 2.57 220 16:57 23.03.2021
1129 Clouds 23 1018 68 10000 2.57 220 16:25 23.03.2021
1130 Clouds 23 1018 83 10000 1.54 0 15:47 23.03.2021
1131 Clouds 21 1018 83 10000 1.54 0 15:21 23.03.2021
1132 Clouds 22 1019 78 10000 1.03 0 14:40 23.03.2021
1133 Clouds 21 1019 78 10000 1.03 0 14:18 23.03.2021
1134 Clear 20 1019 77 10000 1.54 0 13:43 23.03.2021
1135 Clear 20 1019 77 10000 1.54 0 13:21 23.03.2021
1136 Clear 18 1018 88 10000 1.54 0 12:43 23.03.2021
1137 Clear 18 1018 88 10000 1.54 0 12:23 23.03.2021
1138 Clear 16 1018 94 10000 1.54 0 11:47 23.03.2021
1139 Fog 16 1018 88 7000 1.97 35 10:56 23.03.2021
1140 Clear 17 1018 88 10000 1.97 35 10:38 23.03.2021
1141 Clear 17 1018 88 10000 1.84 33 10:20 23.03.2021
1142 Clear 17 1018 88 10000 1.84 33 09:42 23.03.2021
1143 Clear 17 1018 88 10000 2.06 42 09:21 23.03.2021
1144 Clear 17 1018 88 10000 2.06 42 08:40 23.03.2021
1145 Clear 17 1018 88 10000 2.28 45 08:22 23.03.2021
1146 Clear 17 1018 88 10000 2.28 45 07:48 23.03.2021
1147 Clear 17 1018 88 10000 3.49 64 07:20 23.03.2021
1148 Clear 16 1019 100 10000 3.49 64 06:33 23.03.2021
1149 Clear 19 1019 82 10000 4.12 80 03:23 23.03.2021
1150 Rain 19 1019 82 10000 3.6 90 02:21 23.03.2021
1151 Rain 20 1020 83 5000 3.09 130 23:44 22.03.2021
1152 Rain 21 1020 83 5000 3.09 130 22:56 22.03.2021
1153 Rain 21 1019 83 8000 4.63 120 22:38 22.03.2021
1154 Rain 21 1019 83 8000 4.63 120 22:20 22.03.2021
1155 Rain 22 1020 73 8000 5.66 170 21:42 22.03.2021
1156 Rain 22 1020 73 8000 5.66 170 21:23 22.03.2021
1157 Clouds 23 1019 64 10000 3.09 160 20:42 22.03.2021
1158 Clouds 24 1019 64 10000 3.09 160 20:22 22.03.2021
1159 Clouds 25 1019 50 10000 3.6 170 19:55 22.03.2021
1160 Clouds 25 1019 50 10000 3.6 170 19:37 22.03.2021
1161 Clouds 24 1019 50 10000 3.6 170 19:19 22.03.2021
1162 Clouds 25 1019 47 10000 3.6 10 18:40 22.03.2021
1163 Clouds 25 1019 47 10000 3.6 10 18:21 22.03.2021
1164 Clouds 25 1020 57 10000 2.57 180 17:44 22.03.2021
1165 Clouds 25 1020 57 10000 2.57 180 17:21 22.03.2021
1166 Clouds 24 1021 53 10000 3.6 90 16:45 22.03.2021
1167 Clouds 24 1021 53 10000 3.6 90 16:20 22.03.2021
1168 Clouds 22 1021 60 10000 2.57 80 15:38 22.03.2021
1169 Clouds 22 1021 60 10000 2.57 80 15:19 22.03.2021
1170 Clouds 22 1022 64 10000 1.03 0 14:53 22.03.2021
1171 Clouds 22 1022 64 10000 1.03 0 14:34 22.03.2021
1172 Clouds 20 1022 73 10000 1.03 0 13:48 22.03.2021
1173 Clouds 20 1022 73 10000 1.03 0 13:27 22.03.2021
1174 Clouds 19 1021 88 9000 1.82 76 12:55 22.03.2021
1175 Clouds 17 1021 88 9000 1.94 84 12:26 22.03.2021
1176 Clouds 15 1021 94 9000 1.54 350 11:49 22.03.2021
1177 Clouds 15 1021 94 9000 1.54 350 11:29 22.03.2021
1178 Clouds 15 1021 82 10000 1.54 350 10:46 22.03.2021
1179 Clouds 15 1021 82 10000 1.54 350 10:25 22.03.2021
1180 Clouds 18 1020 72 10000 2.57 140 09:49 22.03.2021
1181 Clouds 17 1020 72 10000 2.57 140 09:30 22.03.2021
1182 Clouds 18 1020 72 10000 2.57 150 08:46 22.03.2021
1183 Clouds 18 1020 72 10000 2.57 150 08:27 22.03.2021
1184 Clouds 18 1020 72 10000 2.57 150 07:50 22.03.2021
1185 Clouds 17 1020 72 10000 2.57 150 07:30 22.03.2021
1186 Clouds 18 1021 72 10000 2.57 140 06:49 22.03.2021
1187 Clouds 18 1021 72 10000 3.6 140 02:47 22.03.2021
1188 Clouds 19 1020 72 10000 4.12 160 00:44 22.03.2021
1189 Clouds 19 1020 77 10000 4.63 160 23:55 21.03.2021
1190 Clouds 19 1020 77 10000 4.63 160 23:20 21.03.2021
1191 Clouds 19 1020 77 10000 4.63 160 22:59 21.03.2021
1192 Clouds 19 1020 72 10000 6.17 170 22:38 21.03.2021
1193 Clouds 20 1020 73 10000 6.17 180 21:43 21.03.2021
1194 Clouds 21 1020 73 10000 6.17 180 21:24 21.03.2021
1195 Clouds 21 1020 73 10000 6.17 180 21:24 21.03.2021
1196 Clouds 22 1020 68 10000 6.17 170 20:55 21.03.2021
1197 Clouds 22 1020 68 10000 6.17 170 20:36 21.03.2021
1198 Clouds 22 1020 68 10000 6.17 170 20:18 21.03.2021
1199 Clouds 22 1019 68 10000 5.66 180 19:39 21.03.2021
1200 Clouds 22 1019 68 10000 5.66 180 19:19 21.03.2021
1201 Clouds 22 1019 78 10000 7.2 180 18:40 21.03.2021
1202 Clouds 22 1019 78 10000 7.2 180 18:18 21.03.2021
1203 Clouds 22 1019 64 10000 5.66 190 17:41 21.03.2021
1204 Clouds 23 1019 64 10000 5.66 190 17:18 21.03.2021
1205 Clouds 23 1019 64 10000 5.14 180 16:49 21.03.2021
1206 Clouds 23 1019 64 10000 5.14 180 16:23 21.03.2021
1207 Clouds 22 1019 73 10000 6.17 180 15:42 21.03.2021
1208 Clouds 22 1019 73 10000 6.17 180 15:21 21.03.2021
1209 Clouds 22 1018 78 10000 6.69 180 14:47 21.03.2021
1210 Clouds 22 1018 78 10000 6.69 180 14:27 21.03.2021
1211 Clouds 22 1018 73 10000 6.17 180 13:57 21.03.2021
1212 Clouds 22 1018 73 10000 6.17 180 13:39 21.03.2021
1213 Clouds 21 1017 73 10000 6.17 180 12:44 21.03.2021
1214 Clouds 20 1017 73 10000 6.17 180 12:25 21.03.2021
1215 Clouds 20 1017 73 10000 6.17 180 12:25 21.03.2021
1216 Clouds 19 1016 82 10000 5.66 170 11:41 21.03.2021
1217 Clouds 19 1016 82 10000 5.66 170 11:21 21.03.2021
1218 Clouds 19 1015 77 10000 6.69 180 10:45 21.03.2021
1219 Clouds 19 1015 77 10000 6.69 180 10:26 21.03.2021
1220 Clouds 20 1015 73 10000 6.17 190 09:49 21.03.2021
1221 Clouds 20 1015 73 10000 6.17 190 09:30 21.03.2021
1222 Clouds 20 1014 73 10000 6.69 180 08:57 21.03.2021
1223 Clouds 20 1014 73 10000 6.69 180 08:31 21.03.2021
1224 Drizzle 20 1014 77 8000 5.14 180 07:51 21.03.2021
1225 Drizzle 19 1014 77 8000 5.14 180 07:28 21.03.2021
1226 Clouds 20 1014 83 10000 6.17 190 06:21 21.03.2021
1227 Clouds 20 1014 88 10000 6.17 150 04:52 21.03.2021
1228 Mist 20 1012 94 3000 1.54 300 00:58 21.03.2021
1229 Rain 20 1012 94 3000 1.54 300 00:38 21.03.2021
1230 Rain 20 1012 94 3000 1.54 300 00:20 21.03.2021
1231 Mist 20 1010 94 1500 1.54 150 23:45 20.03.2021
1232 Rain 20 1010 94 1500 1.54 150 23:19 20.03.2021
1233 Rain 20 1010 94 4000 3.09 110 22:24 20.03.2021
1234 Rain 20 1010 94 6000 2.06 80 21:49 20.03.2021
1235 Rain 20 1010 94 6000 2.06 80 21:27 20.03.2021
1236 Rain 20 1012 100 3000 1.54 270 20:50 20.03.2021
1237 Rain 20 1012 100 3000 1.54 270 20:25 20.03.2021
1238 Rain 20 1012 100 3000 1.54 270 20:25 20.03.2021
1239 Rain 20 1013 94 3000 3.09 280 19:56 20.03.2021
1240 Rain 20 1013 94 3000 3.09 280 19:38 20.03.2021
1241 Rain 20 1013 94 3000 3.09 280 19:20 20.03.2021
1242 Rain 21 1011 83 5000 5.14 240 18:44 20.03.2021
1243 Rain 22 1012 88 3000 3.09 240 18:21 20.03.2021
1244 Rain 25 1011 69 10000 5.14 290 17:42 20.03.2021
1245 Clouds 25 1011 69 10000 5.14 290 17:22 20.03.2021
1246 Rain 24 1011 73 10000 5.14 50 16:43 20.03.2021
1247 Clouds 24 1011 73 10000 5.14 50 16:19 20.03.2021
1248 Rain 24 1012 69 10000 4.63 60 15:44 20.03.2021
1249 Clouds 23 1012 69 10000 4.63 60 15:25 20.03.2021
1250 Clouds 22 1012 73 10000 5.66 50 14:40 20.03.2021
1251 Clouds 22 1012 73 10000 5.66 50 14:19 20.03.2021
1252 Clouds 20 1013 83 10000 5.66 80 13:31 20.03.2021
1253 Clear 20 1013 77 10000 4.12 90 12:41 20.03.2021
1254 Rain 19 1013 77 10000 4.12 90 12:23 20.03.2021
1255 Rain 19 1013 77 10000 4.12 90 12:23 20.03.2021
1256 Clouds 18 1013 77 10000 3.6 80 11:43 20.03.2021
1257 Clouds 18 1013 77 10000 3.6 80 11:22 20.03.2021
1258 Clear 17 1014 82 10000 4.12 80 10:46 20.03.2021
1259 Clear 17 1014 82 10000 4.12 80 10:24 20.03.2021
1260 Clear 17 1014 77 10000 4.49 69 09:53 20.03.2021
1261 Clear 17 1014 77 10000 4.31 67 09:23 20.03.2021
1262 Rain 18 1014 72 10000 3.09 60 08:55 20.03.2021
1263 Clear 18 1014 72 10000 3.09 60 08:27 20.03.2021
1264 Clear 18 1014 72 10000 6.17 50 07:49 20.03.2021
1265 Clear 18 1014 72 10000 6.17 50 07:49 20.03.2021
1266 Clear 18 1014 72 10000 6.17 50 07:29 20.03.2021
1267 Rain 18 1014 72 10000 6.69 60 06:41 20.03.2021
1268 Rain 18 1015 72 10000 6.17 80 05:30 20.03.2021
1269 Rain 20 1015 73 10000 4.63 100 03:46 20.03.2021
1270 Clear 20 1015 68 10000 5.66 100 02:40 20.03.2021
1271 Clear 19 1015 68 10000 3.6 150 23:48 19.03.2021
1272 Clear 19 1015 68 10000 3.6 150 23:48 19.03.2021
1273 Clear 20 1015 68 10000 3.6 150 23:21 19.03.2021
1274 Clear 20 1015 64 10000 3.6 110 22:45 19.03.2021
1275 Clear 21 1015 64 10000 3.6 110 22:25 19.03.2021
1276 Clear 21 1014 60 10000 6.17 100 21:52 19.03.2021
1277 Rain 21 1014 60 10000 6.17 100 21:21 19.03.2021
1278 Rain 21 1014 56 10000 6.17 100 20:46 19.03.2021
1279 Rain 22 1014 56 10000 6.17 100 20:27 19.03.2021
1280 Rain 22 1014 56 10000 6.17 100 20:27 19.03.2021
1281 Clear 23 1015 53 10000 4.12 150 19:59 19.03.2021
1282 Clear 23 1015 53 10000 4.12 150 19:39 19.03.2021
1283 Clear 24 1015 53 10000 4.12 150 19:19 19.03.2021
1284 Clear 24 1016 46 10000 4.12 40 18:39 19.03.2021
1285 Clear 24 1016 46 10000 4.12 40 18:18 19.03.2021
1286 Clouds 23 1017 49 10000 3.6 70 17:50 19.03.2021
1287 Clouds 23 1017 49 10000 3.6 70 17:27 19.03.2021
1288 Clouds 22 1018 52 10000 5.14 30 16:51 19.03.2021
1289 Clouds 22 1018 52 10000 5.14 30 16:26 19.03.2021
1290 Clouds 21 1018 56 10000 5.14 60 15:43 19.03.2021
1291 Clouds 21 1018 56 10000 5.14 60 15:22 19.03.2021
1292 Clouds 20 1018 59 10000 5.14 40 14:42 19.03.2021
1293 Clouds 20 1018 59 10000 5.14 40 14:21 19.03.2021
1294 Clouds 19 1019 67 10000 3.09 50 13:34 19.03.2021
1295 Clouds 15 1019 88 10000 2.57 70 12:49 19.03.2021
1296 Clouds 15 1019 88 10000 2.57 70 12:30 19.03.2021
1297 Clouds 12 1018 82 10000 2.06 210 11:39 19.03.2021
1298 Clear 12 1018 82 10000 1.03 30 10:53 19.03.2021
1299 Clear 12 1018 82 10000 1.03 30 10:27 19.03.2021
1300 Clear 12 1018 82 10000 1.54 10 09:48 19.03.2021
1301 Clear 12 1018 82 10000 1.54 10 09:29 19.03.2021
1302 Clear 12 1018 82 10000 1.54 350 08:54 19.03.2021
1303 Clear 12 1018 82 10000 1.54 350 08:32 19.03.2021
1304 Clear 12 1017 82 10000 1.54 20 07:52 19.03.2021
1305 Clear 12 1017 82 10000 1.54 20 07:34 19.03.2021
1306 Clear 12 1017 82 10000 1.54 360 06:43 19.03.2021
1307 Clouds 16 1018 59 10000 1.54 160 02:45 19.03.2021
1308 Clouds 16 1018 63 10000 2.06 210 00:26 19.03.2021
1309 Clouds 16 1018 63 10000 2.06 210 23:30 18.03.2021
1310 Clouds 16 1018 63 10000 2.06 210 23:30 18.03.2021
1311 Clouds 18 1017 55 10000 2.06 210 22:58 18.03.2021
1312 Clouds 18 1017 55 10000 2.06 210 22:38 18.03.2021
1313 Clouds 19 1017 55 10000 2.06 210 22:18 18.03.2021
1314 Clouds 19 1017 55 10000 3.6 230 21:39 18.03.2021
1315 Clouds 19 1017 55 10000 3.6 230 21:39 18.03.2021
1316 Clouds 19 1017 52 10000 5.66 220 20:47 18.03.2021
1317 Clouds 20 1017 52 10000 5.66 220 20:27 18.03.2021
1318 Clouds 19 1017 55 10000 6.69 190 19:45 18.03.2021
1319 Clouds 20 1017 55 10000 6.69 190 19:25 18.03.2021
1320 Clouds 20 1018 49 10000 5.14 250 18:57 18.03.2021
1321 Clouds 20 1018 49 10000 5.14 250 18:33 18.03.2021
1322 Clouds 20 1018 52 10000 5.14 240 17:50 18.03.2021
1323 Clouds 20 1018 52 10000 5.14 240 17:25 18.03.2021
1324 Clouds 20 1018 55 10000 6.17 220 16:47 18.03.2021
1325 Clouds 20 1018 55 10000 6.17 220 16:29 18.03.2021
1326 Clouds 20 1018 55 10000 6.69 240 15:46 18.03.2021
1327 Clouds 20 1018 55 10000 6.69 240 15:24 18.03.2021
1328 Clouds 19 1018 59 10000 6.69 190 14:55 18.03.2021
1329 Clouds 19 1018 59 10000 6.69 190 14:32 18.03.2021
1330 Clouds 18 1017 63 10000 5.66 200 13:53 18.03.2021
1331 Clouds 18 1017 63 10000 5.66 200 13:26 18.03.2021
1332 Clouds 19 1017 59 10000 5.66 200 12:44 18.03.2021
1333 Clouds 17 1017 67 10000 2.06 210 12:26 18.03.2021
1334 Clouds 17 1017 63 10000 2.06 210 11:55 18.03.2021
1335 Clouds 17 1016 63 10000 2.57 200 11:33 18.03.2021
1336 Clouds 17 1016 63 10000 4.63 200 10:49 18.03.2021
1337 Clouds 17 1016 63 10000 4.63 200 10:27 18.03.2021
1338 Clouds 18 1016 59 10000 6.69 190 09:56 18.03.2021
1339 Clouds 18 1016 59 10000 6.69 190 09:29 18.03.2021
1340 Clouds 17 1016 59 10000 6.17 190 08:52 18.03.2021
1341 Clouds 17 1016 59 10000 6.17 190 08:32 18.03.2021
1342 Clouds 17 1016 59 10000 6.17 190 08:32 18.03.2021
1343 Clouds 18 1015 59 10000 6.69 190 07:54 18.03.2021
1344 Clouds 18 1015 59 10000 6.69 190 07:25 18.03.2021
1345 Clouds 18 1016 63 10000 7.72 190 06:30 18.03.2021
1346 Clouds 18 1016 63 10000 7.72 190 06:30 18.03.2021
1347 Clouds 18 1016 63 10000 7.72 190 06:30 18.03.2021
1348 Clouds 18 1016 68 10000 6.17 190 05:55 18.03.2021
1349 Clouds 18 1015 68 10000 8.75 190 03:41 18.03.2021
1350 Clouds 18 1014 63 10000 9.26 200 00:19 18.03.2021
1351 Drizzle 18 1013 82 4000 8.23 200 22:58 17.03.2021
1352 Drizzle 18 1013 82 4000 8.23 200 22:36 17.03.2021
1353 Drizzle 18 1013 82 4000 8.23 200 22:18 17.03.2021
1354 Drizzle 19 1013 82 6000 10.29 200 21:45 17.03.2021
1355 Drizzle 18 1012 88 2000 10.29 200 21:27 17.03.2021
1356 Clouds 20 1010 83 10000 10.29 200 20:45 17.03.2021
1357 Clouds 20 1010 83 10000 10.29 200 20:25 17.03.2021
1358 Clouds 20 1010 73 10000 10.29 200 19:51 17.03.2021
1359 Clouds 21 1010 73 10000 10.29 200 19:25 17.03.2021
1360 Clouds 21 1009 73 10000 8.75 210 18:57 17.03.2021
1361 Clouds 21 1009 73 10000 8.75 210 18:39 17.03.2021
1362 Drizzle 21 1009 83 5000 9.26 200 17:57 17.03.2021
1363 Clouds 20 1009 73 10000 9.26 200 17:27 17.03.2021
1364 Clouds 21 1008 68 10000 10.29 190 16:55 17.03.2021
1365 Drizzle 21 1009 88 2000 8.23 190 16:37 17.03.2021
1366 Drizzle 21 1008 94 4000 7.72 200 16:18 17.03.2021
1367 Drizzle 19 1008 94 3000 6.17 180 15:37 17.03.2021
1368 Drizzle 20 1007 88 3000 5.14 190 14:46 17.03.2021
1369 Drizzle 20 1007 88 3000 5.14 190 14:27 17.03.2021
1370 Clouds 20 1007 88 8000 6.17 190 13:56 17.03.2021
1371 Clouds 20 1006 88 3000 7.72 190 13:37 17.03.2021
1372 Clouds 21 1006 88 10000 14 190 12:59 17.03.2021
1373 Drizzle 20 1005 100 6000 14 190 12:34 17.03.2021
1374 Drizzle 20 1004 100 8000 6 220 11:54 17.03.2021
1375 Drizzle 20 1004 100 8000 6 220 11:27 17.03.2021
1376 Mist 20 1004 100 3000 2.57 300 10:59 17.03.2021
1377 Mist 20 1004 100 5000 2.57 300 10:40 17.03.2021
1378 Clouds 20 1003 100 10000 2.06 350 09:59 17.03.2021
1379 Clouds 20 1003 100 10000 2.06 350 09:41 17.03.2021
1380 Clouds 20 1003 100 10000 2.06 350 09:20 17.03.2021
1381 Clouds 20 1003 100 6000 2.06 330 08:43 17.03.2021
1382 Fog 19 1003 100 800 2.06 310 08:24 17.03.2021
1383 Clouds 20 1003 94 7000 2.06 310 07:37 17.03.2021
1384 Mist 20 1003 94 5000 1.54 290 06:47 17.03.2021
1385 Clouds 21 1005 88 10000 5.6 341 04:28 17.03.2021
1386 Clouds 20 1005 94 10000 2.06 20 03:31 17.03.2021
1387 Clouds 21 1005 83 10000 1.03 190 00:44 17.03.2021
1388 Clouds 22 1005 83 10000 1.03 190 00:24 17.03.2021
1389 Rain 22 1006 83 10000 1.03 0 23:25 16.03.2021
1390 Clouds 23 1006 83 5000 2.57 50 22:44 16.03.2021
1391 Clouds 23 1006 83 5000 2.57 50 22:44 16.03.2021
1392 Rain 24 1005 78 10000 4.12 110 22:25 16.03.2021
1393 Rain 25 1006 69 10000 3.09 120 21:43 16.03.2021
1394 Rain 26 1008 65 10000 3.09 120 21:25 16.03.2021
1395 Clouds 26 1007 50 10000 3.09 50 20:56 16.03.2021
1396 Rain 27 1007 50 10000 3.09 50 20:19 16.03.2021
1397 Rain 27 1008 54 10000 3.09 50 19:48 16.03.2021
1398 Rain 27 1008 54 10000 3.09 50 19:28 16.03.2021
1399 Rain 27 1009 57 10000 2.57 10 18:56 16.03.2021
1400 Rain 27 1009 57 10000 2.57 10 18:36 16.03.2021
1401 Clouds 27 1010 53 10000 3.09 10 17:55 16.03.2021
1402 Rain 27 1010 53 10000 3.09 10 17:36 16.03.2021
1403 Rain 26 1011 57 10000 7.2 340 16:58 16.03.2021
1404 Rain 26 1011 57 10000 7.2 340 16:38 16.03.2021
1405 Rain 26 1011 57 10000 7.2 340 16:19 16.03.2021
1406 Clouds 25 1010 65 10000 6.17 50 15:40 16.03.2021
1407 Clouds 25 1010 65 10000 6.17 50 15:19 16.03.2021
1408 Clouds 25 1011 64 10000 5.66 40 14:56 16.03.2021
1409 Clouds 24 1011 64 10000 5.66 40 14:37 16.03.2021
1410 Clouds 23 1011 64 10000 5.66 40 14:18 16.03.2021
1411 Clear 23 1011 83 10000 5.66 40 13:41 16.03.2021
1412 Clear 22 1011 83 10000 5.66 40 13:19 16.03.2021
1413 Clear 21 1011 83 10000 5.14 40 12:38 16.03.2021
1414 Clear 21 1011 83 10000 5.14 40 12:19 16.03.2021
1415 Clear 20 1011 88 10000 4.12 60 11:35 16.03.2021
1416 Clear 20 1011 83 10000 4.12 80 10:50 16.03.2021
1417 Clear 20 1011 83 10000 4.12 80 10:21 16.03.2021
1418 Clear 20 1011 83 10000 4.12 80 10:21 16.03.2021
1419 Clear 20 1011 83 10000 4.63 70 09:41 16.03.2021
1420 Clear 20 1011 83 10000 4.63 70 09:21 16.03.2021
1421 Clear 20 1012 83 10000 3.09 50 08:57 16.03.2021
1422 Rain 20 1012 83 10000 3.09 50 08:39 16.03.2021
1423 Clear 21 1012 83 10000 6.69 60 07:57 16.03.2021
1424 Clear 21 1012 83 10000 6.69 60 07:29 16.03.2021
1425 Rain 20 1013 78 10000 4.63 40 06:38 16.03.2021
1426 Clear 21 1014 77 10000 4.12 50 05:37 16.03.2021
1427 Clear 21 1014 77 10000 4.12 70 04:28 16.03.2021
1428 Clear 22 1015 68 10000 5.66 80 02:29 16.03.2021
1429 Clear 23 1014 68 10000 4.63 90 01:23 16.03.2021
1430 Clear 23 1014 78 10000 6.17 100 23:55 15.03.2021
1431 Clear 24 1014 78 10000 6.17 100 23:28 15.03.2021
1432 Clouds 25 1013 73 10000 6.17 100 22:50 15.03.2021
1433 Clouds 25 1013 73 10000 6.17 100 22:31 15.03.2021
1434 Clouds 26 1013 61 10000 5.66 120 21:53 15.03.2021
1435 Clouds 26 1013 61 10000 5.66 120 21:33 15.03.2021
1436 Clouds 27 1013 61 10000 5.66 120 20:57 15.03.2021
1437 Clouds 28 1014 54 10000 4.12 110 20:38 15.03.2021
1438 Clouds 28 1014 54 10000 4.12 110 20:38 15.03.2021
1439 Clouds 27 1014 54 10000 4.12 110 20:20 15.03.2021
1440 Clear 27 1014 44 10000 3.09 50 19:49 15.03.2021
1441 Clear 27 1014 44 10000 3.09 50 19:30 15.03.2021
1442 Clear 27 1016 42 10000 5.14 50 18:49 15.03.2021
1443 Clear 27 1016 42 10000 5.14 50 18:26 15.03.2021
1444 Clear 28 1016 47 10000 4.12 80 17:55 15.03.2021
1445 Clear 28 1016 47 10000 4.12 80 17:30 15.03.2021
1446 Clear 27 1016 53 10000 5.14 60 16:50 15.03.2021
1447 Clear 27 1016 53 10000 5.14 60 16:31 15.03.2021
1448 Clear 25 1017 53 10000 5.66 30 15:45 15.03.2021
1449 Rain 25 1017 53 10000 5.66 30 15:25 15.03.2021
1450 Rain 25 1017 60 10000 6.17 40 14:44 15.03.2021
1451 Clear 24 1017 60 10000 6.17 40 14:22 15.03.2021
1452 Clear 23 1017 68 10000 5.66 40 13:47 15.03.2021
1453 Clear 21 1017 68 10000 5.66 40 13:25 15.03.2021
1454 Clear 20 1018 77 10000 4.12 40 12:48 15.03.2021
1455 Clear 20 1018 77 10000 4.12 40 12:19 15.03.2021
1456 Clear 19 1017 82 10000 3.09 40 11:52 15.03.2021
1457 Clear 19 1017 82 10000 3.09 40 11:32 15.03.2021
1458 Clear 18 1017 77 10000 2.57 70 10:54 15.03.2021
1459 Clear 18 1017 82 10000 2.57 50 10:30 15.03.2021
1460 Clear 18 1017 77 10000 2.06 60 09:52 15.03.2021
1461 Clear 18 1017 77 10000 2.06 60 09:34 15.03.2021
1462 Clear 18 1017 82 10000 2.06 50 08:54 15.03.2021
1463 Clear 18 1017 82 10000 2.06 50 08:32 15.03.2021
1464 Clear 18 1017 77 10000 2.06 60 07:55 15.03.2021
1465 Clear 18 1017 77 10000 2.06 60 07:32 15.03.2021
1466 Clear 18 1018 77 10000 3.09 70 06:40 15.03.2021
1467 Clear 19 1018 72 10000 3.6 70 05:32 15.03.2021
1468 Clear 20 1018 68 10000 3.09 100 01:36 15.03.2021
1469 Clear 22 1018 56 10000 4.63 120 23:58 14.03.2021
1470 Clear 22 1018 56 10000 4.63 120 23:20 14.03.2021
1471 Clear 24 1017 43 10000 4.63 110 22:47 14.03.2021
1472 Clear 25 1017 43 10000 4.63 110 22:23 14.03.2021
1473 Clear 25 1017 44 10000 5.66 130 21:45 14.03.2021
1474 Clear 25 1017 44 10000 5.66 130 21:19 14.03.2021
1475 Clear 26 1017 34 10000 4.12 160 20:49 14.03.2021
1476 Clear 26 1017 34 10000 4.12 160 20:26 14.03.2021
1477 Clear 26 1017 34 10000 4.12 160 20:26 14.03.2021
1478 Clear 26 1018 36 10000 5.14 140 19:48 14.03.2021
1479 Clear 26 1018 36 10000 5.14 140 19:24 14.03.2021
1480 Clear 27 1017 39 10000 5.14 150 18:49 14.03.2021
1481 Clear 27 1017 39 10000 5.14 150 18:27 14.03.2021
1482 Clear 26 1018 41 10000 3.09 110 17:41 14.03.2021
1483 Clear 26 1018 41 10000 3.09 110 17:22 14.03.2021
1484 Clear 26 1018 44 10000 1.54 0 16:49 14.03.2021
1485 Clear 26 1018 44 10000 1.54 0 16:28 14.03.2021
1486 Clear 23 1019 53 10000 1.54 0 15:56 14.03.2021
1487 Clear 23 1019 53 10000 1.54 0 15:36 14.03.2021
1488 Clear 23 1019 64 10000 2.57 40 14:41 14.03.2021
1489 Clear 21 1019 64 10000 2.57 40 14:23 14.03.2021
1490 Clear 18 1018 77 10000 3.09 40 13:49 14.03.2021
1491 Clear 18 1018 77 10000 3.09 40 13:29 14.03.2021
1492 Clear 18 1018 82 10000 2.57 30 12:47 14.03.2021
1493 Clear 16 1018 82 10000 2.57 30 12:28 14.03.2021
1494 Clear 13 1018 94 10000 2.57 30 11:54 14.03.2021
1495 Clear 13 1018 94 10000 2.57 30 11:35 14.03.2021
1496 Clear 12 1018 94 10000 2.06 360 10:56 14.03.2021
1497 Clear 12 1018 94 10000 2.06 360 10:37 14.03.2021
1498 Clear 12 1018 94 10000 2.06 360 10:18 14.03.2021
1499 Clear 13 1017 88 10000 1.54 10 09:43 14.03.2021
1500 Clear 13 1017 88 10000 1.54 10 09:22 14.03.2021
1501 Clear 12 1017 94 6000 1.54 340 08:48 14.03.2021
1502 Clear 12 1017 94 6000 1.54 340 08:29 14.03.2021
1503 Rain 13 1017 94 8000 1.54 20 07:46 14.03.2021
1504 Clear 14 1017 88 8000 1.03 350 06:51 14.03.2021
1505 Clear 15 1017 82 10000 1.03 50 05:32 14.03.2021
1506 Clear 19 1016 64 10000 2.57 120 00:52 14.03.2021
1507 Clear 20 1016 64 10000 2.57 120 00:19 14.03.2021
1508 Clear 20 1016 56 10000 2.57 100 23:52 13.03.2021
1509 Clear 20 1016 56 10000 2.57 100 23:30 13.03.2021
1510 Clear 22 1016 56 10000 2.57 100 22:54 13.03.2021
1511 Clear 23 1016 49 10000 4.12 140 22:32 13.03.2021
1512 Clear 24 1016 43 10000 4.12 130 21:48 13.03.2021
1513 Clear 24 1016 43 10000 4.12 130 21:26 13.03.2021
1514 Clear 24 1016 43 10000 5.14 150 20:53 13.03.2021
1515 Clear 24 1016 43 10000 5.14 150 20:31 13.03.2021
1516 Clear 25 1016 43 10000 5.14 150 19:54 13.03.2021
1517 Clear 25 1016 46 10000 5.14 180 19:31 13.03.2021
1518 Clear 25 1017 46 10000 5.66 150 18:58 13.03.2021
1519 Clear 25 1017 46 10000 5.66 150 18:39 13.03.2021
1520 Clear 25 1017 46 10000 5.66 150 18:18 13.03.2021
1521 Clear 25 1017 50 10000 4.63 160 17:42 13.03.2021
1522 Clear 25 1017 50 10000 4.63 160 17:24 13.03.2021
1523 Clear 24 1017 53 10000 3.09 170 16:44 13.03.2021
1524 Clear 24 1017 53 10000 3.09 170 16:24 13.03.2021
1525 Clear 24 1017 56 10000 3.09 180 15:41 13.03.2021
1526 Clear 23 1017 60 10000 2.57 200 14:51 13.03.2021
1527 Clear 22 1017 60 10000 2.57 200 14:29 13.03.2021
1528 Clear 19 1017 77 10000 1.03 0 13:51 13.03.2021
1529 Clear 19 1017 77 10000 1.03 0 13:25 13.03.2021
1530 Clear 15 1017 88 10000 1.03 0 12:45 13.03.2021
1531 Clear 17 1017 88 10000 1.03 0 12:27 13.03.2021
1532 Clear 15 1016 94 10000 1.03 0 11:50 13.03.2021
1533 Clear 13 1016 94 10000 1.03 0 11:29 13.03.2021
1534 Clear 13 1015 82 10000 2.06 350 10:50 13.03.2021
1535 Clear 13 1015 82 10000 2.06 350 10:30 13.03.2021
1536 Clear 14 1015 88 10000 1.29 83 09:47 13.03.2021
1537 Clear 15 1015 88 10000 1.51 99 09:19 13.03.2021
1538 Clear 15 1015 88 10000 1.03 310 08:43 13.03.2021
1539 Clear 15 1015 88 10000 1.03 310 08:19 13.03.2021
1540 Clear 17 1015 63 10000 1.86 94 07:54 13.03.2021
1541 Clear 17 1016 63 10000 2.06 130 06:53 13.03.2021
1542 Clear 20 1017 60 10000 5.14 140 02:55 13.03.2021
1543 Clear 20 1015 60 10000 5.66 140 00:57 13.03.2021
1544 Clear 21 1015 64 10000 6.17 150 23:59 12.03.2021
1545 Clear 21 1015 64 10000 6.17 150 23:32 12.03.2021
1546 Clear 22 1014 64 10000 7.2 130 22:46 12.03.2021
1547 Clear 23 1014 64 10000 7.2 130 22:28 12.03.2021
1548 Clouds 24 1014 57 10000 5.14 140 21:45 12.03.2021
1549 Clouds 25 1014 57 10000 5.14 140 21:27 12.03.2021
1550 Clouds 25 1014 57 10000 6.69 160 20:56 12.03.2021
1551 Clouds 25 1014 57 10000 6.69 160 20:36 12.03.2021
1552 Clouds 25 1014 73 10000 6.17 170 19:59 12.03.2021
1553 Clouds 25 1014 73 10000 6.17 170 19:40 12.03.2021
1554 Clouds 25 1014 73 10000 6.17 170 19:22 12.03.2021
1555 Clouds 26 1014 65 10000 5.14 160 18:36 12.03.2021
1556 Clouds 26 1014 73 10000 5.66 170 17:58 12.03.2021
1557 Clouds 26 1014 73 10000 5.66 170 17:38 12.03.2021
1558 Clouds 26 1014 73 10000 5.66 170 17:20 12.03.2021
1559 Clouds 25 1014 73 10000 5.14 160 16:42 12.03.2021
1560 Clouds 26 1014 65 10000 5.14 160 15:52 12.03.2021
1561 Clouds 26 1014 65 10000 5.14 160 15:32 12.03.2021
1562 Clouds 26 1014 69 10000 3.6 120 14:49 12.03.2021
1563 Clouds 26 1014 69 10000 3.6 120 14:21 12.03.2021
1564 Clouds 24 1014 88 6000 4.63 130 13:44 12.03.2021
1565 Clouds 24 1014 88 6000 4.63 130 13:24 12.03.2021
1566 Mist 23 1013 88 5000 3.09 110 12:59 12.03.2021
1567 Mist 23 1013 88 5000 3.09 110 12:41 12.03.2021
1568 Mist 22 1013 88 5000 3.09 110 12:20 12.03.2021
1569 Mist 22 1013 94 3000 2.57 160 11:51 12.03.2021
1570 Mist 21 1013 94 3000 2.57 160 11:23 12.03.2021
1571 Clouds 22 1012 88 8000 1.54 150 10:54 12.03.2021
1572 Clouds 19 1012 88 10000 4.1 135 10:26 12.03.2021
1573 Clouds 18 1012 88 10000 4.1 135 09:56 12.03.2021
1574 Clouds 19 1012 77 10000 4.63 136 09:25 12.03.2021
1575 Clear 20 1012 83 10000 4.63 136 08:45 12.03.2021
1576 Clear 20 1012 83 10000 5.51 137 07:58 12.03.2021
1577 Clear 20 1012 83 10000 5.51 137 07:34 12.03.2021
1578 Clear 20 1012 83 10000 6.78 139 06:53 12.03.2021
1579 Clear 20 1012 83 10000 6.83 145 06:28 12.03.2021
1580 Clear 20 1012 83 10000 6.83 145 06:28 12.03.2021
1581 Clouds 21 1012 78 7000 2.06 350 02:49 12.03.2021
1582 Clear 24 1011 60 10000 1.54 330 00:47 12.03.2021
1583 Clouds 24 1011 69 10000 2.06 340 23:30 11.03.2021
1584 Clouds 27 1011 61 10000 4.12 240 22:50 11.03.2021
1585 Clouds 27 1011 61 10000 4.12 240 22:30 11.03.2021
1586 Clouds 29 1011 45 10000 3.6 290 21:54 11.03.2021
1587 Clouds 29 1011 45 10000 3.6 290 21:32 11.03.2021
1588 Clouds 29 1011 45 10000 4.63 280 20:55 11.03.2021
1589 Clouds 29 1011 45 10000 4.63 280 20:37 11.03.2021
1590 Clouds 30 1011 45 10000 4.63 280 20:19 11.03.2021
1591 Clouds 28 1011 45 10000 5.14 270 19:44 11.03.2021
1592 Clouds 28 1011 45 10000 5.14 270 19:26 11.03.2021
1593 Clouds 30 1011 51 10000 3.6 270 18:46 11.03.2021
1594 Clouds 30 1011 51 10000 3.6 270 18:28 11.03.2021
1595 Clear 29 1011 51 10000 3.6 280 17:44 11.03.2021
1596 Clear 27 1012 54 10000 4.12 320 16:53 11.03.2021
1597 Clear 28 1012 54 10000 4.12 320 16:27 11.03.2021
1598 Clear 26 1013 57 10000 3.6 330 15:48 11.03.2021
1599 Clear 26 1013 57 10000 3.6 330 15:21 11.03.2021
1600 Rain 25 1013 64 10000 4.63 360 14:46 11.03.2021
1601 Clear 22 1013 64 10000 4.63 360 14:19 11.03.2021
1602 Clear 22 1013 64 10000 4.63 360 14:19 11.03.2021
1603 Clear 21 1013 68 10000 5.14 350 13:49 11.03.2021
1604 Clear 21 1013 68 10000 5.14 350 13:30 11.03.2021
1605 Clear 20 1013 88 10000 4.63 20 12:58 11.03.2021
1606 Clear 20 1013 88 10000 4.63 20 12:39 11.03.2021
1607 Clear 19 1013 88 10000 4.63 20 12:21 11.03.2021
1608 Clear 17 1012 88 10000 3.09 20 11:43 11.03.2021
1609 Clear 17 1012 88 10000 3.09 20 11:21 11.03.2021
1610 Clear 16 1011 94 10000 3.09 10 10:42 11.03.2021
1611 Clear 16 1011 94 10000 3.09 10 10:20 11.03.2021
1612 Clear 17 1011 88 10000 3.09 20 09:41 11.03.2021
1613 Clear 17 1011 88 10000 3.09 20 09:22 11.03.2021
1614 Clear 17 1011 88 10000 3.09 30 08:47 11.03.2021
1615 Clear 17 1011 88 10000 3.09 30 08:19 11.03.2021
1616 Clear 18 1010 88 10000 3.09 20 07:29 11.03.2021
1617 Clear 17 1011 100 10000 3.09 20 06:50 11.03.2021
1618 Clear 17 1011 100 10000 3.09 20 06:30 11.03.2021
1619 -273 0 0 0 0 0 03:53 11.03.2021
1620 Clear 22 1011 64 10000 5.66 90 01:18 11.03.2021
1621 Clear 23 1011 64 10000 4.63 110 23:32 10.03.2021
1622 Clear 24 1011 64 10000 5.14 100 22:59 10.03.2021
1623 Clear 24 1011 64 10000 5.14 100 22:33 10.03.2021
1624 Clouds 26 1011 53 10000 5.66 100 21:47 10.03.2021
1625 Clouds 26 1011 53 10000 5.66 100 21:26 10.03.2021
1626 Clouds 27 1011 53 10000 5.14 90 20:51 10.03.2021
1627 Clouds 27 1011 53 10000 5.14 90 20:33 10.03.2021
1628 Clouds 28 1012 42 10000 3.09 10 19:54 10.03.2021
1629 Clouds 28 1012 42 10000 3.09 10 19:33 10.03.2021
1630 Clouds 27 1012 42 10000 3.09 10 18:56 10.03.2021
1631 Clouds 26 1013 44 10000 2.06 10 18:37 10.03.2021
1632 Clouds 26 1013 44 10000 2.06 10 18:18 10.03.2021
1633 Clouds 27 1013 47 10000 2.06 30 17:41 10.03.2021
1634 Clouds 26 1013 47 10000 2.06 30 17:19 10.03.2021
1635 Clouds 25 1014 57 10000 2.06 50 16:48 10.03.2021
1636 Clouds 25 1014 57 10000 2.06 50 16:25 10.03.2021
1637 Clouds 24 1015 60 10000 5.14 30 15:51 10.03.2021
1638 Clouds 24 1015 60 10000 5.14 30 15:25 10.03.2021
1639 Clear 23 1015 64 10000 4.63 30 14:57 10.03.2021
1640 Clear 23 1015 64 10000 4.63 30 14:23 10.03.2021
1641 Clear 20 1015 77 10000 3.6 80 13:58 10.03.2021
1642 Clear 20 1015 77 10000 3.6 80 13:31 10.03.2021
1643 Clear 18 1016 82 4000 3.09 90 12:48 10.03.2021
1644 Clear 18 1016 82 4000 3.09 90 12:28 10.03.2021
1645 Mist 16 1015 94 4000 2.06 100 11:53 10.03.2021
1646 Mist 15 1015 94 4000 2.06 100 11:28 10.03.2021
1647 Clear 15 1015 88 10000 3.1 50 10:51 10.03.2021
1648 Clear 15 1015 88 10000 3.1 50 10:33 10.03.2021
1649 Clear 16 1015 88 10000 3.06 53 09:56 10.03.2021
1650 Clear 16 1015 88 10000 3.06 53 09:38 10.03.2021
1651 Clear 16 1015 88 10000 3.18 59 09:18 10.03.2021
1652 Clear 17 1015 82 10000 3.18 59 08:44 10.03.2021
1653 Clear 17 1015 82 10000 3.43 63 08:26 10.03.2021
1654 Clear 17 1015 82 10000 3.43 63 07:44 10.03.2021
1655 Clear 17 1015 82 10000 4.13 65 07:24 10.03.2021
1656 Clouds 18 1015 77 10000 2.57 60 06:52 10.03.2021
1657 Clouds 20 1016 68 10000 3.09 120 02:44 10.03.2021
1658 Clouds 21 1015 68 10000 5.14 130 00:36 10.03.2021
1659 Clouds 21 1015 73 10000 5.14 110 23:33 09.03.2021
1660 Clouds 23 1015 68 10000 5.14 120 22:52 09.03.2021
1661 Clouds 23 1015 68 10000 5.14 120 22:34 09.03.2021
1662 Clouds 24 1015 57 10000 5.66 130 21:59 09.03.2021
1663 Clouds 24 1015 57 10000 5.66 130 21:38 09.03.2021
1664 Clouds 24 1015 57 10000 5.66 130 21:20 09.03.2021
1665 Clouds 24 1015 60 10000 5.14 120 20:55 09.03.2021
1666 Clouds 24 1015 60 10000 5.14 120 20:36 09.03.2021
1667 Clouds 24 1015 60 10000 5.14 120 20:18 09.03.2021
1668 Clouds 24 1016 60 10000 5.14 150 19:43 09.03.2021
1669 Clouds 24 1016 60 10000 5.14 150 19:24 09.03.2021
1670 Clouds 25 1017 61 10000 5.66 170 18:40 09.03.2021
1671 Clouds 25 1017 61 10000 5.66 170 18:18 09.03.2021
1672 Clouds 24 1017 60 10000 4.12 140 17:45 09.03.2021
1673 Clouds 24 1017 60 10000 4.12 140 17:24 09.03.2021
1674 Clouds 23 1017 64 10000 6.17 180 16:40 09.03.2021
1675 Clouds 23 1017 64 10000 6.17 180 16:21 09.03.2021
1676 Clouds 24 1017 64 10000 2.57 130 15:56 09.03.2021
1677 Clouds 24 1017 64 10000 2.57 130 15:25 09.03.2021
1678 Clouds 23 1017 60 10000 3.6 130 14:49 09.03.2021
1679 Clouds 23 1017 60 10000 3.6 130 14:26 09.03.2021
1680 Clouds 22 1017 64 10000 1.54 0 13:42 09.03.2021
1681 Clouds 22 1017 64 10000 1.54 0 13:21 09.03.2021
1682 Clouds 20 1017 82 10000 1.54 0 12:54 09.03.2021
1683 Clouds 20 1017 82 10000 1.54 0 12:35 09.03.2021
1684 Clouds 20 1017 82 10000 1.54 0 11:43 09.03.2021
1685 Clouds 20 1017 82 10000 1.54 0 11:22 09.03.2021
1686 Clouds 21 1016 68 10000 2.57 150 10:58 09.03.2021
1687 Clouds 20 1016 68 10000 3.09 160 10:39 09.03.2021
1688 Clouds 21 1016 68 10000 3.09 160 10:20 09.03.2021
1689 Clouds 20 1016 68 10000 3.09 160 09:46 09.03.2021
1690 Clouds 21 1016 68 10000 3.09 160 09:26 09.03.2021
1691 Clouds 20 1016 68 10000 3.6 150 08:49 09.03.2021
1692 Clouds 20 1016 68 10000 3.6 150 08:30 09.03.2021
1693 Clouds 20 1016 73 10000 4.63 160 07:46 09.03.2021
1694 Clouds 20 1016 73 10000 4.63 160 07:23 09.03.2021
1695 Clouds 20 1016 73 10000 5.14 150 06:44 09.03.2021
1696 Clouds 20 1016 73 10000 5.14 160 05:48 09.03.2021
1697 Clouds 22 1016 78 10000 5.66 160 01:31 09.03.2021
1698 Clouds 22 1016 78 10000 5.66 160 01:31 09.03.2021
1699 Clouds 22 1016 78 10000 5.66 160 01:31 09.03.2021
1700 Clouds 23 1014 83 10000 7.2 170 23:56 08.03.2021
1701 Clouds 23 1014 83 10000 7.2 170 23:37 08.03.2021
1702 Clouds 23 1014 83 10000 7.2 170 23:18 08.03.2021
1703 Clouds 25 1014 57 10000 5.66 180 22:40 08.03.2021
1704 Clouds 26 1014 57 10000 5.66 180 22:21 08.03.2021
1705 Clouds 28 1013 54 10000 4.12 180 21:45 08.03.2021
1706 Clouds 28 1013 54 10000 4.12 180 21:26 08.03.2021
1707 Clouds 28 1014 48 10000 5.14 200 20:40 08.03.2021
1708 Clouds 28 1014 48 10000 5.14 200 20:20 08.03.2021
1709 Clouds 29 1014 51 10000 3.6 270 19:40 08.03.2021
1710 Clouds 29 1014 51 10000 3.6 270 19:20 08.03.2021
1711 Clouds 28 1014 51 10000 1.54 220 18:37 08.03.2021
1712 Clouds 28 1014 51 10000 1.54 220 18:19 08.03.2021
1713 Clear 26 1014 61 10000 3.09 300 17:43 08.03.2021
1714 Clear 26 1014 61 10000 3.09 300 17:22 08.03.2021
1715 Clear 26 1014 65 10000 2.57 340 16:42 08.03.2021
1716 Clear 26 1014 65 10000 2.57 340 16:22 08.03.2021
1717 Clear 26 1013 61 10000 4.12 350 15:42 08.03.2021
1718 Clear 25 1013 61 10000 4.12 350 15:23 08.03.2021
1719 Rain 22 1014 73 10000 3.09 40 14:21 08.03.2021
1720 Clear 20 1014 77 10000 3.6 50 13:57 08.03.2021
1721 Rain 20 1014 77 10000 3.6 50 13:23 08.03.2021
1722 Rain 19 1015 77 10000 2.57 360 12:58 08.03.2021
1723 Rain 19 1015 77 10000 2.57 360 12:35 08.03.2021
1724 Clear 18 1013 88 10000 3.09 20 11:50 08.03.2021
1725 Clear 18 1013 88 10000 3.09 20 11:30 08.03.2021
1726 Clear 17 1012 88 10000 3.09 10 10:57 08.03.2021
1727 Clear 17 1012 88 10000 3.09 10 10:39 08.03.2021
1728 Clear 17 1012 88 10000 3.09 10 10:18 08.03.2021
1729 Clear 17 1012 88 10000 3.6 20 09:27 08.03.2021
1730 Clear 18 1012 82 10000 1.54 350 08:52 08.03.2021
1731 Clear 18 1012 82 10000 1.54 350 08:25 08.03.2021
1732 Rain 18 1012 82 10000 1.54 330 07:22 08.03.2021
1733 Clear 19 1012 72 10000 2.57 10 05:46 08.03.2021
1734 Clear 22 1010 64 10000 2.57 40 02:43 08.03.2021
1735 Clear 23 1010 78 10000 3.6 100 00:42 08.03.2021
1736 Clear 25 1010 50 10000 2.57 40 23:53 07.03.2021
1737 Clear 25 1010 50 10000 2.57 40 23:22 07.03.2021
1738 Clear 27 1010 44 10000 3.6 30 22:49 07.03.2021
1739 Clear 27 1010 44 10000 3.6 30 22:28 07.03.2021
1740 Clear 28 1010 42 10000 4.12 10 21:56 07.03.2021
1741 Clear 28 1010 42 10000 4.12 10 21:34 07.03.2021
1742 Clouds 29 1011 42 10000 4.63 30 20:59 07.03.2021
1743 Clouds 29 1011 42 10000 4.63 30 20:41 07.03.2021
1744 Clouds 29 1011 42 10000 4.63 30 20:19 07.03.2021
1745 Clouds 28 1012 44 10000 3.6 60 19:41 07.03.2021
1746 Clouds 28 1012 44 10000 3.6 60 19:22 07.03.2021
1747 Clouds 27 1012 47 10000 3.09 30 18:56 07.03.2021
1748 Clouds 27 1012 47 10000 3.09 30 18:38 07.03.2021
1749 Clouds 27 1012 47 10000 3.09 30 18:18 07.03.2021
1750 Clouds 28 1015 47 10000 3.09 330 17:39 07.03.2021
1751 Clouds 28 1015 47 10000 3.09 330 17:39 07.03.2021
1752 Clouds 27 1015 47 10000 3.09 330 17:20 07.03.2021
1753 Clouds 26 1014 57 10000 4.12 330 16:43 07.03.2021
1754 Clouds 26 1014 57 10000 4.12 330 16:21 07.03.2021
1755 Clouds 24 1015 60 10000 4.63 330 15:52 07.03.2021
1756 Clouds 24 1015 60 10000 4.63 330 15:32 07.03.2021
1757 Clear 23 1015 64 10000 4.12 360 14:56 07.03.2021
1758 Clear 23 1015 64 10000 4.12 360 14:29 07.03.2021
1759 Clear 20 1015 83 10000 5.14 30 13:51 07.03.2021
1760 Clear 20 1015 83 10000 5.14 30 13:31 07.03.2021
1761 Clear 17 1015 88 10000 2.06 30 12:59 07.03.2021
1762 Clear 17 1015 88 10000 2.06 30 12:40 07.03.2021
1763 Clear 17 1015 88 10000 2.06 30 12:20 07.03.2021
1764 Clear 15 1015 94 10000 2.06 30 11:24 07.03.2021
1765 Clear 15 1014 94 8000 2.06 30 10:59 07.03.2021
1766 Clear 15 1014 94 8000 2.06 30 10:38 07.03.2021
1767 Clear 15 1013 94 10000 1.54 40 09:58 07.03.2021
1768 Clear 15 1013 94 10000 1.54 40 09:39 07.03.2021
1769 Clear 15 1013 94 10000 1.54 40 09:19 07.03.2021
1770 Clear 15 1013 88 10000 2.06 20 08:45 07.03.2021
1771 Clear 16 1013 88 10000 2.06 20 08:22 07.03.2021
1772 Clear 16 1013 82 10000 1.54 40 07:23 07.03.2021
1773 Clear 19 1014 64 10000 1.54 120 02:40 07.03.2021
1774 Clouds 20 1013 60 10000 2.06 110 00:35 07.03.2021
1775 Clouds 21 1013 60 10000 3.6 150 23:41 06.03.2021
1776 Clouds 21 1013 60 10000 3.6 150 23:20 06.03.2021
1777 Clouds 22 1012 56 10000 4.63 130 22:46 06.03.2021
1778 Clouds 23 1012 56 10000 4.63 130 22:24 06.03.2021
1779 Clouds 23 1012 60 10000 5.14 190 21:52 06.03.2021
1780 Clouds 23 1012 60 10000 5.14 190 21:21 06.03.2021
1781 Clouds 23 1012 56 10000 4.12 190 20:45 06.03.2021
1782 Clouds 24 1012 56 10000 4.12 190 20:21 06.03.2021
1783 Clouds 23 1013 56 10000 4.12 180 19:41 06.03.2021
1784 Clouds 24 1013 56 10000 4.12 180 19:18 06.03.2021
1785 Clouds 24 1013 56 10000 1.54 0 18:43 06.03.2021
1786 Clouds 23 1013 56 10000 1.54 0 18:23 06.03.2021
1787 Clouds 23 1013 53 10000 3.09 160 17:55 06.03.2021
1788 Clouds 23 1013 53 10000 3.09 160 17:33 06.03.2021
1789 Clouds 23 1014 64 10000 1.03 0 17:00 06.03.2021
1790 Clouds 23 1014 64 10000 1.03 0 16:38 06.03.2021
1791 Clouds 22 1014 64 10000 1.03 0 16:20 06.03.2021
1792 Clouds 22 1014 60 10000 2.57 170 15:41 06.03.2021
1793 Clouds 21 1014 60 10000 2.57 170 15:23 06.03.2021
1794 Clouds 21 1013 64 10000 2.57 160 14:33 06.03.2021
1795 Clouds 20 1013 64 10000 2.06 200 13:57 06.03.2021
1796 Clouds 20 1013 64 10000 2.06 200 13:39 06.03.2021
1797 Clouds 20 1013 64 10000 2.06 200 13:19 06.03.2021
1798 Clouds 20 1012 68 10000 3.09 200 12:44 06.03.2021
1799 Clouds 20 1012 68 10000 3.09 200 12:19 06.03.2021
1800 Clouds 19 1012 68 10000 3.09 170 11:49 06.03.2021
1801 Clouds 19 1012 68 10000 3.09 170 11:21 06.03.2021
1802 Clouds 19 1011 63 10000 2.57 170 10:48 06.03.2021
1803 Clouds 19 1011 63 10000 2.57 170 10:19 06.03.2021
1804 Clouds 19 1011 59 10000 4.21 177 09:42 06.03.2021
1805 Clouds 19 1011 59 10000 4.06 173 09:19 06.03.2021
1806 Clouds 20 1011 60 10000 2.06 180 08:39 06.03.2021
1807 Clouds 20 1011 56 10000 3.6 180 07:57 06.03.2021
1808 Clouds 20 1011 56 10000 3.6 180 07:24 06.03.2021
1809 Clouds 20 1012 56 10000 5.66 190 06:58 06.03.2021
1810 Clouds 20 1012 56 10000 6.17 200 05:34 06.03.2021
1811 Clouds 20 1012 56 10000 6.17 200 05:34 06.03.2021
1812 Clouds 20 1011 64 10000 5.14 200 02:38 06.03.2021
1813 Clouds 20 1011 64 10000 6.17 180 00:48 06.03.2021
1814 Clouds 20 1011 64 10000 6.17 190 23:53 05.03.2021
1815 Clouds 20 1011 64 10000 6.17 190 23:29 05.03.2021
1816 Clouds 21 1011 68 10000 6.69 200 22:48 05.03.2021
1817 Clouds 22 1011 68 10000 6.69 200 22:23 05.03.2021
1818 Clouds 21 1011 60 10000 6.69 200 21:54 05.03.2021
1819 Clouds 21 1011 60 10000 6.69 200 21:35 05.03.2021
1820 Clouds 23 1011 53 10000 6.69 200 20:58 05.03.2021
1821 Clouds 23 1011 53 10000 6.69 200 20:40 05.03.2021
1822 Clouds 23 1011 53 10000 6.69 200 20:21 05.03.2021
1823 Clouds 22 1011 60 10000 6.69 190 19:41 05.03.2021
1824 Clouds 22 1011 60 10000 6.69 190 19:20 05.03.2021
1825 Clouds 23 1011 60 10000 7.2 190 18:42 05.03.2021
1826 Clouds 23 1011 60 10000 7.2 190 18:23 05.03.2021
1827 Clouds 23 1012 56 10000 8.23 180 17:37 05.03.2021
1828 Clouds 23 1012 56 10000 8.23 180 17:19 05.03.2021
1829 Clouds 23 1012 64 10000 8.23 180 16:41 05.03.2021
1830 Clouds 23 1012 64 10000 8.23 180 16:22 05.03.2021
1831 Clouds 23 1011 68 10000 7.72 180 15:52 05.03.2021
1832 Clouds 24 1011 68 10000 7.72 180 15:23 05.03.2021
1833 Clouds 24 1011 69 10000 7.2 180 14:39 05.03.2021
1834 Clouds 23 1011 69 10000 7.2 180 14:18 05.03.2021
1835 Clouds 23 1010 78 10000 6.69 200 13:40 05.03.2021
1836 Clouds 23 1010 78 10000 6.69 200 13:19 05.03.2021
1837 Clouds 22 1010 83 10000 4.63 190 12:30 05.03.2021
1838 Clouds 22 1009 83 10000 5.66 190 11:37 05.03.2021
1839 Clouds 22 1009 83 10000 5.66 190 11:18 05.03.2021
1840 Clouds 21 1009 94 10000 1.54 250 10:42 05.03.2021
1841 Clouds 21 1009 94 10000 1.54 250 10:24 05.03.2021
1842 Clouds 21 1009 88 10000 2.06 230 09:50 05.03.2021
1843 Clouds 21 1009 88 10000 2.06 230 09:27 05.03.2021
1844 Clouds 21 1009 88 10000 3.09 210 08:56 05.03.2021
1845 Clouds 21 1009 88 10000 3.09 210 08:36 05.03.2021
1846 Clouds 22 1009 88 10000 3.09 210 08:18 05.03.2021
1847 Clouds 21 1009 94 10000 4.04 172 07:30 05.03.2021
1848 Clouds 21 1010 94 10000 3.01 150 06:33 05.03.2021
1849 Clouds 21 1010 88 10000 1.54 160 05:33 05.03.2021
1850 Clouds 23 1010 83 10000 4.63 120 00:53 05.03.2021
1851 Clouds 24 1010 78 10000 4.12 110 23:45 04.03.2021
1852 Clouds 24 1010 78 10000 4.12 110 23:22 04.03.2021
1853 Clouds 25 1010 78 10000 7.72 140 22:29 04.03.2021
1854 Clouds 25 1011 78 10000 7.2 140 21:53 04.03.2021
1855 Clouds 26 1011 78 10000 7.2 140 21:29 04.03.2021
1856 Clouds 26 1011 69 10000 6.17 140 20:56 04.03.2021
1857 Clouds 26 1011 69 10000 6.17 140 20:38 04.03.2021
1858 Clouds 27 1011 69 10000 6.17 140 20:18 04.03.2021
1859 Clouds 27 1011 69 10000 5.66 160 19:43 04.03.2021
1860 Clouds 28 1011 69 10000 5.66 160 19:23 04.03.2021
1861 Clouds 27 1012 69 10000 6.17 140 18:45 04.03.2021
1862 Clouds 27 1012 69 10000 6.17 140 18:26 04.03.2021
1863 Clouds 27 1013 69 10000 2.57 130 17:47 04.03.2021
1864 Rain 27 1013 69 10000 2.57 130 17:28 04.03.2021
1865 Clouds 26 1014 69 10000 5.14 110 16:48 04.03.2021
1866 Clouds 26 1014 69 10000 5.14 110 16:29 04.03.2021
1867 Clouds 26 1014 78 10000 3.6 140 15:52 04.03.2021
1868 Clouds 26 1014 78 10000 3.6 140 15:33 04.03.2021
1869 Clouds 25 1014 78 10000 4.12 90 14:53 04.03.2021
1870 Clouds 25 1014 78 10000 4.12 90 14:31 04.03.2021
1871 Clouds 24 1014 78 10000 4.12 90 13:50 04.03.2021
1872 Clouds 24 1014 83 10000 4.63 90 13:32 04.03.2021
1873 Clouds 24 1014 88 10000 2.06 110 12:58 04.03.2021
1874 Clouds 24 1014 88 10000 2.06 110 12:39 04.03.2021
1875 Clouds 22 1014 94 10000 2.06 110 11:47 04.03.2021
1876 Clouds 21 1014 94 10000 2.06 110 11:26 04.03.2021
1877 Clouds 22 1014 88 10000 3.09 110 10:55 04.03.2021
1878 Clouds 22 1014 88 10000 3.09 110 10:31 04.03.2021
1879 Clouds 22 1014 88 10000 1.54 120 09:44 04.03.2021
1880 Clouds 22 1014 88 10000 1.54 120 09:23 04.03.2021
1881 Clouds 21 1014 88 10000 2.06 120 08:36 04.03.2021
1882 Clouds 22 1014 88 10000 2.57 110 07:53 04.03.2021
1883 Clouds 22 1014 88 10000 2.57 110 07:31 04.03.2021
1884 Clouds 22 1015 78 10000 3.09 100 06:25 04.03.2021
1885 Clouds 22 1015 78 10000 3.09 100 05:39 04.03.2021
1886 Clouds 23 1015 83 10000 7.72 100 01:44 04.03.2021
1887 Clouds 23 1015 83 10000 7.72 100 01:44 04.03.2021
1888 Clouds 23 1015 83 10000 7.72 100 01:44 04.03.2021
1889 Clouds 23 1015 83 10000 7.72 100 01:44 04.03.2021
1890 Clouds 23 1015 83 10000 7.72 100 01:44 04.03.2021
1891 Clouds 26 1014 73 10000 7.2 110 22:45 03.03.2021
1892 Clouds 26 1014 73 10000 7.2 110 22:26 03.03.2021
1893 Clouds 27 1015 73 10000 9.26 120 21:45 03.03.2021
1894 Clouds 27 1015 73 10000 9.26 120 21:45 03.03.2021
1895 Clouds 27 1015 73 10000 9.26 120 21:24 03.03.2021
1896 Clouds 27 1015 69 10000 8.23 120 20:59 03.03.2021
1897 Clouds 27 1015 69 10000 8.23 120 20:41 03.03.2021
1898 Clouds 27 1015 69 10000 8.23 120 20:19 03.03.2021
1899 Clouds 27 1015 69 10000 8.23 120 20:19 03.03.2021
1900 Clouds 28 1016 69 10000 6.17 120 19:42 03.03.2021
1901 Clouds 28 1016 69 10000 6.17 120 19:23 03.03.2021
1902 Clouds 28 1016 69 10000 6.69 130 18:48 03.03.2021
1903 Clouds 28 1016 69 10000 6.69 130 18:26 03.03.2021
1904 Clouds 28 1016 69 10000 6.69 130 17:54 03.03.2021
1905 Clouds 28 1017 69 10000 4.63 120 17:20 03.03.2021
1906 Clouds 28 1017 69 10000 4.63 100 16:44 03.03.2021
1907 Clouds 28 1017 69 10000 4.63 100 16:26 03.03.2021
1908 Clouds 27 1017 69 10000 5.66 100 15:45 03.03.2021
1909 Clouds 27 1017 69 10000 5.66 100 15:27 03.03.2021
1910 Clouds 25 1017 78 10000 5.14 80 14:34 03.03.2021
1911 Clouds 25 1017 83 10000 4.63 90 13:59 03.03.2021
1912 Clouds 25 1017 83 10000 4.63 90 13:37 03.03.2021
1913 Clouds 25 1017 83 10000 4.63 90 13:18 03.03.2021
1914 Clouds 24 1017 88 10000 3.6 90 12:40 03.03.2021
1915 Clouds 24 1017 88 10000 3.6 90 12:22 03.03.2021
1916 Clouds 23 1016 94 10000 2.06 100 11:43 03.03.2021
1917 Clouds 21 1016 94 10000 2.06 100 11:21 03.03.2021
1918 Clouds 22 1016 83 10000 3.6 120 10:43 03.03.2021
1919 Clouds 22 1016 83 10000 3.6 120 10:20 03.03.2021
1920 Clouds 22 1016 88 10000 2.57 100 09:40 03.03.2021
1921 Clouds 22 1016 88 10000 2.57 110 08:49 03.03.2021
1922 Clouds 22 1016 88 10000 2.57 110 08:23 03.03.2021
1923 Clouds 22 1016 88 10000 2.57 90 07:52 03.03.2021
1924 Clouds 22 1016 88 10000 2.57 80 06:55 03.03.2021
1925 Clouds 22 1016 88 10000 2.57 80 06:18 03.03.2021
1926 Clear 22 1016 83 10000 3.6 100 05:30 03.03.2021
1927 Clear 23 1016 83 10000 4.63 100 04:36 03.03.2021
1928 Clear 23 1016 83 10000 4.12 90 03:52 03.03.2021
1929 Clouds 25 1014 83 10000 7.2 100 00:18 03.03.2021
1930 Clouds 26 1013 78 10000 7.2 120 23:32 02.03.2021
1931 Clouds 27 1013 74 10000 6.69 120 22:44 02.03.2021
1932 Clouds 27 1013 74 10000 6.69 120 22:21 02.03.2021
1933 Clouds 28 1013 65 10000 7.2 130 21:43 02.03.2021
1934 Clouds 28 1013 65 10000 7.2 130 21:23 02.03.2021
1935 Clouds 28 1013 69 10000 5.66 160 20:54 02.03.2021
1936 Clouds 28 1013 69 10000 5.66 160 20:36 02.03.2021
1937 Clouds 29 1013 69 10000 5.66 160 20:18 02.03.2021
1938 Clouds 29 1013 65 10000 3.09 150 19:42 02.03.2021
1939 Clouds 29 1013 65 10000 3.09 150 19:23 02.03.2021
1940 Clouds 28 1014 69 10000 2.57 100 18:41 02.03.2021
1941 Clouds 28 1014 69 10000 2.57 100 18:21 02.03.2021
1942 Clouds 28 1014 74 10000 3.6 110 17:50 02.03.2021
1943 Clouds 28 1014 74 10000 3.6 110 17:31 02.03.2021
1944 Clouds 28 1015 69 10000 3.6 80 16:58 02.03.2021
1945 Clouds 28 1015 69 10000 3.6 80 16:36 02.03.2021
1946 Clouds 27 1015 73 10000 4.63 70 15:52 02.03.2021
1947 Clouds 27 1015 73 10000 4.63 70 15:52 02.03.2021
1948 Clouds 27 1015 73 10000 4.63 70 15:25 02.03.2021
1949 Clouds 26 1015 73 10000 4.63 70 14:28 02.03.2021
1950 Clouds 26 1015 78 10000 4.63 60 13:59 02.03.2021
1951 Clouds 26 1015 78 10000 4.63 60 13:39 02.03.2021
1952 Clouds 25 1015 78 10000 4.63 60 13:20 02.03.2021
1953 Clouds 24 1014 88 10000 3.6 80 12:31 02.03.2021
1954 Clouds 23 1014 94 10000 3.6 90 11:59 02.03.2021
1955 Clouds 23 1014 94 10000 3.6 90 11:38 02.03.2021
1956 Clouds 23 1014 94 10000 3.6 90 11:19 02.03.2021
1957 Clouds 23 1014 88 10000 3.09 110 10:39 02.03.2021
1958 Clouds 23 1014 88 10000 3.09 110 10:20 02.03.2021
1959 Clouds 22 1014 88 10000 3.09 130 09:40 02.03.2021
1960 Clouds 22 1014 88 10000 3.09 130 09:20 02.03.2021
1961 Clouds 22 1014 88 10000 3.09 120 08:38 02.03.2021
1962 Clouds 22 1014 94 10000 2.57 110 07:59 02.03.2021
1963 Clouds 22 1014 94 10000 2.57 110 07:38 02.03.2021
1964 Clouds 22 1014 88 10000 2.57 110 06:35 02.03.2021
1965 Clouds 22 1014 88 10000 3.6 110 05:46 02.03.2021
1966 Clouds 22 1014 88 10000 3.6 110 05:28 02.03.2021
1967 Clear 24 1013 73 10000 4.63 90 01:45 02.03.2021
1968 Clear 24 1013 73 10000 4.63 90 01:27 02.03.2021
1969 Clouds 24 1013 69 10000 5.14 100 00:39 02.03.2021
1970 Clouds 25 1012 73 10000 5.14 110 23:28 01.03.2021
1971 Clouds 26 1012 73 10000 5.66 110 22:42 01.03.2021
1972 Clouds 27 1012 73 10000 5.66 110 22:22 01.03.2021
1973 Clouds 27 1013 65 10000 6.69 120 21:46 01.03.2021
1974 Clouds 28 1013 65 10000 6.69 120 21:24 01.03.2021
1975 Clouds 27 1013 65 10000 5.66 110 20:48 01.03.2021
1976 Clouds 28 1013 65 10000 5.66 110 20:27 01.03.2021
1977 Clouds 28 1014 57 10000 6.17 120 19:54 01.03.2021
1978 Clouds 28 1014 57 10000 6.17 120 19:33 01.03.2021
1979 Clouds 28 1014 100 10000 6.17 50 18:46 01.03.2021
1980 Clouds 28 1014 100 10000 6.17 50 18:25 01.03.2021
1981 Clouds 28 1015 57 10000 5.66 70 17:56 01.03.2021
1982 Clouds 29 1015 57 10000 5.66 70 17:37 01.03.2021
1983 Clouds 29 1015 57 10000 5.66 70 17:18 01.03.2021
1984 Clouds 28 1016 61 10000 5.14 70 16:43 01.03.2021
1985 Clouds 28 1016 61 10000 5.14 70 16:24 01.03.2021
1986 Clouds 26 1016 69 10000 6.17 60 15:41 01.03.2021
1987 Clouds 26 1016 69 10000 6.17 60 15:20 01.03.2021
1988 Clouds 25 1016 73 10000 6.17 40 14:44 01.03.2021
1989 Clouds 25 1016 73 10000 6.17 40 14:26 01.03.2021
1990 Clouds 24 1017 83 10000 5.14 50 13:40 01.03.2021
1991 Clouds 24 1017 83 10000 5.14 50 13:22 01.03.2021
1992 Clear 22 1016 88 10000 4.63 60 12:52 01.03.2021
1993 Clear 22 1016 88 10000 4.63 60 12:32 01.03.2021
1994 Clear 20 1016 94 10000 5.14 170 11:58 01.03.2021
1995 Clear 20 1016 94 10000 5.14 170 11:38 01.03.2021
1996 Clear 20 1015 88 10000 3.09 70 10:44 01.03.2021
1997 Clear 20 1015 88 10000 3.09 70 10:23 01.03.2021
1998 Clear 20 1015 88 10000 2.57 90 09:58 01.03.2021
1999 Clear 20 1015 88 10000 2.57 90 09:40 01.03.2021
2000 Clear 20 1015 88 10000 2.57 90 09:20 01.03.2021
2001 Clear 20 1015 88 10000 3.09 70 08:47 01.03.2021
2002 Clear 20 1015 88 10000 3.09 60 07:50 01.03.2021
2003 Clear 21 1015 83 10000 4.12 70 06:51 01.03.2021
2004 Clear 23 1017 68 10000 5.14 70 03:23 01.03.2021
2005 Clear 25 1016 53 10000 3.6 70 00:44 01.03.2021
2006 Clear 28 1015 50 10000 7.2 50 23:26 28.02.2021
2007 Clouds 29 1015 48 10000 7.72 50 22:45 28.02.2021
2008 Clouds 29 1015 48 10000 7.72 50 22:22 28.02.2021
2009 Clouds 29 1016 45 10000 5.66 80 21:49 28.02.2021
2010 Clouds 30 1016 45 10000 5.66 80 21:27 28.02.2021
2011 Clouds 30 1016 45 10000 7.72 40 20:55 28.02.2021
2012 Clouds 30 1016 45 10000 7.72 40 20:35 28.02.2021
2013 Clouds 30 1017 51 10000 6.17 30 19:47 28.02.2021
2014 Clouds 30 1017 51 10000 6.17 30 19:28 28.02.2021
2015 Clouds 29 1018 51 10000 6.17 40 18:49 28.02.2021
2016 Clouds 29 1018 51 10000 6.17 40 18:28 28.02.2021
2017 Clouds 29 1019 54 10000 7.72 50 17:59 28.02.2021
2018 Clouds 29 1019 54 10000 7.72 50 17:41 28.02.2021
2019 Clouds 29 1019 54 10000 7.72 50 17:21 28.02.2021
2020 Clouds 28 1019 57 10000 7.72 60 16:50 28.02.2021
2021 Clouds 28 1019 57 10000 7.72 60 16:30 28.02.2021
2022 Clear 28 1020 54 10000 8.75 60 15:53 28.02.2021
2023 Clear 28 1020 54 10000 8.75 60 15:53 28.02.2021
2024 Clear 26 1020 54 10000 8.75 60 15:29 28.02.2021
2025 Clouds 25 1020 69 10000 9.26 60 14:58 28.02.2021
2026 Clouds 25 1020 69 10000 9.26 60 14:39 28.02.2021
2027 Clouds 25 1020 69 10000 9.26 60 14:39 28.02.2021
2028 Clouds 25 1020 69 10000 9.26 60 14:20 28.02.2021
2029 Clouds 24 1020 83 10000 7.72 50 13:41 28.02.2021
2030 Clouds 23 1020 83 10000 7.72 50 13:19 28.02.2021
2031 Clear 22 1020 88 10000 5.14 60 12:55 28.02.2021
2032 Clear 22 1020 88 10000 5.14 60 12:36 28.02.2021
2033 Clear 21 1020 88 10000 5.14 60 12:18 28.02.2021
2034 Clear 20 1020 94 10000 2.06 50 11:42 28.02.2021
2035 Clear 19 1020 94 10000 2.06 50 11:22 28.02.2021
2036 Clear 19 1020 83 10000 3.09 80 10:49 28.02.2021
2037 Clear 19 1020 83 10000 3.09 80 10:26 28.02.2021
2038 Clouds 20 1020 88 10000 4.12 80 09:42 28.02.2021
2039 Clouds 20 1020 88 10000 4.12 80 09:42 28.02.2021
2040 Clouds 20 1020 88 10000 4.12 80 09:24 28.02.2021
2041 Clouds 20 1020 83 10000 4.12 70 08:47 28.02.2021
2042 Clouds 20 1020 83 10000 4.12 70 08:29 28.02.2021
2043 Clear 21 1020 83 10000 4.12 70 07:52 28.02.2021
2044 Clear 21 1020 83 10000 4.12 70 07:30 28.02.2021
2045 Clear 21 1020 83 10000 5.14 80 06:29 28.02.2021
2046 Clear 21 1021 83 10000 4.63 80 05:24 28.02.2021
2047 Clear 22 1021 73 10000 5.14 80 03:26 28.02.2021
2048 Clear 24 1020 60 10000 5.14 70 01:41 28.02.2021
2049 Clear 25 1019 57 10000 4.12 70 00:49 28.02.2021
2050 Clear 26 1019 57 10000 4.12 70 00:26 28.02.2021
2051 Clouds 26 1018 69 10000 6.69 80 23:45 27.02.2021
2052 Clouds 26 1018 69 10000 6.69 80 23:19 27.02.2021
2053 Clouds 27 1018 65 10000 4.12 110 22:44 27.02.2021
2054 Clouds 28 1018 65 10000 4.12 110 22:19 27.02.2021
2055 Clouds 29 1018 58 10000 5.14 110 21:42 27.02.2021
2056 Clouds 29 1018 58 10000 5.14 110 21:42 27.02.2021
2057 Clouds 29 1018 58 10000 5.14 110 21:24 27.02.2021
2058 Clouds 29 1019 54 10000 5.14 100 20:49 27.02.2021
2059 Clouds 29 1019 54 10000 5.14 100 20:27 27.02.2021
2060 Clouds 29 1019 61 10000 6.69 100 19:46 27.02.2021
2061 Clouds 29 1019 61 10000 6.69 100 19:27 27.02.2021
2062 Clouds 29 1020 51 10000 6.69 90 18:46 27.02.2021
2063 Clouds 29 1020 51 10000 6.69 90 18:22 27.02.2021
2064 Clouds 29 1020 54 10000 6.17 70 17:58 27.02.2021
2065 Clouds 29 1020 54 10000 6.17 70 17:38 27.02.2021
2066 Clouds 28 1020 54 10000 6.17 70 17:19 27.02.2021
2067 Clouds 27 1021 65 10000 5.66 60 16:49 27.02.2021
2068 Clouds 27 1021 65 10000 5.66 60 16:27 27.02.2021
2069 Clouds 26 1022 69 10000 6.69 80 15:44 27.02.2021
2070 Clouds 26 1022 69 10000 6.69 80 15:18 27.02.2021
2071 Clouds 25 1022 73 10000 5.14 20 14:40 27.02.2021
2072 Clouds 25 1022 73 10000 5.14 20 14:21 27.02.2021
2073 Clouds 24 1022 83 10000 3.6 80 13:40 27.02.2021
2074 Clouds 22 1022 83 10000 3.6 80 13:19 27.02.2021
2075 Clear 21 1022 94 10000 2.57 100 12:45 27.02.2021
2076 Clear 21 1022 94 10000 2.57 100 12:24 27.02.2021
2077 Clear 18 1020 94 10000 3.6 80 11:47 27.02.2021
2078 Clear 17 1020 94 10000 3.6 80 11:29 27.02.2021
2079 Clear 17 1020 94 10000 2.57 110 10:51 27.02.2021
2080 Clear 18 1020 94 10000 2.57 110 10:32 27.02.2021
2081 Rain 18 1019 94 10000 2.06 70 09:53 27.02.2021
2082 Clear 18 1019 94 10000 2.06 70 09:31 27.02.2021
2083 Clear 18 1019 94 10000 1.54 90 08:43 27.02.2021
2084 Clear 18 1019 94 10000 1.54 90 08:24 27.02.2021
2085 Clear 18 1019 88 10000 2.06 60 07:44 27.02.2021
2086 Clear 19 1019 88 10000 1.54 40 06:55 27.02.2021
2087 Clouds 24 1017 61 10000 5.14 90 01:24 27.02.2021
2088 Clouds 25 1015 65 10000 6.17 100 00:30 27.02.2021
2089 Clouds 25 1014 57 10000 5.14 110 23:40 26.02.2021
2090 Clouds 26 1014 57 10000 5.14 110 23:21 26.02.2021
2091 Clouds 27 1014 47 10000 6.69 100 22:34 26.02.2021
2092 Clear 29 1014 47 10000 8.23 110 21:54 26.02.2021
2093 Clear 29 1014 47 10000 8.23 110 21:35 26.02.2021
2094 Clear 29 1014 47 10000 8.23 110 20:55 26.02.2021
2095 Clear 29 1015 48 10000 6.17 120 20:37 26.02.2021
2096 Clear 29 1015 48 10000 6.17 120 20:18 26.02.2021
2097 Clear 30 1015 42 10000 5.66 110 19:26 26.02.2021
2098 Clear 30 1015 35 10000 4.12 90 18:55 26.02.2021
2099 Clear 30 1015 35 10000 4.12 90 18:25 26.02.2021
2100 Clear 31 1016 37 10000 3.09 30 17:58 26.02.2021
2101 Clear 31 1016 37 10000 3.09 30 17:36 26.02.2021
2102 Clear 30 1016 37 10000 3.09 30 16:59 26.02.2021
2103 Clear 29 1016 42 10000 3.09 40 16:41 26.02.2021
2104 Clear 29 1016 42 10000 3.09 40 16:22 26.02.2021
2105 Clear 28 1017 51 10000 3.09 360 15:43 26.02.2021
2106 Clear 28 1017 51 10000 3.09 360 15:23 26.02.2021
2107 Clear 26 1017 61 10000 4.12 20 14:53 26.02.2021
2108 Clear 26 1017 61 10000 4.12 20 14:53 26.02.2021
2109 Clear 26 1017 61 10000 4.12 20 14:34 26.02.2021
2110 Clear 24 1017 68 10000 4.63 360 13:52 26.02.2021
2111 Clear 24 1017 68 10000 4.63 360 13:33 26.02.2021
2112 Clear 21 1016 88 10000 4.12 20 12:50 26.02.2021
2113 Clear 20 1016 88 10000 4.12 20 12:27 26.02.2021
2114 Clear 19 1016 88 10000 3.09 20 11:42 26.02.2021
2115 Clear 18 1016 88 10000 3.09 20 11:20 26.02.2021
2116 Clear 18 1015 88 10000 3.09 20 10:37 26.02.2021
2117 Clear 18 1015 88 10000 3.09 20 09:48 26.02.2021
2118 Clear 18 1015 88 10000 3.09 20 09:28 26.02.2021
2119 Clear 18 1015 82 10000 3.09 20 08:36 26.02.2021
2120 Clear 19 1014 72 10000 3.6 20 07:58 26.02.2021
2121 Clear 19 1014 72 10000 3.6 20 07:22 26.02.2021
2122 Clear 20 1014 72 10000 2.57 30 06:35 26.02.2021
2123 Clear 20 1014 64 10000 3.09 20 05:19 26.02.2021
2124 Clear 22 1014 68 10000 2.06 50 02:39 26.02.2021
2125 Clear 25 1014 57 10000 1.54 130 00:33 26.02.2021
2126 Clear 27 1013 42 10000 1.54 0 23:40 25.02.2021
2127 Clear 28 1013 42 10000 1.54 0 23:19 25.02.2021
2128 Clear 28 1013 37 10000 2.06 180 22:38 25.02.2021
2129 Clear 29 1014 39 10000 2.06 170 21:54 25.02.2021
2130 Clear 29 1014 39 10000 2.06 170 21:33 25.02.2021
2131 Clear 29 1014 39 10000 2.57 220 20:56 25.02.2021
2132 Clear 29 1014 39 10000 2.57 220 20:37 25.02.2021
2133 Clear 29 1014 39 10000 2.57 220 20:18 25.02.2021
2134 Clear 29 1015 42 10000 3.6 240 19:47 25.02.2021
2135 Clear 29 1015 42 10000 3.6 240 19:21 25.02.2021
2136 Clear 29 1015 42 10000 3.6 270 18:44 25.02.2021
2137 Clear 29 1015 42 10000 3.6 270 18:18 25.02.2021
2138 Clear 28 1015 44 10000 3.09 240 17:42 25.02.2021
2139 Clear 29 1015 44 10000 3.09 240 17:23 25.02.2021
2140 Clear 28 1016 54 10000 3.09 270 16:35 25.02.2021
2141 Clear 27 1016 54 10000 3.09 240 15:55 25.02.2021
2142 Clear 27 1016 54 10000 3.09 240 15:28 25.02.2021
2143 Clear 26 1016 61 10000 2.06 330 14:40 25.02.2021
2144 Clear 26 1016 61 10000 2.06 330 14:21 25.02.2021
2145 Clear 23 1016 68 10000 1.54 0 13:48 25.02.2021
2146 Clear 23 1016 68 10000 1.54 0 13:24 25.02.2021
2147 Clear 20 1015 82 10000 1.54 0 12:40 25.02.2021
2148 Clear 19 1015 82 10000 1.54 0 12:20 25.02.2021
2149 Clear 18 1015 88 10000 4.51 317 11:43 25.02.2021
2150 Clear 16 1014 94 6000 1.54 10 10:58 25.02.2021
2151 Clear 16 1014 94 6000 1.54 10 10:37 25.02.2021
2152 Clear 17 1013 94 10000 4.33 326 09:53 25.02.2021
2153 Clear 17 1013 94 10000 4.33 326 09:34 25.02.2021
2154 Mist 17 1013 100 5000 3.09 20 08:46 25.02.2021
2155 Mist 17 1013 100 3000 4.36 338 08:22 25.02.2021
2156 Fog 18 1014 100 300 1.54 10 07:43 25.02.2021
2157 Fog 18 1014 100 300 1.54 10 07:19 25.02.2021
2158 Mist 18 1014 94 4000 2.06 10 05:57 25.02.2021
2159 Clear 21 1013 83 10000 2.06 140 01:52 25.02.2021
2160 Clear 21 1013 83 10000 2.06 140 01:33 25.02.2021
2161 Clear 23 1013 78 10000 2.06 140 00:37 25.02.2021
2162 Clouds 23 1013 50 10000 2.06 260 23:40 24.02.2021
2163 Clouds 26 1013 41 10000 4.12 280 22:58 24.02.2021
2164 Clouds 27 1013 41 10000 4.12 280 22:30 24.02.2021
2165 Clouds 27 1013 44 10000 5.14 260 21:56 24.02.2021
2166 Clouds 27 1013 44 10000 5.14 260 21:34 24.02.2021
2167 Clouds 27 1013 41 10000 5.14 290 20:51 24.02.2021
2168 Clouds 27 1013 41 10000 5.14 290 20:29 24.02.2021
2169 Clouds 27 1014 47 10000 5.14 260 19:51 24.02.2021
2170 Clouds 27 1014 47 10000 5.14 260 19:24 24.02.2021
2171 Clouds 27 1014 36 10000 5.66 270 18:54 24.02.2021
2172 Clear 27 1015 47 10000 6.17 280 18:33 24.02.2021
2173 Clear 27 1015 47 10000 6.17 280 17:45 24.02.2021
2174 Clear 27 1015 47 10000 6.17 280 17:25 24.02.2021
2175 Clear 26 1016 50 10000 5.66 270 16:49 24.02.2021
2176 Clear 26 1016 50 10000 5.66 270 16:22 24.02.2021
2177 Clear 26 1015 44 10000 5.66 280 15:56 24.02.2021
2178 Clouds 26 1016 53 10000 4.12 280 15:35 24.02.2021
2179 Clouds 24 1016 60 10000 4.63 310 14:52 24.02.2021
2180 Clouds 24 1016 60 10000 4.63 310 14:31 24.02.2021
2181 Clouds 23 1016 60 10000 4.63 310 13:55 24.02.2021
2182 Clear 22 1015 72 10000 4.63 340 13:37 24.02.2021
2183 Clear 21 1015 72 10000 4.63 340 13:19 24.02.2021
2184 Clear 19 1015 77 10000 4.12 350 12:42 24.02.2021
2185 Clear 18 1015 77 10000 4.12 350 12:23 24.02.2021
2186 Clear 16 1015 82 10000 4.12 360 11:39 24.02.2021
2187 Rain 14 1014 82 10000 2.57 350 10:48 24.02.2021
2188 Rain 14 1014 82 10000 2.57 350 10:26 24.02.2021
2189 Rain 15 1014 72 10000 3.09 350 09:33 24.02.2021
2190 Rain 15 1014 77 10000 2.57 350 08:58 24.02.2021
2191 Rain 15 1014 77 10000 2.57 350 08:33 24.02.2021
2192 Rain 15 1014 77 10000 3.09 10 07:47 24.02.2021
2193 Clear 15 1014 77 10000 3.09 10 07:19 24.02.2021
2194 Rain 15 1015 77 10000 2.57 10 06:20 24.02.2021
2195 Clear 19 1015 56 10000 1.54 50 02:44 24.02.2021
2196 Clouds 22 1014 49 10000 2.06 180 23:55 23.02.2021
2197 Clouds 23 1014 49 10000 2.06 170 22:51 23.02.2021
2198 Clouds 23 1014 49 10000 2.06 170 22:23 23.02.2021
2199 Clouds 24 1014 46 10000 4.12 170 21:56 23.02.2021
2200 Clouds 24 1014 46 10000 4.12 170 21:37 23.02.2021
2201 Clouds 24 1014 46 10000 4.12 170 21:18 23.02.2021
2202 Clouds 24 1014 43 10000 5.14 170 20:45 23.02.2021
2203 Clouds 25 1014 43 10000 5.14 170 20:27 23.02.2021
2204 Clouds 25 1015 50 10000 5.66 180 19:47 23.02.2021
2205 Clouds 25 1015 50 10000 5.66 180 19:26 23.02.2021
2206 Clouds 25 1014 47 10000 5.14 180 18:47 23.02.2021
2207 Clouds 25 1014 47 10000 5.14 180 18:29 23.02.2021
2208 Clouds 25 1014 50 10000 7.2 160 17:54 23.02.2021
2209 Clouds 25 1014 50 10000 7.2 160 17:28 23.02.2021
2210 Clear 24 1014 46 10000 6.17 160 16:47 23.02.2021
2211 Clear 25 1014 46 10000 6.17 160 16:24 23.02.2021
2212 Clear 25 1014 46 10000 3.09 90 15:51 23.02.2021
2213 Clear 25 1014 46 10000 3.09 90 15:33 23.02.2021
2214 Clear 24 1014 53 10000 2.06 120 14:57 23.02.2021
2215 Clear 23 1014 53 10000 2.06 120 14:38 23.02.2021
2216 Clear 23 1014 53 10000 2.06 120 14:19 23.02.2021
2217 Clear 22 1013 60 10000 3.6 110 13:38 23.02.2021
2218 Clear 22 1013 60 10000 3.6 110 13:18 23.02.2021
2219 Clear 22 1013 68 10000 2.06 100 12:44 23.02.2021
2220 Clear 21 1013 68 10000 2.06 100 12:19 23.02.2021
2221 Clear 20 1013 77 10000 2.06 120 11:45 23.02.2021
2222 Clear 19 1013 77 10000 2.06 120 11:18 23.02.2021
2223 Clouds 19 1013 64 10000 4.12 150 10:39 23.02.2021
2224 Clouds 19 1013 64 10000 4.12 150 10:18 23.02.2021
2225 Clouds 19 1012 64 10000 4.63 140 09:41 23.02.2021
2226 Clouds 19 1012 64 10000 4.63 140 09:21 23.02.2021
2227 Clouds 20 1012 60 10000 6.17 150 08:45 23.02.2021
2228 Clouds 20 1012 60 10000 6.17 150 08:20 23.02.2021
2229 Clouds 20 1012 60 10000 6.17 150 07:34 23.02.2021
2230 Clouds 21 1011 88 10000 6.69 150 05:27 23.02.2021
2231 Rain 21 1010 88 10000 3.09 20 02:43 23.02.2021
2232 Clouds 22 1010 88 10000 3.09 20 02:24 23.02.2021
2233 Clouds 23 1010 73 10000 2.57 230 00:19 23.02.2021
2234 Clear 23 1008 73 10000 2.57 300 23:32 22.02.2021
2235 Clear 26 1010 69 10000 4.63 340 22:43 22.02.2021
2236 Clear 25 1010 69 10000 4.63 340 22:23 22.02.2021
2237 Clouds 25 1009 73 10000 4.12 350 21:58 22.02.2021
2238 Clouds 25 1009 73 10000 4.12 350 21:38 22.02.2021
2239 Clouds 25 1009 73 10000 4.12 350 21:20 22.02.2021
2240 Clouds 25 1009 78 10000 5.14 10 20:44 22.02.2021
2241 Clouds 24 1009 78 10000 5.14 10 20:25 22.02.2021
2242 Clouds 22 1010 94 10000 3.6 10 19:46 22.02.2021
2243 Clouds 20 1010 94 4000 3.09 40 19:28 22.02.2021
2244 Clouds 20 1012 100 6000 2.57 330 18:48 22.02.2021
2245 Rain 20 1012 100 6000 2.57 330 18:29 22.02.2021
2246 Rain 20 1012 100 4000 2.57 30 17:49 22.02.2021
2247 Rain 20 1012 100 4000 2.57 30 17:20 22.02.2021
2248 Rain 20 1014 100 3000 6.8 272 16:48 22.02.2021
2249 Rain 20 1014 100 3000 6.33 258 16:29 22.02.2021
2250 Rain 22 1013 88 3000 3.6 150 15:31 22.02.2021
2251 Rain 22 1013 88 4000 5.66 170 14:53 22.02.2021
2252 Rain 22 1013 83 10000 3.6 170 14:35 22.02.2021
2253 Clouds 22 1013 78 10000 4.63 190 13:51 22.02.2021
2254 Clouds 22 1013 78 10000 4.63 190 13:31 22.02.2021
2255 Clouds 22 1013 73 10000 3.6 270 12:47 22.02.2021
2256 Clouds 22 1013 73 10000 3.6 270 12:23 22.02.2021
2257 Clouds 21 1011 77 10000 2.06 0 11:52 22.02.2021
2258 Clouds 21 1011 77 10000 2.06 0 11:31 22.02.2021
2259 Clear 20 1010 77 10000 4.12 20 10:54 22.02.2021
2260 Clear 20 1010 77 10000 4.12 20 10:36 22.02.2021
2261 Clear 20 1010 77 10000 4.12 20 10:18 22.02.2021
2262 Clear 20 1010 77 10000 4.12 20 09:37 22.02.2021
2263 Clear 20 1010 77 10000 4.12 20 09:18 22.02.2021
2264 Clear 20 1011 77 10000 3.6 20 08:44 22.02.2021
2265 Clear 20 1011 77 10000 3.6 20 08:20 22.02.2021
2266 Clear 20 1011 77 10000 3.6 30 07:42 22.02.2021
2267 Clear 20 1011 77 10000 3.6 30 07:20 22.02.2021
2268 Clear 21 1011 73 10000 3.6 20 06:25 22.02.2021
2269 Clear 21 1011 73 10000 2.06 30 03:49 22.02.2021
2270 Clear 22 1011 73 10000 2.06 30 03:22 22.02.2021
2271 Clouds 23 1012 70 10000 0.45 126 00:54 22.02.2021
2272 Clouds 24 1011 57 10000 3.09 100 00:28 22.02.2021
2273 Clouds 25 1011 57 10000 3.09 100 23:52 21.02.2021
2274 Clouds 27 1012 50 10000 3.09 180 22:59 21.02.2021
2275 Clouds 27 1012 50 10000 3.09 180 22:27 21.02.2021
2276 Clouds 29 1012 54 10000 4.63 170 21:52 21.02.2021
2277 Clouds 29 1012 54 10000 4.63 170 21:33 21.02.2021
2278 Clouds 29 1012 39 10000 1.54 0 20:57 21.02.2021
2279 Clouds 29 1012 39 10000 1.54 0 20:23 21.02.2021
2280 Clouds 29 1013 42 10000 3.09 360 19:59 21.02.2021
2281 Clouds 29 1013 42 10000 3.09 360 19:41 21.02.2021
2282 Clouds 29 1013 42 10000 3.09 360 19:21 21.02.2021
2283 Clouds 28 1014 42 10000 4.12 30 18:29 21.02.2021
2284 Clear 29 1015 44 10000 4.63 330 17:58 21.02.2021
2285 Clear 28 1015 44 10000 4.63 330 17:26 21.02.2021
2286 Clear 27 1015 54 10000 4.63 360 16:53 21.02.2021
2287 Clear 27 1015 54 10000 4.63 360 16:31 21.02.2021
2288 Rain 27 1016 65 10000 4.12 360 15:47 21.02.2021
2289 Clouds 25 1016 65 10000 4.12 360 15:19 21.02.2021
2290 Clouds 24 1016 68 10000 5.14 30 14:41 21.02.2021
2291 Clouds 23 1016 68 10000 5.14 30 14:20 21.02.2021
2292 Rain 18 1016 68 10000 4.63 30 13:45 21.02.2021
2293 Clouds 18 1016 68 10000 4.63 30 13:22 21.02.2021
2294 Rain 17 1016 63 10000 2.57 30 12:29 21.02.2021
2295 Clouds 16 1016 59 10000 2.57 30 11:44 21.02.2021
2296 Clouds 15 1015 58 10000 0.89 10 10:58 21.02.2021
2297 Clouds 14 1015 63 10000 5.48 1 10:23 21.02.2021
2298 Rain 13 1016 63 10000 5.48 1 09:55 21.02.2021
2299 Clear 13 1015 67 10000 2.57 40 09:29 21.02.2021
2300 Clear 13 1015 67 10000 2.57 40 08:54 21.02.2021
2301 Clear 14 1015 67 10000 2.57 40 08:20 21.02.2021
2302 Clear 15 1015 55 10000 2.06 20 07:35 21.02.2021
2303 Clear 15 1015 55 10000 3.09 20 06:53 21.02.2021
2304 Clear 16 1016 51 10000 1.54 30 03:36 21.02.2021
2305 Clear 18 1016 39 10000 2.06 70 02:29 21.02.2021
2306 Clear 19 1015 30 10000 4.15 13 00:43 21.02.2021
2307 Clear 20 1015 30 10000 2.96 13 00:19 21.02.2021
2308 Clear 22 1015 33 10000 1.54 180 23:25 20.02.2021
2309 Clear 23 1015 28 10000 1.54 230 22:44 20.02.2021
2310 Clear 23 1015 28 10000 1.54 230 22:25 20.02.2021
2311 Clear 24 1015 23 10000 3.09 220 21:45 20.02.2021
2312 Clear 24 1015 23 10000 3.09 220 21:24 20.02.2021
2313 Clouds 24 1015 25 10000 3.09 190 20:48 20.02.2021
2314 Clouds 24 1015 25 10000 3.09 190 20:24 20.02.2021
2315 Clouds 24 1016 28 10000 5.14 230 19:52 20.02.2021
2316 Clouds 24 1016 28 10000 5.14 230 19:30 20.02.2021
2317 Clouds 25 1016 33 10000 5.14 220 18:41 20.02.2021
2318 Clouds 24 1016 33 10000 5.14 220 18:21 20.02.2021
2319 Clouds 24 1017 33 10000 3.09 260 17:39 20.02.2021
2320 Clouds 23 1017 46 10000 3.09 230 16:57 20.02.2021
2321 Clouds 23 1017 46 10000 3.09 230 16:32 20.02.2021
2322 Clouds 23 1017 46 10000 3.09 230 16:32 20.02.2021
2323 Clouds 23 1017 49 10000 2.57 160 15:55 20.02.2021
2324 Clouds 23 1017 49 10000 2.57 160 15:36 20.02.2021
2325 Clouds 23 1017 49 10000 2.06 180 14:48 20.02.2021
2326 Clouds 22 1017 49 10000 2.06 180 14:24 20.02.2021
2327 Clouds 22 1017 73 10000 1.03 0 13:49 20.02.2021
2328 Clouds 20 1017 73 10000 1.03 0 13:27 20.02.2021
2329 Clouds 19 1017 94 10000 0.51 0 12:50 20.02.2021
2330 Clouds 18 1017 94 10000 0.51 0 12:32 20.02.2021
2331 Clouds 17 1016 94 8000 1.54 190 11:44 20.02.2021
2332 Clouds 17 1016 94 8000 1.54 190 11:26 20.02.2021
2333 Clouds 16 1015 94 10000 0.57 250 10:50 20.02.2021
2334 Clouds 17 1015 94 10000 0.82 144 09:59 20.02.2021
2335 Clouds 17 1015 94 10000 0.82 144 09:40 20.02.2021
2336 Clouds 18 1014 82 10000 1.95 121 08:48 20.02.2021
2337 Clouds 18 1014 82 10000 2.54 121 08:18 20.02.2021
2338 Clouds 19 1014 73 10000 3.6 150 03:33 20.02.2021
2339 Clouds 21 1014 64 10000 2.06 190 02:28 20.02.2021
2340 Clear 20 1013 64 10000 2.57 210 01:50 20.02.2021
2341 Clear 21 1013 60 10000 4.63 220 00:48 20.02.2021
2342 Clear 21 1013 60 10000 4.63 220 00:23 20.02.2021
2343 Clouds 22 1012 68 10000 4.63 200 23:19 19.02.2021
2344 Clouds 24 1012 64 10000 5.66 200 22:37 19.02.2021
2345 Clouds 24 1012 64 10000 5.66 200 22:18 19.02.2021
2346 Clouds 25 1011 61 10000 5.14 200 21:36 19.02.2021
2347 Clouds 25 1011 65 10000 6.69 210 20:58 19.02.2021
2348 Clouds 25 1011 65 10000 6.69 210 20:40 19.02.2021
2349 Clouds 25 1011 65 10000 6.69 210 20:22 19.02.2021
2350 Clouds 27 1011 57 10000 6.69 250 19:43 19.02.2021
2351 Clouds 28 1011 57 10000 6.69 250 19:20 19.02.2021
2352 Clear 28 1011 57 10000 4.63 280 18:43 19.02.2021
2353 Rain 28 1011 57 10000 4.63 280 18:23 19.02.2021
2354 Clear 28 1011 51 10000 5.14 260 17:24 19.02.2021
2355 Clear 28 1011 61 10000 6.17 260 16:40 19.02.2021
2356 Clear 27 1011 61 10000 6.17 260 16:21 19.02.2021
2357 Clear 27 1011 69 10000 7.2 270 15:49 19.02.2021
2358 Clear 27 1011 69 10000 7.2 270 15:27 19.02.2021
2359 Clear 26 1010 89 10000 5.14 260 14:46 19.02.2021
2360 Clear 27 1010 89 10000 5.14 260 14:26 19.02.2021
2361 Clear 26 1010 89 10000 5.14 260 13:53 19.02.2021
2362 Clear 24 1010 78 10000 3.6 280 13:30 19.02.2021
2363 Clear 22 1010 77 10000 2.57 320 12:52 19.02.2021
2364 Clear 21 1010 77 10000 2.57 320 12:24 19.02.2021
2365 Clear 19 1009 82 10000 3.09 320 11:54 19.02.2021
2366 Clear 18 1009 82 10000 3.09 320 11:26 19.02.2021
2367 Clear 17 1009 82 10000 2.57 340 10:54 19.02.2021
2368 Clear 17 1009 82 10000 2.57 340 10:31 19.02.2021
2369 Clear 17 1008 77 10000 2.06 360 09:51 19.02.2021
2370 Clear 18 1008 77 10000 2.06 360 09:27 19.02.2021
2371 Rain 18 1008 77 10000 2.57 10 08:54 19.02.2021
2372 Rain 18 1008 77 10000 2.57 10 08:26 19.02.2021
2373 Rain 17 1008 82 10000 4.69 332 07:49 19.02.2021
2374 Rain 18 1008 82 10000 4.98 330 07:31 19.02.2021
2375 Rain 18 1008 82 10000 2.57 20 06:55 19.02.2021
2376 Rain 18 1008 82 10000 2.57 20 06:27 19.02.2021
2377 Clear 19 1008 88 10000 1.54 20 04:41 19.02.2021
2378 Clear 21 1008 78 10000 3.65 44 01:48 19.02.2021
2379 Clear 23 1008 68 10000 1.54 60 00:37 19.02.2021
2380 Clear 25 1007 47 10000 1.03 0 23:56 18.02.2021
2381 Clear 25 1007 47 10000 1.03 0 23:35 18.02.2021
2382 Clear 25 1008 44 10000 1.03 0 22:51 18.02.2021
2383 Clear 26 1008 44 10000 1.03 0 22:30 18.02.2021
2384 Clear 26 1008 50 10000 2.06 210 21:56 18.02.2021
2385 Clear 26 1008 50 10000 2.06 210 21:28 18.02.2021
2386 Clear 26 1008 50 10000 3.09 210 20:57 18.02.2021
2387 Clear 26 1008 50 10000 3.09 210 20:38 18.02.2021
2388 Clear 26 1008 50 10000 3.09 210 20:18 18.02.2021
2389 Clear 25 1008 53 10000 2.57 150 19:41 18.02.2021
2390 Clear 25 1008 53 10000 2.57 150 19:19 18.02.2021
2391 Clouds 25 1009 57 10000 3.09 280 18:43 18.02.2021
2392 Clouds 25 1009 57 10000 3.09 280 18:25 18.02.2021
2393 Clouds 25 1009 69 10000 2.57 210 17:43 18.02.2021
2394 Clouds 24 1009 69 10000 2.57 210 17:23 18.02.2021
2395 Clouds 24 1009 69 10000 4.63 260 16:42 18.02.2021
2396 Clouds 24 1009 69 10000 4.63 260 16:42 18.02.2021
2397 Clouds 24 1009 69 10000 4.63 260 16:22 18.02.2021
2398 Clouds 24 1009 69 10000 3.09 210 15:41 18.02.2021
2399 Clouds 24 1009 69 10000 3.09 210 15:22 18.02.2021
2400 Clouds 24 1009 73 10000 4.63 200 14:50 18.02.2021
2401 Clouds 23 1009 73 10000 4.63 200 14:29 18.02.2021
2402 Clouds 23 1009 78 10000 4.63 240 13:49 18.02.2021
2403 Clouds 23 1009 78 10000 4.63 240 13:20 18.02.2021
2404 Clouds 21 1009 94 10000 2.57 240 12:53 18.02.2021
2405 Clouds 21 1009 94 10000 2.57 240 12:25 18.02.2021
2406 Clouds 21 1009 94 10000 2.06 270 11:47 18.02.2021
2407 Clouds 21 1009 94 10000 2.06 270 11:47 18.02.2021
2408 Clouds 20 1009 94 10000 2.06 270 11:27 18.02.2021
2409 Clouds 19 1008 94 10000 1.54 300 10:52 18.02.2021
2410 Clouds 19 1008 94 10000 1.54 300 10:34 18.02.2021
2411 Drizzle 20 1007 94 2000 2.57 220 09:57 18.02.2021
2412 Drizzle 20 1007 94 2000 2.57 220 09:27 18.02.2021
2413 Clouds 19 1007 94 10000 1.03 290 08:48 18.02.2021
2414 Clouds 19 1007 94 10000 1.03 290 08:30 18.02.2021
2415 Clouds 18 1007 94 10000 1.54 300 07:42 18.02.2021
2416 Clouds 18 1007 94 10000 1.54 300 07:18 18.02.2021
2417 Clouds 20 1007 83 10000 2.06 220 05:29 18.02.2021
2418 Clouds 22 1007 78 10000 3.6 200 23:57 17.02.2021
2419 Clouds 22 1007 78 10000 3.6 200 23:38 17.02.2021
2420 Clouds 23 1007 73 10000 4.63 200 22:57 17.02.2021
2421 Clouds 23 1007 73 10000 4.63 200 22:38 17.02.2021
2422 Clouds 23 1007 73 10000 4.63 200 22:18 17.02.2021
2423 Clouds 24 1006 69 10000 6.69 200 21:41 17.02.2021
2424 Clouds 24 1006 69 10000 6.69 200 21:19 17.02.2021
2425 Clouds 23 1007 78 10000 7.2 190 20:40 17.02.2021
2426 Clouds 23 1007 94 10000 4.12 210 19:56 17.02.2021
2427 Rain 23 1007 94 10000 4.12 210 19:36 17.02.2021
2428 Clouds 22 1007 78 8000 7.72 230 18:57 17.02.2021
2429 Rain 22 1007 78 8000 7.72 230 18:34 17.02.2021
2430 Clouds 23 1007 73 10000 7.72 210 17:47 17.02.2021
2431 Clouds 23 1007 73 10000 7.72 210 17:22 17.02.2021
2432 Clouds 23 1007 88 10000 5.14 230 16:52 17.02.2021
2433 Clouds 23 1007 78 3000 6.69 230 16:29 17.02.2021
2434 Clouds 23 1007 83 10000 5.14 220 15:56 17.02.2021
2435 Clouds 23 1007 83 10000 5.14 220 15:37 17.02.2021
2436 Clouds 23 1007 83 10000 5.14 220 15:19 17.02.2021
2437 Clouds 22 1007 88 4000 3.6 180 14:41 17.02.2021
2438 Clouds 22 1007 88 10000 4.63 190 14:23 17.02.2021
2439 Clouds 22 1008 94 10000 1.03 0 13:42 17.02.2021
2440 Clouds 20 1008 94 10000 1.03 0 12:59 17.02.2021
2441 Clouds 20 1007 94 10000 4.12 210 12:26 17.02.2021
2442 Clouds 20 1006 94 6000 2.57 210 11:50 17.02.2021
2443 Clouds 20 1006 94 10000 1.03 0 11:30 17.02.2021
2444 Clouds 20 1005 88 10000 3.09 190 10:59 17.02.2021
2445 Clouds 19 1005 88 10000 3.09 190 10:40 17.02.2021
2446 Clouds 19 1005 88 10000 3.09 190 10:20 17.02.2021
2447 Clouds 20 1005 83 10000 4.12 220 09:41 17.02.2021
2448 Clouds 20 1005 83 10000 4.12 220 09:19 17.02.2021
2449 Clouds 20 1005 83 10000 4.12 200 08:42 17.02.2021
2450 Clouds 20 1005 83 10000 4.12 200 08:21 17.02.2021
2451 Clouds 19 1005 88 10000 4.12 190 07:25 17.02.2021
2452 Rain 19 1005 94 10000 1.54 190 04:54 17.02.2021
2453 Rain 20 1005 94 6000 3.09 170 02:33 17.02.2021
2454 Rain 20 1005 94 6000 7.72 210 01:49 17.02.2021
2455 Rain 20 1005 94 6000 2.57 260 00:32 17.02.2021
2456 Clouds 20 1005 100 3000 3.6 270 23:53 16.02.2021
2457 Clouds 20 1005 94 6000 2.57 260 23:34 16.02.2021
2458 Clouds 21 1005 100 3000 4.63 260 22:42 16.02.2021
2459 Clouds 20 1005 100 3000 4.63 260 22:23 16.02.2021
2460 Drizzle 21 1005 78 3500 5.14 270 21:42 16.02.2021
2461 Drizzle 21 1006 88 3000 3.09 270 21:22 16.02.2021
2462 Drizzle 21 1006 88 3000 4.63 240 20:58 16.02.2021
2463 Drizzle 21 1006 88 3000 4.63 240 20:39 16.02.2021
2464 Drizzle 21 1006 88 3000 4.63 240 20:20 16.02.2021
2465 Drizzle 21 1006 88 2500 3.6 270 19:40 16.02.2021
2466 Drizzle 21 1006 88 2500 3.6 270 19:22 16.02.2021
2467 Clouds 22 1007 88 10000 3.09 270 18:40 16.02.2021
2468 Clouds 21 1007 88 10000 3.09 270 18:21 16.02.2021
2469 Clouds 21 1007 88 10000 5.14 260 17:49 16.02.2021
2470 Clouds 21 1007 88 10000 5.14 260 17:25 16.02.2021
2471 Clouds 21 1007 88 10000 6.69 260 16:51 16.02.2021
2472 Clouds 21 1007 88 10000 6.69 260 16:27 16.02.2021
2473 Drizzle 21 1007 94 4000 4.12 270 15:47 16.02.2021
2474 Drizzle 21 1007 94 4000 4.12 270 15:26 16.02.2021
2475 Drizzle 20 1007 94 3500 3.09 240 14:50 16.02.2021
2476 Drizzle 20 1007 94 3500 3.09 240 14:32 16.02.2021
2477 Clouds 20 1007 100 10000 5.66 240 13:58 16.02.2021
2478 Clouds 20 1007 100 10000 5.66 240 13:34 16.02.2021
2479 Clouds 20 1007 94 10000 2.06 240 12:47 16.02.2021
2480 Clouds 20 1007 94 10000 2.06 240 12:26 16.02.2021
2481 Clouds 20 1007 94 5000 2.06 270 11:50 16.02.2021
2482 Clouds 20 1007 94 5000 2.06 270 11:24 16.02.2021
2483 Clouds 20 1006 94 5000 4.12 270 10:57 16.02.2021
2484 Clouds 20 1006 94 5000 4.12 270 10:38 16.02.2021
2485 Clouds 20 1006 94 5000 4.12 270 10:20 16.02.2021
2486 Clouds 20 1006 94 4000 3.6 250 09:47 16.02.2021
2487 Clouds 20 1006 94 4000 3.6 250 09:26 16.02.2021
2488 Clouds 20 1006 88 5000 3.09 240 08:45 16.02.2021
2489 Clouds 20 1006 88 5000 3.09 240 08:45 16.02.2021
2490 Clouds 20 1006 88 5000 3.09 240 08:22 16.02.2021
2491 Clouds 21 1006 94 8000 2.57 260 07:27 16.02.2021
2492 Clouds 21 1007 94 9000 3.09 240 06:21 16.02.2021
2493 Clouds 22 1007 78 10000 1.54 260 01:21 16.02.2021
2494 Clouds 22 1007 78 10000 2.06 180 23:46 15.02.2021
2495 Clouds 23 1007 78 10000 2.06 180 23:24 15.02.2021
2496 Clouds 23 1007 73 10000 4.63 210 22:44 15.02.2021
2497 Clouds 24 1007 73 10000 4.63 210 22:23 15.02.2021
2498 Clouds 24 1007 73 10000 4.63 220 21:42 15.02.2021
2499 Clouds 25 1007 73 10000 4.63 220 21:23 15.02.2021
2500 Clouds 25 1007 83 10000 4.63 220 20:49 15.02.2021
2501 Clouds 24 1007 83 10000 4.63 220 20:29 15.02.2021
2502 Clouds 24 1008 88 10000 4.12 220 19:48 15.02.2021
2503 Clouds 24 1008 88 10000 4.12 220 19:24 15.02.2021
2504 Clouds 24 1008 88 10000 4.12 220 19:24 15.02.2021
2505 Clouds 24 1008 88 10000 2.57 240 18:47 15.02.2021
2506 Clouds 24 1008 88 10000 2.57 240 18:26 15.02.2021
2507 Clouds 24 1008 88 10000 5.66 240 17:44 15.02.2021
2508 Clouds 24 1008 88 10000 5.66 240 17:26 15.02.2021
2509 Clouds 24 1008 88 10000 3.6 220 16:57 15.02.2021
2510 Clouds 24 1008 88 10000 3.6 220 16:29 15.02.2021
2511 Clouds 24 1008 88 10000 3.6 210 15:58 15.02.2021
2512 Clouds 24 1008 88 10000 3.6 210 15:40 15.02.2021
2513 Clouds 24 1008 88 10000 3.6 210 15:18 15.02.2021
2514 Clouds 24 1008 88 10000 4.63 210 14:40 15.02.2021
2515 Clouds 24 1008 88 10000 4.63 210 14:20 15.02.2021
2516 Clouds 24 1008 88 10000 2.57 190 13:48 15.02.2021
2517 Clouds 24 1008 88 10000 2.57 190 13:20 15.02.2021
2518 Clouds 24 1008 88 10000 2.57 190 13:20 15.02.2021
2519 Clouds 22 1007 100 7000 2.06 210 12:45 15.02.2021
2520 Clouds 22 1007 100 7000 2.06 210 12:21 15.02.2021
2521 Fog 21 1007 100 10000 3.86 213 11:45 15.02.2021
2522 Fog 20 1007 100 600 2.73 262 11:22 15.02.2021
2523 Fog 20 1007 100 600 2.73 262 11:22 15.02.2021
2524 Fog 20 1006 94 100 2.73 262 10:49 15.02.2021
2525 Fog 20 1006 94 100 2.33 299 10:25 15.02.2021
2526 Fog 20 1006 94 100 2.33 299 10:25 15.02.2021
2527 Fog 20 1006 94 200 2.06 310 09:55 15.02.2021
2528 Fog 20 1006 94 200 2.06 310 09:33 15.02.2021
2529 Mist 20 1005 94 2000 1.03 320 08:55 15.02.2021
2530 Mist 20 1006 94 2000 1.61 359 07:49 15.02.2021
2531 Mist 21 1006 94 4000 1.03 30 06:59 15.02.2021
2532 Mist 21 1006 94 4000 1.03 30 06:40 15.02.2021
2533 Clear 21 1006 94 10000 1.03 270 02:32 15.02.2021
2534 Clouds 23 1005 83 10000 2.06 110 00:55 15.02.2021
2535 Clear 24 1006 69 10000 2.57 100 23:42 14.02.2021
2536 Clear 25 1006 69 10000 2.57 100 23:22 14.02.2021
2537 Clouds 26 1005 61 10000 2.06 100 22:39 14.02.2021
2538 Clouds 26 1005 61 10000 2.06 100 22:19 14.02.2021
2539 Clouds 26 1004 65 10000 1.54 0 21:48 14.02.2021
2540 Clouds 26 1004 65 10000 1.54 0 21:29 14.02.2021
2541 Rain 25 1005 83 10000 2.06 120 20:46 14.02.2021
2542 Clouds 24 1005 83 10000 2.06 120 20:26 14.02.2021
2543 Rain 24 1006 88 10000 2.57 40 19:48 14.02.2021
2544 Rain 25 1006 78 10000 4.63 120 18:56 14.02.2021
2545 Rain 25 1006 78 10000 4.63 120 18:37 14.02.2021
2546 Rain 26 1006 65 8000 3.6 260 17:56 14.02.2021
2547 Clouds 26 1006 65 8000 3.6 260 17:36 14.02.2021
2548 Clouds 26 1007 65 10000 2.57 230 16:55 14.02.2021
2549 Clouds 28 1007 65 10000 2.57 230 16:29 14.02.2021
2550 Clouds 28 1007 69 10000 3.09 320 15:49 14.02.2021
2551 Clouds 28 1007 69 10000 3.09 320 15:31 14.02.2021
2552 Clouds 27 1007 69 10000 3.09 340 14:48 14.02.2021
2553 Clouds 26 1007 69 10000 3.09 340 14:27 14.02.2021
2554 Clear 25 1007 78 10000 4.12 10 13:53 14.02.2021
2555 Clear 24 1007 78 10000 4.12 10 13:30 14.02.2021
2556 Clear 22 1007 88 10000 5.14 30 12:40 14.02.2021
2557 Clear 22 1007 88 10000 5.14 30 12:19 14.02.2021
2558 Clear 21 1006 94 10000 4.12 30 11:50 14.02.2021
2559 Clear 20 1006 94 10000 4.12 30 11:21 14.02.2021
2560 Clear 20 1006 94 10000 2.57 40 10:37 14.02.2021
2561 Clear 20 1008 94 10000 4.12 50 09:55 14.02.2021
2562 Clear 20 1008 94 10000 4.12 50 09:37 14.02.2021
2563 Clear 20 1008 94 10000 4.12 50 09:19 14.02.2021
2564 Clear 20 1008 94 10000 3.42 3 08:35 14.02.2021
2565 Clear 20 1007 94 10000 3.39 7 07:54 14.02.2021
2566 Clear 21 1007 88 10000 3.73 4 06:37 14.02.2021
2567 Clear 22 1008 83 10000 2.98 27 04:52 14.02.2021
2568 Clear 22 1007 88 10000 3.74 72 03:23 14.02.2021
2569 Clouds 22 1007 83 10000 4.12 100 01:33 14.02.2021
2570 Clouds 22 1007 78 10000 3.09 110 00:45 14.02.2021
2571 Rain 23 1007 83 10000 5.14 120 23:59 13.02.2021
2572 Clouds 23 1007 83 10000 5.14 120 23:37 13.02.2021
2573 Clouds 23 1007 83 10000 5.14 120 23:19 13.02.2021
2574 Clouds 24 1007 73 10000 5.66 120 22:32 13.02.2021
2575 Clouds 26 1007 69 10000 5.14 140 21:53 13.02.2021
2576 Clouds 26 1007 69 10000 5.14 140 21:35 13.02.2021
2577 Clouds 26 1007 69 10000 5.14 140 21:35 13.02.2021
2578 Clouds 26 1008 69 10000 5.14 190 20:49 13.02.2021
2579 Clouds 26 1008 69 10000 5.14 190 20:28 13.02.2021
2580 Clouds 26 1008 69 10000 4.12 180 19:49 13.02.2021
2581 Clouds 26 1008 69 10000 4.12 180 19:49 13.02.2021
2582 Clouds 26 1008 69 10000 4.12 180 19:24 13.02.2021
2583 Clouds 26 1009 27 10000 1.03 0 18:50 13.02.2021
2584 Clouds 26 1009 27 10000 1.03 0 18:28 13.02.2021
2585 Clouds 25 1010 65 10000 0.51 0 17:45 13.02.2021
2586 Clouds 25 1010 65 10000 0.51 0 17:25 13.02.2021
2587 Clouds 24 1010 73 10000 1.54 0 16:55 13.02.2021
2588 Clouds 24 1010 73 10000 1.54 0 16:37 13.02.2021
2589 Clouds 23 1011 78 10000 0.51 0 15:46 13.02.2021
2590 Clouds 23 1011 78 10000 0.51 0 15:26 13.02.2021
2591 Clouds 23 1011 83 10000 1.54 0 14:41 13.02.2021
2592 Clouds 22 1011 94 10000 2.06 90 13:54 13.02.2021
2593 Clouds 21 1011 94 10000 2.06 90 13:29 13.02.2021
2594 Clouds 21 1011 94 10000 2.57 90 12:57 13.02.2021
2595 Clouds 21 1011 94 10000 2.57 90 12:23 13.02.2021
2596 Clouds 21 1011 94 10000 2.57 90 12:23 13.02.2021
2597 Rain 20 1011 94 10000 2.57 100 11:58 13.02.2021
2598 Clouds 20 1011 94 10000 2.57 100 11:39 13.02.2021
2599 Clouds 20 1011 94 10000 2.57 100 11:18 13.02.2021
2600 Clouds 19 1011 94 10000 1.54 90 10:43 13.02.2021
2601 Clouds 19 1011 94 10000 1.54 90 10:43 13.02.2021
2602 Clouds 19 1011 94 10000 1.54 90 10:22 13.02.2021
2603 Clouds 19 1011 88 10000 1.03 140 09:46 13.02.2021
2604 Clouds 19 1011 88 10000 1.03 140 09:28 13.02.2021
2605 Clouds 19 1011 88 10000 0.51 100 08:47 13.02.2021
2606 Clouds 19 1011 88 10000 0.51 100 08:19 13.02.2021
2607 Clouds 19 1012 83 10000 2.06 90 07:23 13.02.2021
2608 Clouds 20 1012 83 10000 3.09 100 06:24 13.02.2021
2609 Clouds 19 1013 88 10000 2.57 80 04:31 13.02.2021
2610 Rain 20 1013 83 10000 2.06 50 02:41 13.02.2021
2611 Rain 21 1012 83 10000 4.63 90 00:54 13.02.2021
2612 Rain 21 1012 83 10000 4.63 90 00:18 13.02.2021
2613 Clouds 21 1011 78 10000 5.14 90 23:45 12.02.2021
2614 Clouds 22 1011 78 10000 5.14 90 23:18 12.02.2021
2615 Clouds 23 1011 73 10000 3.09 90 22:32 12.02.2021
2616 Clouds 23 1012 73 10000 4.63 120 21:58 12.02.2021
2617 Clouds 23 1012 73 10000 4.63 120 21:58 12.02.2021
2618 Clouds 23 1012 73 10000 4.63 120 21:39 12.02.2021
2619 Clouds 24 1012 73 10000 4.63 120 21:21 12.02.2021
2620 Clouds 24 1012 78 10000 5.14 120 20:40 12.02.2021
2621 Clouds 24 1012 78 10000 5.14 120 20:21 12.02.2021
2622 Clouds 24 1013 73 10000 3.09 100 19:49 12.02.2021
2623 Clouds 23 1013 73 10000 3.09 100 19:28 12.02.2021
2624 Rain 23 1013 88 6000 4.12 90 18:35 12.02.2021
2625 Rain 23 1014 83 4000 4.12 80 17:54 12.02.2021
2626 Rain 23 1014 83 4000 4.12 80 17:35 12.02.2021
2627 Rain 24 1014 83 8000 4.12 40 16:53 12.02.2021
2628 Rain 24 1014 83 8000 4.12 40 16:18 12.02.2021
2629 Clouds 23 1014 83 10000 4.12 40 15:41 12.02.2021
2630 Clouds 23 1014 83 10000 4.12 40 15:19 12.02.2021
2631 Clouds 23 1014 83 10000 4.12 30 14:34 12.02.2021
2632 Clouds 23 1014 88 6000 5.14 40 13:49 12.02.2021
2633 Clouds 22 1014 88 6000 5.14 40 13:29 12.02.2021
2634 Clouds 21 1014 94 10000 4.12 60 12:53 12.02.2021
2635 Clouds 21 1014 94 10000 4.12 60 12:35 12.02.2021
2636 Clouds 21 1013 94 7000 4.63 60 11:47 12.02.2021
2637 Clouds 21 1013 94 7000 4.63 60 11:21 12.02.2021
2638 Clouds 21 1013 88 10000 4.12 80 10:48 12.02.2021
2639 Clouds 21 1013 88 10000 3.6 90 09:59 12.02.2021
2640 Clouds 21 1013 88 10000 3.6 90 09:39 12.02.2021
2641 Clouds 20 1013 88 10000 3.6 90 09:21 12.02.2021
2642 Rain 20 1013 88 10000 4.12 100 08:44 12.02.2021
2643 Rain 20 1013 88 10000 4.12 100 08:21 12.02.2021
2644 Rain 20 1013 94 10000 3.09 100 07:51 12.02.2021
2645 Rain 20 1013 94 10000 3.09 100 07:21 12.02.2021
2646 Clouds 20 1014 88 10000 5.66 90 06:18 12.02.2021
2647 Clouds 20 1014 83 10000 4.12 80 05:29 12.02.2021
2648 Clouds 20 1014 83 10000 4.12 100 03:32 12.02.2021
2649 Rain 21 1013 83 10000 6.17 90 00:28 12.02.2021
2650 Clouds 22 1013 88 10000 4.12 90 23:23 11.02.2021
2651 Clouds 22 1013 88 10000 5.66 90 22:59 11.02.2021
2652 Clouds 22 1013 88 10000 5.66 90 22:41 11.02.2021
2653 Clouds 22 1013 88 10000 5.66 90 22:21 11.02.2021
2654 Clouds 22 1014 83 8000 4.63 90 21:43 11.02.2021
2655 Rain 22 1014 83 8000 4.63 90 21:24 11.02.2021
2656 Rain 22 1015 94 8000 2.57 100 20:47 11.02.2021
2657 Rain 22 1015 94 8000 2.57 100 20:23 11.02.2021
2658 Rain 22 1015 94 3000 2.57 100 19:52 11.02.2021
2659 Rain 22 1015 94 3000 2.57 100 19:33 11.02.2021
2660 Rain 21 1015 88 2500 4.63 90 18:59 11.02.2021
2661 Rain 21 1015 88 2500 4.63 90 18:31 11.02.2021
2662 Rain 22 1015 88 7000 2.57 80 17:58 11.02.2021
2663 Rain 22 1015 88 700 7.72 110 17:37 11.02.2021
2664 Rain 22 1015 88 5000 2.57 90 17:19 11.02.2021
2665 Rain 22 1015 83 2500 7.72 40 16:41 11.02.2021
2666 Rain 24 1015 73 10000 7.72 120 16:23 11.02.2021
2667 Rain 25 1016 73 5000 5.66 30 15:44 11.02.2021
2668 Rain 25 1016 73 5000 5.66 30 15:44 11.02.2021
2669 Clouds 24 1016 73 5000 5.66 30 15:26 11.02.2021
2670 Rain 24 1016 78 10000 6.17 40 14:51 11.02.2021
2671 Clouds 24 1016 78 10000 6.17 40 14:30 11.02.2021
2672 Clouds 24 1016 83 10000 5.14 90 13:42 11.02.2021
2673 Clouds 23 1016 83 10000 5.14 90 13:19 11.02.2021
2674 Clouds 22 1016 88 10000 6.69 90 12:53 11.02.2021
2675 Clouds 21 1016 88 10000 6.69 90 12:30 11.02.2021
2676 Clouds 20 1016 94 10000 6.69 60 11:47 11.02.2021
2677 Clouds 20 1016 94 10000 6.69 60 11:25 11.02.2021
2678 Clear 19 1015 83 10000 2.57 90 10:45 11.02.2021
2679 Clear 19 1015 83 10000 2.57 90 10:26 11.02.2021
2680 Clear 20 1015 83 10000 2.57 80 09:54 11.02.2021
2681 Clear 20 1015 83 10000 2.57 80 09:24 11.02.2021
2682 Clear 20 1015 83 10000 3.6 80 08:54 11.02.2021
2683 Clear 20 1015 83 10000 3.6 80 08:28 11.02.2021
2684 Clear 21 1015 78 10000 3.6 80 07:38 11.02.2021
2685 Clear 21 1015 83 10000 3.6 90 06:41 11.02.2021
2686 Clear 21 1016 83 10000 3.09 90 05:33 11.02.2021
2687 Clouds 21 1016 78 10000 3.6 100 02:29 11.02.2021
2688 Clouds 21 1015 78 10000 5.14 130 00:54 11.02.2021
2689 Clouds 22 1015 78 10000 5.14 130 00:21 11.02.2021
2690 Clouds 22 1015 78 10000 6.69 130 23:45 10.02.2021
2691 Clouds 23 1015 78 10000 7.2 140 22:53 10.02.2021
2692 Clouds 23 1015 78 10000 7.2 140 22:31 10.02.2021
2693 Clouds 24 1015 73 10000 6.69 140 21:59 10.02.2021
2694 Clouds 25 1015 69 10000 7.72 130 21:38 10.02.2021
2695 Clouds 25 1015 69 10000 7.72 130 21:19 10.02.2021
2696 Clouds 25 1016 69 10000 6.69 120 20:41 10.02.2021
2697 Clouds 25 1016 69 10000 6.69 120 20:22 10.02.2021
2698 Clouds 26 1017 65 10000 6.17 140 19:46 10.02.2021
2699 Clouds 26 1017 65 10000 6.17 140 19:25 10.02.2021
2700 Clouds 25 1017 69 10000 6.17 130 18:44 10.02.2021
2701 Clouds 25 1017 69 10000 6.17 130 18:23 10.02.2021
2702 Clouds 26 1018 69 10000 7.2 130 17:57 10.02.2021
2703 Clouds 25 1018 69 10000 7.2 130 17:24 10.02.2021
2704 Clouds 24 1018 73 10000 4.63 130 16:53 10.02.2021
2705 Clouds 24 1018 73 10000 4.63 130 16:31 10.02.2021
2706 Clouds 25 1018 78 10000 2.57 150 15:59 10.02.2021
2707 Clouds 24 1018 78 10000 2.57 150 15:24 10.02.2021
2708 Clouds 23 1019 94 10000 2.57 130 14:52 10.02.2021
2709 Clouds 23 1019 94 10000 2.57 130 14:31 10.02.2021
2710 Drizzle 22 1019 94 8000 3.6 130 13:53 10.02.2021
2711 Drizzle 22 1019 94 8000 3.6 130 13:29 10.02.2021
2712 Clouds 21 1018 94 10000 2.57 100 12:52 10.02.2021
2713 Clouds 20 1018 94 10000 2.57 100 12:30 10.02.2021
2714 Clouds 19 1018 100 5000 2.57 130 11:56 10.02.2021
2715 Clouds 19 1018 100 5000 2.57 130 11:37 10.02.2021
2716 Clouds 19 1018 100 5000 2.57 130 11:19 10.02.2021
2717 Clouds 19 1018 88 10000 4.12 100 10:23 10.02.2021
2718 Clouds 19 1018 94 3000 5.14 110 09:53 10.02.2021
2719 Clouds 19 1018 94 3000 5.14 110 09:30 10.02.2021
2720 Clouds 19 1018 88 10000 5.66 130 08:52 10.02.2021
2721 Clouds 19 1018 88 10000 5.66 130 08:32 10.02.2021
2722 Clouds 19 1018 88 10000 6.69 130 07:31 10.02.2021
2723 Clouds 19 1018 88 1500 6.17 110 06:21 10.02.2021
2724 Clouds 21 1019 78 10000 7.72 120 01:24 10.02.2021
2725 Clouds 21 1018 78 10000 7.72 120 23:49 09.02.2021
2726 Clouds 21 1018 78 10000 7.72 120 23:30 09.02.2021
2727 Clouds 22 1018 73 10000 4.63 100 22:45 09.02.2021
2728 Clouds 23 1018 73 10000 4.63 100 22:23 09.02.2021
2729 Clouds 22 1018 73 10000 7.72 120 21:48 09.02.2021
2730 Clouds 23 1018 73 10000 7.72 120 21:21 09.02.2021
2731 Clouds 23 1018 78 10000 7.72 130 20:44 09.02.2021
2732 Clouds 22 1018 78 10000 7.72 130 20:25 09.02.2021
2733 Clouds 22 1019 83 10000 6.69 130 19:44 09.02.2021
2734 Clouds 22 1019 83 10000 6.69 130 19:23 09.02.2021
2735 Clouds 21 1019 83 3000 7.72 120 18:49 09.02.2021
2736 Clouds 21 1019 83 3000 7.72 120 18:30 09.02.2021
2737 Clouds 22 1019 83 3000 6.17 120 17:50 09.02.2021
2738 Clouds 22 1019 83 3000 6.17 120 17:50 09.02.2021
2739 Clouds 22 1019 83 3000 6.17 120 17:27 09.02.2021
2740 Clouds 23 1019 64 10000 4.12 120 16:54 09.02.2021
2741 Clouds 23 1019 64 10000 4.12 120 16:20 09.02.2021
2742 Clouds 24 1019 64 10000 4.12 120 15:58 09.02.2021
2743 Clouds 24 1019 64 10000 5.14 60 15:39 09.02.2021
2744 Clouds 24 1019 64 10000 5.14 60 15:20 09.02.2021
2745 Clouds 24 1019 68 10000 5.14 120 14:42 09.02.2021
2746 Clouds 23 1019 68 10000 5.14 120 14:21 09.02.2021
2747 Clouds 22 1019 83 10000 5.14 150 13:41 09.02.2021
2748 Clouds 22 1019 83 10000 5.14 150 13:20 09.02.2021
2749 Clouds 22 1019 83 10000 5.14 150 13:20 09.02.2021
2750 Clouds 20 1019 94 8000 5.14 180 12:43 09.02.2021
2751 Clouds 20 1019 94 8000 5.14 180 12:24 09.02.2021
2752 Clouds 19 1019 88 10000 5.14 180 11:44 09.02.2021
2753 Clouds 19 1019 88 10000 5.14 180 11:21 09.02.2021
2754 Clouds 19 1018 88 10000 7.2 170 10:57 09.02.2021
2755 Clouds 19 1018 88 10000 7.2 170 10:21 09.02.2021
2756 Clouds 19 1017 82 10000 7.2 150 09:54 09.02.2021
2757 Clouds 19 1017 82 10000 7.2 150 09:26 09.02.2021
2758 Clouds 19 1017 82 10000 4.63 130 08:56 09.02.2021
2759 Clouds 19 1017 82 10000 4.63 130 08:29 09.02.2021
2760 Clouds 19 1017 88 10000 8.23 140 07:53 09.02.2021
2761 Clouds 19 1018 77 10000 5.66 140 05:35 09.02.2021
2762 Clouds 19 1018 77 10000 9.26 140 03:49 09.02.2021
2763 Clouds 19 1018 73 10000 9.26 140 01:52 09.02.2021
2764 Clouds 19 1017 77 10000 8.23 130 00:31 09.02.2021
2765 Clouds 20 1017 83 10000 7.2 130 23:40 08.02.2021
2766 Clouds 20 1017 83 10000 7.2 130 23:18 08.02.2021
2767 Clouds 21 1016 78 10000 5.66 130 22:42 08.02.2021
2768 Clouds 21 1016 78 10000 5.66 130 22:22 08.02.2021
2769 Clouds 22 1016 73 10000 6.69 130 21:45 08.02.2021
2770 Clouds 23 1016 73 10000 6.69 130 21:22 08.02.2021
2771 Clouds 23 1016 73 10000 6.69 140 20:44 08.02.2021
2772 Clouds 23 1016 73 10000 6.69 140 20:24 08.02.2021
2773 Clouds 23 1016 73 10000 6.69 140 19:58 08.02.2021
2774 Clouds 23 1016 73 10000 6.17 130 19:39 08.02.2021
2775 Clouds 22 1016 73 10000 6.17 130 19:19 08.02.2021
2776 Clouds 23 1016 73 10000 6.17 120 18:41 08.02.2021
2777 Clouds 22 1016 73 10000 6.17 120 18:18 08.02.2021
2778 Clouds 21 1016 83 10000 5.66 110 17:43 08.02.2021
2779 Clouds 21 1016 83 10000 5.66 110 17:22 08.02.2021
2780 Clouds 21 1016 88 10000 6.17 120 16:40 08.02.2021
2781 Clouds 20 1016 88 10000 6.17 120 16:20 08.02.2021
2782 Clouds 20 1016 88 10000 6.69 110 15:40 08.02.2021
2783 Clouds 20 1016 88 10000 6.69 110 15:19 08.02.2021
2784 Clouds 19 1016 94 6000 7.2 120 14:51 08.02.2021
2785 Clouds 19 1016 94 6000 7.2 120 14:29 08.02.2021
2786 Rain 19 1016 100 10000 6.69 130 13:56 08.02.2021
2787 Clouds 19 1016 100 10000 6.69 130 13:29 08.02.2021
2788 Clouds 18 1015 94 8000 7.72 130 12:51 08.02.2021
2789 Rain 18 1015 94 3000 3.09 130 12:32 08.02.2021
2790 Clouds 19 1015 88 2000 7.72 200 11:42 08.02.2021
2791 Rain 20 1014 88 10000 2.57 140 11:18 08.02.2021
2792 Rain 21 1013 78 10000 5.14 90 10:42 08.02.2021
2793 Clouds 21 1013 78 10000 5.14 90 10:23 08.02.2021
2794 Clouds 20 1013 83 10000 5.14 100 09:50 08.02.2021
2795 Clouds 20 1013 83 10000 5.14 100 09:22 08.02.2021
2796 Rain 21 1013 78 10000 5.14 110 08:31 08.02.2021
2797 Clouds 21 1014 78 10000 4.12 120 07:49 08.02.2021
2798 Rain 21 1014 78 10000 4.12 120 07:21 08.02.2021
2799 Clear 21 1015 78 10000 5.66 110 05:29 08.02.2021
2800 Clouds 22 1015 78 10000 7.72 110 02:28 08.02.2021
2801 Clouds 24 1013 78 10000 5.14 140 00:43 08.02.2021
2802 Clouds 24 1013 78 10000 5.14 140 00:18 08.02.2021
2803 Clouds 25 1013 65 10000 3.6 110 23:46 07.02.2021
2804 Rain 25 1013 65 10000 3.6 110 23:19 07.02.2021
2805 Clouds 27 1013 57 10000 3.09 100 22:43 07.02.2021
2806 Clouds 27 1013 57 10000 3.09 100 22:24 07.02.2021
2807 Clouds 28 1013 57 10000 4.63 130 21:51 07.02.2021
2808 Clouds 28 1013 57 10000 4.63 130 21:26 07.02.2021
2809 Clouds 28 1013 51 10000 4.12 130 20:53 07.02.2021
2810 Clouds 28 1013 51 10000 4.12 130 20:33 07.02.2021
2811 Clouds 29 1014 42 10000 2.57 250 19:55 07.02.2021
2812 Clouds 29 1014 42 10000 2.57 250 19:30 07.02.2021
2813 Clouds 29 1014 48 10000 2.06 0 18:55 07.02.2021
2814 Clouds 29 1014 48 10000 2.06 0 18:35 07.02.2021
2815 Clouds 28 1014 48 10000 1.54 0 17:59 07.02.2021
2816 Clouds 28 1014 48 10000 1.54 0 17:40 07.02.2021
2817 Clouds 28 1014 48 10000 1.54 0 17:19 07.02.2021
2818 Clouds 26 1015 61 10000 1.03 0 16:45 07.02.2021
2819 Clouds 26 1015 61 10000 1.03 0 16:23 07.02.2021
2820 Clear 26 1015 65 10000 2.06 50 15:49 07.02.2021
2821 Clear 25 1015 65 10000 2.06 50 15:28 07.02.2021
2822 Clear 25 1015 68 10000 4.12 40 14:49 07.02.2021
2823 Clear 24 1015 68 10000 4.12 40 14:30 07.02.2021
2824 Clear 23 1015 78 10000 4.63 50 13:56 07.02.2021
2825 Clear 23 1015 78 10000 4.63 50 13:35 07.02.2021
2826 Clear 21 1015 83 10000 3.09 80 12:54 07.02.2021
2827 Clear 21 1015 83 10000 3.09 80 12:36 07.02.2021
2828 Clear 20 1015 83 10000 3.09 80 12:18 07.02.2021
2829 Clear 18 1014 82 10000 2.06 100 11:27 07.02.2021
2830 Rain 17 1013 94 10000 1.54 50 10:51 07.02.2021
2831 Clear 17 1013 94 10000 1.54 50 10:27 07.02.2021
2832 Clear 16 1013 88 10000 1.54 30 09:49 07.02.2021
2833 Clear 17 1013 88 10000 1.54 30 09:24 07.02.2021
2834 Clouds 17 1013 88 10000 2.06 60 08:36 07.02.2021
2835 Clouds 18 1013 88 10000 2.06 60 07:44 07.02.2021
2836 Clouds 19 1014 83 10000 4.12 100 05:58 07.02.2021
2837 Clouds 20 1014 83 10000 5.66 120 03:55 07.02.2021
2838 Clouds 20 1013 78 10000 4.63 130 01:39 07.02.2021
2839 Clouds 21 1013 78 10000 5.14 140 00:36 07.02.2021
2840 Clouds 22 1013 78 10000 7.2 130 23:47 06.02.2021
2841 Clouds 25 1012 65 10000 5.14 180 22:48 06.02.2021
2842 Clouds 29 1012 48 10000 2.57 270 21:43 06.02.2021
2843 Clouds 29 1012 48 10000 2.57 270 21:23 06.02.2021
2844 Clear 29 1012 45 10000 5.66 270 20:53 06.02.2021
2845 Clear 29 1012 45 10000 5.66 270 20:26 06.02.2021
2846 Clear 29 1012 37 10000 6.17 250 19:58 06.02.2021
2847 Clear 29 1013 54 10000 5.14 260 19:34 06.02.2021
2848 Clear 29 1013 51 10000 5.14 260 18:56 06.02.2021
2849 Clear 29 1013 51 10000 5.14 260 18:35 06.02.2021
2850 Clear 28 1014 54 10000 4.63 300 17:56 06.02.2021
2851 Clear 28 1014 54 10000 4.63 300 17:38 06.02.2021
2852 Clear 28 1014 54 10000 4.63 300 17:20 06.02.2021
2853 Clear 27 1014 57 10000 4.63 270 16:42 06.02.2021
2854 Clear 27 1014 57 10000 4.63 270 16:42 06.02.2021
2855 Clear 27 1014 57 10000 4.63 270 16:24 06.02.2021
2856 Clear 26 1014 61 10000 4.63 300 15:48 06.02.2021
2857 Clear 26 1014 61 10000 4.63 300 15:26 06.02.2021
2858 Clear 25 1014 64 10000 4.63 270 14:47 06.02.2021
2859 Clear 24 1014 64 10000 4.63 270 14:28 06.02.2021
2860 Clear 22 1014 83 10000 4.12 270 13:55 06.02.2021
2861 Clear 22 1014 83 10000 4.12 270 13:36 06.02.2021
2862 Rain 18 1014 88 10000 2.57 360 12:23 06.02.2021
2863 Rain 15 1013 100 10000 5.15 295 11:58 06.02.2021
2864 Clear 15 1013 100 10000 5.15 295 11:39 06.02.2021
2865 Clear 14 1013 100 10000 5.23 298 11:19 06.02.2021
2866 Clear 13 1013 94 10000 2.06 330 10:47 06.02.2021
2867 Rain 13 1013 94 10000 2.06 330 10:25 06.02.2021
2868 Rain 13 1012 94 10000 2.06 330 09:37 06.02.2021
2869 Rain 13 1012 94 10000 2.06 330 09:18 06.02.2021
2870 Rain 14 1012 88 8000 1.54 340 08:52 06.02.2021
2871 Rain 14 1012 88 8000 1.54 340 08:28 06.02.2021
2872 Clear 14 1012 88 7000 1.54 330 06:41 06.02.2021
2873 Clear 15 1013 88 8000 1.54 350 05:39 06.02.2021
2874 Clear 18 1013 72 10000 1.54 150 02:43 06.02.2021
2875 Clear 19 1013 64 10000 3.09 150 00:56 06.02.2021
2876 Clear 19 1013 64 10000 3.09 150 00:37 06.02.2021
2877 Clear 20 1013 64 10000 3.09 150 00:18 06.02.2021
2878 Clear 21 1013 60 10000 3.6 180 23:29 05.02.2021
2879 Clear 21 1013 64 10000 5.14 180 22:49 05.02.2021
2880 Clear 22 1013 64 10000 5.14 180 22:25 05.02.2021
2881 Clear 22 1013 64 10000 5.14 180 22:25 05.02.2021
2882 Clouds 23 1013 60 10000 6.17 180 21:54 05.02.2021
2883 Clouds 23 1013 60 10000 6.17 180 21:35 05.02.2021
2884 Clouds 23 1014 56 10000 5.66 170 20:56 05.02.2021
2885 Clouds 23 1014 56 10000 5.66 170 20:19 05.02.2021
2886 Clouds 23 1014 60 10000 5.14 170 19:39 05.02.2021
2887 Clouds 23 1014 60 10000 5.14 170 19:18 05.02.2021
2888 Clouds 23 1014 60 10000 5.66 170 18:38 05.02.2021
2889 Clouds 23 1014 60 10000 5.66 170 18:19 05.02.2021
2890 Clouds 23 1015 60 10000 5.14 160 17:35 05.02.2021
2891 Clouds 23 1015 60 10000 5.14 160 16:58 05.02.2021
2892 Clouds 23 1015 53 10000 5.14 190 16:39 05.02.2021
2893 Clouds 23 1015 53 10000 5.14 190 16:20 05.02.2021
2894 Clouds 23 1015 56 10000 6.17 180 15:45 05.02.2021
2895 Clouds 22 1015 56 10000 6.17 180 15:22 05.02.2021
2896 Clouds 22 1015 60 10000 6.69 170 14:38 05.02.2021
2897 Clouds 22 1015 60 10000 6.69 170 14:19 05.02.2021
2898 Clouds 21 1015 60 10000 6.17 180 13:48 05.02.2021
2899 Clouds 21 1015 60 10000 6.17 180 13:30 05.02.2021
2900 Clouds 21 1015 60 10000 6.17 180 13:30 05.02.2021
2901 Clouds 20 1014 60 10000 5.66 170 12:42 05.02.2021
2902 Clouds 21 1014 60 10000 5.66 170 12:21 05.02.2021
2903 Clouds 19 1014 68 10000 4.63 160 11:39 05.02.2021
2904 Clouds 19 1014 68 10000 4.63 160 11:20 05.02.2021
2905 Clouds 18 1013 59 10000 6.69 170 10:48 05.02.2021
2906 Clouds 18 1013 59 10000 6.69 170 10:25 05.02.2021
2907 Clouds 18 1013 63 10000 6.17 180 09:43 05.02.2021
2908 Clouds 18 1013 63 10000 6.17 180 09:24 05.02.2021
2909 Clouds 18 1013 63 10000 6.17 180 08:45 05.02.2021
2910 Clouds 19 1013 68 10000 6.17 190 07:45 05.02.2021
2911 Clouds 19 1013 68 10000 6.17 190 07:26 05.02.2021
2912 Clouds 19 1014 68 10000 7.2 180 06:41 05.02.2021
2913 Clouds 19 1014 68 10000 7.72 180 05:35 05.02.2021
2914 Clouds 20 1015 68 10000 7.72 190 02:26 05.02.2021
2915 Clouds 20 1015 73 10000 7.72 190 01:55 05.02.2021
2916 Clouds 20 1015 73 10000 5.14 190 00:38 05.02.2021
2917 Clouds 20 1015 73 10000 5.14 190 00:19 05.02.2021
2918 Clouds 21 1015 73 10000 7.72 190 23:44 04.02.2021
2919 Clouds 21 1015 73 10000 7.72 190 23:25 04.02.2021
2920 Clouds 22 1015 73 10000 7.72 190 22:55 04.02.2021
2921 Clouds 22 1015 68 10000 9.26 200 22:37 04.02.2021
2922 Clear 24 1015 53 10000 8.23 200 21:58 04.02.2021
2923 Clear 24 1015 53 10000 8.23 200 21:40 04.02.2021
2924 Clear 25 1015 57 10000 8.23 200 20:58 04.02.2021
2925 Clear 25 1015 57 10000 8.23 200 20:34 04.02.2021
2926 Clear 25 1015 57 10000 8.23 200 20:34 04.02.2021
2927 Clouds 24 1015 57 10000 7.72 200 19:53 04.02.2021
2928 Clouds 24 1015 57 10000 7.72 200 19:32 04.02.2021
2929 Clouds 25 1016 53 10000 8.23 200 18:51 04.02.2021
2930 Clouds 25 1016 53 10000 8.23 200 18:24 04.02.2021
2931 Clouds 24 1016 57 10000 7.2 190 17:50 04.02.2021
2932 Clouds 24 1016 57 10000 7.2 190 17:24 04.02.2021
2933 Clouds 24 1015 56 10000 8.23 180 16:51 04.02.2021
2934 Clouds 24 1015 56 10000 8.23 180 16:21 04.02.2021
2935 Clouds 23 1015 60 10000 8.23 180 15:58 04.02.2021
2936 Clouds 23 1015 60 10000 8.23 180 15:38 04.02.2021
2937 Clouds 22 1015 60 10000 8.23 180 15:20 04.02.2021
2938 Clouds 22 1014 68 10000 7.72 190 14:41 04.02.2021
2939 Clouds 22 1014 68 10000 7.72 190 14:20 04.02.2021
2940 Clouds 21 1014 83 10000 8.23 190 13:44 04.02.2021
2941 Clouds 20 1014 83 10000 7.72 180 12:58 04.02.2021
2942 Clouds 20 1014 83 10000 7.72 180 12:36 04.02.2021
2943 Clouds 20 1014 83 10000 7.72 180 11:54 04.02.2021
2944 Clouds 20 1013 83 10000 7.2 180 11:33 04.02.2021
2945 Clouds 20 1012 78 10000 6.69 190 10:51 04.02.2021
2946 Rain 20 1012 78 10000 6.69 190 10:32 04.02.2021
2947 Clouds 20 1012 78 10000 7.72 180 09:45 04.02.2021
2948 Rain 20 1012 78 10000 7.72 180 09:19 04.02.2021
2949 Rain 21 1012 78 10000 7.2 180 08:50 04.02.2021
2950 Rain 21 1012 78 10000 7.2 180 08:25 04.02.2021
2951 Clouds 21 1011 83 10000 8.75 190 07:50 04.02.2021
2952 Rain 21 1011 83 10000 8.75 190 07:32 04.02.2021
2953 Rain 21 1011 83 10000 9.77 180 06:44 04.02.2021
2954 Rain 21 1012 83 10000 7.2 190 05:31 04.02.2021
2955 Rain 20 1011 94 3000 5.66 130 02:29 04.02.2021
2956 Mist 20 1011 88 3000 3.6 90 01:20 04.02.2021
2957 Clouds 21 1011 88 6000 5.66 140 23:53 03.02.2021
2958 Rain 21 1011 88 6000 6.69 150 23:30 03.02.2021
2959 Rain 21 1011 88 4000 6.17 150 22:37 03.02.2021
2960 Rain 21 1011 88 4000 6.17 150 22:19 03.02.2021
2961 Rain 21 1011 88 8000 6.17 150 21:42 03.02.2021
2962 Rain 22 1011 88 8000 6.17 150 21:22 03.02.2021
2963 Rain 22 1011 88 8000 6.17 150 20:48 03.02.2021
2964 Rain 22 1012 83 10000 6.69 160 20:29 03.02.2021
2965 Rain 22 1012 83 10000 5.14 140 19:54 03.02.2021
2966 Rain 23 1012 83 10000 5.14 140 19:24 03.02.2021
2967 Rain 23 1013 78 10000 5.66 140 18:55 03.02.2021
2968 Clouds 23 1013 78 10000 5.66 140 18:36 03.02.2021
2969 Rain 23 1013 78 10000 5.66 140 18:18 03.02.2021
2970 Clouds 23 1013 83 10000 5.66 140 17:42 03.02.2021
2971 Clouds 23 1013 83 10000 5.66 140 17:19 03.02.2021
2972 Clouds 23 1014 78 10000 5.14 120 16:37 03.02.2021
2973 Rain 23 1014 88 8000 5.14 120 15:58 03.02.2021
2974 Rain 23 1014 88 8000 5.14 120 15:38 03.02.2021
2975 Rain 23 1014 88 8000 5.14 120 15:20 03.02.2021
2976 Drizzle 23 1014 88 6000 5.14 140 14:43 03.02.2021
2977 Rain 22 1014 88 6000 5.14 140 14:20 03.02.2021
2978 Clouds 23 1014 78 10000 5.66 130 13:43 03.02.2021
2979 Clouds 23 1014 78 10000 5.66 130 13:19 03.02.2021
2980 Rain 23 1014 83 10000 4.63 150 12:40 03.02.2021
2981 Clouds 23 1014 83 10000 4.63 150 12:20 03.02.2021
2982 Clouds 22 1013 88 10000 3.6 150 11:41 03.02.2021
2983 Clouds 22 1013 88 10000 3.6 150 11:23 03.02.2021
2984 Clouds 22 1013 88 10000 3.09 140 10:38 03.02.2021
2985 Clouds 22 1013 88 10000 3.09 140 10:18 03.02.2021
2986 Clouds 21 1013 83 10000 3.09 140 09:40 03.02.2021
2987 Clouds 21 1013 83 10000 3.09 140 09:20 03.02.2021
2988 Clouds 21 1012 83 10000 2.57 130 08:46 03.02.2021
2989 Clouds 21 1012 83 10000 4.12 120 07:58 03.02.2021
2990 Clouds 21 1013 83 10000 4.63 120 06:43 03.02.2021
2991 Clouds 21 1013 83 10000 4.63 120 06:20 03.02.2021
2992 Clouds 21 1014 83 10000 6.17 130 04:45 03.02.2021
2993 Clouds 21 1014 83 10000 5.66 130 03:52 03.02.2021
2994 Clouds 21 1013 88 10000 5.14 130 02:41 03.02.2021
2995 Clouds 22 1013 88 10000 5.14 160 01:47 03.02.2021
2996 Rain 22 1013 83 10000 4.63 160 00:24 03.02.2021
2997 Rain 22 1013 88 10000 5.66 180 23:43 02.02.2021
2998 Clouds 22 1013 88 10000 5.66 180 23:25 02.02.2021
2999 Clouds 23 1012 88 6000 6.17 180 22:47 02.02.2021
3000 Clouds 23 1012 83 10000 5.66 180 22:21 02.02.2021
3001 Clouds 23 1012 78 10000 6.69 170 21:46 02.02.2021
3002 Clouds 24 1012 78 10000 6.69 170 21:24 02.02.2021
3003 Rain 24 1012 73 10000 6.69 180 20:49 02.02.2021
3004 Rain 24 1012 73 10000 6.69 180 20:23 02.02.2021
3005 Clouds 25 1012 73 10000 7.72 180 19:55 02.02.2021
3006 Clouds 25 1012 73 10000 7.72 180 19:37 02.02.2021
3007 Clouds 24 1012 73 10000 7.72 180 19:18 02.02.2021
3008 Drizzle 24 1012 78 8000 6.69 190 18:41 02.02.2021
3009 Drizzle 23 1012 78 8000 6.69 190 18:22 02.02.2021
3010 Clouds 25 1012 69 10000 5.66 180 17:39 02.02.2021
3011 Clouds 25 1012 69 10000 5.66 180 17:21 02.02.2021
3012 Clouds 25 1012 78 10000 4.12 110 16:50 02.02.2021
3013 Clouds 25 1012 78 10000 4.12 110 16:30 02.02.2021
3014 Clouds 23 1012 78 10000 5.14 130 15:57 02.02.2021
3015 Clouds 23 1012 78 10000 5.14 130 15:32 02.02.2021
3016 Clouds 23 1012 83 8000 5.66 140 14:55 02.02.2021
3017 Clouds 22 1012 83 8000 5.66 140 14:34 02.02.2021
3018 Mist 21 1011 94 4000 5.14 150 13:59 02.02.2021
3019 Mist 21 1011 94 4000 5.14 150 13:41 02.02.2021
3020 Mist 21 1011 94 4000 5.14 150 13:22 02.02.2021
3021 Mist 21 1010 94 4000 2.06 100 12:50 02.02.2021
3022 Clouds 20 1010 100 5000 1.03 0 11:56 02.02.2021
3023 Clouds 20 1010 100 5000 1.03 0 11:36 02.02.2021
3024 Clouds 19 1010 100 5000 1.03 0 11:18 02.02.2021
3025 Fog 19 1009 100 800 3.85 130 10:43 02.02.2021
3026 Mist 18 1009 100 1500 3.24 135 10:25 02.02.2021
3027 Fog 19 1009 100 500 2.06 50 09:41 02.02.2021
3028 Fog 19 1009 100 500 2.06 50 09:20 02.02.2021
3029 Fog 19 1009 100 500 2.06 50 08:36 02.02.2021
3030 Clouds 19 1009 94 10000 3.2 120 07:44 02.02.2021
3031 Clouds 20 1009 94 10000 2.06 300 06:49 02.02.2021
3032 Clouds 20 1009 94 10000 2.06 300 06:31 02.02.2021
3033 Clear 20 1009 94 10000 6.32 127 05:50 02.02.2021
3034 Clouds 21 1010 88 10000 3.6 50 02:57 02.02.2021
3035 Clouds 21 1010 88 10000 3.6 50 02:24 02.02.2021
3036 Clouds 22 1009 88 7000 3.09 110 00:38 02.02.2021
3037 Clouds 22 1009 94 4000 4.12 100 23:47 01.02.2021
3038 Clouds 22 1008 88 3000 7.72 120 22:53 01.02.2021
3039 Clouds 22 1008 88 3000 7.72 120 22:35 01.02.2021
3040 Rain 23 1008 83 10000 7.72 120 21:57 01.02.2021
3041 Rain 23 1008 83 10000 7.72 120 21:39 01.02.2021
3042 Clouds 24 1008 83 10000 7.72 120 21:20 01.02.2021
3043 Clouds 25 1008 73 10000 7.72 120 20:41 01.02.2021
3044 Clouds 25 1008 73 10000 7.72 120 20:41 01.02.2021
3045 Clouds 25 1008 73 10000 7.72 120 20:23 01.02.2021
3046 Clouds 25 1009 73 10000 7.2 120 19:42 01.02.2021
3047 Clouds 25 1009 73 10000 7.2 120 19:21 01.02.2021
3048 Clouds 25 1010 73 10000 7.2 120 18:51 01.02.2021
3049 Clouds 24 1010 73 10000 7.2 120 18:29 01.02.2021
3050 Clouds 24 1010 73 10000 7.72 90 17:48 01.02.2021
3051 Clouds 24 1010 73 10000 7.72 90 17:26 01.02.2021
3052 Clouds 23 1011 73 10000 7.72 90 16:58 01.02.2021
3053 Clouds 23 1011 73 10000 7.72 90 16:32 01.02.2021
3054 Clouds 23 1011 73 10000 7.72 120 15:48 01.02.2021
3055 Clouds 22 1011 73 10000 7.72 120 15:20 01.02.2021
3056 Clouds 21 1011 88 8000 7.2 90 14:53 01.02.2021
3057 Clouds 21 1011 88 8000 7.2 90 14:35 01.02.2021
3058 Clouds 20 1012 94 6000 6.69 90 13:55 01.02.2021
3059 Rain 20 1012 94 6000 6.69 90 13:37 01.02.2021
3060 Clouds 19 1012 94 6000 6.69 90 13:19 01.02.2021
3061 Rain 19 1011 94 5000 8.75 90 12:42 01.02.2021
3062 Clouds 18 1011 94 5000 8.75 90 12:22 01.02.2021
3063 Rain 17 1012 100 3000 6.17 90 11:40 01.02.2021
3064 Rain 18 1012 100 3000 6.17 90 11:19 01.02.2021
3065 Rain 18 1012 94 3000 6.69 110 10:45 01.02.2021
3066 Rain 21 1011 47 5000 7.72 110 10:20 01.02.2021
3067 Rain 19 1011 82 5000 7.72 110 09:44 01.02.2021
3068 Rain 19 1010 77 9000 8.23 110 09:21 01.02.2021
3069 Rain 20 1011 78 10000 8.75 100 08:44 01.02.2021
3070 Rain 21 1012 78 10000 7.2 120 07:50 01.02.2021
3071 Clouds 21 1012 73 10000 7.2 120 06:20 01.02.2021
3072 Clouds 21 1014 73 10000 8.75 120 04:21 01.02.2021
3073 Clouds 22 1014 68 10000 7.2 130 01:31 01.02.2021
3074 Clouds 22 1013 64 10000 7.72 130 23:42 31.01.2021
3075 Clouds 22 1013 64 10000 7.72 120 22:44 31.01.2021
3076 Clouds 22 1013 64 10000 7.72 120 22:24 31.01.2021
3077 Rain 22 1013 64 10000 7.72 90 21:55 31.01.2021
3078 Rain 22 1014 68 10000 7.72 110 21:26 31.01.2021
3079 Clouds 22 1013 64 10000 7.72 90 20:59 31.01.2021
3080 Clouds 22 1014 64 10000 7.72 120 20:37 31.01.2021
3081 Clouds 22 1014 64 10000 7.72 120 20:18 31.01.2021
3082 Clouds 23 1014 56 10000 10.29 130 19:37 31.01.2021
3083 Clouds 23 1014 56 10000 10.29 130 19:19 31.01.2021
3084 Clouds 23 1014 56 10000 10.29 130 19:19 31.01.2021
3085 Clouds 23 1014 56 10000 7.72 120 18:41 31.01.2021
3086 Clouds 23 1014 56 10000 7.72 120 18:23 31.01.2021
3087 Clouds 23 1015 60 10000 5.66 130 17:49 31.01.2021
3088 Clouds 22 1015 60 10000 5.66 130 17:24 31.01.2021
3089 Clouds 22 1015 68 10000 7.72 130 16:52 31.01.2021
3090 Clouds 22 1015 68 10000 7.72 130 16:34 31.01.2021
3091 Clouds 21 1015 60 10000 7.2 140 15:54 31.01.2021
3092 Clouds 21 1015 68 10000 8.23 140 15:35 31.01.2021
3093 Clouds 20 1015 88 6000 5.14 150 14:50 31.01.2021
3094 Clouds 19 1015 88 6000 5.14 150 14:26 31.01.2021
3095 Clouds 19 1015 88 10000 5.14 160 13:57 31.01.2021
3096 Clouds 19 1015 88 4000 5.14 140 13:38 31.01.2021
3097 Clouds 19 1014 94 3000 6.69 130 12:51 31.01.2021
3098 Clouds 19 1014 94 3000 6.69 130 12:23 31.01.2021
3099 Clouds 19 1013 77 8000 7.2 150 11:58 31.01.2021
3100 Clouds 19 1013 77 8000 7.2 150 11:38 31.01.2021
3101 Clouds 19 1013 77 8000 7.2 150 11:19 31.01.2021
3102 Clouds 18 1013 73 7000 7.2 140 10:43 31.01.2021
3103 Clouds 18 1013 73 7000 7.2 140 10:24 31.01.2021
3104 Clouds 18 1012 68 10000 7.2 140 09:33 31.01.2021
3105 Rain 18 1012 72 10000 7.72 140 08:34 31.01.2021
3106 Clouds 18 1013 68 10000 7.72 150 07:48 31.01.2021
3107 Rain 18 1014 64 10000 9.26 140 05:54 31.01.2021
3108 Rain 18 1014 64 10000 9.26 140 05:54 31.01.2021
3109 Rain 19 1012 68 8000 12.35 150 00:53 31.01.2021
3110 Clouds 18 1012 68 8000 12.35 150 00:28 31.01.2021
3111 Rain 18 1011 82 8000 8.75 130 23:34 30.01.2021
3112 Rain 18 1011 88 8000 8.23 140 22:59 30.01.2021
3113 Rain 18 1011 88 8000 8.23 140 22:33 30.01.2021
3114 Rain 19 1010 82 8000 8.75 150 21:43 30.01.2021
3115 Rain 19 1010 82 8000 8.75 150 21:23 30.01.2021
3116 Rain 20 1010 83 8000 9.77 150 20:54 30.01.2021
3117 Rain 20 1010 83 8000 9.77 150 20:34 30.01.2021
3118 Rain 21 1009 78 10000 8.75 160 19:58 30.01.2021
3119 Rain 21 1009 78 10000 8.75 160 19:39 30.01.2021
3120 Rain 22 1010 78 10000 9.77 150 19:19 30.01.2021
3121 Clouds 23 1010 73 10000 7.72 140 18:40 30.01.2021
3122 Clouds 24 1011 69 10000 7.72 140 18:19 30.01.2021
3123 Rain 25 1010 69 10000 8.23 140 17:37 30.01.2021
3124 Rain 25 1010 69 10000 8.23 140 17:18 30.01.2021
3125 Rain 26 1010 69 10000 6.69 160 16:37 30.01.2021
3126 Rain 26 1010 69 10000 6.69 160 16:19 30.01.2021
3127 Rain 26 1010 69 10000 8.71 153 15:44 30.01.2021
3128 Rain 26 1010 69 10000 4.81 167 15:23 30.01.2021
3129 Rain 26 1010 57 10000 3.6 180 14:52 30.01.2021
3130 Rain 27 1010 57 10000 3.6 180 14:27 30.01.2021
3131 Clear 27 1008 57 10000 2.06 140 13:48 30.01.2021
3132 Clear 27 1008 57 10000 2.06 140 13:20 30.01.2021
3133 Clear 24 1008 78 10000 2.06 180 12:43 30.01.2021
3134 Clear 24 1008 78 10000 2.06 180 12:22 30.01.2021
3135 Clear 22 1008 73 10000 1.54 70 11:41 30.01.2021
3136 Clear 18 1007 82 10000 2.4 352 10:56 30.01.2021
3137 Rain 17 1007 82 10000 2.13 2 10:26 30.01.2021
3138 Rain 18 1007 77 10000 1.54 360 09:41 30.01.2021
3139 Rain 18 1007 77 10000 1.54 360 09:22 30.01.2021
3140 Clear 19 1006 72 10000 2.06 20 08:43 30.01.2021
3141 Clear 19 1006 72 10000 1.54 10 07:40 30.01.2021
3142 Clear 20 1006 73 10000 1.54 30 06:25 30.01.2021
3143 Clear 21 1006 73 10000 2.06 80 03:46 30.01.2021
3144 Clear 22 1006 73 10000 0.51 120 02:52 30.01.2021
3145 Clear 22 1006 73 10000 0.51 120 02:21 30.01.2021
3146 Clear 24 1004 64 10000 2.06 110 00:54 30.01.2021
3147 Clear 25 1004 64 10000 2.06 110 00:26 30.01.2021
3148 Clear 24 1004 47 10000 2.57 160 23:50 29.01.2021
3149 Clear 26 1004 47 10000 2.57 160 23:27 29.01.2021
3150 Clear 27 1003 44 10000 4.12 220 22:46 29.01.2021
3151 Clear 27 1003 44 10000 4.12 220 22:28 29.01.2021
3152 Clear 28 1003 39 10000 2.57 180 21:56 29.01.2021
3153 Clear 28 1003 39 10000 2.57 180 21:26 29.01.2021
3154 Clear 28 1004 47 10000 3.6 180 20:43 29.01.2021
3155 Clear 28 1004 47 10000 3.6 180 20:22 29.01.2021
3156 Clear 28 1004 44 10000 5.14 290 19:40 29.01.2021
3157 Clear 28 1004 44 10000 5.14 290 19:21 29.01.2021
3158 Clear 27 1004 50 10000 2.57 160 18:53 29.01.2021
3159 Clear 27 1004 47 10000 0.51 0 17:48 29.01.2021
3160 Clear 26 1004 47 10000 0.51 0 17:23 29.01.2021
3161 Rain 26 1006 57 10000 2.06 300 16:52 29.01.2021
3162 Rain 25 1006 57 10000 2.06 300 16:24 29.01.2021
3163 Rain 24 1005 64 10000 2.06 120 15:55 29.01.2021
3164 Rain 24 1005 64 10000 2.06 120 15:37 29.01.2021
3165 Rain 24 1005 64 10000 2.06 120 15:18 29.01.2021
3166 Rain 22 1006 68 10000 5.14 210 14:23 29.01.2021
3167 Rain 22 1008 78 10000 2.06 220 13:46 29.01.2021
3168 Clouds 22 1008 78 10000 2.06 220 13:28 29.01.2021
3169 Rain 21 1007 73 10000 3.09 190 12:42 29.01.2021
3170 Clouds 21 1007 73 10000 3.09 190 12:18 29.01.2021
3171 Rain 21 1007 73 10000 3.09 190 11:41 29.01.2021
3172 Rain 21 1007 73 10000 3.09 190 11:18 29.01.2021
3173 Rain 21 1006 46 10000 1.54 20 10:46 29.01.2021
3174 Rain 21 1006 46 10000 1.54 20 10:22 29.01.2021
3175 Rain 21 1005 49 10000 7.63 229 09:39 29.01.2021
3176 Clouds 22 1005 60 10000 2.06 250 08:50 29.01.2021
3177 Clouds 22 1005 60 10000 2.06 250 08:27 29.01.2021
3178 Rain 22 1004 68 10000 2.57 10 07:48 29.01.2021
3179 Rain 22 1004 68 10000 2.57 10 07:29 29.01.2021
3180 Clouds 22 1004 60 10000 2.57 40 06:49 29.01.2021
3181 Clouds 23 1006 83 10000 3.09 80 04:53 29.01.2021
3182 Clouds 24 1005 73 10000 2.57 120 01:50 29.01.2021
3183 Clouds 24 1005 65 10000 4.12 120 00:37 29.01.2021
3184 Clouds 25 1005 65 10000 4.12 120 00:19 29.01.2021
3185 Clouds 26 1005 53 10000 2.06 210 23:39 28.01.2021
3186 Clouds 26 1005 53 10000 2.06 210 23:20 28.01.2021
3187 Clouds 26 1004 53 10000 2.57 200 22:42 28.01.2021
3188 Clouds 27 1004 53 10000 2.57 200 22:24 28.01.2021
3189 Clouds 27 1006 50 10000 4.12 240 21:45 28.01.2021
3190 Clouds 28 1006 50 10000 4.12 240 21:27 28.01.2021
3191 Clouds 27 1006 57 10000 2.57 270 20:47 28.01.2021
3192 Clouds 27 1006 57 10000 2.57 270 20:20 28.01.2021
3193 Clouds 27 1007 61 10000 2.57 300 19:59 28.01.2021
3194 Clouds 27 1007 61 10000 2.57 300 19:36 28.01.2021
3195 Clouds 27 1007 61 10000 2.57 300 19:18 28.01.2021
3196 Clouds 26 1007 65 10000 3.6 270 18:41 28.01.2021
3197 Clouds 26 1007 65 10000 3.6 270 18:19 28.01.2021
3198 Rain 26 1008 61 10000 4.63 290 17:44 28.01.2021
3199 Rain 27 1008 61 10000 4.63 290 17:24 28.01.2021
3200 Clouds 27 1008 65 10000 2.57 210 16:44 28.01.2021
3201 Rain 27 1008 65 10000 2.57 210 16:21 28.01.2021
3202 Clouds 27 1008 65 10000 6.17 170 15:39 28.01.2021
3203 Clouds 27 1008 65 10000 5.14 300 14:58 28.01.2021
3204 Clouds 28 1008 65 10000 5.14 300 14:39 28.01.2021
3205 Clouds 27 1008 65 10000 5.14 300 14:20 28.01.2021
3206 Clouds 27 1008 65 10000 5.14 300 14:20 28.01.2021
3207 Clouds 25 1007 73 10000 5.14 360 13:43 28.01.2021
3208 Clouds 21 1007 77 10000 5.14 10 12:52 28.01.2021
3209 Clouds 21 1007 77 10000 5.14 10 12:33 28.01.2021
3210 Clear 20 1006 82 10000 2.57 30 11:59 28.01.2021
3211 Clear 20 1006 82 10000 2.57 30 11:40 28.01.2021
3212 Clear 18 1006 82 10000 2.57 30 11:19 28.01.2021
3213 Clear 15 1006 94 10000 1.54 360 10:50 28.01.2021
3214 Clear 16 1006 94 10000 1.54 360 10:27 28.01.2021
3215 Clear 17 1005 94 10000 2.57 30 09:44 28.01.2021
3216 Clear 17 1005 94 10000 2.57 30 09:22 28.01.2021
3217 Rain 17 1006 88 10000 2.57 50 08:49 28.01.2021
3218 Clear 18 1006 88 10000 2.57 50 08:18 28.01.2021
3219 Rain 19 1006 82 10000 2.06 70 07:43 28.01.2021
3220 Rain 18 1007 77 10000 5.5 31 06:49 28.01.2021
3221 Clear 19 1007 77 10000 1.03 110 05:35 28.01.2021
3222 Clear 20 1007 73 10000 2.06 150 03:49 28.01.2021
3223 Clear 22 1005 68 10000 3.09 120 00:58 28.01.2021
3224 Rain 23 1005 50 10000 4.12 90 23:47 27.01.2021
3225 Rain 24 1005 50 10000 4.12 90 23:23 27.01.2021
3226 Rain 25 1005 47 10000 4.63 130 22:41 27.01.2021
3227 Rain 25 1005 47 10000 4.63 130 22:21 27.01.2021
3228 Clear 25 1005 53 10000 7.2 150 21:43 27.01.2021
3229 Clear 25 1005 53 10000 7.2 150 21:23 27.01.2021
3230 Clear 26 1005 53 10000 7.72 170 20:52 27.01.2021
3231 Clear 26 1005 53 10000 7.72 170 20:23 27.01.2021
3232 Clear 27 1005 47 10000 7.72 170 19:49 27.01.2021
3233 Clear 27 1005 47 10000 7.72 170 19:23 27.01.2021
3234 Clear 27 1005 47 10000 7.72 170 19:23 27.01.2021
3235 Clear 28 1006 50 10000 8.23 170 18:46 27.01.2021
3236 Clouds 27 1006 57 10000 7.72 180 18:24 27.01.2021
3237 Clouds 27 1006 57 10000 7.72 180 17:55 27.01.2021
3238 Clouds 27 1006 57 10000 7.72 180 17:35 27.01.2021
3239 Clouds 27 1006 57 10000 7.72 180 16:57 27.01.2021
3240 Clouds 28 1006 54 10000 7.2 170 16:38 27.01.2021
3241 Clouds 28 1006 54 10000 7.2 170 16:20 27.01.2021
3242 Clouds 28 1006 65 10000 7.72 170 15:49 27.01.2021
3243 Clouds 28 1006 65 10000 7.72 170 15:49 27.01.2021
3244 Clouds 28 1006 65 10000 7.72 170 15:29 27.01.2021
3245 Clouds 27 1006 73 10000 7.72 170 14:24 27.01.2021
3246 Clouds 26 1005 83 10000 7.2 170 13:53 27.01.2021
3247 Clouds 26 1005 83 10000 7.2 170 13:35 27.01.2021
3248 Clouds 25 1005 78 10000 5.66 190 12:42 27.01.2021
3249 Clouds 25 1005 78 10000 5.66 190 12:23 27.01.2021
3250 Clouds 25 1004 83 10000 6.69 200 11:47 27.01.2021
3251 Clouds 25 1004 83 10000 6.69 200 11:26 27.01.2021
3252 Mist 24 1003 88 5000 3.6 190 10:47 27.01.2021
3253 Mist 24 1003 88 5000 3.6 190 10:25 27.01.2021
3254 Clouds 24 1002 88 10000 4.63 180 09:55 27.01.2021
3255 Clouds 24 1002 88 10000 4.63 180 09:28 27.01.2021
3256 Rain 23 1002 100 10000 3.6 230 08:45 27.01.2021
3257 Mist 23 1002 94 5000 2.06 240 07:49 27.01.2021
3258 Rain 23 1002 94 5000 2.06 240 07:30 27.01.2021
3259 Clouds 23 1002 94 10000 3.99 146 06:26 27.01.2021
3260 Rain 24 1002 88 10000 1.54 110 05:55 27.01.2021
3261 Rain 24 1002 88 10000 1.54 110 05:34 27.01.2021
3262 Rain 25 1003 83 10000 2.57 150 02:46 27.01.2021
3263 Clouds 25 1003 83 10000 2.57 150 02:20 27.01.2021
3264 Rain 25 1002 78 10000 2.57 160 00:58 27.01.2021
3265 Clear 26 1002 78 10000 2.57 160 00:22 27.01.2021
3266 Clear 28 1001 61 10000 2.57 90 23:38 26.01.2021
3267 Clear 28 1001 61 10000 2.57 90 23:19 26.01.2021
3268 Clear 28 1001 58 10000 3.6 130 22:38 26.01.2021
3269 Clear 28 1001 58 10000 3.6 130 22:19 26.01.2021
3270 Clear 29 1001 51 10000 5.14 140 21:51 26.01.2021
3271 Clear 30 1001 51 10000 5.14 140 21:23 26.01.2021
3272 Clear 30 1002 45 10000 5.14 180 20:43 26.01.2021
3273 Clear 30 1002 45 10000 5.14 180 20:23 26.01.2021
3274 Clouds 31 1002 45 10000 5.14 170 19:51 26.01.2021
3275 Clouds 32 1002 45 10000 5.14 170 19:30 26.01.2021
3276 Clouds 32 1002 48 10000 5.14 190 18:58 26.01.2021
3277 Clouds 32 1002 48 10000 5.14 190 18:58 26.01.2021
3278 Clouds 32 1002 48 10000 5.14 190 18:40 26.01.2021
3279 Clouds 32 1002 48 10000 5.14 190 18:21 26.01.2021
3280 Clouds 33 1003 46 10000 4.12 160 17:47 26.01.2021
3281 Clouds 33 1003 46 10000 4.12 160 17:22 26.01.2021
3282 Clouds 32 1003 55 10000 3.6 200 16:43 26.01.2021
3283 Clouds 32 1003 55 10000 3.6 200 16:20 26.01.2021
3284 Clear 31 1004 43 10000 4.12 350 15:51 26.01.2021
3285 Clear 33 1004 43 10000 4.12 350 15:33 26.01.2021
3286 Clear 31 1004 54 10000 4.12 360 14:49 26.01.2021
3287 Clear 30 1004 54 10000 4.12 360 14:30 26.01.2021
3288 Clear 28 1005 69 10000 4.63 30 13:48 26.01.2021
3289 Clear 28 1005 69 10000 4.63 30 13:27 26.01.2021
3290 Clear 27 1004 65 10000 4.63 20 12:45 26.01.2021
3291 Clear 26 1004 65 10000 4.63 20 12:25 26.01.2021
3292 Clear 25 1004 73 10000 4.12 30 11:59 26.01.2021
3293 Clear 25 1004 73 10000 4.12 30 11:39 26.01.2021
3294 Clear 22 1003 88 10000 2.57 30 10:55 26.01.2021
3295 Clear 22 1003 88 10000 2.57 30 10:33 26.01.2021
3296 Clear 22 1003 88 10000 2.57 30 10:33 26.01.2021
3297 Clear 22 1003 83 10000 1.54 30 09:49 26.01.2021
3298 Clear 22 1003 83 10000 1.54 30 09:30 26.01.2021
3299 Clear 22 1004 83 10000 1.54 30 08:55 26.01.2021
3300 Clear 22 1004 83 10000 1.54 30 08:37 26.01.2021
3301 Clear 23 1004 78 10000 2.57 30 07:53 26.01.2021
3302 Clear 24 1004 73 10000 3.09 30 06:53 26.01.2021
3303 Clear 24 1005 69 10000 2.06 40 05:45 26.01.2021
3304 Clear 24 1005 69 10000 2.06 40 05:24 26.01.2021
3305 Clear 25 1006 61 10000 3.09 100 02:57 26.01.2021
3306 Rain 26 1005 57 10000 5.14 90 00:58 26.01.2021
3307 Clear 27 1005 57 10000 5.14 100 23:44 25.01.2021
3308 Clear 28 1005 57 10000 5.14 100 23:25 25.01.2021
3309 Clouds 29 1005 48 10000 5.14 120 22:40 25.01.2021
3310 Clouds 29 1005 48 10000 5.14 120 22:18 25.01.2021
3311 Clouds 31 1005 40 10000 5.14 150 21:39 25.01.2021
3312 Clouds 32 1006 43 10000 5.14 170 20:53 25.01.2021
3313 Clouds 32 1006 43 10000 5.14 170 20:33 25.01.2021
3314 Clouds 32 1006 45 10000 5.66 170 19:58 25.01.2021
3315 Clouds 32 1006 45 10000 5.66 170 19:40 25.01.2021
3316 Clouds 32 1006 45 10000 5.66 170 19:20 25.01.2021
3317 Clouds 32 1007 45 10000 4.63 180 18:42 25.01.2021
3318 Clouds 33 1007 45 10000 4.63 180 18:22 25.01.2021
3319 Clouds 33 1007 40 10000 3.6 30 17:43 25.01.2021
3320 Clouds 33 1007 40 10000 3.6 30 17:24 25.01.2021
3321 Clouds 31 1008 48 10000 3.6 10 16:43 25.01.2021
3322 Clouds 31 1008 48 10000 3.6 10 16:24 25.01.2021
3323 Clouds 31 1009 58 10000 4.63 10 15:54 25.01.2021
3324 Clouds 31 1009 58 10000 4.63 10 15:34 25.01.2021
3325 Clouds 29 1009 61 10000 5.14 360 14:53 25.01.2021
3326 Clouds 28 1009 61 10000 5.14 360 14:20 25.01.2021
3327 Clouds 26 1009 88 10000 5.66 20 13:56 25.01.2021
3328 Clouds 26 1009 88 10000 5.66 20 13:36 25.01.2021
3329 Clouds 26 1009 88 10000 5.66 20 13:36 25.01.2021
3330 Clouds 24 1009 88 10000 5.14 30 12:49 25.01.2021
3331 Clouds 23 1009 88 10000 5.14 30 12:25 25.01.2021
3332 Clouds 22 1009 88 10000 5.14 30 11:58 25.01.2021
3333 Clouds 22 1009 88 10000 5.14 30 11:25 25.01.2021
3334 Clear 20 1009 94 8000 2.57 80 10:45 25.01.2021
3335 Clear 20 1009 94 8000 2.57 80 10:21 25.01.2021
3336 Clear 20 1008 88 10000 3.01 38 09:48 25.01.2021
3337 Clear 20 1008 88 10000 3.63 40 09:28 25.01.2021
3338 Clear 21 1008 88 10000 2.57 70 08:33 25.01.2021
3339 Clear 22 1009 83 10000 2.06 60 07:56 25.01.2021
3340 Clear 22 1009 83 10000 2.06 60 07:28 25.01.2021
3341 Clear 22 1009 83 10000 3.09 40 06:27 25.01.2021
3342 Clear 24 1010 78 10000 3.09 100 02:23 25.01.2021
3343 Clear 24 1010 78 10000 6.17 110 00:40 25.01.2021
3344 Clouds 27 1010 57 10000 6.17 120 23:21 24.01.2021
3345 Clouds 28 1010 51 10000 6.69 120 22:59 24.01.2021
3346 Clouds 28 1010 51 10000 6.69 120 22:40 24.01.2021
3347 Clouds 28 1010 51 10000 6.69 120 22:40 24.01.2021
3348 Clouds 28 1010 51 10000 6.69 120 22:18 24.01.2021
3349 Clouds 29 1010 51 10000 6.17 100 21:30 24.01.2021
3350 Clouds 30 1011 45 10000 5.66 120 20:47 24.01.2021
3351 Clouds 30 1011 45 10000 5.66 120 20:24 24.01.2021
3352 Clouds 31 1012 43 10000 4.63 120 19:58 24.01.2021
3353 Clouds 31 1012 43 10000 4.63 120 19:39 24.01.2021
3354 Clouds 31 1012 43 10000 4.63 120 19:20 24.01.2021
3355 Clouds 31 1012 37 10000 5.14 120 18:55 24.01.2021
3356 Clouds 32 1012 37 10000 5.14 120 18:36 24.01.2021
3357 Clouds 32 1012 37 10000 5.14 120 18:18 24.01.2021
3358 Clouds 32 1013 43 10000 3.09 180 17:43 24.01.2021
3359 Clouds 32 1013 43 10000 3.09 180 17:19 24.01.2021
3360 Clouds 31 1013 45 10000 2.57 100 16:42 24.01.2021
3361 Clouds 31 1013 45 10000 2.57 100 16:21 24.01.2021
3362 Clouds 31 1013 48 10000 2.57 330 15:47 24.01.2021
3363 Clouds 31 1013 48 10000 2.57 330 15:21 24.01.2021
3364 Clear 30 1014 51 10000 2.6 115 14:57 24.01.2021
3365 Clear 29 1013 61 10000 4.12 30 14:33 24.01.2021
3366 Clear 27 1014 73 10000 4.63 30 13:40 24.01.2021
3367 Clear 26 1013 78 10000 4.63 360 12:56 24.01.2021
3368 Clear 25 1013 78 10000 4.63 360 12:36 24.01.2021
3369 Clear 24 1013 78 10000 4.63 360 12:18 24.01.2021
3370 Clear 23 1014 88 10000 4.63 30 11:45 24.01.2021
3371 Clear 23 1014 88 10000 4.63 30 11:22 24.01.2021
3372 Clear 21 1013 88 10000 3.09 20 10:36 24.01.2021
3373 Clear 21 1013 88 10000 3.09 20 10:36 24.01.2021
3374 Clear 21 1013 94 10000 3.09 30 09:53 24.01.2021
3375 Clear 21 1013 94 10000 3.09 30 09:22 24.01.2021
3376 Clear 22 1013 88 10000 3.09 30 08:52 24.01.2021
3377 Clear 23 1014 83 10000 3.6 30 06:49 24.01.2021
3378 Clear 24 1013 83 10000 4.12 120 02:21 24.01.2021
3379 Clear 25 1013 83 10000 5.66 120 00:58 24.01.2021
3380 Clear 27 1013 83 10000 5.66 120 00:23 24.01.2021
3381 Clouds 28 1013 54 10000 4.63 130 23:47 23.01.2021
3382 Clouds 28 1013 54 10000 4.63 130 23:24 23.01.2021
3383 Clouds 29 1013 51 10000 6.17 120 22:41 23.01.2021
3384 Clouds 30 1013 51 10000 6.17 120 22:21 23.01.2021
3385 Clouds 31 1013 48 10000 4.63 100 21:48 23.01.2021
3386 Clouds 31 1013 48 10000 4.63 100 21:21 23.01.2021
3387 Clouds 32 1014 38 10000 4.12 50 20:43 23.01.2021
3388 Clouds 32 1014 38 10000 4.12 50 20:21 23.01.2021
3389 Clouds 31 1015 37 10000 2.57 30 19:46 23.01.2021
3390 Clouds 31 1015 37 10000 2.57 30 19:46 23.01.2021
3391 Clouds 32 1015 37 10000 2.57 30 19:21 23.01.2021
3392 Clouds 31 1015 40 10000 3.6 70 18:46 23.01.2021
3393 Clouds 32 1015 40 10000 3.6 70 18:25 23.01.2021
3394 Clear 32 1016 45 10000 4.12 30 17:48 23.01.2021
3395 Clear 31 1016 45 10000 4.12 30 17:27 23.01.2021
3396 Clouds 31 1017 48 10000 3.6 10 16:48 23.01.2021
3397 Clouds 30 1017 48 10000 3.6 10 16:25 23.01.2021
3398 Clouds 30 1017 58 10000 5.66 20 15:40 23.01.2021
3399 Clouds 29 1017 58 10000 5.66 20 15:21 23.01.2021
3400 Clear 29 1018 65 10000 7.2 40 14:32 23.01.2021
3401 Clear 27 1018 73 10000 6.69 30 13:54 23.01.2021
3402 Clear 27 1018 73 10000 6.69 30 13:35 23.01.2021
3403 Clear 25 1018 78 10000 7.2 30 12:57 23.01.2021
3404 Clear 25 1018 78 10000 7.2 30 12:57 23.01.2021
3405 Clear 25 1018 78 10000 7.2 30 12:57 23.01.2021
3406 Clear 24 1018 78 10000 7.2 30 12:28 23.01.2021
3407 Clear 23 1018 83 10000 5.66 40 11:47 23.01.2021
3408 Clear 22 1018 83 10000 5.66 40 11:27 23.01.2021
3409 Clear 21 1018 83 10000 3.09 50 10:52 23.01.2021
3410 Clear 21 1018 83 10000 3.09 50 10:21 23.01.2021
3411 Clear 20 1017 88 10000 3.09 30 09:48 23.01.2021
3412 Clear 21 1018 88 10000 3.6 50 08:56 23.01.2021
3413 Clear 21 1018 88 10000 3.6 50 08:31 23.01.2021
3414 Clear 21 1018 83 10000 3.09 50 07:25 23.01.2021
3415 Clear 24 1018 69 10000 7.2 60 03:41 23.01.2021
3416 Clear 25 1018 73 10000 3.09 110 00:54 23.01.2021
3417 Clear 26 1018 65 10000 4.12 120 23:41 22.01.2021
3418 Clear 27 1018 65 10000 4.12 120 23:18 22.01.2021
3419 Clear 28 1018 51 10000 4.63 120 22:38 22.01.2021
3420 Clear 29 1019 51 10000 6.17 120 21:47 22.01.2021
3421 Clear 29 1019 51 10000 6.17 120 21:29 22.01.2021
3422 Clear 28 1019 54 10000 6.17 130 20:57 22.01.2021
3423 Clear 28 1019 54 10000 6.17 130 20:38 22.01.2021
3424 Clear 30 1020 51 10000 6.17 120 19:56 22.01.2021
3425 Clear 30 1020 51 10000 6.17 120 19:25 22.01.2021
3426 Clear 30 1020 61 10000 6.69 130 18:59 22.01.2021
3427 Clear 30 1020 40 10000 6.17 60 18:40 22.01.2021
3428 Clear 31 1020 40 10000 6.17 60 18:21 22.01.2021
3429 Clear 30 1021 42 10000 3.09 40 17:43 22.01.2021
3430 Clear 30 1021 42 10000 3.09 40 17:24 22.01.2021
3431 Clear 29 1022 51 10000 6.17 30 16:40 22.01.2021
3432 Clear 29 1022 51 10000 6.17 30 16:20 22.01.2021
3433 Clear 28 1022 54 10000 4.63 60 15:29 22.01.2021
3434 Clouds 26 1022 65 10000 5.14 30 14:58 22.01.2021
3435 Clouds 26 1022 65 10000 5.14 30 14:30 22.01.2021
3436 Clouds 25 1022 73 10000 3.6 60 13:47 22.01.2021
3437 Clouds 24 1022 73 10000 3.6 60 13:28 22.01.2021
3438 Clouds 23 1022 83 10000 3.6 60 12:48 22.01.2021
3439 Clouds 22 1022 83 10000 3.6 60 12:23 22.01.2021
3440 Clear 21 1022 82 10000 3.6 60 11:46 22.01.2021
3441 Clear 18 1021 94 10000 2.57 90 10:56 22.01.2021
3442 Clear 18 1021 94 10000 2.57 90 10:35 22.01.2021
3443 Clear 18 1021 88 10000 3.09 80 09:59 22.01.2021
3444 Clear 18 1021 88 10000 3.09 80 09:29 22.01.2021
3445 Clear 18 1021 82 10000 3.6 80 08:51 22.01.2021
3446 Clear 18 1021 82 10000 3.6 80 08:30 22.01.2021
3447 Clear 19 1021 77 10000 3.09 80 07:36 22.01.2021
3448 Clear 22 1021 64 10000 3.6 60 03:40 22.01.2021
3449 Clear 25 1019 73 10000 5.66 100 00:40 22.01.2021
3450 Clouds 27 1019 65 10000 6.17 110 23:55 21.01.2021
3451 Clouds 27 1019 65 10000 6.17 110 23:32 21.01.2021
3452 Clouds 28 1018 61 10000 6.17 110 22:54 21.01.2021
3453 Clouds 28 1018 61 10000 6.17 110 22:36 21.01.2021
3454 Clouds 28 1019 61 10000 6.17 120 21:44 21.01.2021
3455 Clouds 28 1019 61 10000 6.17 120 21:44 21.01.2021
3456 Clouds 28 1019 61 10000 6.17 120 21:22 21.01.2021
3457 Clear 28 1020 57 10000 7.2 140 20:51 21.01.2021
3458 Clear 28 1020 57 10000 7.2 140 20:31 21.01.2021
3459 Clear 29 1020 54 10000 5.14 130 19:56 21.01.2021
3460 Clear 29 1020 54 10000 5.14 130 19:38 21.01.2021
3461 Clear 29 1020 54 10000 5.14 130 19:19 21.01.2021
3462 Clear 30 1020 48 10000 5.66 130 18:40 21.01.2021
3463 Clear 29 1020 48 10000 5.66 130 18:20 21.01.2021
3464 Clear 29 1021 54 10000 3.09 120 17:53 21.01.2021
3465 Clear 29 1021 54 10000 3.09 120 17:21 21.01.2021
3466 Clear 29 1021 37 10000 3.09 60 16:50 21.01.2021
3467 Clear 29 1021 37 10000 3.09 60 16:28 21.01.2021
3468 Clear 28 1021 47 10000 3.09 70 15:59 21.01.2021
3469 Clear 28 1021 47 10000 3.09 70 15:39 21.01.2021
3470 Clear 28 1021 47 10000 3.09 70 15:21 21.01.2021
3471 Clear 27 1022 61 10000 3.6 50 14:37 21.01.2021
3472 Rain 25 1022 73 10000 5.14 50 13:52 21.01.2021
3473 Clear 25 1022 73 10000 5.14 50 13:33 21.01.2021
3474 Clear 23 1022 83 10000 2.57 70 12:58 21.01.2021
3475 Clear 23 1022 83 10000 2.57 70 12:39 21.01.2021
3476 Clear 22 1022 83 10000 2.57 70 12:21 21.01.2021
3477 Clear 20 1021 88 10000 2.57 90 11:49 21.01.2021
3478 Clear 19 1021 88 10000 2.57 90 11:27 21.01.2021
3479 Clear 17 1020 88 10000 2.57 100 10:51 21.01.2021
3480 Clear 18 1020 88 10000 2.57 100 10:31 21.01.2021
3481 Clear 18 1019 88 10000 2.06 80 09:44 21.01.2021
3482 Clear 18 1019 88 10000 2.06 80 09:25 21.01.2021
3483 Clear 18 1019 88 10000 2.57 70 08:45 21.01.2021
3484 Clear 18 1019 88 10000 2.57 70 08:24 21.01.2021
3485 Clear 18 1019 82 10000 3.09 70 07:28 21.01.2021
3486 Clear 19 1019 77 10000 3.6 60 06:54 21.01.2021
3487 Clear 19 1019 73 10000 2.57 60 05:22 21.01.2021
3488 Clear 22 1019 60 10000 4.63 100 02:40 21.01.2021
3489 Clear 24 1018 69 10000 6.17 110 00:57 21.01.2021
3490 Rain 25 1018 41 10000 6.17 120 23:56 20.01.2021
3491 Clear 26 1018 41 10000 6.17 120 23:33 20.01.2021
3492 Clear 26 1018 39 10000 7.72 120 22:59 20.01.2021
3493 Clear 26 1018 39 10000 7.72 120 22:41 20.01.2021
3494 Clear 26 1018 39 10000 7.72 120 22:21 20.01.2021
3495 Clear 26 1018 47 10000 7.2 140 21:41 20.01.2021
3496 Clear 27 1018 47 10000 7.2 140 21:21 20.01.2021
3497 Clouds 28 1019 50 10000 7.72 120 20:49 20.01.2021
3498 Clouds 28 1019 50 10000 7.72 120 20:19 20.01.2021
3499 Clouds 28 1019 42 10000 6.69 130 19:45 20.01.2021
3500 Clouds 28 1019 42 10000 6.69 130 19:26 20.01.2021
3501 Clouds 29 1019 42 10000 6.17 150 18:42 20.01.2021
3502 Clouds 29 1019 42 10000 6.17 150 18:18 20.01.2021
3503 Clear 30 1019 39 10000 5.66 170 17:40 20.01.2021
3504 Clear 30 1019 39 10000 5.66 170 17:19 20.01.2021
3505 Clear 29 1019 42 10000 4.63 160 16:41 20.01.2021
3506 Clear 29 1019 42 10000 2.06 120 15:55 20.01.2021
3507 Clear 29 1019 42 10000 2.06 120 15:36 20.01.2021
3508 Clear 28 1020 44 10000 1.03 0 14:51 20.01.2021
3509 Clear 27 1020 44 10000 1.03 0 14:28 20.01.2021
3510 Clear 26 1020 53 10000 2.06 330 13:59 20.01.2021
3511 Clear 26 1020 53 10000 2.06 330 13:36 20.01.2021
3512 Clear 23 1020 64 10000 2.57 360 12:48 20.01.2021
3513 Clear 23 1020 64 10000 2.57 360 12:21 20.01.2021
3514 Clear 21 1019 68 10000 1.92 357 11:39 20.01.2021
3515 Clear 20 1019 68 10000 2.16 1 11:18 20.01.2021
3516 Clear 19 1019 63 10000 2.16 1 10:44 20.01.2021
3517 Clear 19 1019 63 10000 2.34 12 10:18 20.01.2021
3518 Clear 19 1018 68 10000 2.34 12 09:31 20.01.2021
3519 Clear 20 1018 59 10000 2.65 24 08:59 20.01.2021
3520 Clear 20 1018 59 10000 2.65 24 08:35 20.01.2021
3521 Clear 20 1018 52 10000 1.03 70 07:59 20.01.2021
3522 Clear 20 1018 52 10000 1.03 70 07:37 20.01.2021
3523 Clear 21 1018 52 10000 0.51 60 06:56 20.01.2021
3524 Clear 22 1018 60 10000 1.54 50 03:34 20.01.2021
3525 Clear 24 1018 69 10000 2.57 110 01:51 20.01.2021
3526 Clear 25 1017 57 10000 2.57 130 00:49 20.01.2021
3527 Clear 27 1017 34 10000 4.12 150 23:51 19.01.2021
3528 Clear 28 1017 34 10000 4.12 150 23:32 19.01.2021
3529 Clouds 29 1017 32 10000 5.14 170 22:58 19.01.2021
3530 Clouds 29 1017 32 10000 5.14 170 22:38 19.01.2021
3531 Clouds 30 1017 32 10000 5.14 170 22:20 19.01.2021
3532 Clouds 30 1017 32 10000 4.63 170 21:54 19.01.2021
3533 Clouds 30 1017 32 10000 4.63 170 21:32 19.01.2021
3534 Clouds 31 1017 32 10000 4.63 180 20:49 19.01.2021
3535 Clouds 31 1017 32 10000 4.63 180 20:27 19.01.2021
3536 Clouds 31 1018 35 10000 4.63 190 19:56 19.01.2021
3537 Clouds 31 1018 35 10000 4.63 190 19:34 19.01.2021
3538 Clouds 31 1018 35 10000 4.12 250 18:59 19.01.2021
3539 Clouds 31 1018 35 10000 4.12 250 18:38 19.01.2021
3540 Clouds 31 1018 35 10000 4.12 250 18:20 19.01.2021
3541 Clear 31 1018 33 10000 1.54 0 17:42 19.01.2021
3542 Clear 30 1018 33 10000 1.54 0 17:19 19.01.2021
3543 Clear 29 1018 42 10000 2.06 0 16:39 19.01.2021
3544 Clear 29 1018 42 10000 2.06 0 16:18 19.01.2021
3545 Clear 29 1019 47 10000 5.14 350 15:48 19.01.2021
3546 Clear 28 1019 47 10000 5.14 350 15:29 19.01.2021
3547 Clear 27 1018 57 10000 5.14 350 14:43 19.01.2021
3548 Clear 26 1018 57 10000 5.14 350 14:25 19.01.2021
3549 Clear 24 1018 64 10000 5.14 340 13:49 19.01.2021
3550 Clear 24 1018 64 10000 5.14 340 13:22 19.01.2021
3551 Clear 22 1018 68 10000 5.14 350 12:49 19.01.2021
3552 Clear 22 1018 68 10000 5.14 350 12:30 19.01.2021
3553 Clear 20 1018 82 10000 5.14 10 11:51 19.01.2021
3554 Clear 20 1018 82 10000 5.14 10 11:51 19.01.2021
3555 Clear 19 1018 82 10000 5.14 10 11:29 19.01.2021
3556 Clear 17 1018 77 10000 3.09 350 10:53 19.01.2021
3557 Clear 17 1017 82 10000 3.09 10 10:32 19.01.2021
3558 Clear 17 1016 82 10000 3.6 10 09:54 19.01.2021
3559 Clear 17 1016 82 10000 3.6 10 09:35 19.01.2021
3560 Rain 17 1016 82 10000 3.09 10 08:59 19.01.2021
3561 Rain 17 1016 82 10000 3.09 10 08:26 19.01.2021
3562 Clear 18 1016 72 10000 3.6 20 07:49 19.01.2021
3563 Rain 19 1016 56 10000 4.12 20 06:54 19.01.2021
3564 Clear 21 1015 52 10000 2.06 60 02:56 19.01.2021
3565 Clear 21 1015 52 10000 2.06 60 02:20 19.01.2021
3566 Clear 25 1015 49 10000 2.06 110 00:18 19.01.2021
3567 Clear 25 1015 32 10000 1.03 0 23:37 18.01.2021
3568 Clear 25 1015 32 10000 1.03 0 23:18 18.01.2021
3569 Clear 27 1015 30 10000 1.03 0 22:40 18.01.2021
3570 Clear 27 1015 30 10000 1.03 0 22:19 18.01.2021
3571 Clear 27 1015 24 10000 1.03 0 21:40 18.01.2021
3572 Clear 27 1015 24 10000 1.03 0 21:22 18.01.2021
3573 Clear 27 1015 28 10000 2.57 250 20:45 18.01.2021
3574 Clear 27 1015 28 10000 2.57 250 20:26 18.01.2021
3575 Clear 26 1015 31 10000 2.06 270 19:51 18.01.2021
3576 Clear 26 1015 31 10000 2.06 270 19:33 18.01.2021
3577 Clear 25 1015 41 10000 1.54 250 18:47 18.01.2021
3578 Clear 25 1015 41 10000 1.54 250 18:24 18.01.2021
3579 Clear 25 1016 44 10000 3.09 220 17:46 18.01.2021
3580 Clear 25 1016 44 10000 3.09 220 17:25 18.01.2021
3581 Clear 24 1016 53 10000 4.12 250 16:48 18.01.2021
3582 Clear 24 1016 53 10000 4.12 250 16:23 18.01.2021
3583 Clear 23 1016 56 10000 3.6 240 15:49 18.01.2021
3584 Clear 24 1016 56 10000 3.6 240 15:27 18.01.2021
3585 Clear 23 1015 56 10000 3.09 210 14:46 18.01.2021
3586 Clear 23 1015 56 10000 3.09 210 14:28 18.01.2021
3587 Clouds 22 1015 64 10000 2.57 220 13:54 18.01.2021
3588 Clouds 22 1015 64 10000 2.57 220 13:36 18.01.2021
3589 Clouds 22 1015 64 10000 2.57 220 13:18 18.01.2021
3590 Clear 21 1014 73 10000 2.57 210 12:41 18.01.2021
3591 Clear 21 1014 73 10000 2.57 210 12:18 18.01.2021
3592 Rain 18 1013 94 10000 1.03 0 11:40 18.01.2021
3593 Clear 17 1013 94 10000 1.03 0 11:21 18.01.2021
3594 Clear 16 1012 72 10000 1.54 330 10:46 18.01.2021
3595 Clear 16 1012 72 10000 1.54 330 10:20 18.01.2021
3596 Clear 17 1011 78 10000 4.74 214 09:39 18.01.2021
3597 Clear 18 1010 75 10000 1.34 229 09:18 18.01.2021
3598 Clouds 17 1011 68 10000 4.12 220 08:25 18.01.2021
3599 Clouds 18 1011 68 10000 4.12 220 07:47 18.01.2021
3600 Clouds 18 1011 63 10000 6.17 220 06:32 18.01.2021
3601 Clouds 20 1010 60 10000 7.2 220 04:41 18.01.2021
3602 Clouds 20 1010 60 10000 7.2 220 04:22 18.01.2021
3603 Clouds 21 1010 64 10000 8.23 210 03:46 18.01.2021
3604 Clouds 20 1010 64 10000 8.23 210 03:25 18.01.2021
3605 Clouds 20 1010 64 10000 5.66 250 02:53 18.01.2021
3606 Clouds 21 1010 64 10000 5.66 250 02:18 18.01.2021
3607 Clouds 20 1008 68 10000 7.2 240 00:39 18.01.2021
3608 Clouds 21 1008 60 10000 6.17 240 23:51 17.01.2021
3609 Clouds 21 1008 60 10000 6.17 240 23:24 17.01.2021
3610 Clouds 22 1008 64 10000 6.17 240 22:50 17.01.2021
3611 Clouds 22 1008 64 10000 6.17 240 22:22 17.01.2021
3612 Clouds 22 1008 60 10000 7.72 250 21:43 17.01.2021
3613 Clouds 22 1008 60 10000 7.72 250 21:24 17.01.2021
3614 Drizzle 22 1007 60 9000 7.72 260 20:51 17.01.2021
3615 Clouds 22 1007 60 10000 8.75 250 20:32 17.01.2021
3616 Clouds 23 1007 60 10000 8.75 250 19:52 17.01.2021
3617 Clouds 23 1007 60 10000 8.75 250 19:31 17.01.2021
3618 Clouds 22 1007 56 10000 7.72 250 18:53 17.01.2021
3619 Clouds 22 1007 56 10000 7.72 250 18:28 17.01.2021
3620 Clouds 22 1007 64 10000 8.75 250 17:50 17.01.2021
3621 Clouds 21 1007 64 10000 8.75 250 17:28 17.01.2021
3622 Clouds 20 1007 72 8000 7.72 270 16:45 17.01.2021
3623 Clouds 22 1007 64 10000 9.77 260 16:25 17.01.2021
3624 Clouds 21 1008 77 10000 6.17 250 15:45 17.01.2021
3625 Clouds 21 1008 77 10000 6.17 250 15:45 17.01.2021
3626 Clouds 21 1008 77 10000 6.17 250 15:45 17.01.2021
3627 Clouds 21 1008 73 4000 9.26 240 15:26 17.01.2021
3628 Clouds 20 1007 73 10000 8.75 250 14:55 17.01.2021
3629 Clouds 20 1007 73 10000 8.75 250 14:27 17.01.2021
3630 Clouds 20 1007 68 10000 7.72 250 13:59 17.01.2021
3631 Clouds 20 1007 77 10000 7.72 250 13:41 17.01.2021
3632 Clouds 20 1007 77 10000 7.72 250 13:21 17.01.2021
3633 Clouds 19 1007 82 10000 8.75 240 12:44 17.01.2021
3634 Clouds 19 1007 82 10000 8.75 240 12:24 17.01.2021
3635 Clouds 18 1009 82 10000 6.17 240 11:25 17.01.2021
3636 Clouds 18 1005 72 10000 7.2 220 10:51 17.01.2021
3637 Clouds 18 1005 72 10000 7.2 220 10:25 17.01.2021
3638 Clouds 18 1004 82 10000 7.72 220 09:50 17.01.2021
3639 Clouds 18 1003 88 2500 5.14 230 08:58 17.01.2021
3640 Clouds 18 1003 88 2500 5.14 230 08:40 17.01.2021
3641 Clouds 21 1004 88 10000 4.63 210 04:30 17.01.2021
3642 Clouds 22 1002 88 9000 7.72 200 02:51 17.01.2021
3643 Clouds 23 1002 83 10000 3.6 190 00:57 17.01.2021
3644 Rain 23 1002 83 10000 3.6 190 00:21 17.01.2021
3645 Rain 24 1002 69 10000 3.09 200 23:52 16.01.2021
3646 Clouds 24 1002 69 10000 3.09 200 23:24 16.01.2021
3647 Clouds 25 1002 69 10000 3.09 200 22:54 16.01.2021
3648 Clouds 26 1001 69 10000 2.57 200 22:19 16.01.2021
3649 Clouds 26 1001 69 10000 3.6 180 21:46 16.01.2021
3650 Clouds 26 1001 69 10000 3.6 180 21:23 16.01.2021
3651 Clouds 27 1002 65 10000 4.12 190 20:48 16.01.2021
3652 Clouds 27 1002 65 10000 4.12 190 20:24 16.01.2021
3653 Clouds 26 1001 65 10000 4.63 200 19:49 16.01.2021
3654 Clouds 27 1001 65 10000 4.63 200 19:30 16.01.2021
3655 Clouds 27 1002 69 10000 4.63 190 18:46 16.01.2021
3656 Clouds 27 1002 69 10000 4.63 190 18:27 16.01.2021
3657 Clouds 26 1003 73 10000 5.14 180 17:51 16.01.2021
3658 Clouds 26 1003 73 10000 5.14 180 17:31 16.01.2021
3659 Clouds 25 1004 73 10000 5.14 200 16:53 16.01.2021
3660 Clouds 26 1004 73 10000 5.14 200 16:35 16.01.2021
3661 Clouds 25 1004 78 10000 5.14 190 15:58 16.01.2021
3662 Clouds 25 1004 78 10000 5.14 190 15:39 16.01.2021
3663 Clouds 24 1004 65 10000 2.57 100 14:33 16.01.2021
3664 Clear 24 1003 69 10000 3.6 60 13:53 16.01.2021
3665 Clear 24 1003 69 10000 3.6 60 13:53 16.01.2021
3666 Clear 24 1003 69 10000 3.6 60 13:31 16.01.2021
3667 Clear 24 1003 73 10000 4.12 50 12:48 16.01.2021
3668 Clear 23 1003 73 10000 4.12 50 12:27 16.01.2021
3669 Clouds 21 1003 88 10000 9.26 60 11:56 16.01.2021
3670 Clouds 20 1003 88 10000 9.26 60 11:27 16.01.2021
3671 Clouds 20 1003 88 10000 2.06 40 10:59 16.01.2021
3672 Clouds 20 1003 88 10000 2.06 40 10:41 16.01.2021
3673 Clouds 20 1003 88 10000 4.63 60 09:55 16.01.2021
3674 Rain 20 1003 88 10000 4.63 60 09:21 16.01.2021
3675 Rain 20 1004 88 10000 6.69 70 08:19 16.01.2021
3676 Rain 21 1005 94 7000 6.69 80 06:52 16.01.2021
3677 Rain 21 1005 94 7000 6.69 70 05:32 16.01.2021
3678 Rain 21 1007 88 5000 4.12 90 03:38 16.01.2021
3679 Rain 21 1008 88 1500 3.09 40 02:42 16.01.2021
3680 Rain 24 1005 83 9000 2.06 330 00:46 16.01.2021
3681 Rain 25 1005 83 9000 2.06 330 00:23 16.01.2021
3682 Rain 25 1005 65 10000 3.6 180 23:39 15.01.2021
3683 Rain 27 1005 54 10000 3.09 150 22:41 15.01.2021
3684 Rain 27 1005 54 10000 3.09 150 22:21 15.01.2021
3685 Rain 28 1006 54 10000 3.6 150 21:43 15.01.2021
3686 Rain 28 1006 54 10000 4.63 150 20:49 15.01.2021
3687 Rain 27 1006 54 10000 4.63 150 20:24 15.01.2021
3688 Rain 28 1007 48 10000 5.14 150 19:58 15.01.2021
3689 Rain 29 1007 48 10000 5.14 150 19:39 15.01.2021
3690 Clouds 29 1007 48 10000 5.14 150 19:21 15.01.2021
3691 Clouds 29 1008 45 10000 3.09 30 18:42 15.01.2021
3692 Clouds 29 1008 45 10000 3.09 30 18:18 15.01.2021
3693 Clouds 31 1009 45 10000 4.12 340 17:41 15.01.2021
3694 Rain 30 1009 45 10000 4.12 340 17:21 15.01.2021
3695 Clouds 30 1010 51 10000 4.12 330 16:46 15.01.2021
3696 Clouds 29 1010 51 10000 4.12 330 16:24 15.01.2021
3697 Clouds 27 1011 53 10000 6.17 40 15:41 15.01.2021
3698 Clouds 27 1011 53 10000 6.17 40 15:21 15.01.2021
3699 Clouds 26 1012 60 10000 6.17 30 14:46 15.01.2021
3700 Clouds 25 1012 60 10000 6.17 30 14:27 15.01.2021
3701 Clouds 24 1013 60 10000 7.72 40 13:43 15.01.2021
3702 Clouds 24 1013 60 10000 7.72 40 13:22 15.01.2021
3703 Clouds 22 1014 73 10000 6.69 40 12:57 15.01.2021
3704 Clouds 22 1014 73 10000 6.69 40 12:32 15.01.2021
3705 Clouds 20 1014 77 10000 6.69 30 11:50 15.01.2021
3706 Clouds 19 1014 77 10000 6.69 30 11:31 15.01.2021
3707 Clear 18 1013 77 10000 3.6 70 10:56 15.01.2021
3708 Clear 18 1013 77 10000 3.6 70 10:37 15.01.2021
3709 Clear 18 1014 72 10000 2.06 80 09:56 15.01.2021
3710 Clear 18 1014 72 10000 2.06 80 09:35 15.01.2021
3711 Rain 18 1014 72 10000 2.57 60 08:48 15.01.2021
3712 Clear 18 1014 72 10000 2.57 60 08:21 15.01.2021
3713 Clear 19 1018 68 10000 5.14 80 07:41 15.01.2021
3714 Clear 19 1018 68 10000 5.14 80 07:19 15.01.2021
3715 Clear 19 1018 68 10000 6.69 60 05:35 15.01.2021
3716 Clear 22 1016 56 10000 3.6 90 01:52 15.01.2021
3717 Clear 24 1016 60 10000 7.2 120 23:55 14.01.2021
3718 Clouds 25 1016 53 10000 8.75 130 23:28 14.01.2021
3719 Clear 25 1016 53 10000 7.2 110 22:48 14.01.2021
3720 Clear 26 1016 53 10000 7.2 110 22:25 14.01.2021
3721 Clear 25 1016 57 10000 8.23 120 21:49 14.01.2021
3722 Clear 26 1016 57 10000 8.23 120 21:21 14.01.2021
3723 Clouds 26 1017 50 10000 7.2 120 20:52 14.01.2021
3724 Clouds 26 1017 50 10000 7.2 120 20:27 14.01.2021
3725 Clouds 26 1018 47 10000 6.69 120 19:49 14.01.2021
3726 Clouds 26 1018 47 10000 6.69 120 19:30 14.01.2021
3727 Clouds 27 1018 47 10000 6.69 120 18:56 14.01.2021
3728 Clear 27 1018 41 10000 6.69 120 18:32 14.01.2021
3729 Clear 27 1019 39 10000 5.66 120 17:54 14.01.2021
3730 Clear 27 1019 39 10000 5.66 120 17:28 14.01.2021
3731 Clear 27 1020 34 10000 5.66 40 16:54 14.01.2021
3732 Clear 27 1020 34 10000 5.66 40 16:27 14.01.2021
3733 Clear 27 1020 34 10000 5.66 40 16:27 14.01.2021
3734 Clear 26 1021 38 10000 6.17 90 15:52 14.01.2021
3735 Clear 26 1021 38 10000 6.17 90 15:27 14.01.2021
3736 Clear 25 1021 49 10000 5.14 60 14:42 14.01.2021
3737 Clear 24 1021 49 10000 5.14 60 14:21 14.01.2021
3738 Clear 23 1022 64 10000 4.12 60 13:54 14.01.2021
3739 Clear 22 1022 64 10000 4.12 60 13:23 14.01.2021
3740 Rain 20 1022 77 10000 5.14 90 12:56 14.01.2021
3741 Clear 19 1022 77 10000 5.14 90 12:21 14.01.2021
3742 Clear 18 1022 77 10000 5.14 90 11:54 14.01.2021
3743 Clear 16 1022 82 10000 3.6 90 11:27 14.01.2021
3744 Clear 15 1022 77 10000 2.06 90 10:58 14.01.2021
3745 Clear 15 1022 77 10000 2.06 90 10:39 14.01.2021
3746 Clear 14 1022 77 10000 2.06 90 10:18 14.01.2021
3747 Clear 14 1022 77 10000 4.75 47 09:42 14.01.2021
3748 Clear 14 1022 77 10000 4.89 49 09:20 14.01.2021
3749 Clear 14 1022 77 10000 1.03 60 08:30 14.01.2021
3750 Clear 15 1022 77 10000 3.09 80 07:57 14.01.2021
3751 Clear 15 1022 77 10000 3.09 80 07:30 14.01.2021
3752 Clear 15 1022 77 10000 2.57 70 06:33 14.01.2021
3753 Clear 17 1022 63 10000 4.12 90 04:57 14.01.2021
3754 Clear 20 1022 60 10000 7.2 120 00:27 14.01.2021
3755 Clear 22 1021 52 10000 8.23 120 23:28 13.01.2021
3756 Clear 23 1021 31 10000 8.23 120 22:48 13.01.2021
3757 Clear 23 1021 31 10000 8.23 120 22:21 13.01.2021
3758 Clear 24 1021 33 10000 7.72 120 21:43 13.01.2021
3759 Clear 24 1021 33 10000 7.72 120 21:22 13.01.2021
3760 Clear 25 1021 36 10000 6.17 150 20:51 13.01.2021
3761 Rain 25 1021 36 10000 6.17 150 20:25 13.01.2021
3762 Clear 25 1022 33 10000 6.17 160 19:49 13.01.2021
3763 Clear 25 1022 33 10000 6.17 160 19:27 13.01.2021
3764 Clear 25 1022 38 10000 7.72 160 18:51 13.01.2021
3765 Clear 25 1022 38 10000 7.72 160 18:32 13.01.2021
3766 Clear 25 1022 46 10000 5.14 150 17:47 13.01.2021
3767 Clear 25 1022 46 10000 5.14 150 17:18 13.01.2021
3768 Clear 24 1022 38 10000 1.03 0 16:46 13.01.2021
3769 Clear 24 1022 38 10000 1.03 0 16:21 13.01.2021
3770 Clear 24 1023 40 10000 1.03 0 15:49 13.01.2021
3771 Clear 23 1023 40 10000 1.03 0 15:29 13.01.2021
3772 Clear 22 1023 49 10000 2.06 360 14:30 13.01.2021
3773 Clear 22 1023 56 10000 4.12 40 13:48 13.01.2021
3774 Clear 20 1023 56 10000 4.12 40 13:25 13.01.2021
3775 Clear 18 1023 63 10000 4.63 40 12:46 13.01.2021
3776 Clear 18 1023 63 10000 4.63 40 12:27 13.01.2021
3777 Clear 16 1022 72 10000 2.57 70 11:53 13.01.2021
3778 Clear 16 1022 72 10000 2.57 70 11:34 13.01.2021
3779 Clear 12 1022 76 10000 2.35 22 10:50 13.01.2021
3780 Clear 12 1022 76 10000 2.81 26 10:29 13.01.2021
3781 Clear 11 1021 82 10000 1.54 10 09:49 13.01.2021
3782 Clear 11 1021 82 10000 1.54 10 09:28 13.01.2021
3783 Clear 12 1020 76 10000 2.06 20 08:48 13.01.2021
3784 Clear 12 1020 76 10000 2.06 20 08:25 13.01.2021
3785 Clear 13 1020 71 10000 2.06 30 07:30 13.01.2021
3786 Clear 14 1020 63 10000 2.57 60 06:51 13.01.2021
3787 Clear 16 1020 63 10000 3.6 70 04:20 13.01.2021
3788 Clear 17 1020 52 10000 3.09 100 03:44 13.01.2021
3789 Clear 17 1020 52 10000 3.09 100 03:24 13.01.2021
3790 Clear 18 1019 48 10000 4.63 120 01:18 13.01.2021
3791 Clear 20 1018 42 10000 4.12 120 23:52 12.01.2021
3792 Clear 20 1018 42 10000 4.12 120 23:22 12.01.2021
3793 Clear 21 1018 43 10000 4.63 120 22:45 12.01.2021
3794 Clear 21 1018 43 10000 4.63 120 22:23 12.01.2021
3795 Clear 22 1018 46 10000 4.63 150 21:49 12.01.2021
3796 Clear 22 1018 46 10000 4.63 150 21:28 12.01.2021
3797 Clear 22 1018 43 10000 4.63 180 20:49 12.01.2021
3798 Clear 23 1018 43 10000 4.63 180 20:27 12.01.2021
3799 Clear 23 1018 43 10000 4.63 200 19:48 12.01.2021
3800 Clear 22 1018 43 10000 4.63 200 19:27 12.01.2021
3801 Clear 23 1019 43 10000 5.14 170 18:44 12.01.2021
3802 Clear 23 1019 43 10000 5.14 170 18:23 12.01.2021
3803 Clouds 22 1019 43 10000 5.14 150 17:40 12.01.2021
3804 Clouds 23 1019 43 10000 5.14 150 17:22 12.01.2021
3805 Clouds 22 1019 49 10000 5.14 120 16:43 12.01.2021
3806 Clouds 22 1019 49 10000 5.14 120 16:23 12.01.2021
3807 Clouds 22 1018 46 10000 6.17 170 15:40 12.01.2021
3808 Clouds 22 1018 46 10000 6.17 170 15:21 12.01.2021
3809 Clouds 21 1018 49 10000 5.66 160 14:42 12.01.2021
3810 Clouds 22 1018 49 10000 5.66 160 14:21 12.01.2021
3811 Clouds 21 1018 49 10000 7.2 170 13:52 12.01.2021
3812 Clouds 21 1018 49 10000 6.17 160 12:55 12.01.2021
3813 Clouds 20 1017 49 10000 7.2 170 12:24 12.01.2021
3814 Clouds 20 1017 52 10000 6.17 190 11:41 12.01.2021
3815 Clouds 19 1016 55 10000 5.66 170 10:55 12.01.2021
3816 Clouds 18 1016 55 10000 5.66 170 10:25 12.01.2021
3817 Clouds 19 1015 55 10000 5.66 170 09:58 12.01.2021
3818 Clouds 19 1015 55 10000 5.66 170 09:38 12.01.2021
3819 Clouds 19 1015 55 10000 5.66 170 09:18 12.01.2021
3820 Clouds 19 1015 59 10000 6.17 160 08:26 12.01.2021
3821 Clouds 19 1014 68 10000 8.75 170 07:37 12.01.2021
3822 Clouds 20 1013 64 10000 8.75 180 06:49 12.01.2021
3823 Clouds 20 1013 68 10000 9.26 190 05:34 12.01.2021
3824 Clear 21 1011 88 10000 3.6 200 03:27 12.01.2021
3825 Clouds 20 1011 88 10000 2.06 240 02:21 12.01.2021
3826 Clouds 21 1009 78 10000 0.51 280 01:31 12.01.2021
3827 Clouds 21 1009 78 10000 0.51 280 01:31 12.01.2021
3828 Clouds 22 1007 83 10000 2.57 190 23:58 11.01.2021
3829 Rain 23 1007 83 10000 2.57 190 23:37 11.01.2021
3830 Rain 23 1007 83 10000 2.57 190 23:18 11.01.2021
3831 Clouds 22 1008 83 10000 5.66 250 22:45 11.01.2021
3832 Rain 23 1008 83 10000 5.66 250 22:26 11.01.2021
3833 Clouds 23 1003 83 10000 4.12 50 21:43 11.01.2021
3834 Rain 23 1003 83 10000 4.12 50 21:24 11.01.2021
3835 Rain 21 1004 88 10000 5.66 40 20:49 11.01.2021
3836 Rain 21 1004 88 10000 5.66 40 20:29 11.01.2021
3837 Rain 21 1006 88 8000 5.14 360 19:57 11.01.2021
3838 Rain 21 1006 88 8000 5.14 360 19:34 11.01.2021
3839 Rain 22 1007 83 10000 3.6 270 18:46 11.01.2021
3840 Rain 22 1007 83 10000 3.6 270 18:28 11.01.2021
3841 Rain 22 1009 88 10000 6.17 250 17:57 11.01.2021
3842 Rain 22 1009 88 10000 6.17 250 17:38 11.01.2021
3843 Rain 22 1009 88 10000 6.17 250 17:20 11.01.2021
3844 Rain 22 1009 94 8000 3.09 270 16:41 11.01.2021
3845 Rain 22 1009 94 8000 3.09 270 16:22 11.01.2021
3846 Rain 21 1007 94 10000 2.06 360 15:49 11.01.2021
3847 Rain 22 1007 94 10000 2.06 360 15:29 11.01.2021
3848 Clouds 22 1007 94 2000 3.6 320 14:40 11.01.2021
3849 Rain 23 1006 83 5000 5.14 40 14:19 11.01.2021
3850 Rain 23 1005 78 10000 4.63 50 13:43 11.01.2021
3851 Rain 22 1006 83 10000 3.09 140 13:19 11.01.2021
3852 Rain 22 1006 88 10000 5.14 190 12:41 11.01.2021
3853 Rain 22 1006 88 10000 5.14 190 12:21 11.01.2021
3854 Rain 22 1007 88 8000 5.14 210 11:43 11.01.2021
3855 Rain 24 1004 88 10000 3.09 280 10:55 11.01.2021
3856 Clouds 24 1004 88 10000 3.09 280 10:32 11.01.2021
3857 Rain 24 1003 78 10000 3.6 10 09:48 11.01.2021
3858 Clouds 25 1003 78 10000 3.6 10 09:25 11.01.2021
3859 Rain 25 1003 73 10000 6.17 10 08:47 11.01.2021
3860 Clouds 26 1003 73 10000 6.17 10 08:22 11.01.2021
3861 Clouds 26 1003 73 10000 7.72 40 07:41 11.01.2021
3862 Rain 26 1003 73 10000 7.72 40 07:21 11.01.2021
3863 Clouds 25 1004 78 10000 5.66 50 06:49 11.01.2021
3864 Clouds 27 1006 65 10000 5.14 70 02:23 11.01.2021
3865 Clouds 26 1006 73 10000 7.2 100 00:40 11.01.2021
3866 Clouds 27 1006 65 10000 8.23 120 23:47 10.01.2021
3867 Clouds 28 1006 61 10000 6.69 100 22:51 10.01.2021
3868 Clouds 28 1006 61 10000 6.69 100 22:29 10.01.2021
3869 Clouds 29 1007 58 10000 7.72 120 21:58 10.01.2021
3870 Clouds 29 1007 58 10000 7.72 120 21:39 10.01.2021
3871 Clouds 29 1007 58 10000 7.72 120 21:18 10.01.2021
3872 Clouds 29 1008 54 10000 6.69 130 20:47 10.01.2021
3873 Clouds 30 1008 54 10000 6.69 130 20:26 10.01.2021
3874 Clouds 30 1009 54 10000 6.69 120 19:40 10.01.2021
3875 Clouds 30 1009 54 10000 6.69 120 19:22 10.01.2021
3876 Clouds 31 1009 45 10000 6.69 120 18:45 10.01.2021
3877 Clouds 31 1009 45 10000 6.69 120 18:20 10.01.2021
3878 Clouds 31 1010 37 10000 2.06 360 17:26 10.01.2021
3879 Clouds 30 1011 48 10000 4.12 40 16:50 10.01.2021
3880 Clouds 29 1011 48 10000 4.12 40 16:30 10.01.2021
3881 Clear 29 1011 54 10000 4.12 30 15:40 10.01.2021
3882 Clear 28 1011 54 10000 4.12 30 15:22 10.01.2021
3883 Clear 28 1012 65 10000 2.06 30 14:41 10.01.2021
3884 Clear 27 1012 65 10000 2.06 30 14:22 10.01.2021
3885 Clear 25 1012 73 10000 2.06 30 13:43 10.01.2021
3886 Clear 25 1012 73 10000 2.06 30 13:24 10.01.2021
3887 Clear 23 1012 78 10000 5.66 60 12:57 10.01.2021
3888 Clear 23 1012 78 10000 5.66 60 12:38 10.01.2021
3889 Clear 21 1012 82 10000 3.09 60 11:56 10.01.2021
3890 Clear 20 1012 82 10000 3.09 60 11:21 10.01.2021
3891 Clear 17 1012 88 10000 3.65 28 10:51 10.01.2021
3892 Clear 16 1012 88 10000 3.79 24 10:24 10.01.2021
3893 Clear 17 1012 82 10000 2.06 30 09:46 10.01.2021
3894 Clear 17 1011 77 10000 1.03 30 08:49 10.01.2021
3895 Rain 17 1011 77 10000 2.57 40 07:47 10.01.2021
3896 Clear 17 1012 77 10000 2.06 40 06:50 10.01.2021
3897 Clear 17 1012 77 10000 2.06 40 06:18 10.01.2021
3898 Clear 18 1013 72 10000 2.57 40 05:27 10.01.2021
3899 Rain 19 1012 68 10000 3.09 100 02:37 10.01.2021
3900 Clear 21 1011 64 10000 4.12 110 00:25 10.01.2021
3901 Clear 23 1011 68 10000 5.66 110 23:42 09.01.2021
3902 Clear 22 1011 68 10000 5.66 110 23:22 09.01.2021
3903 Clear 24 1011 64 10000 4.12 100 22:25 09.01.2021
3904 Clear 23 1011 68 10000 4.63 120 21:59 09.01.2021
3905 Clear 23 1011 60 10000 5.14 110 21:40 09.01.2021
3906 Clear 24 1011 60 10000 5.14 110 21:21 09.01.2021
3907 Clear 24 1011 68 10000 5.14 120 20:59 09.01.2021
3908 Clear 24 1011 68 10000 5.14 120 20:38 09.01.2021
3909 Clouds 23 1012 73 10000 3.6 100 19:44 09.01.2021
3910 Rain 22 1012 73 10000 3.6 100 19:22 09.01.2021
3911 Rain 21 1013 83 10000 3.6 110 18:39 09.01.2021
3912 Rain 20 1013 83 10000 3.6 110 18:20 09.01.2021
3913 Rain 19 1013 82 10000 2.57 110 17:45 09.01.2021
3914 Clouds 19 1013 82 10000 2.57 110 17:27 09.01.2021
3915 Clouds 20 1014 100 10000 2.57 160 16:32 09.01.2021
3916 Clouds 19 1014 82 10000 2.06 180 15:47 09.01.2021
3917 Clouds 19 1014 82 10000 2.06 180 15:28 09.01.2021
3918 Rain 18 1013 88 9000 2.57 90 14:40 09.01.2021
3919 Rain 18 1013 88 9000 2.57 90 14:20 09.01.2021
3920 Rain 19 1014 82 7000 2.57 60 13:47 09.01.2021
3921 Rain 19 1014 82 10000 0.51 0 13:29 09.01.2021
3922 Rain 18 1013 88 8000 3.6 40 12:48 09.01.2021
3923 Rain 17 1013 88 8000 3.6 40 12:22 09.01.2021
3924 Rain 17 1014 94 8000 1.03 0 11:50 09.01.2021
3925 Rain 17 1014 94 8000 1.03 0 11:29 09.01.2021
3926 Rain 17 1014 82 10000 2.43 41 10:52 09.01.2021
3927 Rain 17 1014 82 10000 2.43 41 10:30 09.01.2021
3928 Rain 17 1013 82 10000 2.03 23 09:46 09.01.2021
3929 Rain 17 1013 82 10000 1.4 13 09:25 09.01.2021
3930 Clouds 17 1012 77 10000 3.6 30 08:28 09.01.2021
3931 Clouds 18 1012 72 10000 5.14 120 06:57 09.01.2021
3932 Clouds 18 1012 72 10000 5.14 120 06:39 09.01.2021
3933 Clouds 19 1013 72 10000 3.6 150 04:47 09.01.2021
3934 Clouds 19 1012 77 10000 4.63 140 03:20 09.01.2021
3935 Clouds 20 1012 73 10000 6.17 150 02:29 09.01.2021
3936 Clouds 20 1013 77 10000 3.6 150 01:44 09.01.2021
3937 Clouds 20 1012 73 10000 4.12 160 00:34 09.01.2021
3938 Clouds 23 1012 53 10000 4.63 180 23:50 08.01.2021
3939 Clouds 24 1012 53 10000 4.63 180 22:56 08.01.2021
3940 Clouds 24 1012 53 10000 4.63 170 22:18 08.01.2021
3941 Clouds 25 1012 57 10000 3.6 150 21:35 08.01.2021
3942 Clouds 25 1012 60 10000 3.6 120 20:46 08.01.2021
3943 Clouds 25 1012 60 10000 3.6 120 20:25 08.01.2021
3944 Clouds 25 1012 60 10000 4.12 190 19:45 08.01.2021
3945 Clouds 25 1012 60 10000 4.12 190 19:22 08.01.2021
3946 Clouds 25 1012 60 10000 4.63 180 18:35 08.01.2021
3947 Clouds 25 1012 61 10000 4.63 220 17:57 08.01.2021
3948 Clouds 25 1012 61 10000 4.63 220 17:35 08.01.2021
3949 Clouds 25 1012 61 10000 3.09 180 16:56 08.01.2021
3950 Clouds 25 1012 61 10000 3.09 180 16:26 08.01.2021
3951 Clouds 25 1012 61 10000 3.09 180 16:26 08.01.2021
3952 Clouds 25 1012 61 10000 4.12 210 15:40 08.01.2021
3953 Clouds 25 1011 64 10000 4.63 160 14:51 08.01.2021
3954 Clouds 25 1011 64 10000 4.63 160 14:32 08.01.2021
3955 Clouds 24 1011 68 10000 5.66 180 13:39 08.01.2021
3956 Clouds 24 1011 68 10000 5.66 180 13:18 08.01.2021
3957 Clouds 24 1011 68 10000 5.66 180 13:18 08.01.2021
3958 Clouds 23 1011 78 10000 5.14 190 12:42 08.01.2021
3959 Clouds 22 1011 78 10000 5.14 190 12:19 08.01.2021
3960 Clouds 22 1010 78 10000 7.72 150 11:42 08.01.2021
3961 Clouds 22 1010 78 10000 7.72 150 11:23 08.01.2021
3962 Clouds 21 1009 83 10000 4.12 160 10:49 08.01.2021
3963 Clouds 20 1009 83 10000 4.12 160 10:26 08.01.2021
3964 Clouds 20 1008 88 10000 3.09 150 09:44 08.01.2021
3965 Clouds 20 1008 88 10000 3.09 150 09:25 08.01.2021
3966 Clouds 21 1008 88 10000 4.63 130 08:23 08.01.2021
3967 Clear 20 1007 72 10000 1.54 220 07:25 08.01.2021
3968 Clear 22 1007 53 10000 0.24 45 04:47 08.01.2021
3969 Clear 27 1006 42 10000 5.14 280 23:46 07.01.2021
3970 Clear 27 1006 42 10000 5.14 280 23:46 07.01.2021
3971 Clear 28 1006 42 10000 5.14 280 23:28 07.01.2021
3972 Clear 28 1006 39 10000 6.17 280 22:44 07.01.2021
3973 Clear 28 1006 39 10000 6.17 280 22:25 07.01.2021
3974 Clear 28 1006 39 10000 7.72 290 21:42 07.01.2021
3975 Clear 28 1006 39 10000 7.72 290 21:24 07.01.2021
3976 Clouds 28 1006 42 10000 7.72 290 20:46 07.01.2021
3977 Clouds 28 1006 42 10000 7.72 290 20:28 07.01.2021
3978 Clouds 27 1007 53 10000 6.17 280 19:43 07.01.2021
3979 Clouds 27 1007 53 10000 6.17 280 19:20 07.01.2021
3980 Clouds 26 1007 57 10000 7.72 280 18:30 07.01.2021
3981 Clouds 26 1007 61 10000 7.72 270 17:42 07.01.2021
3982 Clouds 25 1007 61 10000 7.72 270 17:22 07.01.2021
3983 Clouds 25 1007 64 10000 7.2 270 16:53 07.01.2021
3984 Clouds 25 1007 64 10000 7.2 270 16:27 07.01.2021
3985 Clouds 25 1008 64 10000 6.17 270 15:40 07.01.2021
3986 Clouds 24 1007 68 10000 6.17 270 14:55 07.01.2021
3987 Clouds 23 1007 68 10000 6.17 270 14:27 07.01.2021
3988 Clouds 23 1007 73 10000 6.69 280 13:43 07.01.2021
3989 Clouds 22 1007 73 10000 6.69 280 13:18 07.01.2021
3990 Clouds 22 1008 70 10000 2.24 261 12:42 07.01.2021
3991 Clouds 22 1006 73 10000 4.1 310 11:55 07.01.2021
3992 Clouds 22 1006 73 10000 4.1 310 11:36 07.01.2021
3993 Clouds 19 1006 88 10000 3.6 340 10:50 07.01.2021
3994 Clouds 18 1006 88 10000 3.6 340 10:27 07.01.2021
3995 Clouds 18 1005 82 10000 3.1 330 09:48 07.01.2021
3996 Clear 18 1005 82 10000 3.6 360 09:20 07.01.2021
3997 Clear 19 1005 82 10000 3.6 360 08:29 07.01.2021
3998 Clear 18 1005 88 10000 3.1 20 07:53 07.01.2021
3999 Clear 18 1005 88 10000 3.1 20 07:30 07.01.2021
4000 Clear 19 1006 77 10000 3.1 30 05:26 07.01.2021
4001 Clouds 22 1007 68 10000 4.6 280 00:31 07.01.2021
4002 Clouds 24 1007 73 10000 4.6 270 23:49 06.01.2021
4003 Clouds 25 1006 69 10000 5.1 270 22:47 06.01.2021
4004 Clouds 25 1006 69 10000 6.2 270 21:56 06.01.2021
4005 Clouds 25 1006 69 10000 6.2 270 21:38 06.01.2021
4006 Clouds 25 1006 69 10000 5.1 240 21:19 06.01.2021
4007 Clouds 26 1006 73 10000 6.2 270 20:39 06.01.2021
4008 Clouds 28 1006 61 10000 5.1 240 20:18 06.01.2021
4009 Clouds 27 1006 69 10000 2.1 270 19:38 06.01.2021
4010 Clouds 26 1006 74 10000 4.1 240 19:19 06.01.2021
4011 Clouds 27 1006 74 10000 4.1 240 18:42 06.01.2021
4012 Clouds 27 1006 61 10000 3.6 260 18:24 06.01.2021
4013 Clouds 27 1006 69 10000 5.1 270 17:43 06.01.2021
4014 Clouds 27 1006 65 10000 3.6 270 17:24 06.01.2021
4015 Clouds 28 1007 65 10000 3.1 270 16:42 06.01.2021
4016 Clouds 27 1007 74 10000 4.6 300 16:20 06.01.2021
4017 Clouds 27 1007 74 10000 4.6 300 15:53 06.01.2021
4018 Clouds 26 1007 74 10000 4.6 300 15:32 06.01.2021
4019 Clouds 26 1007 78 10000 4.6 330 14:52 06.01.2021
4020 Clouds 26 1007 78 10000 4.6 330 14:27 06.01.2021
4021 Clouds 24 1007 83 10000 4.6 330 13:47 06.01.2021
4022 Clouds 24 1007 83 10000 3.1 20 13:24 06.01.2021
4023 Clouds 23 1007 88 10000 5.7 10 12:49 06.01.2021
4024 Clouds 23 1007 88 10000 5.7 10 12:29 06.01.2021
4025 Clouds 22 1007 94 10000 3.1 40 11:40 06.01.2021
4026 Clouds 21 1007 94 10000 2.1 80 11:21 06.01.2021
4027 Clouds 21 1007 94 10000 2.6 60 10:31 06.01.2021
4028 Clouds 21 1007 94 10000 2.6 60 09:52 06.01.2021
4029 Clouds 21 1007 87 10000 0.89 30 09:22 06.01.2021
4030 Clouds 21 1007 87 10000 0.45 51 08:41 06.01.2021
4031 Clouds 21 1007 94 10000 4.1 70 08:18 06.01.2021
4032 Clouds 21 1007 94 10000 4.1 70 07:27 06.01.2021
4033 Clouds 21 1008 94 10000 4.1 80 05:52 06.01.2021
4034 Clouds 21 1009 94 7000 5.1 100 04:43 06.01.2021
4035 Rain 22 1009 88 8000 5.1 120 02:47 06.01.2021
4036 Rain 22 1009 88 8000 5.1 120 02:26 06.01.2021
4037 Clouds 22 1008 88 8000 5.1 120 01:35 06.01.2021
4038 Rain 22 1007 88 8000 4.1 130 23:44 05.01.2021
4039 Rain 23 1007 88 5000 6.2 70 22:53 05.01.2021
4040 Rain 23 1007 88 5000 6.2 70 22:34 05.01.2021
4041 Rain 24 1007 88 5000 6.2 70 21:59 05.01.2021
4042 Clouds 25 1006 69 10000 7.2 120 21:18 05.01.2021
4043 Clouds 26 1006 61 10000 8.2 110 20:30 05.01.2021
4044 Rain 28 1007 58 10000 7.7 110 19:45 05.01.2021
4045 Clouds 29 1007 58 10000 7.7 110 19:24 05.01.2021
4046 Rain 28 1007 61 10000 7.2 110 18:49 05.01.2021
4047 Clouds 28 1007 61 10000 7.2 110 18:28 05.01.2021
4048 Clouds 28 1008 55 10000 4.6 70 17:54 05.01.2021
4049 Clouds 29 1008 55 10000 4.6 70 17:32 05.01.2021
4050 Clouds 28 1009 54 10000 5.1 60 16:54 05.01.2021
4051 Clouds 29 1009 54 10000 5.1 60 16:24 05.01.2021
4052 Clouds 29 1009 54 10000 5.1 60 15:59 05.01.2021
4053 Clouds 28 1009 61 10000 6.2 40 15:40 05.01.2021
4054 Clouds 27 1009 61 10000 6.2 50 14:48 05.01.2021
4055 Clouds 27 1009 61 10000 6.2 50 14:18 05.01.2021
4056 Clouds 26 1009 69 10000 4.6 80 13:44 05.01.2021
4057 Clouds 26 1009 69 10000 4.6 80 13:20 05.01.2021
4058 Clouds 25 1009 69 10000 5.1 70 12:46 05.01.2021
4059 Clouds 23 1009 78 10000 5.1 80 12:20 05.01.2021
4060 Clouds 23 1009 78 10000 5.1 80 11:34 05.01.2021
4061 Clouds 23 1009 78 10000 5.1 80 11:33 05.01.2021
4062 Clouds 23 1009 78 10000 5.1 80 11:33 05.01.2021
4063 Clouds 23 1009 78 10000 5.1 80 11:33 05.01.2021
4064 Clouds 23 1009 78 10000 5.1 80 11:33 05.01.2021
4065 Clouds 22 1009 78 10000 3.6 80 10:46 05.01.2021
4066 Clouds 22 1009 78 10000 3.6 80 10:25 05.01.2021
4067 Clear 22 1009 78 10000 3.6 80 09:48 05.01.2021
4068 Clear 22 1009 78 10000 3.6 80 09:27 05.01.2021
4069 Clear 22 1008 83 10000 2.1 120 08:23 05.01.2021
4070 Rain 22 1008 78 10000 3.6 90 06:46 05.01.2021
4071 Clear 23 1009 88 10000 3.6 110 03:56 05.01.2021
4072 Clouds 23 1008 83 7000 6.2 140 00:48 05.01.2021
4073 Clouds 25 1008 61 10000 4.6 130 23:45 04.01.2021
4074 Clouds 25 1008 61 10000 4.6 130 23:25 04.01.2021
4075 Clouds 26 1008 61 10000 6.2 120 22:49 04.01.2021
4076 Clouds 26 1008 61 10000 6.2 120 22:27 04.01.2021
4077 Clouds 26 1008 69 10000 7.7 130 21:47 04.01.2021
4078 Clouds 27 1008 69 10000 7.7 130 21:29 04.01.2021
4079 Clouds 27 1009 69 10000 6.7 130 20:43 04.01.2021
4080 Clouds 27 1009 69 10000 6.7 130 20:23 04.01.2021
4081 Clouds 27 1009 57 10000 5.1 120 19:51 04.01.2021
4082 Clouds 27 1009 73 10000 7.2 130 19:24 04.01.2021
4083 Clouds 27 1009 54 10000 7.2 100 18:54 04.01.2021
4084 Clouds 27 1009 69 10000 6.7 130 18:24 04.01.2021
4085 Clouds 28 1009 42 10000 4.1 60 17:42 04.01.2021
4086 Clouds 28 1010 48 10000 4.1 60 17:24 04.01.2021
4087 Clouds 28 1010 48 10000 4.1 60 16:46 04.01.2021
4088 Clouds 28 1010 48 10000 4.1 60 16:27 04.01.2021
4089 Clouds 28 1011 51 10000 6.2 60 15:49 04.01.2021
4090 Clouds 26 1011 69 10000 4.6 60 15:27 04.01.2021
4091 Clouds 26 1011 69 10000 4.6 60 15:27 04.01.2021
4092 Clouds 25 1011 69 10000 4.6 60 14:34 04.01.2021
4093 Clouds 25 1011 73 10000 5.1 60 13:46 04.01.2021
4094 Clear 23 1012 78 10000 5.7 80 13:23 04.01.2021
4095 Clear 23 1012 78 10000 5.7 80 12:38 04.01.2021
4096 Clear 21 1012 88 10000 2.6 90 11:58 04.01.2021
4097 Clear 21 1012 83 10000 3.1 100 11:22 04.01.2021
4098 Clouds 20 1011 82 10000 3.1 100 10:48 04.01.2021
4099 Clouds 19 1011 82 10000 3.1 100 10:27 04.01.2021
4100 Clear 19 1011 88 10000 2.6 90 09:51 04.01.2021
4101 Clear 19 1012 88 10000 3.1 90 09:19 04.01.2021
4102 Clear 19 1012 88 10000 3.1 90 08:45 04.01.2021
4103 Clear 19 1012 82 10000 2.1 80 07:55 04.01.2021
4104 Clear 19 1012 82 10000 2.1 80 07:31 04.01.2021
4105 Clear 20 1013 77 10000 4.1 60 05:32 04.01.2021
4106 Rain 23 1013 53 10000 5.7 60 02:45 04.01.2021
4107 Clear 23 1012 73 10000 7.2 110 00:40 04.01.2021
4108 Clear 25 1012 61 10000 7.2 120 23:49 03.01.2021
4109 Rain 25 1012 61 10000 7.2 120 23:49 03.01.2021
4110 Rain 25 1012 61 10000 7.2 120 23:21 03.01.2021
4111 Clear 26 1013 57 10000 6.2 120 22:52 03.01.2021
4112 Rain 26 1013 57 10000 6.2 120 22:30 03.01.2021
4113 Rain 26 1013 51 10000 7.7 100 21:48 03.01.2021
4114 Rain 27 1013 51 10000 7.7 100 21:26 03.01.2021
4115 Rain 27 1013 51 10000 7.7 100 21:26 03.01.2021
4116 Rain 27 1013 48 10000 6.2 120 20:49 03.01.2021
4117 Clear 27 1013 48 10000 6.2 120 20:31 03.01.2021
4118 Clear 28 1014 48 10000 6.2 120 19:56 03.01.2021
4119 Clear 28 1014 48 10000 6.2 120 19:35 03.01.2021
4120 Clear 28 1015 57 10000 7.7 130 18:57 03.01.2021
4121 Clear 28 1014 42 10000 5.1 120 18:38 03.01.2021
4122 Clear 28 1015 54 10000 7.7 130 18:19 03.01.2021
4123 Clear 29 1015 35 10000 2.1 100 17:45 03.01.2021
4124 Clear 28 1015 50 10000 6.2 130 17:23 03.01.2021
4125 Clear 28 1015 37 10000 4.1 90 16:42 03.01.2021
4126 Clear 27 1016 50 10000 6.2 120 16:19 03.01.2021
4127 Clear 27 1016 44 10000 7.7 60 15:46 03.01.2021
4128 Clear 26 1016 44 10000 7.7 60 15:27 03.01.2021
4129 Clear 25 1017 53 10000 6.7 30 14:52 03.01.2021
4130 Clear 24 1017 53 10000 6.7 30 14:27 03.01.2021
4131 Clear 22 1017 56 10000 6.7 30 13:41 03.01.2021
4132 Clear 21 1017 68 10000 5.1 30 13:22 03.01.2021
4133 Clear 20 1017 68 10000 4.1 80 12:24 03.01.2021
4134 Clear 19 1017 68 10000 4.6 20 11:42 03.01.2021
4135 Clear 19 1017 68 10000 4.6 20 11:24 03.01.2021
4136 Clear 17 1016 77 10000 3.6 60 10:34 03.01.2021
4137 Clear 17 1015 72 10000 2.6 50 09:55 03.01.2021
4138 Clear 17 1015 72 10000 2.6 50 09:33 03.01.2021
4139 Clear 17 1014 72 10000 3.6 50 08:57 03.01.2021
4140 Clear 18 1014 68 10000 5.1 40 07:33 03.01.2021
4141 Clear 20 1014 56 10000 6.2 40 05:53 03.01.2021
4142 Rain 23 1014 60 10000 4.1 110 02:27 03.01.2021
4143 Clear 24 1014 60 10000 5.1 120 00:59 03.01.2021
4144 Clear 25 1014 60 10000 5.1 120 00:18 03.01.2021
4145 Clouds 26 1014 50 10000 6.2 100 23:27 02.01.2021
4146 Clouds 27 1014 42 10000 5.1 100 22:51 02.01.2021
4147 Clouds 27 1014 42 10000 5.1 100 22:32 02.01.2021
4148 Clouds 28 1014 37 10000 4.6 100 21:49 02.01.2021
4149 Clouds 28 1014 37 10000 4.6 100 21:30 02.01.2021
4150 Clouds 28 1015 33 10000 3.6 120 20:49 02.01.2021
4151 Clouds 29 1015 33 10000 3.6 120 20:28 02.01.2021
4152 Clouds 29 1015 35 10000 6.2 160 19:50 02.01.2021
4153 Clouds 30 1016 47 10000 6.2 130 19:20 02.01.2021
4154 Clear 30 1016 37 10000 4.1 180 18:53 02.01.2021
4155 Clear 29 1016 37 10000 4.1 180 18:33 02.01.2021
4156 Clouds 30 1016 42 10000 5.7 130 17:56 02.01.2021
4157 Clear 30 1016 27 10000 2.6 90 17:37 02.01.2021
4158 Clear 29 1017 26 10000 2.6 40 16:48 02.01.2021
4159 Clear 28 1017 30 10000 3.17 135 16:22 02.01.2021
4160 Clear 27 1017 30 10000 3.17 135 15:50 02.01.2021
4161 Clear 27 1017 30 10000 1.72 137 15:28 02.01.2021
4162 Clear 26 1018 36 10000 2.6 40 14:53 02.01.2021
4163 Clear 26 1018 36 10000 2.6 40 14:33 02.01.2021
4164 Clear 23 1018 46 10000 3.1 30 13:44 02.01.2021
4165 Clear 23 1018 46 10000 3.1 30 13:44 02.01.2021
4166 Clear 21 1018 56 10000 2.1 330 12:59 02.01.2021
4167 Clear 21 1018 56 10000 2.1 330 12:40 02.01.2021
4168 Clear 19 1018 63 10000 3.01 4 12:19 02.01.2021
4169 Clear 17 1018 63 10000 3.01 4 11:38 02.01.2021
4170 Clear 18 1017 67 10000 3.31 22 11:20 02.01.2021
4171 Clear 17 1017 67 10000 3.31 22 10:41 02.01.2021
4172 Clear 15 1017 72 10000 3.07 43 10:23 02.01.2021
4173 Clear 15 1017 72 10000 3.07 43 09:43 02.01.2021
4174 Clear 17 1016 63 10000 2.89 53 09:20 02.01.2021
4175 Clear 17 1016 63 10000 2.89 53 08:48 02.01.2021
4176 Clear 17 1016 63 10000 2.97 59 08:19 02.01.2021
4177 Clear 17 1016 67 10000 2.89 59 07:25 02.01.2021
4178 Clear 17 1016 67 10000 2.89 59 06:58 02.01.2021
4179 Clear 20 1016 59 10000 3.12 71 05:57 02.01.2021
4180 Clear 20 1016 64 10000 2.6 110 02:52 02.01.2021
4181 Rain 21 1016 68 10000 4.1 110 00:49 02.01.2021
4182 Clear 22 1016 68 10000 4.1 110 00:28 02.01.2021
4183 Clear 22 1015 60 10000 4.1 100 23:39 01.01.2021
4184 Clear 23 1015 60 10000 4.1 100 23:19 01.01.2021
4185 Clear 25 1015 50 10000 4.6 120 22:46 01.01.2021
4186 Clear 25 1014 47 10000 5.1 140 22:21 01.01.2021
4187 Clear 26 1014 47 10000 5.1 140 21:43 01.01.2021
4188 Clear 26 1015 30 10000 4.6 170 21:20 01.01.2021
4189 Clear 27 1015 30 10000 4.6 170 20:51 01.01.2021
4190 Clear 27 1015 34 10000 5.7 170 20:19 01.01.2021
4191 Clear 27 1015 34 10000 5.7 170 19:42 01.01.2021
4192 Clear 27 1015 34 10000 5.7 170 19:22 01.01.2021
4193 Clear 28 1015 37 10000 5.7 170 18:49 01.01.2021
4194 Clear 28 1015 37 10000 5.7 170 18:31 01.01.2021
4195 Clear 28 1015 37 10000 5.7 170 17:59 01.01.2021
4196 Clear 28 1015 34 10000 5.1 220 17:40 01.01.2021
4197 Clear 27 1015 34 10000 5.1 220 17:18 01.01.2021
4198 Clear 28 1015 37 10000 6.2 240 16:36 01.01.2021
4199 Clear 27 1015 44 10000 5.1 270 15:45 01.01.2021
4200 Clear 27 1014 44 10000 6.7 250 14:52 01.01.2021
4201 Clear 26 1014 44 10000 6.7 250 14:33 01.01.2021
4202 Clear 24 1014 49 10000 5.7 290 13:45 01.01.2021
4203 Clear 24 1014 49 10000 5.7 290 13:24 01.01.2021
4204 Clear 21 1014 52 10000 4.1 330 12:39 01.01.2021
4205 Clear 16 1014 67 10000 3.1 350 12:18 01.01.2021
4206 Clear 16 1014 67 10000 3.1 350 11:39 01.01.2021
4207 Clear 15 1014 67 10000 3.1 350 11:18 01.01.2021
4208 Clear 16 1013 55 10000 3.1 310 10:35 01.01.2021
4209 Clear 17 1012 51 10000 3.6 320 09:47 01.01.2021
4210 Clear 16 1012 51 10000 3.6 310 09:21 01.01.2021
4211 Clear 16 1012 51 10000 3.6 310 08:30 01.01.2021
4212 Clear 17 1012 48 10000 3.6 10 04:53 01.01.2021
4213 Clear 19 1012 48 10000 2.6 10 02:56 01.01.2021
4214 Clear 20 1012 45 10000 2.1 10 01:39 01.01.2021
4215 Clear 22 1012 37 10000 1.5 350 00:31 01.01.2021
4216 Clear 24 1012 38 10000 2.1 260 23:37 31.12.2020
4217 Clear 24 1012 38 10000 2.1 260 23:19 31.12.2020
4218 Clear 24 1012 38 10000 2.1 270 22:41 31.12.2020
4219 Clear 24 1012 38 10000 3.6 270 22:21 31.12.2020
4220 Clear 24 1012 38 10000 3.6 270 21:47 31.12.2020
4221 Clear 24 1012 38 10000 3.6 270 21:29 31.12.2020
4222 Clear 24 1013 38 10000 2.6 280 20:54 31.12.2020
4223 Clear 23 1012 29 10000 4.6 230 20:21 31.12.2020
4224 Clear 24 1013 40 10000 7.2 300 19:48 31.12.2020
4225 Clear 23 1013 40 10000 7.2 300 19:30 31.12.2020
4226 Clear 23 1014 35 10000 6.2 270 18:50 31.12.2020
4227 Clear 23 1014 37 10000 6.2 240 18:24 31.12.2020
4228 Clear 22 1014 37 10000 6.2 240 17:45 31.12.2020
4229 Clear 22 1014 40 10000 4.1 220 17:24 31.12.2020
4230 Clear 21 1014 40 10000 4.1 220 16:44 31.12.2020
4231 Clear 22 1013 43 10000 7.7 210 16:26 31.12.2020
4232 Clear 21 1013 43 10000 7.7 210 15:57 31.12.2020
4233 Clear 21 1013 43 10000 7.7 210 15:38 31.12.2020
4234 Clear 21 1013 40 10000 7.7 220 15:18 31.12.2020
4235 Clear 21 1013 45 10000 6.2 240 14:40 31.12.2020
4236 Clear 20 1012 42 10000 7.2 220 14:21 31.12.2020
4237 Clear 20 1012 48 10000 7.7 240 13:42 31.12.2020
4238 Clear 19 1012 52 10000 3.1 240 13:24 31.12.2020
4239 Clear 19 1012 52 10000 3.1 240 13:24 31.12.2020
4240 Clear 19 1012 52 10000 3.1 240 12:55 31.12.2020
4241 Clear 19 1012 52 10000 3.1 240 12:37 31.12.2020
4242 Clouds 18 1011 45 10000 7.2 220 11:58 31.12.2020
4243 Clear 18 1011 59 10000 3.1 240 11:40 31.12.2020
4244 Clear 18 1011 59 10000 3.1 240 11:40 31.12.2020
4245 Clouds 17 1010 51 10000 8.7 220 11:21 31.12.2020
4246 Clouds 16 1011 55 10000 6.7 230 10:40 31.12.2020
4247 Clouds 16 1010 55 10000 4.6 230 10:22 31.12.2020
4248 Clouds 16 1010 55 10000 4.6 230 09:47 31.12.2020
4249 Clouds 16 1009 59 10000 7.2 220 09:22 31.12.2020
4250 Clouds 16 1009 59 10000 7.2 220 08:46 31.12.2020
4251 Clouds 16 1009 59 10000 7.2 220 08:27 31.12.2020
4252 Rain 17 1009 59 10000 8.2 220 07:52 31.12.2020
4253 Clouds 17 1009 59 10000 8.2 220 06:50 31.12.2020
4254 Clouds 18 1009 55 10000 8.7 220 05:30 31.12.2020
4255 Clouds 21 1007 43 10000 9.8 220 03:25 31.12.2020
4256 Clear 22 1006 43 10000 8.7 220 02:27 31.12.2020
4257 Clouds 22 1005 40 10000 5.7 220 01:53 31.12.2020
4258 Clouds 22 1005 40 10000 5.7 220 01:33 31.12.2020
4259 Clouds 22 1005 46 10000 4.6 230 00:55 31.12.2020
4260 Clear 23 1004 60 10000 4.6 260 00:24 31.12.2020
4261 Clear 23 1004 60 10000 4.6 260 23:21 30.12.2020
4262 Clear 23 1004 60 10000 5.7 280 22:56 30.12.2020
4263 Clear 23 1004 60 10000 5.7 280 22:34 30.12.2020
4264 Clouds 23 1004 60 10000 5.1 290 21:50 30.12.2020
4265 Clouds 23 1004 60 10000 5.1 290 21:25 30.12.2020
4266 Clouds 23 1005 69 10000 5.1 270 20:53 30.12.2020
4267 Clouds 23 1005 69 10000 5.1 270 20:27 30.12.2020
4268 Clouds 23 1005 73 10000 5.1 260 19:58 30.12.2020
4269 Clouds 23 1005 69 10000 5.1 270 19:58 30.12.2020
4270 Clouds 23 1005 73 10000 5.1 260 19:58 30.12.2020
4271 Clouds 23 1005 73 10000 5.1 260 19:36 30.12.2020
4272 Rain 23 1004 69 10000 4.1 260 19:18 30.12.2020
4273 Clouds 23 1004 69 10000 4.1 260 18:38 30.12.2020
4274 Clouds 23 1004 69 10000 4.1 260 18:19 30.12.2020
4275 Rain 23 1004 78 10000 1 0 17:42 30.12.2020
4276 Rain 23 1004 78 10000 1 0 17:22 30.12.2020
4277 Rain 21 1005 88 8000 2.6 250 16:43 30.12.2020
4278 Rain 20 1005 94 8000 5.1 220 15:51 30.12.2020
4279 Rain 20 1005 94 8000 5.1 220 15:51 30.12.2020
4280 Rain 20 1005 88 10000 5.7 220 15:30 30.12.2020
4281 Rain 20 1004 88 2000 7.2 210 14:52 30.12.2020
4282 Rain 22 1004 78 10000 8.2 210 14:29 30.12.2020
4283 Rain 22 1004 78 10000 8.2 210 13:59 30.12.2020
4284 Clouds 26 1002 69 10000 5.1 336 12:56 30.12.2020
4285 Clouds 23 1001 83 10000 4.1 336 12:26 30.12.2020
4286 Clouds 23 1001 83 10000 4.1 336 11:39 30.12.2020
4287 Clouds 24 1001 83 10000 4.1 336 11:21 30.12.2020
4288 Clouds 24 1001 83 10000 4.1 336 11:21 30.12.2020
4289 Clouds 23 1001 83 10000 4.1 336 10:56 30.12.2020
4290 Clouds 23 1001 83 10000 3.1 10 10:37 30.12.2020
4291 Rain 22 1001 83 10000 3.1 20 10:18 30.12.2020
4292 Rain 22 1001 83 10000 3.1 20 09:41 30.12.2020
4293 Rain 22 1001 78 10000 3.6 30 08:35 30.12.2020
4294 Clouds 23 1002 69 10000 4.1 30 07:46 30.12.2020
4295 Clear 24 1002 69 10000 2.6 20 07:21 30.12.2020
4296 Clear 23 1002 69 10000 2.6 20 06:38 30.12.2020
4297 Clear 23 1003 73 10000 2.6 10 05:47 30.12.2020
4298 Rain 23 1003 73 10000 2.6 10 05:27 30.12.2020
4299 Clear 23 1004 73 10000 2.6 10 03:29 30.12.2020
4300 Clear 23 1004 69 10000 2.6 60 02:47 30.12.2020
4301 Clear 23 1004 69 10000 2.6 60 02:28 30.12.2020
4302 Clear 24 1004 69 10000 2.6 100 01:42 30.12.2020
4303 Clear 24 1004 64 10000 3.1 130 01:23 30.12.2020
4304 Clear 26 1004 64 10000 3.1 130 00:37 30.12.2020
4305 Clouds 27 1004 58 10000 5.1 60 23:59 29.12.2020
4306 Clouds 27 1004 58 10000 5.1 60 23:40 29.12.2020
4307 Clouds 28 1004 58 10000 5.1 60 23:22 29.12.2020
4308 Clouds 28 1005 58 10000 4.1 100 22:44 29.12.2020
4309 Clouds 27 1005 58 10000 4.6 110 22:23 29.12.2020
4310 Clouds 27 1005 58 10000 4.6 110 21:52 29.12.2020
4311 Clouds 28 1005 58 10000 4.6 110 21:34 29.12.2020
4312 Clouds 27 1006 61 10000 5.7 100 20:55 29.12.2020
4313 Clouds 27 1006 61 10000 5.7 100 20:36 29.12.2020
4314 Clouds 27 1006 58 10000 6.2 140 20:18 29.12.2020
4315 Clouds 28 1006 58 10000 6.2 140 19:38 29.12.2020
4316 Clouds 28 1006 58 10000 6.2 140 19:20 29.12.2020
4317 Clouds 29 1007 52 10000 2.1 190 18:46 29.12.2020
4318 Clouds 28 1008 58 10000 2.6 20 18:27 29.12.2020
4319 Clouds 27 1008 58 10000 2.6 20 17:44 29.12.2020
4320 Clouds 27 1008 58 10000 2.6 20 17:20 29.12.2020
4321 Clouds 27 1009 65 10000 3.1 40 16:39 29.12.2020
4322 Clouds 28 1009 58 10000 3.6 30 16:18 29.12.2020
4323 Clouds 28 1009 58 10000 3.6 30 15:37 29.12.2020
4324 Clouds 25 1010 73 10000 3.6 60 14:59 29.12.2020
4325 Clouds 25 1010 73 10000 3.6 60 14:36 29.12.2020
4326 Clouds 24 1010 73 10000 3.6 60 14:18 29.12.2020
4327 Clouds 23 1011 78 10000 2.6 70 13:45 29.12.2020
4328 Clouds 22 1011 83 10000 3.1 60 13:21 29.12.2020
4329 Clouds 22 1011 83 10000 3.1 60 12:38 29.12.2020
4330 Clouds 21 1011 88 10000 1 0 12:19 29.12.2020
4331 Clouds 21 1011 88 10000 1 0 11:53 29.12.2020
4332 Clouds 21 1011 88 10000 1 0 11:31 29.12.2020
4333 Clear 20 1010 82 10000 3.6 30 10:30 29.12.2020
4334 Clear 20 1010 82 10000 3.1 30 09:49 29.12.2020
4335 Clear 20 1011 82 10000 3.1 30 09:22 29.12.2020
4336 Clear 20 1011 82 10000 3.1 30 08:54 29.12.2020
4337 Clear 20 1011 82 10000 3.1 30 08:32 29.12.2020
4338 Clear 20 1011 77 10000 3.6 40 07:26 29.12.2020
4339 Clear 21 1012 68 10000 3.1 40 06:45 29.12.2020
4340 Clear 22 1012 68 10000 4.1 80 05:27 29.12.2020
4341 Clouds 23 1011 73 10000 8.2 110 00:55 29.12.2020
4342 Clouds 24 1011 65 10000 6.2 110 00:22 29.12.2020
4343 Clouds 24 1011 65 10000 6.2 110 23:36 28.12.2020
4344 Clouds 26 1011 61 10000 7.2 110 22:28 28.12.2020
4345 Clouds 27 1012 58 10000 7.2 110 21:46 28.12.2020
4346 Clouds 27 1012 58 10000 7.2 110 21:28 28.12.2020
4347 Clouds 27 1012 58 10000 7.7 130 20:44 28.12.2020
4348 Clouds 28 1012 58 10000 7.7 130 20:24 28.12.2020
4349 Clouds 28 1013 54 10000 7.2 130 19:50 28.12.2020
4350 Clouds 28 1013 54 10000 7.2 130 19:26 28.12.2020
4351 Clouds 28 1013 54 10000 7.2 130 18:59 28.12.2020
4352 Clouds 28 1014 54 10000 6.7 120 18:32 28.12.2020
4353 Clouds 29 1014 51 10000 5.1 80 17:51 28.12.2020
4354 Clouds 29 1014 51 10000 5.1 80 17:33 28.12.2020
4355 Clouds 29 1016 54 10000 6.2 40 16:59 28.12.2020
4356 Clouds 29 1016 54 10000 6.2 40 16:31 28.12.2020
4357 Clouds 28 1016 54 10000 6.7 50 15:54 28.12.2020
4358 Clouds 28 1016 54 10000 6.7 50 15:33 28.12.2020
4359 Clouds 27 1016 57 10000 7.7 50 14:31 28.12.2020
4360 Clouds 26 1016 69 10000 7.7 60 13:47 28.12.2020
4361 Clouds 23 1016 78 10000 4.6 70 13:20 28.12.2020
4362 Clouds 24 1016 78 10000 4.6 70 12:27 28.12.2020
4363 Clouds 23 1016 78 10000 4.6 70 11:56 28.12.2020
4364 Clouds 23 1016 78 10000 4.6 70 11:37 28.12.2020
4365 Clouds 23 1016 88 10000 3.6 110 11:18 28.12.2020
4366 Clouds 21 1016 88 10000 3.6 110 10:29 28.12.2020
4367 Clouds 21 1016 88 10000 4.1 110 09:58 28.12.2020
4368 Clouds 21 1016 88 10000 4.1 110 09:37 28.12.2020
4369 Clouds 21 1015 83 10000 2.6 100 09:18 28.12.2020
4370 Clear 21 1016 83 10000 3.6 90 06:53 28.12.2020
4371 Clear 22 1017 78 10000 3.6 80 05:23 28.12.2020
4372 Clear 23 1016 73 10000 6.2 90 03:34 28.12.2020
4373 Clear 23 1015 78 10000 6.2 100 01:55 28.12.2020
4374 Clouds 25 1013 69 10000 7.2 100 23:55 27.12.2020
4375 Clouds 26 1013 69 10000 7.2 100 23:29 27.12.2020
4376 Clouds 27 1013 65 10000 7.7 120 22:40 27.12.2020
4377 Clouds 26 1013 65 10000 7.7 120 21:55 27.12.2020
4378 Clouds 27 1014 73 10000 8.2 120 21:22 27.12.2020
4379 Clouds 28 1015 58 10000 5.7 140 20:32 27.12.2020
4380 Clouds 29 1015 51 10000 6.2 40 19:24 27.12.2020
4381 Clouds 26 1016 69 10000 5.1 130 18:50 27.12.2020
4382 Rain 26 1016 69 10000 5.1 110 18:21 27.12.2020
4383 Clouds 26 1016 69 10000 5.1 110 17:58 27.12.2020
4384 Clouds 25 1016 69 10000 5.1 110 17:37 27.12.2020
4385 Clouds 26 1016 78 10000 6.2 120 17:18 27.12.2020
4386 Clouds 26 1016 78 10000 6.2 120 17:18 27.12.2020
4387 Clouds 25 1016 78 8000 3.6 130 16:25 27.12.2020
4388 Clouds 25 1016 78 10000 4.1 100 15:34 27.12.2020
4389 Clouds 25 1017 73 10000 6.7 110 14:54 27.12.2020
4390 Clouds 25 1017 78 10000 3.6 110 14:36 27.12.2020
4391 Drizzle 22 1017 88 10000 3.1 100 13:39 27.12.2020
4392 Clouds 22 1017 83 6000 3.1 120 12:56 27.12.2020
4393 Clouds 21 1017 88 10000 3.6 120 12:28 27.12.2020
4394 Clouds 21 1017 88 10000 3.1 120 11:42 27.12.2020
4395 Clouds 24 1016 54 7000 5.83 85 11:21 27.12.2020
4396 Clouds 20 1016 94 10000 5.1 120 10:45 27.12.2020
4397 Clear 19 1016 88 10000 4.1 120 10:21 27.12.2020
4398 Clear 19 1016 88 10000 4.1 120 09:39 27.12.2020
4399 Clear 19 1016 88 10000 3.1 120 08:28 27.12.2020
4400 Clear 19 1016 82 10000 3.6 100 07:29 27.12.2020
4401 Clear 19 1016 77 10000 3.1 90 06:48 27.12.2020
4402 Clear 19 1016 72 10000 3.1 80 05:38 27.12.2020
4403 Clear 21 1016 73 10000 4.1 100 03:26 27.12.2020
4404 Clear 22 1015 77 10000 5.1 110 02:30 27.12.2020
4405 Clear 24 1013 66 10000 1.34 105 00:58 27.12.2020
4406 Clouds 25 1013 61 10000 8.2 120 23:44 26.12.2020
4407 Clouds 25 1013 61 10000 8.2 120 23:26 26.12.2020
4408 Clouds 26 1013 61 10000 8.2 120 22:46 26.12.2020
4409 Clouds 26 1013 61 10000 7.7 130 22:20 26.12.2020
4410 Clouds 25 1013 61 10000 7.7 130 21:54 26.12.2020
4411 Clouds 25 1013 61 10000 7.7 130 21:31 26.12.2020
4412 Clouds 26 1014 57 10000 7.7 120 20:46 26.12.2020
4413 Clouds 26 1014 57 10000 7.7 120 20:26 26.12.2020
4414 Clouds 26 1014 57 10000 6.2 120 19:50 26.12.2020
4415 Clouds 27 1014 54 10000 8.2 120 19:22 26.12.2020
4416 Clouds 27 1014 54 10000 8.2 120 18:36 26.12.2020
4417 Clouds 28 1015 51 10000 2.1 120 17:48 26.12.2020
4418 Clouds 28 1015 51 10000 2.1 120 17:29 26.12.2020
4419 Clouds 27 1015 51 10000 6.7 80 16:40 26.12.2020
4420 Clouds 27 1015 51 10000 6.2 60 16:21 26.12.2020
4421 Clouds 27 1016 57 10000 7.2 70 15:24 26.12.2020
4422 Clouds 26 1016 57 10000 7.2 70 14:44 26.12.2020
4423 Clouds 25 1016 64 10000 7.7 60 14:20 26.12.2020
4424 Clouds 25 1016 64 10000 7.7 60 13:42 26.12.2020
4425 Clouds 24 1016 73 10000 7.2 70 13:23 26.12.2020
4426 Clouds 23 1016 73 10000 7.2 70 12:42 26.12.2020
4427 Clear 22 1015 83 10000 4.1 90 12:20 26.12.2020
4428 Clear 22 1015 83 10000 4.1 90 11:51 26.12.2020
4429 Clouds 22 1015 82 10000 2.1 100 11:21 26.12.2020
4430 Clouds 21 1015 82 10000 2.1 100 10:51 26.12.2020
4431 Clouds 20 1015 82 10000 2.1 100 10:27 26.12.2020
4432 Clear 19 1014 77 10000 3.1 90 09:49 26.12.2020
4433 Clear 19 1014 77 10000 3.1 90 09:24 26.12.2020
4434 Clear 20 1014 73 10000 4.1 80 08:21 26.12.2020
4435 Clear 20 1014 73 10000 4.1 80 07:49 26.12.2020
4436 Clear 21 1015 73 10000 5.1 80 06:23 26.12.2020
4437 Clear 24 1014 61 10000 7.2 70 02:49 26.12.2020
4438 Clouds 24 1013 69 10000 6.2 110 00:43 26.12.2020
4439 Clouds 25 1012 57 10000 5.7 120 00:24 26.12.2020
4440 Clouds 26 1012 57 10000 5.7 120 23:39 25.12.2020
4441 Clouds 26 1012 57 10000 5.7 120 23:21 25.12.2020
4442 Clouds 26 1012 57 10000 5.7 120 22:40 25.12.2020
4443 Clouds 27 1012 61 10000 7.7 110 21:50 25.12.2020
4444 Clouds 27 1012 61 10000 7.7 110 21:32 25.12.2020
4445 Clouds 27 1013 58 10000 6.7 100 20:48 25.12.2020
4446 Clouds 27 1013 58 10000 6.7 100 20:28 25.12.2020
4447 Clouds 27 1014 54 10000 6.2 120 19:44 25.12.2020
4448 Clouds 27 1014 57 10000 6.2 130 18:58 25.12.2020
4449 Clouds 28 1014 57 10000 6.2 130 18:38 25.12.2020
4450 Clouds 28 1014 42 10000 5.7 60 17:40 25.12.2020
4451 Clouds 28 1014 69 10000 6.7 130 17:21 25.12.2020
4452 Clouds 28 1014 51 10000 5.7 60 16:33 25.12.2020
4453 Clouds 29 1015 51 10000 6.7 70 15:57 25.12.2020
4454 Clouds 29 1015 51 10000 6.7 70 15:35 25.12.2020
4455 Clouds 27 1015 57 10000 5.1 60 14:49 25.12.2020
4456 Clouds 26 1015 57 10000 5.1 60 14:28 25.12.2020
4457 Clouds 25 1015 69 10000 5.7 60 13:44 25.12.2020
4458 Clouds 25 1015 69 10000 5.7 60 13:26 25.12.2020
4459 Clouds 23 1016 78 10000 5.1 60 12:35 25.12.2020
4460 Clear 22 1015 83 10000 2.6 90 11:54 25.12.2020
4461 Clear 22 1015 83 10000 2.6 90 11:31 25.12.2020
4462 Clouds 20 1014 82 10000 3.6 80 10:53 25.12.2020
4463 Clouds 20 1014 77 10000 2.6 70 10:23 25.12.2020
4464 Clouds 19 1014 77 10000 2.6 70 09:34 25.12.2020
4465 Clear 19 1014 82 10000 3.6 100 08:48 25.12.2020
4466 Clear 20 1014 77 10000 3.6 70 07:58 25.12.2020
4467 Clear 20 1014 77 10000 4.6 80 06:46 25.12.2020
4468 Clear 24 1013 57 10000 5.7 60 02:51 25.12.2020
4469 Clear 26 1012 47 10000 5.1 70 01:41 25.12.2020
4470 Clear 26 1011 61 10000 5.7 140 00:18 25.12.2020
4471 Clear 27 1011 61 10000 5.7 140 23:23 24.12.2020
4472 Clear 27 1011 54 10000 5.1 130 22:41 24.12.2020
4473 Clear 27 1011 54 10000 5.1 130 22:20 24.12.2020
4474 Clear 28 1012 51 10000 7.2 130 21:33 24.12.2020
4475 Clear 28 1012 51 10000 7.2 120 20:36 24.12.2020
4476 Clear 30 1012 35 10000 6.2 40 18:40 24.12.2020
4477 Clear 30 1012 35 10000 6.2 40 18:18 24.12.2020
4478 Clear 30 1014 37 10000 4.1 50 17:37 24.12.2020
4479 Clear 29 1014 45 10000 5.7 30 16:45 24.12.2020
4480 Clear 28 1014 45 10000 5.7 30 16:20 24.12.2020
4481 Clear 27 1014 47 10000 5.7 40 15:42 24.12.2020
4482 Clear 26 1014 60 10000 7.2 20 15:19 24.12.2020
4483 Clear 25 1014 60 10000 7.2 20 14:42 24.12.2020
4484 Clear 25 1015 53 10000 5.1 30 14:24 24.12.2020
4485 Clear 24 1015 64 10000 7.7 20 13:42 24.12.2020
4486 Clear 22 1015 77 10000 8.2 30 13:22 24.12.2020
4487 Clear 22 1015 77 10000 8.2 30 12:43 24.12.2020
4488 Clear 20 1015 82 10000 7.2 30 12:21 24.12.2020
4489 Clear 20 1015 82 10000 7.2 30 11:47 24.12.2020
4490 Clear 19 1015 82 10000 7.2 30 11:20 24.12.2020
4491 Clear 18 1014 88 10000 3.1 20 10:52 24.12.2020
4492 Clear 18 1014 88 10000 3.1 20 10:34 24.12.2020
4493 Clear 17 1013 88 10000 5.1 40 09:52 24.12.2020
4494 Clear 18 1013 88 10000 5.1 40 09:25 24.12.2020
4495 Clear 18 1012 82 10000 4.1 20 08:25 24.12.2020
4496 Clear 19 1012 77 10000 4.6 30 07:41 24.12.2020
4497 Clear 19 1013 77 10000 4.6 30 07:18 24.12.2020
4498 Clear 21 1013 68 10000 6.2 50 05:36 24.12.2020
4499 Clear 24 1012 60 10000 1.5 80 01:57 24.12.2020
4500 Clear 24 1012 60 10000 1.5 80 01:57 24.12.2020
4501 Clear 24 1012 60 10000 1.5 80 01:57 24.12.2020
4502 Clear 24 1012 60 10000 1.5 80 01:36 24.12.2020
4503 Clear 23 1012 60 10000 5.1 120 01:18 24.12.2020
4504 Clear 23 1012 60 10000 5.1 120 01:18 24.12.2020
4505 Clear 25 1012 60 10000 5.1 120 00:21 24.12.2020
4506 Clear 25 1012 39 10000 6.7 110 23:46 23.12.2020
4507 Clear 25 1012 39 10000 6.7 110 23:26 23.12.2020
4508 Clear 27 1011 42 10000 6.7 110 22:55 23.12.2020
4509 Clear 27 1011 42 10000 6.7 110 22:30 23.12.2020
4510 Clear 27 1012 39 10000 6.2 120 21:52 23.12.2020
4511 Clear 27 1012 39 10000 6.2 120 21:27 23.12.2020
4512 Clear 29 1012 35 10000 5.7 130 20:54 23.12.2020
4513 Clear 29 1012 35 10000 5.7 130 20:36 23.12.2020
4514 Clear 29 1013 30 10000 1.5 0 20:18 23.12.2020
4515 Clear 29 1013 30 10000 1.5 0 19:39 23.12.2020
4516 Clear 30 1014 25 10000 3.6 70 19:20 23.12.2020
4517 Clear 30 1014 25 10000 3.6 70 18:47 23.12.2020
4518 Clear 30 1014 40 10000 4.6 150 18:22 23.12.2020
4519 Clear 30 1014 35 10000 3.1 80 17:39 23.12.2020
4520 Clear 30 1014 35 10000 3.1 80 17:39 23.12.2020
4521 Clear 30 1014 35 10000 3.1 80 17:39 23.12.2020
4522 Clear 29 1014 27 10000 2.1 20 17:20 23.12.2020
4523 Clear 29 1015 39 10000 3.6 10 16:47 23.12.2020
4524 Clear 28 1015 39 10000 3.6 10 16:29 23.12.2020
4525 Clear 27 1015 36 10000 3.1 20 15:56 23.12.2020
4526 Clear 26 1015 47 10000 6.2 320 15:30 23.12.2020
4527 Clear 25 1015 47 10000 6.2 320 14:59 23.12.2020
4528 Clear 25 1015 47 10000 6.2 320 14:39 23.12.2020
4529 Clear 24 1016 60 10000 5.1 350 14:20 23.12.2020
4530 Clear 23 1016 60 10000 5.1 350 13:44 23.12.2020
4531 Clear 23 1016 60 10000 5.1 350 13:44 23.12.2020
4532 Clear 21 1016 68 10000 5.7 60 13:19 23.12.2020
4533 Clear 21 1016 68 10000 5.7 60 12:53 23.12.2020
4534 Clear 20 1016 68 10000 5.7 60 12:28 23.12.2020
4535 Clear 18 1015 77 10000 4.6 30 11:53 23.12.2020
4536 Clear 18 1015 77 10000 3.1 30 11:21 23.12.2020
4537 Clear 17 1015 82 10000 3.6 30 10:50 23.12.2020
4538 Clear 17 1015 82 10000 3.6 30 10:32 23.12.2020
4539 Clear 15 1014 82 10000 3.1 30 09:36 23.12.2020
4540 Clear 16 1014 77 10000 3.1 10 08:51 23.12.2020
4541 Clear 16 1014 72 10000 3.1 20 08:22 23.12.2020
4542 Clear 17 1014 72 10000 3.1 20 07:37 23.12.2020
4543 Clear 18 1014 63 10000 3.1 30 06:41 23.12.2020
4544 Clear 19 1014 48 10000 4.6 30 05:54 23.12.2020
4545 Clear 19 1014 49 10000 3.6 40 05:19 23.12.2020
4546 Clear 20 1014 68 10000 3.1 110 01:32 23.12.2020
4547 Clear 24 1013 56 10000 4.1 100 00:30 23.12.2020
4548 Clear 25 1013 41 10000 3.1 100 23:38 22.12.2020
4549 Clear 25 1013 41 10000 3.1 100 23:20 22.12.2020
4550 Clouds 27 1014 32 10000 2.1 230 22:42 22.12.2020
4551 Clear 27 1014 47 10000 4.1 130 22:21 22.12.2020
4552 Clouds 27 1014 37 10000 1 0 21:45 22.12.2020
4553 Clouds 27 1014 35 10000 1 0 21:20 22.12.2020
4554 Clouds 27 1014 35 10000 1 0 20:50 22.12.2020
4555 Clouds 28 1014 35 10000 1 0 20:31 22.12.2020
4556 Clouds 27 1015 39 10000 3.1 170 19:52 22.12.2020
4557 Clouds 27 1015 39 10000 3.1 170 19:28 22.12.2020
4558 Clouds 27 1015 39 10000 3.1 170 18:58 22.12.2020
4559 Clear 27 1016 39 10000 3.6 180 18:38 22.12.2020
4560 Clear 27 1016 39 10000 3.6 180 18:19 22.12.2020
4561 Clear 27 1016 42 10000 3.6 190 17:36 22.12.2020
4562 Clear 27 1016 42 10000 3.6 190 17:18 22.12.2020
4563 Clear 26 1017 39 10000 1 0 16:46 22.12.2020
4564 Clear 25 1017 39 10000 1 0 16:21 22.12.2020
4565 Clear 25 1017 33 10000 1 0 15:46 22.12.2020
4566 Clear 25 1017 33 10000 1 0 15:28 22.12.2020
4567 Clear 23 1017 38 10000 1 0 14:57 22.12.2020
4568 Clear 23 1017 38 10000 1 0 14:38 22.12.2020
4569 Clear 23 1017 38 10000 1 0 14:18 22.12.2020
4570 Clear 21 1018 49 10000 1 0 13:42 22.12.2020
4571 Clear 20 1018 49 10000 1 0 13:18 22.12.2020
4572 Clear 18 1018 59 10000 2.1 350 12:44 22.12.2020
4573 Clear 18 1018 59 10000 2.1 350 12:26 22.12.2020
4574 Clear 14 1017 62 10000 2.1 350 11:57 22.12.2020
4575 Clear 14 1017 62 10000 2.1 350 11:38 22.12.2020
4576 Clear 15 1017 62 10000 2.1 350 11:19 22.12.2020
4577 Clear 14 1017 62 10000 1.5 30 10:47 22.12.2020
4578 Clear 13 1017 62 10000 1.5 30 10:24 22.12.2020
4579 Rain 13 1017 62 10000 1.5 30 09:55 22.12.2020
4580 Rain 12 1016 81 10000 2.02 337 09:23 22.12.2020
4581 Clear 11 1016 81 10000 2.02 337 08:51 22.12.2020
4582 Clear 11 1016 81 10000 1.99 335 08:29 22.12.2020
4583 Clear 12 1016 81 10000 1.99 335 07:48 22.12.2020
4584 Clear 12 1016 76 10000 2.26 334 06:48 22.12.2020
4585 Clear 12 1017 76 10000 2.3 355 05:44 22.12.2020
4586 Clear 14 1017 71 10000 2.47 48 03:33 22.12.2020
4587 Clear 17 1017 55 10000 1.5 100 00:46 22.12.2020
4588 Clear 20 1016 45 10000 2.1 150 23:52 21.12.2020
4589 Clear 20 1016 45 10000 2.1 150 23:31 21.12.2020
4590 Clear 20 1017 45 10000 3.6 160 22:38 21.12.2020
4591 Clear 20 1016 45 10000 4.6 170 22:19 21.12.2020
4592 Clear 20 1016 45 10000 4.6 170 21:57 21.12.2020
4593 Clear 20 1016 45 10000 4.6 170 21:39 21.12.2020
4594 Clear 20 1017 45 10000 5.1 170 21:18 21.12.2020
4595 Clear 21 1017 45 10000 5.1 170 20:27 21.12.2020
4596 Clear 20 1017 45 10000 5.7 200 19:58 21.12.2020
4597 Clear 20 1017 45 10000 5.7 200 19:39 21.12.2020
4598 Clear 20 1017 52 10000 5.1 190 19:19 21.12.2020
4599 Clear 20 1017 52 10000 5.1 190 18:51 21.12.2020
4600 Clear 20 1017 52 10000 5.1 190 18:32 21.12.2020
4601 Clear 20 1017 42 10000 5.7 220 17:43 21.12.2020
4602 Clear 20 1017 42 10000 5.7 220 17:24 21.12.2020
4603 Clear 20 1018 45 10000 5.1 220 16:47 21.12.2020
4604 Clear 19 1018 45 10000 5.1 220 16:26 21.12.2020
4605 Clouds 18 1018 48 10000 5.7 230 15:47 21.12.2020
4606 Clouds 19 1018 48 10000 5.7 230 15:29 21.12.2020
4607 Clouds 18 1017 45 10000 6.2 220 14:57 21.12.2020
4608 Clear 17 1017 55 10000 6.2 230 14:21 21.12.2020
4609 Clear 17 1017 55 10000 6.2 230 13:43 21.12.2020
4610 Clouds 17 1016 55 10000 4.6 230 13:24 21.12.2020
4611 Clouds 17 1016 55 10000 4.6 230 12:44 21.12.2020
4612 Clouds 17 1016 55 10000 4.6 230 12:44 21.12.2020
4613 Clear 17 1015 59 10000 4.1 230 12:25 21.12.2020
4614 Clear 16 1015 59 10000 4.1 230 11:56 21.12.2020
4615 Clear 16 1015 59 10000 4.1 230 11:37 21.12.2020
4616 Clouds 16 1015 55 10000 4.1 220 11:19 21.12.2020
4617 Clouds 15 1014 58 10000 2.6 230 10:41 21.12.2020
4618 Clouds 14 1013 55 10000 3.6 240 10:22 21.12.2020
4619 Clouds 16 1013 55 10000 3.6 240 09:43 21.12.2020
4620 Clouds 16 1013 55 10000 3.6 240 09:24 21.12.2020
4621 Clouds 15 1013 59 10000 4.1 230 08:50 21.12.2020
4622 Clouds 15 1013 59 10000 6.7 230 07:51 21.12.2020
4623 Clouds 16 1013 63 10000 3.6 230 06:43 21.12.2020
4624 Clouds 16 1013 67 10000 5.1 210 04:46 21.12.2020
4625 Clouds 18 1012 59 10000 6.7 210 01:25 21.12.2020
4626 Clouds 19 1011 52 10000 3.6 220 00:31 21.12.2020
4627 Clouds 20 1011 48 10000 6.2 220 23:34 20.12.2020
4628 Clouds 20 1011 48 10000 6.2 220 22:59 20.12.2020
4629 Clouds 20 1011 49 10000 7.2 220 22:40 20.12.2020
4630 Clouds 21 1011 46 10000 7.7 240 22:21 20.12.2020
4631 Clouds 21 1011 46 10000 7.7 240 22:21 20.12.2020
4632 Clouds 21 1011 46 10000 7.7 240 21:39 20.12.2020
4633 Clouds 21 1011 46 10000 7.7 240 21:20 20.12.2020
4634 Clouds 21 1010 52 10000 6.2 250 20:50 20.12.2020
4635 Clouds 20 1010 52 10000 7.7 240 20:23 20.12.2020
4636 Clouds 20 1010 52 10000 7.7 240 19:46 20.12.2020
4637 Clouds 20 1010 52 10000 7.7 240 19:27 20.12.2020
4638 Clouds 20 1010 52 10000 7.7 240 18:58 20.12.2020
4639 Clouds 20 1010 52 10000 8.2 240 18:38 20.12.2020
4640 Clouds 19 1010 52 10000 8.2 240 18:19 20.12.2020
4641 Clouds 19 1009 59 10000 7.7 250 17:43 20.12.2020
4642 Clouds 18 1009 55 10000 7.2 240 17:22 20.12.2020
4643 Clouds 18 1009 55 10000 7.2 240 16:45 20.12.2020
4644 Clouds 18 1009 55 10000 7.2 240 16:25 20.12.2020
4645 Clouds 18 1008 59 10000 7.7 240 15:47 20.12.2020
4646 Clouds 18 1008 63 10000 8.2 240 15:24 20.12.2020
4647 Clouds 17 1008 63 10000 8.2 240 14:53 20.12.2020
4648 Clouds 17 1008 63 10000 8.2 240 14:30 20.12.2020
4649 Clouds 16 1008 72 10000 6.7 250 13:47 20.12.2020
4650 Clouds 16 1008 72 10000 6.7 250 13:25 20.12.2020
4651 Clouds 16 1007 72 10000 9.8 250 12:57 20.12.2020
4652 Clouds 16 1007 72 10000 9.8 250 12:39 20.12.2020
4653 Clouds 16 1006 63 10000 8.7 240 12:18 20.12.2020
4654 Clouds 15 1006 72 10000 8.2 250 11:42 20.12.2020
4655 Clouds 15 1005 67 10000 8.2 240 10:57 20.12.2020
4656 Clouds 15 1005 67 10000 8.2 240 10:38 20.12.2020
4657 Clouds 15 1005 67 10000 8.7 260 10:19 20.12.2020
4658 Clouds 15 1005 67 10000 8.7 260 09:45 20.12.2020
4659 Clouds 15 1005 67 10000 8.7 260 09:27 20.12.2020
4660 Clouds 16 1004 63 10000 8.7 260 08:55 20.12.2020
4661 Clouds 16 1004 63 10000 8.7 260 08:36 20.12.2020
4662 Clouds 16 1004 63 10000 9.8 260 07:24 20.12.2020
4663 Clouds 17 1002 63 10000 8.2 250 05:44 20.12.2020
4664 Clouds 19 999 60 10000 10.3 270 01:45 20.12.2020
4665 Clouds 21 997 56 10000 12.9 280 00:38 20.12.2020
4666 Clouds 23 997 56 10000 12.3 300 23:20 19.12.2020
4667 Clouds 23 997 56 10000 12.3 300 22:57 19.12.2020
4668 Clouds 25 996 47 10000 13.4 290 22:38 19.12.2020
4669 Clouds 25 996 44 10000 13.4 280 22:19 19.12.2020
4670 Clouds 25 996 44 10000 13.4 280 21:42 19.12.2020
4671 Clouds 26 996 44 10000 13.4 280 21:24 19.12.2020
4672 Clouds 26 996 47 10000 10.8 300 20:45 19.12.2020
4673 Clouds 26 996 61 10000 11.3 300 20:21 19.12.2020
4674 Clouds 26 996 61 10000 11.3 300 19:54 19.12.2020
4675 Clouds 26 996 61 10000 11.3 300 19:36 19.12.2020
4676 Clouds 27 996 51 10000 7.2 290 18:43 19.12.2020
4677 Clouds 25 995 61 10000 7.7 310 18:25 19.12.2020
4678 Clouds 24 996 78 10000 8.2 280 17:49 19.12.2020
4679 Clouds 23 996 78 10000 8.2 280 17:28 19.12.2020
4680 Clouds 22 997 94 10000 9.8 280 16:55 19.12.2020
4681 Clouds 22 997 94 10000 6.2 300 16:36 19.12.2020
4682 Clouds 23 997 88 1500 6.2 330 16:18 19.12.2020
4683 Clouds 23 997 88 1500 6.2 330 15:47 19.12.2020
4684 Clouds 25 997 73 10000 6.2 20 14:49 19.12.2020
4685 Clouds 23 997 53 10000 6.2 40 14:26 19.12.2020
4686 Clouds 22 997 53 10000 6.2 40 13:42 19.12.2020
4687 Clouds 20 997 88 10000 7.2 80 13:21 19.12.2020
4688 Clouds 21 997 88 10000 7.2 80 12:55 19.12.2020
4689 Clouds 20 997 88 10000 7.2 80 12:37 19.12.2020
4690 Clouds 20 1000 88 4000 2.1 40 12:19 19.12.2020
4691 Rain 20 1000 88 4000 2.1 40 11:42 19.12.2020
4692 Rain 21 1001 94 7000 3.6 320 10:48 19.12.2020
4693 Rain 21 1001 94 7000 3.6 320 10:29 19.12.2020
4694 Rain 22 1001 78 5000 9.8 350 10:00 19.12.2020
4695 Rain 22 1001 73 10000 7.2 50 09:40 19.12.2020
4696 Rain 23 1001 78 10000 5.7 40 08:58 19.12.2020
4697 Rain 23 1001 73 10000 6.2 50 08:18 19.12.2020
4698 Rain 24 1001 69 10000 5.7 50 07:19 19.12.2020
4699 Rain 24 1001 69 10000 5.7 50 06:44 19.12.2020
4700 Clouds 24 1002 64 10000 2.68 49 05:23 19.12.2020
4701 Rain 25 1003 47 10000 5.7 70 03:48 19.12.2020
4702 Clear 26 1002 57 10000 4.1 100 00:42 19.12.2020
4703 Clear 27 1002 57 10000 4.1 100 00:22 19.12.2020
4704 Clouds 28 1002 45 10000 5.1 110 23:52 18.12.2020
4705 Clouds 28 1002 45 10000 5.1 110 23:33 18.12.2020
4706 Clouds 28 1003 48 10000 6.2 110 22:59 18.12.2020
4707 Clouds 28 1003 48 10000 6.2 110 22:41 18.12.2020
4708 Clouds 29 1003 48 10000 6.2 110 22:19 18.12.2020
4709 Clouds 30 1004 43 10000 3.1 120 21:46 18.12.2020
4710 Clouds 32 1004 33 10000 2.6 50 21:25 18.12.2020
4711 Clouds 32 1005 33 10000 3.6 40 20:26 18.12.2020
4712 Clouds 32 1005 33 10000 3.6 40 19:51 18.12.2020
4713 Clouds 32 1005 33 10000 3.6 40 19:25 18.12.2020
4714 Clouds 32 1005 33 10000 3.6 40 19:25 18.12.2020
4715 Clouds 33 1006 33 10000 5.1 40 18:48 18.12.2020
4716 Clouds 33 1006 33 10000 5.1 40 18:28 18.12.2020
4717 Clouds 33 1006 33 10000 5.1 40 17:59 18.12.2020
4718 Clouds 31 1007 40 10000 4.6 20 17:21 18.12.2020
4719 Clouds 32 1008 45 10000 5.1 350 16:48 18.12.2020
4720 Clear 30 1009 54 10000 6.2 350 16:26 18.12.2020
4721 Clear 30 1009 54 10000 6.2 350 15:54 18.12.2020
4722 Clear 30 1009 54 10000 6.2 350 15:36 18.12.2020
4723 Clear 30 1009 54 10000 6.2 350 15:18 18.12.2020
4724 Clear 28 1010 61 10000 68.9 360 14:51 18.12.2020
4725 Clear 26 1010 69 10000 7.2 360 14:19 18.12.2020
4726 Clear 25 1010 69 10000 7.2 360 13:45 18.12.2020
4727 Clear 24 1011 78 10000 7.7 10 13:23 18.12.2020
4728 Clear 24 1011 78 10000 7.7 10 12:46 18.12.2020
4729 Clear 24 1011 78 10000 7.7 10 12:46 18.12.2020
4730 Clear 21 1010 83 10000 7.2 20 11:38 18.12.2020
4731 Clouds 22 1010 83 10000 7.7 10 11:19 18.12.2020
4732 Clouds 21 1009 88 10000 5.1 20 10:38 18.12.2020
4733 Clouds 20 1009 88 10000 4.1 30 10:20 18.12.2020
4734 Clouds 20 1009 88 10000 4.1 30 10:20 18.12.2020
4735 Clouds 20 1009 88 10000 4.1 30 09:38 18.12.2020
4736 Clouds 21 1009 83 10000 5.7 20 09:20 18.12.2020
4737 Clouds 21 1009 83 10000 5.7 20 08:52 18.12.2020
4738 Clouds 21 1009 83 10000 5.7 20 08:29 18.12.2020
4739 Clouds 21 1009 83 10000 5.7 30 07:36 18.12.2020
4740 Clouds 22 1009 73 10000 6.7 30 07:18 18.12.2020
4741 Clouds 22 1009 73 10000 6.7 30 06:42 18.12.2020
4742 Clouds 23 1010 69 10000 6.2 40 05:38 18.12.2020
4743 Rain 23 1010 56 10000 5.7 40 04:51 18.12.2020
4744 Clouds 23 1010 64 10000 2.1 110 01:57 18.12.2020
4745 Clouds 24 1010 53 10000 5.7 100 01:37 18.12.2020
4746 Rain 26 1010 44 10000 4.6 130 23:58 17.12.2020
4747 Clouds 26 1010 44 10000 4.6 130 23:25 17.12.2020
4748 Rain 28 1010 42 10000 6.2 130 22:52 17.12.2020
4749 Rain 28 1010 42 10000 6.2 130 22:28 17.12.2020
4750 Rain 28 1010 42 10000 6.2 130 22:28 17.12.2020
4751 Clouds 28 1010 32 10000 6.2 120 21:55 17.12.2020
4752 Clouds 28 1010 32 10000 6.2 120 21:37 17.12.2020
4753 Clouds 29 1011 51 10000 7.2 120 21:18 17.12.2020
4754 Clouds 30 1011 27 10000 3.6 340 20:41 17.12.2020
4755 Clouds 29 1011 57 10000 6.7 120 20:18 17.12.2020
4756 Clouds 30 1011 27 10000 3.1 330 19:47 17.12.2020
4757 Clouds 31 1011 27 10000 3.1 330 19:24 17.12.2020
4758 Clouds 30 1012 35 10000 4.1 330 18:42 17.12.2020
4759 Clouds 31 1013 37 10000 6.2 10 18:23 17.12.2020
4760 Clouds 30 1013 37 10000 6.2 10 17:53 17.12.2020
4761 Clouds 30 1013 37 10000 6.2 10 17:32 17.12.2020
4762 Clouds 29 1014 51 10000 4.6 30 16:46 17.12.2020
4763 Clouds 28 1014 51 10000 4.6 30 16:27 17.12.2020
4764 Clouds 28 1014 51 10000 4.6 30 15:56 17.12.2020
4765 Clouds 27 1015 51 10000 6.2 40 15:34 17.12.2020
4766 Clouds 26 1015 57 10000 7.2 30 14:55 17.12.2020
4767 Clouds 25 1015 57 10000 7.2 30 14:35 17.12.2020
4768 Clouds 24 1016 69 10000 5.7 20 13:58 17.12.2020
4769 Clouds 24 1016 69 10000 5.7 20 13:39 17.12.2020
4770 Clouds 22 1016 73 10000 5.1 20 12:56 17.12.2020
4771 Clouds 21 1016 73 10000 5.1 20 12:33 17.12.2020
4772 Clouds 19 1016 82 10000 4.6 30 11:58 17.12.2020
4773 Clouds 19 1016 82 10000 4.6 30 11:58 17.12.2020
4774 Clouds 18 1016 82 10000 4.6 30 11:38 17.12.2020
4775 Clouds 19 1016 88 10000 3.6 20 11:20 17.12.2020
4776 Clouds 19 1015 88 10000 2.6 20 10:33 17.12.2020
4777 Clear 17 1015 88 10000 2.6 30 09:36 17.12.2020
4778 Clear 17 1015 87 10000 2.6 20 08:40 17.12.2020
4779 Clear 17 1015 77 10000 3.1 30 07:41 17.12.2020
4780 Clear 18 1015 68 10000 3.6 40 07:20 17.12.2020
4781 Clear 18 1015 68 10000 3.6 40 06:45 17.12.2020
4782 Clear 18 1015 68 10000 3.6 40 06:27 17.12.2020
4783 Clear 20 1015 43 10000 4.1 110 01:57 17.12.2020
4784 Clear 22 1014 35 10000 5.1 130 00:19 17.12.2020
4785 Clear 22 1014 35 10000 5.1 130 23:38 16.12.2020
4786 Clear 23 1014 35 10000 5.1 130 23:18 16.12.2020
4787 Clear 23 1014 31 10000 5.7 130 22:47 16.12.2020
4788 Clear 24 1014 31 10000 5.7 130 22:28 16.12.2020
4789 Clouds 24 1014 33 10000 5.7 140 21:42 16.12.2020
4790 Clouds 25 1014 33 10000 5.7 140 21:22 16.12.2020
4791 Clouds 25 1014 36 10000 5.7 150 20:49 16.12.2020
4792 Clouds 25 1014 36 10000 5.7 150 20:20 16.12.2020
4793 Clouds 25 1015 33 10000 6.2 150 19:38 16.12.2020
4794 Clouds 26 1015 33 10000 6.2 150 19:18 16.12.2020
4795 Clear 26 1014 24 10000 2.6 100 18:44 16.12.2020
4796 Clear 26 1014 24 10000 2.6 100 18:22 16.12.2020
4797 Clear 26 1015 26 10000 1 0 17:36 16.12.2020
4798 Clear 25 1015 29 10000 4.1 110 16:43 16.12.2020
4799 Clear 24 1016 29 10000 4.6 90 16:24 16.12.2020
4800 Clear 24 1016 29 10000 4.6 90 15:57 16.12.2020
4801 Clear 24 1016 29 10000 4.6 90 15:37 16.12.2020
4802 Clear 23 1016 31 10000 5.1 90 15:18 16.12.2020
4803 Clear 22 1016 35 10000 4.1 90 14:41 16.12.2020
4804 Clear 21 1016 42 10000 4.1 70 14:22 16.12.2020
4805 Clear 21 1016 42 10000 4.1 70 13:40 16.12.2020
4806 Clear 19 1016 55 10000 4.1 90 13:20 16.12.2020
4807 Clear 19 1016 55 10000 4.1 90 12:43 16.12.2020
4808 Clear 16 1016 72 10000 4.6 80 11:49 16.12.2020
4809 Clear 16 1016 72 10000 4.6 80 11:27 16.12.2020
4810 Clear 14 1016 76 10000 3.1 70 10:54 16.12.2020
4811 Clear 13 1016 76 10000 3.1 70 10:28 16.12.2020
4812 Clear 13 1016 71 10000 1.5 70 09:55 16.12.2020
4813 Clear 13 1015 67 10000 2.6 60 09:24 16.12.2020
4814 Clear 13 1015 62 10000 1.5 40 08:22 16.12.2020
4815 Clear 13 1015 62 10000 1.5 40 07:44 16.12.2020
4816 Clear 14 1016 51 10000 4.1 110 07:20 16.12.2020
4817 Clear 15 1016 59 10000 7.2 120 03:35 16.12.2020
4818 Clouds 16 1015 51 10000 8.2 130 01:59 16.12.2020
4819 Clear 17 1013 55 10000 8.2 140 23:46 15.12.2020
4820 Clear 17 1013 55 10000 8.2 140 23:19 15.12.2020
4821 Clear 18 1013 59 10000 6.7 130 22:41 15.12.2020
4822 Clouds 18 1012 63 10000 7.7 140 22:20 15.12.2020
4823 Clouds 18 1012 63 10000 7.7 140 21:46 15.12.2020
4824 Clouds 18 1012 63 10000 7.2 140 21:23 15.12.2020
4825 Clouds 18 1012 63 10000 7.2 140 20:45 15.12.2020
4826 Rain 18 1012 68 10000 7.2 140 20:27 15.12.2020
4827 Rain 18 1012 68 10000 7.2 140 19:55 15.12.2020
4828 Rain 18 1012 68 10000 7.2 140 19:33 15.12.2020
4829 Rain 18 1012 72 10000 5.7 130 18:41 15.12.2020
4830 Clouds 19 1012 63 10000 5.7 150 18:22 15.12.2020
4831 Rain 19 1011 77 10000 8.2 140 17:58 15.12.2020
4832 Clouds 19 1011 77 10000 8.2 140 17:40 15.12.2020
4833 Rain 19 1012 63 10000 6.7 140 17:19 15.12.2020
4834 Rain 19 1011 82 8000 5.7 140 16:32 15.12.2020
4835 Rain 19 1011 77 6000 7.7 150 15:51 15.12.2020
4836 Rain 19 1012 68 8000 7.2 160 15:30 15.12.2020
4837 Clouds 20 1010 77 6000 7.7 180 14:47 15.12.2020
4838 Rain 20 1010 77 6000 7.7 180 14:21 15.12.2020
4839 Clouds 22 1010 64 10000 2.6 250 13:51 15.12.2020
4840 Clouds 22 1010 64 10000 2.6 250 13:32 15.12.2020
4841 Clouds 22 1010 64 10000 2.6 250 13:32 15.12.2020
4842 Rain 21 1009 60 10000 2.6 310 12:47 15.12.2020
4843 Clouds 21 1009 60 10000 2.6 310 12:47 15.12.2020
4844 Clouds 25 1009 56 10000 4.1 290 12:22 15.12.2020
4845 Clouds 24 1009 56 10000 4.1 290 11:56 15.12.2020
4846 Clouds 19 1009 63 10000 3.1 310 11:26 15.12.2020
4847 Clouds 18 1009 63 10000 3.1 310 10:56 15.12.2020
4848 Clouds 17 1008 67 10000 2.6 330 10:34 15.12.2020
4849 Clouds 16 1008 67 10000 3.1 360 09:52 15.12.2020
4850 Clouds 16 1008 67 10000 3.1 360 09:32 15.12.2020
4851 Clear 16 1007 63 10000 4.1 340 08:54 15.12.2020
4852 Clear 16 1007 63 10000 4.1 340 08:29 15.12.2020
4853 Clear 17 1008 59 10000 2.6 300 07:50 15.12.2020
4854 Clear 17 1008 59 10000 2.6 300 07:26 15.12.2020
4855 Clear 18 1007 51 10000 6.2 250 06:37 15.12.2020
4856 Clear 18 1006 52 10000 4.1 350 04:18 15.12.2020
4857 Clear 23 1006 35 10000 3.6 10 00:35 15.12.2020
4858 Clear 26 1006 29 10000 5.7 320 23:26 14.12.2020
4859 Clear 26 1006 27 10000 3.6 320 22:58 14.12.2020
4860 Clear 27 1005 28 10000 7.7 310 22:36 14.12.2020
4861 Clear 27 1006 26 10000 7.7 330 21:53 14.12.2020
4862 Clear 27 1006 26 10000 7.7 330 21:35 14.12.2020
4863 Clear 27 1006 26 10000 5.1 340 20:52 14.12.2020
4864 Clear 27 1006 26 10000 5.1 340 20:30 14.12.2020
4865 Clear 26 1008 29 10000 6.7 320 19:55 14.12.2020
4866 Clear 26 1008 29 10000 6.7 320 19:29 14.12.2020
4867 Clear 25 1008 31 10000 5.1 320 18:51 14.12.2020
4868 Clear 25 1008 31 10000 5.1 320 18:32 14.12.2020
4869 Clear 25 1009 29 10000 5.7 330 17:48 14.12.2020
4870 Clear 25 1009 29 10000 5.7 330 17:28 14.12.2020
4871 Clear 26 1010 29 10000 7.7 310 16:52 14.12.2020
4872 Clear 25 1010 27 10000 6.2 310 16:29 14.12.2020
4873 Clear 25 1011 36 10000 6.7 350 15:46 14.12.2020
4874 Clear 24 1011 36 10000 6.7 350 15:25 14.12.2020
4875 Clear 22 1012 46 10000 6.2 360 14:43 14.12.2020
4876 Clear 20 1012 63 10000 5.1 360 14:25 14.12.2020
4877 Clear 20 1012 63 10000 5.1 360 13:46 14.12.2020
4878 Clear 19 1012 63 10000 5.1 360 13:22 14.12.2020
4879 Clear 17 1012 77 10000 4.1 360 12:53 14.12.2020
4880 Clear 17 1012 77 10000 4.1 360 12:28 14.12.2020
4881 Clear 13 1012 93 10000 3.1 350 11:35 14.12.2020
4882 Clear 13 1012 87 10000 2.6 20 10:43 14.12.2020
4883 Clear 11 1012 81 10000 3.1 20 10:25 14.12.2020
4884 Clear 11 1012 81 10000 3.1 20 09:44 14.12.2020
4885 Clear 17 1012 53 10000 3.5 359 08:48 14.12.2020
4886 Clear 14 1013 67 10000 1 20 08:30 14.12.2020
4887 Clear 14 1013 67 10000 1 20 07:45 14.12.2020
4888 Clear 16 1013 59 10000 1.5 180 06:48 14.12.2020
4889 Clear 16 1013 55 10000 3.6 190 05:36 14.12.2020
4890 Clear 18 1013 63 10000 6.7 210 02:39 14.12.2020
4891 Clouds 18 1011 63 10000 3.6 210 00:56 14.12.2020
4892 Clouds 18 1011 63 10000 3.6 210 00:34 14.12.2020
4893 Clouds 19 1012 82 2500 8.7 240 23:57 13.12.2020
4894 Clouds 19 1012 82 2500 8.7 240 23:39 13.12.2020
4895 Clouds 22 1010 60 10000 6.2 300 22:49 13.12.2020
4896 Clouds 21 1010 68 10000 6.7 270 22:20 13.12.2020
4897 Clouds 22 1010 68 10000 6.7 270 21:47 13.12.2020
4898 Clouds 22 1010 68 10000 6.7 270 21:28 13.12.2020
4899 Clouds 21 1010 64 10000 6.2 240 20:40 13.12.2020
4900 Clouds 21 1010 72 10000 4.6 260 20:21 13.12.2020
4901 Clouds 21 1010 72 10000 4.6 260 19:43 13.12.2020
4902 Rain 21 1010 73 10000 2.1 240 19:20 13.12.2020
4903 Rain 22 1010 73 10000 2.1 240 18:44 13.12.2020
4904 Rain 21 1011 73 10000 4.6 240 18:21 13.12.2020
4905 Rain 21 1011 73 10000 4.6 240 17:47 13.12.2020
4906 Rain 21 1009 82 10000 2.1 240 17:21 13.12.2020
4907 Rain 21 1009 82 10000 2.1 240 16:59 13.12.2020
4908 Clouds 21 1009 82 10000 2.1 240 16:39 13.12.2020
4909 Clouds 20 1009 93 8000 5.92 177 16:19 13.12.2020
4910 Rain 18 1009 93 8000 5.92 177 15:45 13.12.2020
4911 Rain 18 1009 93 8000 5.59 169 15:24 13.12.2020
4912 Rain 18 1008 93 3000 2.1 10 14:45 13.12.2020
4913 Rain 18 1008 93 3000 2.1 10 14:27 13.12.2020
4914 Rain 17 1008 100 3000 5.1 120 13:44 13.12.2020
4915 Rain 17 1008 100 3000 5.1 120 13:25 13.12.2020
4916 Rain 17 1009 93 2500 6.7 180 12:51 13.12.2020
4917 Rain 19 1007 93 3500 9.3 180 12:23 13.12.2020
4918 Rain 19 1007 93 3500 9.3 180 11:43 13.12.2020
4919 Rain 20 1006 88 1500 6.7 230 10:56 13.12.2020
4920 Rain 20 1006 77 10000 2.6 310 10:38 13.12.2020
4921 Rain 20 1004 72 10000 1 330 09:58 13.12.2020
4922 Clear 20 1004 72 10000 1 330 09:28 13.12.2020
4923 Clear 20 1005 68 10000 3.1 330 08:35 13.12.2020
4924 Rain 21 1005 73 10000 2.6 330 07:52 13.12.2020
4925 Clear 20 1005 77 10000 2.6 20 05:36 13.12.2020
4926 Rain 23 1005 73 10000 2.1 90 02:42 13.12.2020
4927 Rain 23 1004 78 10000 2.1 80 01:58 13.12.2020
4928 Clear 23 1005 78 10000 2.6 120 00:51 13.12.2020
4929 Clear 26 1005 78 10000 2.6 120 00:33 13.12.2020
4930 Clear 27 1004 37 10000 2.6 40 23:33 12.12.2020
4931 Clear 27 1004 37 10000 2.6 40 22:57 12.12.2020
4932 Clear 28 1004 30 10000 4.6 360 22:25 12.12.2020
4933 Clear 29 1004 25 10000 5.1 10 21:45 12.12.2020
4934 Clear 30 1006 23 10000 6.7 20 21:18 12.12.2020
4935 Clear 30 1006 23 10000 6.7 20 20:43 12.12.2020
4936 Clear 31 1006 23 10000 6.7 20 20:19 12.12.2020
4937 Clear 31 1006 23 10000 7.2 40 19:47 12.12.2020
4938 Clear 31 1006 23 10000 7.2 40 19:29 12.12.2020
4939 Clouds 31 1007 19 10000 2.68 24 18:48 12.12.2020
4940 Clouds 31 1007 18 10000 3.13 60 18:30 12.12.2020
4941 Clouds 31 1008 18 10000 4.02 360 17:51 12.12.2020
4942 Clouds 31 1008 19 10000 3.58 48 17:32 12.12.2020
4943 Clear 28 1009 26 10000 5.7 30 16:28 12.12.2020
4944 Clear 28 1009 26 10000 5.7 30 15:53 12.12.2020
4945 Clear 28 1009 26 10000 5.7 30 15:34 12.12.2020
4946 Clear 26 1010 33 10000 6.2 20 14:53 12.12.2020
4947 Clear 24 1011 40 10000 6.2 10 13:58 12.12.2020
4948 Clear 23 1011 40 10000 6.2 10 13:38 12.12.2020
4949 Clear 21 1010 49 10000 4.1 20 13:19 12.12.2020
4950 Rain 20 1010 49 10000 4.1 20 12:31 12.12.2020
4951 Clear 15 1009 71 10000 2.1 360 10:56 12.12.2020
4952 Clear 12 1009 76 10000 1.5 340 09:50 12.12.2020
4953 Clear 14 1008 67 10000 2.6 20 09:20 12.12.2020
4954 Clear 18 1009 55 10000 1.5 30 03:39 12.12.2020
4955 Clear 22 1008 46 10000 1.5 130 00:48 12.12.2020
4956 Clear 24 1007 44 10000 0.81 33 22:50 11.12.2020
4957 Clear 22 1007 60 10000 3.6 220 20:55 11.12.2020
4958 Clouds 22 1007 60 10000 5.1 240 19:31 11.12.2020
4959 Rain 24 1007 60 10000 7.2 250 16:45 11.12.2020
4960 Clouds 25 1007 61 10000 4.6 240 14:24 11.12.2020
4961 Clouds 25 1007 61 10000 4.6 240 13:26 11.12.2020
4962 Clouds 23 1005 60 10000 2.6 360 12:22 11.12.2020
4963 Clouds 23 1005 60 10000 2.6 360 11:52 11.12.2020
4964 Clouds 22 1005 60 10000 2.6 360 11:30 11.12.2020
4965 Clear 21 1004 60 10000 3.1 310 10:34 11.12.2020
4966 Clear 23 1002 56 10000 4.1 20 07:28 11.12.2020
4967 Clear 25 1003 47 10000 4.6 20 05:20 11.12.2020
4968 Clear 28 1003 39 10000 3.6 40 02:58 11.12.2020
4969 Clear 30 1003 35 10000 3.6 10 00:42 11.12.2020
4970 Clear 31 1003 42 10000 3.6 100 23:26 10.12.2020
4971 Clear 31 1004 45 10000 4.6 100 21:37 10.12.2020
4972 Clouds 31 1006 43 10000 4.6 100 20:51 10.12.2020
4973 Clouds 31 1007 43 10000 5.1 100 19:53 10.12.2020
4974 Clouds 32 1009 33 10000 4.6 350 19:21 10.12.2020
4975 Clouds 32 1009 33 10000 4.6 350 18:47 10.12.2020
4976 Clear 32 1010 38 10000 5.1 350 17:26 10.12.2020
4977 Clear 31 1011 40 10000 5.1 350 15:58 10.12.2020
4978 Clear 29 1012 48 10000 3.1 340 15:19 10.12.2020
4979 Clear 29 1012 48 10000 3.1 340 14:42 10.12.2020
4980 Clear 26 1012 57 10000 4.1 350 13:26 10.12.2020
4981 Clear 21 1011 77 10000 3.1 30 11:54 10.12.2020
4982 Clear 21 1011 72 10000 2.1 10 10:46 10.12.2020
4983 Clear 21 1011 64 10000 1.5 30 08:21 10.12.2020
4984 Clear 21 1011 64 10000 1.5 30 07:26 10.12.2020
4985 Clear 21 1011 60 10000 2.1 40 05:34 10.12.2020
4986 Clear 23 1013 64 10000 2.1 60 02:40 10.12.2020
4987 Clear 23 1013 73 10000 3.1 110 01:32 10.12.2020
4988 Clear 27 1012 42 10000 2.1 240 23:42 09.12.2020
4989 Clouds 30 1013 35 10000 1 0 20:39 09.12.2020
4990 Clouds 29 1015 42 10000 7.2 240 19:46 09.12.2020
4991 Clear 29 1014 40 10000 5.1 250 18:36 09.12.2020
4992 Clear 29 1015 40 10000 2.6 360 17:19 09.12.2020
4993 Clear 28 1017 54 10000 4.6 350 16:26 09.12.2020
4994 Clear 27 1017 54 10000 4.6 350 15:44 09.12.2020
4995 Clear 24 1017 64 10000 5.7 360 14:51 09.12.2020
4996 Clear 24 1017 64 10000 5.7 360 14:26 09.12.2020
4997 Clear 23 1017 68 10000 6.7 360 13:36 09.12.2020
4998 Clear 21 1017 82 10000 6.7 10 13:18 09.12.2020
4999 Clouds 18 1016 88 10000 7.2 20 12:24 09.12.2020
5000 Clouds 17 1016 88 10000 7.2 20 11:37 09.12.2020
5001 Clear 16 1015 93 10000 3.1 20 09:51 09.12.2020
5002 Rain 17 1015 88 10000 3.6 40 08:36 09.12.2020
5003 Rain 17 1016 77 10000 1.5 20 06:43 09.12.2020
5004 Rain 18 1016 72 10000 1.5 40 05:28 09.12.2020
5005 Rain 20 1016 73 10000 3.6 100 02:41 09.12.2020
5006 Clear 21 1015 73 10000 6.2 110 00:37 09.12.2020
5007 Clear 22 1015 60 10000 5.1 120 23:34 08.12.2020
5008 Clouds 23 1015 60 10000 6.2 120 22:22 08.12.2020
5009 Clouds 25 1016 57 10000 7.2 120 20:39 08.12.2020
5010 Clouds 25 1016 50 10000 5.1 120 19:31 08.12.2020
5011 Clouds 25 1016 50 10000 5.1 120 18:36 08.12.2020
5012 Clouds 24 1017 60 10000 6.7 130 17:18 08.12.2020
5013 Clouds 23 1018 56 10000 5.1 150 15:23 08.12.2020
5014 Clouds 21 1019 72 10000 6.2 40 13:50 08.12.2020
5015 Clear 19 1019 77 10000 4.6 30 12:41 08.12.2020
5016 Clear 17 1019 87 10000 2.6 70 11:55 08.12.2020
5017 Clear 16 1018 87 10000 3.65 25 11:24 08.12.2020
5018 Clear 15 1018 87 10000 3.65 25 10:41 08.12.2020
5019 Clear 13 1017 82 10000 1.5 70 09:45 08.12.2020
5020 Clear 14 1017 77 10000 1 60 07:40 08.12.2020
5021 Clear 15 1018 67 10000 2.6 80 05:42 08.12.2020
5022 Clear 19 1018 59 10000 6.2 90 02:33 08.12.2020
5023 Clear 20 1017 56 10000 8.7 110 00:45 08.12.2020
5024 Clouds 21 1017 64 10000 7.2 120 23:36 07.12.2020
5025 Clouds 22 1017 56 10000 7.7 130 22:21 07.12.2020
5026 Clouds 23 1017 53 10000 7.7 120 21:38 07.12.2020
5027 Clouds 23 1018 53 10000 6.2 120 19:27 07.12.2020
5028 Clouds 24 1018 50 10000 6.2 110 17:59 07.12.2020
5029 Clouds 24 1019 41 10000 3.6 130 17:22 07.12.2020
5030 Clouds 24 1019 41 10000 4.6 140 16:43 07.12.2020
5031 Clouds 22 1020 46 10000 3.6 50 15:25 07.12.2020
5032 Clear 21 1021 52 10000 3.6 70 14:33 07.12.2020
5033 Clear 20 1021 59 10000 4.1 20 13:36 07.12.2020
5034 Clear 18 1021 68 10000 4.6 30 12:31 07.12.2020
5035 Clear 16 1020 77 10000 3.1 40 11:42 07.12.2020
5036 Clear 14 1020 76 10000 1 70 10:36 07.12.2020
5037 Clear 12 1020 81 10000 2.6 20 09:24 07.12.2020
5038 Clear 13 1020 76 10000 3.1 20 07:40 07.12.2020
5039 Clear 14 1021 71 10000 2.1 40 05:29 07.12.2020
5040 Clear 15 1021 63 10000 4.1 70 04:35 07.12.2020
5041 Clear 17 1021 63 10000 6.7 120 00:52 07.12.2020
5042 Clear 18 1021 68 10000 7.2 120 22:53 06.12.2020
5043 Clouds 20 1020 52 10000 6.2 150 21:53 06.12.2020
5044 Clouds 20 1021 45 10000 6.7 150 20:47 06.12.2020
5045 Clouds 20 1021 45 10000 6.7 150 20:26 06.12.2020
5046 Clouds 21 1021 46 10000 4.6 150 19:39 06.12.2020
5047 Clouds 21 1022 52 10000 5.7 170 17:54 06.12.2020
5048 Clouds 21 1022 52 10000 5.1 180 16:39 06.12.2020
5049 Clear 19 1023 52 10000 2.34 149 14:50 06.12.2020
5050 Clear 17 1024 59 10000 2.6 20 13:31 06.12.2020
5051 Clear 16 1024 67 10000 2.6 60 12:36 06.12.2020
5052 Clear 14 1024 71 10000 2.6 60 11:54 06.12.2020
5053 Clear 13 1024 71 10000 2.6 60 11:28 06.12.2020
5054 Clear 12 1024 87 10000 1.93 12 10:39 06.12.2020
5055 Clear 9 1023 81 10000 1.84 19 09:38 06.12.2020
5056 Clear 10 1023 76 10000 2.82 35 07:53 06.12.2020
5057 Clear 11 1025 71 10000 3.1 60 05:22 06.12.2020
5058 Clouds 15 1025 58 10000 4.6 130 00:48 06.12.2020
5059 Clouds 15 1025 58 10000 4.6 130 00:27 06.12.2020
5060 Clear 15 1024 55 10000 5.1 130 23:58 05.12.2020
5061 Clouds 17 1024 48 10000 5.1 140 22:26 05.12.2020
5062 Clouds 17 1024 55 10000 5.7 150 21:57 05.12.2020
5063 Clouds 18 1024 55 10000 5.7 150 21:31 05.12.2020
5064 Clouds 18 1025 52 10000 5.1 150 20:59 05.12.2020
5065 Clouds 19 1025 45 10000 5.1 180 18:50 05.12.2020
5066 Clouds 18 1026 45 10000 4.1 180 17:57 05.12.2020
5067 Clouds 19 1027 48 10000 4.6 160 16:49 05.12.2020
5068 Clouds 18 1027 48 10000 4.6 160 16:29 05.12.2020
5069 Clouds 17 1027 51 10000 3.6 160 15:24 05.12.2020
5070 Clouds 17 1027 48 10000 5.7 160 13:33 05.12.2020
5071 Clouds 14 1026 66 10000 1.5 0 11:50 05.12.2020
5072 Clouds 14 1025 54 10000 4.1 180 10:41 05.12.2020
5073 Clouds 13 1025 50 10000 3.6 180 09:38 05.12.2020
5074 Clouds 13 1024 54 10000 5.7 190 07:48 05.12.2020
5075 Clouds 15 1025 51 10000 5.7 180 05:58 05.12.2020
5076 Clouds 15 1024 51 10000 5.7 180 02:18 05.12.2020
5077 Clouds 15 1023 54 10000 6.7 180 23:39 04.12.2020
5078 Clouds 16 1022 55 10000 6.7 180 21:37 04.12.2020
5079 Clouds 18 1021 48 10000 6.2 180 19:42 04.12.2020
5080 Clouds 18 1021 48 10000 5.1 190 18:40 04.12.2020
5081 Clouds 18 1021 48 10000 7.2 190 17:48 04.12.2020
5082 Clouds 19 1020 52 10000 6.7 190 16:52 04.12.2020
5083 Clouds 19 1020 52 10000 6.7 190 15:34 04.12.2020
5084 Clouds 19 1019 48 10000 7.2 180 13:38 04.12.2020
5085 Clouds 19 1019 59 10000 5.1 210 13:20 04.12.2020
5086 Clouds 19 1019 59 10000 5.1 210 12:47 04.12.2020
5087 Clouds 17 1016 52 10000 6.7 200 10:38 04.12.2020
5088 Clear 16 1015 67 10000 2.6 200 09:37 04.12.2020
5089 Clouds 17 1013 59 10000 5.1 150 06:41 04.12.2020
5090 Clear 17 1012 63 10000 4.1 140 05:20 04.12.2020
5091 Clear 18 1011 63 10000 2.1 160 01:54 04.12.2020
5092 Clear 21 1008 60 10000 3.1 170 22:52 03.12.2020
5093 Clear 21 1008 56 10000 4.6 200 22:18 03.12.2020
5094 Clear 22 1008 53 10000 4.6 200 20:47 03.12.2020
5095 Clear 22 1008 53 10000 5.7 200 19:26 03.12.2020
5096 Clear 22 1008 56 10000 6.7 200 18:49 03.12.2020
5097 Clouds 23 1007 56 10000 6.2 200 17:38 03.12.2020
5098 Clouds 22 1007 60 10000 6.7 190 17:18 03.12.2020
5099 Clouds 22 1006 60 10000 6.2 200 15:45 03.12.2020
5100 Clouds 23 1006 60 10000 6.2 200 15:27 03.12.2020
5101 Clear 22 1006 56 10000 4.6 170 14:26 03.12.2020
5102 Clear 21 1006 64 10000 6.2 180 13:24 03.12.2020
5103 Clouds 20 1006 77 10000 6.2 200 12:26 03.12.2020
5104 Clouds 19 1005 82 10000 5.1 200 11:24 03.12.2020
5105 Clouds 18 1004 100 10000 1.5 30 08:56 03.12.2020
5106 Rain 18 1007 93 7000 6.2 210 05:18 03.12.2020
5107 Rain 22 1005 78 10000 2.1 100 02:26 03.12.2020
5108 Rain 23 1005 78 10000 1 130 00:48 03.12.2020
5109 Clouds 24 1005 64 10000 3.1 90 22:47 02.12.2020
5110 Clouds 25 1005 57 10000 4.6 120 22:25 02.12.2020
5111 Clouds 25 1005 57 10000 5.1 120 20:57 02.12.2020
5112 Rain 25 1005 57 10000 5.1 120 20:39 02.12.2020
5113 Clouds 27 1007 51 10000 4.1 100 20:21 02.12.2020
5114 Rain 28 1006 45 10000 5.7 180 18:37 02.12.2020
5115 Clouds 29 1008 39 10000 2.6 120 17:45 02.12.2020
5116 Clouds 29 1008 42 10000 3.6 360 17:27 02.12.2020
5117 Clouds 26 1010 57 10000 6.7 30 15:21 02.12.2020
5118 Clouds 21 1011 73 10000 6.7 30 12:45 02.12.2020
5119 Clear 16 1011 93 10000 4.1 30 10:29 02.12.2020
5120 Rain 16 1010 87 10000 3.1 30 09:22 02.12.2020
5121 Clear 19 1011 68 10000 4.1 40 04:25 02.12.2020
5122 Clouds 26 1012 32 10000 5.7 30 22:21 01.12.2020
5123 Clouds 26 1012 32 10000 5.7 30 21:41 01.12.2020
5124 Clouds 26 1014 41 10000 2.6 330 19:35 01.12.2020
5125 Clouds 25 1015 41 10000 2.1 30 17:58 01.12.2020
5126 Clouds 25 1016 47 10000 4.1 30 16:36 01.12.2020
5127 Clear 20 1018 59 10000 8.2 30 13:39 01.12.2020
5128 Clear 17 1018 67 10000 4.6 30 12:25 01.12.2020
5129 Clear 15 1018 72 10000 2.6 60 11:27 01.12.2020
5130 Clear 14 1017 76 10000 1.5 70 10:39 01.12.2020
5131 Rain 12 1017 71 10000 1.5 70 09:24 01.12.2020
5132 Clear 12 1018 67 10000 1 70 06:50 01.12.2020
5133 Clear 16 1019 55 10000 7.7 120 01:56 01.12.2020
5134 Clear 16 1019 51 10000 5.1 120 00:56 01.12.2020
5135 Clear 18 1018 51 10000 6.7 120 23:22 30.11.2020
5136 Clear 18 1019 48 10000 6.7 140 22:45 30.11.2020
5137 Clear 18 1019 48 10000 6.7 140 22:25 30.11.2020
5138 Clouds 20 1019 52 10000 5.1 120 21:22 30.11.2020
5139 Clouds 21 1020 52 10000 5.1 130 19:42 30.11.2020
5140 Clouds 20 1020 52 10000 6.2 140 18:40 30.11.2020
5141 Clouds 21 1020 45 10000 5.7 130 18:20 30.11.2020
5142 Clouds 21 1020 49 10000 6.2 130 17:24 30.11.2020
5143 Clouds 21 1020 49 10000 6.2 130 16:43 30.11.2020
5144 Clouds 19 1020 59 10000 6.7 150 14:47 30.11.2020
5145 Clouds 18 1020 59 10000 7.7 170 13:54 30.11.2020
5146 Clouds 19 1019 55 10000 8.2 160 12:34 30.11.2020
5147 Clouds 18 1019 59 10000 6.7 170 11:59 30.11.2020
5148 Clouds 16 1018 59 10000 6.7 170 10:31 30.11.2020
5149 Clouds 16 1018 59 10000 6.2 180 09:52 30.11.2020
5150 Clear 16 1018 55 10000 1.79 188 07:44 30.11.2020
5151 Rain 21 1013 69 10000 8.7 170 01:19 30.11.2020
5152 Clouds 29 1009 48 10000 3.6 180 22:20 29.11.2020
5153 Clouds 29 1009 48 10000 3.6 180 21:43 29.11.2020
5154 Clouds 29 1009 48 10000 3.6 180 21:25 29.11.2020
5155 Clear 27 1010 61 10000 5.1 270 18:31 29.11.2020
5156 Clouds 26 1010 65 10000 4.6 210 16:59 29.11.2020
5157 Clouds 23 1009 73 10000 4.1 240 13:35 29.11.2020
5158 Mist 21 1009 94 5000 2.1 240 12:34 29.11.2020
5159 Mist 18 1008 100 8000 2.1 330 11:22 29.11.2020
5160 Clear 17 1007 93 10000 1.5 360 08:52 29.11.2020
5161 Clear 17 1007 93 10000 1.5 360 08:34 29.11.2020
5162 Clouds 21 1009 73 10000 1 350 02:31 29.11.2020
5163 Clouds 23 1006 57 10000 7.2 10 22:58 28.11.2020
5164 Rain 23 1010 78 10000 7.2 250 21:20 28.11.2020
5165 Clouds 26 1011 69 8000 7.2 260 19:54 28.11.2020
5166 Rain 28 1010 61 10000 7.7 330 19:27 28.11.2020
5167 Rain 30 1011 54 10000 6.2 10 18:52 28.11.2020
5168 Rain 30 1012 51 10000 7.7 40 17:57 28.11.2020
5169 Clear 29 1012 58 10000 8.2 40 16:56 28.11.2020
5170 Clear 27 1014 65 10000 8.2 40 14:58 28.11.2020
5171 Clear 24 1014 73 10000 8.2 40 13:31 28.11.2020
5172 Clear 20 1015 82 10000 6.2 40 11:25 28.11.2020
5173 Clear 18 1015 88 10000 3.6 70 08:47 28.11.2020
5174 Clear 22 1015 60 10000 6.2 50 03:38 28.11.2020
5175 Clear 22 1014 64 10000 3.1 100 01:52 28.11.2020
5176 Clear 22 1014 64 10000 3.1 100 01:52 28.11.2020
5177 Clear 27 1013 30 10000 4.1 30 23:19 27.11.2020
5178 Clear 28 1013 30 10000 4.1 30 22:23 27.11.2020
5179 Clear 29 1014 32 10000 5.1 40 20:39 27.11.2020
5180 Clear 29 1015 32 10000 4.6 40 19:33 27.11.2020
5181 Clear 28 1016 34 10000 7.2 30 18:57 27.11.2020
5182 Clear 26 1018 36 10000 7.7 20 16:27 27.11.2020
5183 Clear 20 1020 45 10000 8.2 30 14:23 27.11.2020
5184 Clear 16 1020 59 10000 6.2 30 13:18 27.11.2020
5185 Clear 17 1020 59 10000 6.2 30 12:46 27.11.2020
5186 Clear 14 1020 62 10000 4.6 10 11:34 27.11.2020
5187 Clear 12 1019 66 10000 1.5 30 10:43 27.11.2020
5188 Clear 11 1014 71 10000 0.89 55 09:31 27.11.2020
5189 Clear 20 1017 37 10000 4.1 170 23:18 26.11.2020
5190 Clear 21 1017 37 10000 4.1 170 22:24 26.11.2020
5191 Clear 21 1017 37 10000 5.1 200 21:42 26.11.2020
5192 Clear 22 1017 37 10000 5.7 200 20:43 26.11.2020
5193 Clear 21 1016 40 10000 7.2 200 18:36 26.11.2020
5194 Clear 21 1016 40 10000 7.7 200 17:20 26.11.2020
5195 Clear 21 1015 46 10000 8.7 210 13:44 26.11.2020
5196 Clouds 20 1014 72 10000 8.7 210 12:57 26.11.2020
5197 Clouds 20 1014 72 10000 8.7 210 12:38 26.11.2020
5198 Thunderstorm 18 1012 100 5000 2.1 300 10:50 26.11.2020
5199 Rain 18 1012 100 5000 2.1 300 10:23 26.11.2020
5200 Clear 17 1010 100 7000 1.5 350 09:34 26.11.2020
5201 Clear 17 1010 100 7000 1.5 350 08:57 26.11.2020
5202 Clear 17 1010 100 7000 1.5 350 08:33 26.11.2020
5203 Rain 21 1009 83 10000 1.5 50 02:18 26.11.2020
5204 Clouds 26 1008 65 10000 4.1 280 22:20 25.11.2020
5205 Clouds 26 1009 73 10000 4.1 280 20:37 25.11.2020
5206 Clouds 23 1010 83 10000 4.6 360 19:18 25.11.2020
5207 Clouds 22 1010 78 10000 2.6 10 17:29 25.11.2020
5208 Clouds 19 1007 88 10000 7.7 60 15:46 25.11.2020
5209 Rain 18 1008 93 5000 3.1 80 14:58 25.11.2020
5210 Rain 18 1012 100 4000 3.1 80 13:46 25.11.2020
5211 Rain 18 1013 100 3000 3.6 80 12:58 25.11.2020
5212 Rain 18 1012 100 3000 4.6 100 11:26 25.11.2020
5213 Rain 19 1012 87 9059 0.89 159 09:22 25.11.2020
5214 Rain 19 1011 86 9059 1.79 144 08:50 25.11.2020
5215 Rain 18 1006 85 5977 2.68 122 07:45 25.11.2020
5216 Rain 21 1012 66 10000 4.47 155 03:54 25.11.2020
5217 Clouds 21 1011 88 10000 8.7 170 01:50 25.11.2020
5218 Clouds 20 1009 73 10000 10.3 150 00:22 25.11.2020
5219 Clouds 20 1009 73 10000 10.3 150 23:36 24.11.2020
5220 Clouds 20 1009 73 10000 10.3 150 23:36 24.11.2020
5221 Clouds 21 1009 68 10000 10.8 160 22:51 24.11.2020
5222 Clouds 22 1009 68 9000 10.8 170 21:50 24.11.2020
5223 Clouds 22 1009 83 10000 7.2 160 21:27 24.11.2020
5224 Clear 31 1007 45 10000 5.7 180 20:19 24.11.2020
5225 Clear 34 1009 34 10000 6.2 10 17:54 24.11.2020
5226 Clear 34 1009 34 10000 6.2 10 17:28 24.11.2020
5227 Clear 32 1010 40 10000 6.7 20 16:38 24.11.2020
5228 Clear 29 1011 45 10000 6.2 30 15:56 24.11.2020
5229 Clear 23 1012 47 10000 7.7 30 15:20 24.11.2020
5230 Clear 24 1012 47 10000 7.7 30 14:45 24.11.2020
5231 Clear 26 1012 50 10000 6.7 40 14:21 24.11.2020
5232 Clear 23 1012 53 10000 7.7 30 12:42 24.11.2020
5233 Clear 22 1012 68 10000 5.1 30 12:21 24.11.2020
5234 Clear 21 1012 68 10000 5.1 30 11:35 24.11.2020
5235 Clear 19 1012 72 10000 5.7 30 10:25 24.11.2020
5236 Clear 19 1012 68 10000 6.2 30 09:42 24.11.2020
5237 Rain 19 1012 68 10000 6.2 30 09:22 24.11.2020
5238 Clear 20 1011 72 10000 5.7 40 06:50 24.11.2020
5239 Clear 21 1013 64 10000 6.2 50 04:18 24.11.2020
5240 Clear 31 1011 27 10000 7.7 50 22:27 23.11.2020
5241 Clear 32 1012 24 10000 5.1 40 21:35 23.11.2020
5242 Clear 32 1012 25 10000 6.7 50 20:50 23.11.2020
5243 Clear 30 1013 25 10000 9.3 30 20:20 23.11.2020
5244 Clear 29 1016 28 10000 6.2 50 18:20 23.11.2020
5245 Clear 28 1016 34 10000 7.7 40 17:25 23.11.2020
5246 Clear 27 1017 39 10000 8.7 20 16:22 23.11.2020
5247 Clear 24 1017 49 10000 7.2 40 14:46 23.11.2020
5248 Clear 19 1018 63 10000 10.3 30 13:19 23.11.2020
5249 Clear 19 1018 63 10000 10.3 30 12:36 23.11.2020
5250 Clear 17 1018 82 10000 8.2 40 11:48 23.11.2020
5251 Clear 17 1018 82 10000 8.2 40 11:48 23.11.2020
5252 Clear 16 1018 82 10000 4.1 40 10:50 23.11.2020
5253 Clear 15 1018 87 10000 4.1 30 09:31 23.11.2020
5254 Clear 15 1017 82 10000 3.1 20 08:47 23.11.2020
5255 Clear 16 1017 72 10000 5.7 40 07:27 23.11.2020
5256 Clear 20 1018 56 10000 6.2 110 00:34 23.11.2020
5257 Clear 21 1018 49 10000 5.7 110 23:36 22.11.2020
5258 Clear 24 1017 38 10000 6.7 120 22:18 22.11.2020
5259 Rain 25 1018 39 10000 6.7 120 20:54 22.11.2020
5260 Clear 25 1019 56 10000 6.7 120 19:55 22.11.2020
5261 Clouds 27 1018 34 10000 3.1 120 18:53 22.11.2020
5262 Clear 27 1019 36 10000 3.1 70 17:26 22.11.2020
5263 Clear 25 1020 44 10000 4.1 20 15:53 22.11.2020
5264 Clear 22 1020 53 10000 5.1 40 14:39 22.11.2020
5265 Clear 18 1021 67 10000 5.1 10 12:50 22.11.2020
5266 Clear 16 1020 77 10000 5.1 20 11:57 22.11.2020
5267 Clear 16 1019 82 10000 3.6 20 11:21 22.11.2020
5268 Clear 14 1019 82 10000 3.6 20 10:45 22.11.2020
5269 Clear 13 1018 76 10000 3.6 20 09:32 22.11.2020
5270 Clear 19 1017 68 10000 6.2 110 01:50 22.11.2020
5271 Rain 20 1017 56 10000 6.2 120 23:53 21.11.2020
5272 Rain 22 1016 49 10000 5.1 120 22:25 21.11.2020
5273 Clouds 23 1015 49 10000 5.1 120 21:30 21.11.2020
5274 Clouds 24 1015 44 10000 5.1 100 20:35 21.11.2020
5275 Clouds 24 1016 44 10000 6.7 100 19:57 21.11.2020
5276 Clouds 24 1016 44 10000 6.7 100 19:36 21.11.2020
5277 Clouds 25 1017 38 10000 3.1 60 18:28 21.11.2020
5278 Clouds 25 1017 44 10000 3.6 60 17:28 21.11.2020
5279 Clouds 24 1017 44 10000 3.6 60 16:40 21.11.2020
5280 Clear 22 1019 52 10000 6.2 10 15:22 21.11.2020
5281 Clear 22 1019 52 10000 6.2 10 14:48 21.11.2020
5282 Clouds 21 1019 56 10000 5.1 30 14:22 21.11.2020
5283 Clouds 18 1019 72 10000 6.2 30 12:36 21.11.2020
5284 Clouds 17 1019 72 10000 6.2 30 12:18 21.11.2020
5285 Clear 15 1018 87 10000 1.5 40 10:57 21.11.2020
5286 Clear 14 1018 87 10000 1.5 40 10:26 21.11.2020
5287 Clear 14 1017 76 10000 4.47 27 08:51 21.11.2020
5288 Clear 14 1017 77 10000 5.11 33 06:51 21.11.2020
5289 Clear 16 1018 72 10000 4.1 70 04:39 21.11.2020
5290 Clear 18 1017 63 10000 5.1 110 01:32 21.11.2020
5291 Clouds 19 1017 60 10000 5.7 120 23:59 20.11.2020
5292 Clouds 21 1017 60 10000 7.2 130 22:26 20.11.2020
5293 Clouds 22 1017 56 10000 7.2 130 21:42 20.11.2020
5294 Clouds 22 1018 53 10000 6.7 130 21:21 20.11.2020
5295 Clouds 22 1018 56 10000 7.2 130 19:46 20.11.2020
5296 Clouds 23 1018 49 10000 6.2 130 18:50 20.11.2020
5297 Clouds 23 1019 53 10000 5.7 120 17:53 20.11.2020
5298 Clouds 22 1019 53 10000 5.7 120 17:27 20.11.2020
5299 Clouds 23 1019 43 10000 2.6 30 16:39 20.11.2020
5300 Clouds 22 1020 52 10000 2.1 40 15:58 20.11.2020
5301 Clouds 21 1020 52 10000 2.1 40 15:27 20.11.2020
5302 Clouds 20 1021 64 10000 4.6 70 13:47 20.11.2020
5303 Clouds 19 1020 72 10000 4.1 80 13:18 20.11.2020
5304 Clouds 19 1020 72 10000 4.1 80 12:36 20.11.2020
5305 Clouds 17 1020 82 10000 3.1 80 11:45 20.11.2020
5306 Clouds 16 1019 77 10000 2.1 60 11:19 20.11.2020
5307 Clouds 13 1019 82 10000 2.93 54 09:30 20.11.2020
5308 Clear 14 1019 82 10000 3.1 100 08:26 20.11.2020
5309 Clouds 15 1019 77 10000 3.1 90 07:33 20.11.2020
5310 Clouds 16 1020 68 10000 4.6 100 03:44 20.11.2020
5311 Clouds 19 1018 59 10000 6.2 130 22:42 19.11.2020
5312 Clouds 20 1018 52 10000 6.2 160 21:57 19.11.2020
5313 Clouds 20 1018 52 10000 6.2 160 21:38 19.11.2020
5314 Clouds 20 1019 52 10000 5.7 180 20:33 19.11.2020
5315 Clouds 20 1019 56 10000 6.2 180 19:53 19.11.2020
5316 Clouds 20 1019 56 10000 6.2 180 19:24 19.11.2020
5317 Clouds 21 1019 52 10000 6.2 170 17:46 19.11.2020
5318 Clouds 20 1021 59 10000 6.2 170 16:58 19.11.2020
5319 Clouds 21 1019 60 10000 6.7 170 15:41 19.11.2020
5320 Clouds 21 1019 60 10000 6.2 170 15:23 19.11.2020
5321 Clouds 20 1019 60 10000 5.7 160 13:46 19.11.2020
5322 Clear 20 1019 59 10000 5.1 160 13:20 19.11.2020
5323 Clear 19 1019 59 10000 5.1 160 12:40 19.11.2020
5324 Clear 19 1019 63 10000 2.1 120 12:19 19.11.2020
5325 Clear 18 1019 63 10000 2.1 120 11:36 19.11.2020
5326 Clear 18 1018 59 10000 2.1 150 10:54 19.11.2020
5327 Clear 15 1017 63 10000 2.6 140 10:19 19.11.2020
5328 Clear 15 1017 63 10000 2.6 140 09:44 19.11.2020
5329 Clear 15 1017 63 10000 2.6 140 09:24 19.11.2020
5330 Clear 15 1017 63 10000 2.6 140 09:24 19.11.2020
5331 Clear 16 1017 63 10000 3.6 140 08:19 19.11.2020
5332 Clouds 17 1017 67 10000 5.1 130 05:41 19.11.2020
5333 Clouds 18 1015 77 10000 8.2 140 01:45 19.11.2020
5334 Clouds 20 1013 72 10000 6.7 130 23:53 18.11.2020
5335 Clouds 20 1013 72 10000 6.7 130 23:25 18.11.2020
5336 Clouds 21 1013 72 10000 6.2 160 22:36 18.11.2020
5337 Clouds 22 1012 60 10000 5.1 150 22:18 18.11.2020
5338 Clouds 22 1012 60 10000 5.1 150 21:38 18.11.2020
5339 Clouds 23 1012 53 10000 6.7 150 21:19 18.11.2020
5340 Clouds 24 1012 53 10000 9.3 150 19:48 18.11.2020
5341 Clouds 25 1012 53 10000 9.3 150 19:27 18.11.2020
5342 Clouds 26 1012 51 10000 6.2 130 18:55 18.11.2020
5343 Clouds 26 1012 51 10000 6.2 130 18:36 18.11.2020
5344 Clouds 25 1012 53 10000 6.2 130 17:37 18.11.2020
5345 Clouds 24 1013 53 10000 2.1 120 16:24 18.11.2020
5346 Clouds 24 1013 53 10000 2.1 120 15:36 18.11.2020
5347 Clouds 24 1013 50 10000 2.6 30 14:41 18.11.2020
5348 Clouds 21 1014 60 10000 4.1 10 13:43 18.11.2020
5349 Clouds 19 1013 68 10000 3.6 30 13:20 18.11.2020
5350 Clouds 19 1013 68 10000 3.6 30 12:29 18.11.2020
5351 Clouds 17 1013 77 10000 2.6 30 11:34 18.11.2020
5352 Clear 16 1013 77 10000 2.1 30 10:31 18.11.2020
5353 Clear 15 1012 77 10000 2.1 10 09:52 18.11.2020
5354 Clear 15 1012 77 10000 3.88 345 07:45 18.11.2020
5355 Clear 16 1013 67 10000 3.67 6 06:33 18.11.2020
5356 Clear 21 1013 55 10000 3.1 120 00:25 18.11.2020
5357 Clear 21 1012 43 10000 3.6 70 23:34 17.11.2020
5358 Clear 22 1012 43 10000 3.6 80 22:49 17.11.2020
5359 Clear 23 1012 43 10000 3.6 80 22:28 17.11.2020
5360 Clear 23 1012 38 10000 2.1 50 21:50 17.11.2020
5361 Clear 23 1012 38 10000 2.1 50 21:50 17.11.2020
5362 Clear 23 1012 38 10000 2.1 50 21:30 17.11.2020
5363 Clear 24 1013 36 10000 2.1 70 20:47 17.11.2020
5364 Clear 24 1013 36 10000 2.1 70 20:24 17.11.2020
5365 Clear 23 1014 40 10000 2.1 120 19:54 17.11.2020
5366 Clear 23 1014 40 10000 2.1 120 19:54 17.11.2020
5367 Clear 22 1014 33 10000 2.6 0 18:24 17.11.2020
5368 Clear 22 1014 33 10000 2.6 0 18:24 17.11.2020
5369 Clear 21 1015 40 10000 1 0 17:39 17.11.2020
5370 Clear 20 1015 45 10000 1 0 16:53 17.11.2020
5371 Clear 19 1016 55 10000 1.5 230 16:18 17.11.2020
5372 Clear 18 1016 55 10000 1.5 230 15:40 17.11.2020
5373 Clouds 18 1016 63 10000 2.6 220 15:22 17.11.2020
5374 Clouds 18 1016 63 10000 2.6 220 14:53 17.11.2020
5375 Clear 18 1015 59 10000 1.5 10 13:59 17.11.2020
5376 Clear 18 1015 59 10000 1.5 10 13:30 17.11.2020
5377 Clear 16 1014 67 10000 2.6 20 12:43 17.11.2020
5378 Clear 13 1014 76 10000 3.1 20 11:59 17.11.2020
5379 Clear 13 1014 76 10000 3.1 20 11:40 17.11.2020
5380 Clear 12 1014 87 10000 2.1 20 10:39 17.11.2020
5381 Clear 10 1014 81 10000 1.5 360 10:20 17.11.2020
5382 Clear 10 1014 81 10000 1.5 360 09:48 17.11.2020
5383 Clear 9 1014 93 10000 1.97 324 08:54 17.11.2020
5384 Clear 9 1014 87 10000 1.62 337 08:20 17.11.2020
5385 Clear 9 1014 87 10000 1.62 337 07:34 17.11.2020
5386 Clear 11 1015 81 10000 2.59 85 04:31 17.11.2020
5387 Clear 13 1015 71 10000 3.54 106 03:28 17.11.2020
5388 Clear 16 1015 59 10000 3.94 119 02:29 17.11.2020
5389 Clear 15 1014 59 10000 3.73 118 00:56 17.11.2020
5390 Clear 17 1014 51 10000 3.6 160 23:54 16.11.2020
5391 Clear 16 1014 51 10000 3.6 160 23:32 16.11.2020
5392 Clear 18 1014 48 10000 4.1 180 22:59 16.11.2020
5393 Clear 18 1014 48 10000 4.1 180 22:26 16.11.2020
5394 Clear 19 1014 45 10000 4.6 170 21:56 16.11.2020
5395 Clear 19 1014 45 10000 4.6 170 21:38 16.11.2020
5396 Clear 19 1014 45 10000 5.7 190 21:19 16.11.2020
5397 Clear 20 1014 45 10000 5.7 190 20:26 16.11.2020
5398 Clear 19 1014 52 10000 6.2 200 19:53 16.11.2020
5399 Clear 20 1014 52 10000 6.2 200 19:29 16.11.2020
5400 Clouds 20 1014 52 10000 6.2 210 18:51 16.11.2020
5401 Clouds 20 1015 52 10000 6.7 210 18:19 16.11.2020
5402 Clouds 20 1015 52 10000 6.7 210 17:36 16.11.2020
5403 Clouds 20 1015 59 10000 5.7 210 17:18 16.11.2020
5404 Clouds 20 1015 59 10000 5.7 210 16:49 16.11.2020
5405 Clouds 20 1015 59 10000 5.7 210 16:24 16.11.2020
5406 Clouds 20 1015 60 10000 4.6 210 15:44 16.11.2020
5407 Clouds 20 1015 60 10000 4.6 210 15:26 16.11.2020
5408 Clouds 20 1015 68 10000 4.1 210 14:47 16.11.2020
5409 Clouds 19 1015 68 10000 4.1 210 13:46 16.11.2020
5410 Clouds 18 1015 82 10000 4.1 230 12:59 16.11.2020
5411 Clouds 18 1015 82 10000 4.1 230 12:29 16.11.2020
5412 Clouds 15 1014 87 10000 1 0 11:40 16.11.2020
5413 Clouds 13 1013 93 10000 5.03 223 11:21 16.11.2020
5414 Clouds 13 1013 93 10000 5.03 223 10:44 16.11.2020
5415 Clouds 11 1013 93 10000 4.61 223 10:25 16.11.2020
5416 Clouds 13 1013 82 10000 4.61 223 09:49 16.11.2020
5417 Clouds 13 1013 82 10000 4.37 218 09:25 16.11.2020
5418 Clouds 14 1013 77 10000 4.37 218 08:42 16.11.2020
5419 Clouds 14 1014 77 10000 1.5 180 07:53 16.11.2020
5420 Clouds 15 1014 72 10000 2.1 200 06:54 16.11.2020
5421 Clouds 15 1014 72 10000 2.1 200 06:35 16.11.2020
5422 Clouds 15 1014 72 10000 2.6 190 05:22 16.11.2020
5423 Clouds 15 1014 77 10000 3.6 180 03:54 16.11.2020
5424 Clear 16 1014 77 10000 3.1 190 01:44 16.11.2020
5425 Clear 17 1014 77 10000 3.6 180 00:26 16.11.2020
5426 Clouds 18 1014 72 10000 4.1 180 23:28 15.11.2020
5427 Clouds 19 1013 68 10000 5.1 160 22:57 15.11.2020
5428 Clouds 19 1013 72 10000 5.1 170 22:22 15.11.2020
5429 Clouds 20 1013 72 10000 5.1 170 21:51 15.11.2020
5430 Clouds 20 1013 72 10000 5.1 170 21:27 15.11.2020
5431 Clouds 20 1013 68 10000 6.2 180 20:48 15.11.2020
5432 Clouds 20 1013 68 10000 6.2 180 20:28 15.11.2020
5433 Clouds 20 1013 68 10000 6.7 170 19:54 15.11.2020
5434 Clouds 21 1013 68 10000 6.7 170 19:36 15.11.2020
5435 Clouds 21 1013 68 10000 7.2 180 19:18 15.11.2020
5436 Clouds 21 1013 72 10000 6.2 180 18:41 15.11.2020
5437 Clouds 20 1013 72 10000 6.2 180 18:23 15.11.2020
5438 Clouds 21 1013 72 10000 6.2 190 17:47 15.11.2020
5439 Clouds 21 1013 72 10000 6.2 190 17:25 15.11.2020
5440 Clouds 20 1013 77 10000 6.7 190 16:52 15.11.2020
5441 Clouds 20 1013 77 10000 6.7 190 16:23 15.11.2020
5442 Clouds 20 1013 82 10000 7.2 200 15:57 15.11.2020
5443 Clouds 20 1013 82 10000 7.2 200 15:39 15.11.2020
5444 Clouds 19 1013 88 10000 7.2 180 15:20 15.11.2020
5445 Drizzle 19 1013 82 6000 5.1 190 14:41 15.11.2020
5446 Clouds 20 1013 88 10000 5.1 220 14:21 15.11.2020
5447 Clouds 20 1013 88 10000 5.1 220 13:40 15.11.2020
5448 Clouds 20 1013 88 10000 2.6 280 12:53 15.11.2020
5449 Clouds 20 1013 88 10000 2.6 280 12:26 15.11.2020
5450 Clouds 18 1012 93 10000 1 0 11:58 15.11.2020
5451 Clouds 18 1012 93 10000 1 0 11:40 15.11.2020
5452 Mist 17 1011 100 1500 4.85 180 11:18 15.11.2020
5453 Mist 17 1011 100 1500 4.85 180 10:46 15.11.2020
5454 Mist 17 1011 100 1500 3.48 167 10:27 15.11.2020
5455 Fog 17 1011 93 4000 3.48 167 09:45 15.11.2020
5456 Clouds 17 1011 93 10000 3.1 144 09:22 15.11.2020
5457 Clouds 17 1011 93 10000 3.1 144 08:53 15.11.2020
5458 Clouds 17 1011 93 10000 3.59 139 08:30 15.11.2020
5459 Clouds 17 1011 93 10000 1.5 250 07:43 15.11.2020
5460 Rain 18 1012 93 8000 2.1 180 05:18 15.11.2020
5461 Clouds 18 1012 93 8000 2.1 180 04:49 15.11.2020
5462 Clouds 19 1010 88 8000 3.74 124 00:49 15.11.2020
5463 Rain 20 1010 88 8000 3.13 124 00:28 15.11.2020
5464 Clouds 20 1008 77 8000 3.1 190 23:37 14.11.2020
5465 Rain 21 1008 73 10000 4.1 120 22:50 14.11.2020
5466 Rain 21 1008 73 10000 4.1 120 22:31 14.11.2020
5467 Rain 22 1009 73 10000 2.1 150 21:44 14.11.2020
5468 Rain 22 1009 73 10000 2.1 150 21:22 14.11.2020
5469 Clouds 21 1009 73 10000 2.4 158 20:57 14.11.2020
5470 Rain 22 1009 73 10000 2.31 156 20:28 14.11.2020
5471 Rain 22 1010 69 10000 3.6 180 19:52 14.11.2020
5472 Rain 22 1010 69 10000 3.6 180 19:32 14.11.2020
5473 Rain 22 1010 77 10000 3.6 160 18:44 14.11.2020
5474 Clouds 23 1010 77 10000 3.6 160 18:25 14.11.2020
5475 Clouds 24 1010 69 10000 4.6 190 17:58 14.11.2020
5476 Clouds 24 1010 69 10000 4.6 190 17:40 14.11.2020
5477 Clouds 24 1011 64 10000 4.6 240 17:19 14.11.2020
5478 Clouds 24 1011 64 10000 4.6 240 16:43 14.11.2020
5479 Clouds 23 1011 73 10000 2.1 30 16:20 14.11.2020
5480 Clouds 23 1011 73 10000 2.1 30 15:52 14.11.2020
5481 Clouds 22 1011 73 10000 2.1 30 15:27 14.11.2020
5482 Clouds 19 1012 88 10000 2.1 360 14:47 14.11.2020
5483 Mist 17 1011 100 5000 4.1 30 14:24 14.11.2020
5484 Mist 17 1011 100 5000 4.1 30 13:45 14.11.2020
5485 Mist 17 1011 100 5000 4.1 30 13:24 14.11.2020
5486 Mist 16 1011 100 5000 4.1 30 12:48 14.11.2020
5487 Mist 16 1011 100 5000 4.1 30 12:29 14.11.2020
5488 Mist 16 1011 100 5000 2.6 360 11:46 14.11.2020
5489 Mist 16 1011 100 5000 2.6 360 11:25 14.11.2020
5490 Fog 16 1010 93 300 1 350 10:49 14.11.2020
5491 Fog 15 1010 93 300 1 350 10:26 14.11.2020
5492 Mist 15 1010 93 2000 1 40 09:50 14.11.2020
5493 Clear 14 1010 100 10000 2.1 50 09:28 14.11.2020
5494 Clear 14 1010 100 10000 2.1 50 09:28 14.11.2020
5495 Clear 14 1010 100 10000 2.1 50 09:28 14.11.2020
5496 Fog 15 1010 93 10000 1 40 08:59 14.11.2020
5497 Clear 15 1010 93 10000 2.9 9 08:38 14.11.2020
5498 Clear 15 1010 93 10000 2.6 70 07:51 14.11.2020
5499 Clear 15 1010 93 10000 2.6 70 07:28 14.11.2020
5500 Rain 16 1011 93 10000 1.5 50 06:35 14.11.2020
5501 Clear 16 1011 88 10000 2.1 90 05:37 14.11.2020
5502 Clear 17 1011 93 10000 6.2 110 04:20 14.11.2020
5503 Clear 18 1012 88 10000 6.7 120 01:21 14.11.2020
5504 Rain 19 1011 72 10000 5.7 120 23:49 13.11.2020
5505 Rain 20 1011 72 10000 5.7 120 23:29 13.11.2020
5506 Clear 21 1011 68 10000 6.2 220 22:55 13.11.2020
5507 Clear 21 1011 68 10000 6.2 220 22:55 13.11.2020
5508 Clear 22 1012 77 10000 6.7 130 22:29 13.11.2020
5509 Clouds 21 1012 68 10000 5.7 150 21:59 13.11.2020
5510 Clouds 22 1012 68 10000 5.7 150 21:41 13.11.2020
5511 Clouds 20 1012 68 10000 5.7 150 21:22 13.11.2020
5512 Clouds 20 1012 68 10000 5.7 150 20:44 13.11.2020
5513 Clouds 23 1013 60 10000 3.1 120 20:22 13.11.2020
5514 Clouds 24 1013 60 10000 3.1 120 19:46 13.11.2020
5515 Clouds 24 1013 60 10000 3.1 120 19:24 13.11.2020
5516 Clouds 24 1013 61 10000 3.1 120 18:58 13.11.2020
5517 Clouds 24 1013 61 10000 3.1 120 18:26 13.11.2020
5518 Clouds 24 1014 57 10000 3.1 150 17:43 13.11.2020
5519 Clouds 24 1014 57 10000 3.1 150 17:43 13.11.2020
5520 Clouds 24 1014 57 10000 3.1 150 17:43 13.11.2020
5521 Clouds 23 1015 68 10000 2.1 40 17:19 13.11.2020
5522 Clouds 23 1015 68 10000 2.1 40 16:50 13.11.2020
5523 Clouds 23 1015 68 10000 2.1 40 16:24 13.11.2020
5524 Clouds 21 1016 68 10000 2.1 120 15:52 13.11.2020
5525 Clouds 21 1016 68 10000 2.1 120 15:32 13.11.2020
5526 Clouds 21 1016 72 10000 2.6 80 14:50 13.11.2020
5527 Clouds 20 1016 72 10000 2.6 80 14:27 13.11.2020
5528 Clouds 20 1016 72 10000 3.6 100 13:53 13.11.2020
5529 Clouds 20 1016 72 10000 3.6 100 13:29 13.11.2020
5530 Clouds 18 1016 88 9000 1.5 90 12:51 13.11.2020
5531 Clouds 18 1016 88 9000 1.5 90 12:25 13.11.2020
5532 Rain 17 1016 100 5000 2.62 79 11:52 13.11.2020
5533 Rain 17 1016 100 5000 2.62 79 11:33 13.11.2020
5534 Mist 16 1015 100 1200 1.5 120 10:59 13.11.2020
5535 Fog 16 1015 100 10000 1 100 10:39 13.11.2020
5536 Fog 15 1015 100 10000 1 130 10:21 13.11.2020
5537 Fog 14 1014 100 100 1 110 09:43 13.11.2020
5538 Fog 15 1014 100 100 1 110 09:23 13.11.2020
5539 Fog 16 1014 100 10000 2.59 61 08:52 13.11.2020
5540 Clouds 16 1014 93 10000 1.5 70 08:21 13.11.2020
5541 Clouds 15 1014 93 10000 1.5 70 07:47 13.11.2020
5542 Clouds 15 1014 93 10000 1.5 70 07:26 13.11.2020
5543 Clear 15 1014 93 10000 2.6 100 06:50 13.11.2020
5544 Clouds 16 1015 93 10000 3.6 100 06:19 13.11.2020
5545 Clouds 16 1015 93 10000 3.6 100 05:39 13.11.2020
5546 Clear 17 1015 88 10000 5.1 120 02:22 13.11.2020
5547 Clear 17 1015 88 10000 5.1 120 01:32 13.11.2020
5548 Clouds 18 1015 88 10000 5.1 130 00:33 13.11.2020
5549 Clouds 19 1015 77 10000 6.7 110 23:43 12.11.2020
5550 Clouds 20 1015 72 10000 6.7 120 23:20 12.11.2020
5551 Clouds 20 1015 72 10000 6.7 120 22:52 12.11.2020
5552 Clouds 20 1015 72 10000 6.7 120 22:33 12.11.2020
5553 Clouds 21 1015 68 10000 6.2 140 21:56 12.11.2020
5554 Clouds 21 1015 68 10000 6.2 140 21:38 12.11.2020
5555 Clouds 21 1016 68 10000 5.7 160 21:18 12.11.2020
5556 Clouds 21 1016 68 10000 5.7 160 20:40 12.11.2020
5557 Clouds 22 1016 64 10000 5.1 130 20:21 12.11.2020
5558 Clouds 22 1016 64 10000 5.1 130 19:50 12.11.2020
5559 Clouds 22 1016 64 10000 5.1 130 19:32 12.11.2020
5560 Clouds 22 1016 68 10000 5.1 170 18:52 12.11.2020
5561 Clouds 22 1016 68 10000 5.1 170 18:25 12.11.2020
5562 Clouds 22 1016 68 10000 5.1 170 17:59 12.11.2020
5563 Clouds 22 1017 60 10000 4.6 130 17:38 12.11.2020
5564 Clouds 22 1017 60 10000 5.1 140 17:20 12.11.2020
5565 Clouds 22 1017 60 10000 5.1 140 16:44 12.11.2020
5566 Clouds 21 1017 64 10000 4.6 120 16:22 12.11.2020
5567 Clouds 22 1017 64 10000 4.6 120 15:42 12.11.2020
5568 Clouds 21 1017 64 10000 4.6 120 15:23 12.11.2020
5569 Clouds 21 1017 68 10000 4.1 120 14:47 12.11.2020
5570 Clouds 20 1017 68 10000 4.1 120 14:27 12.11.2020
5571 Clouds 20 1018 72 10000 4.6 90 13:57 12.11.2020
5572 Clouds 20 1018 72 10000 4.6 90 13:37 12.11.2020
5573 Clouds 18 1018 82 10000 2.6 90 13:18 12.11.2020
5574 Clouds 18 1018 82 10000 2.6 90 12:43 12.11.2020
5575 Mist 17 1017 93 5000 2.1 90 12:21 12.11.2020
5576 Mist 16 1017 93 5000 2.1 90 11:50 12.11.2020
5577 Mist 15 1017 93 5000 2.1 90 11:29 12.11.2020
5578 Mist 15 1017 100 5000 2.94 85 10:44 12.11.2020
5579 Mist 14 1017 100 5000 2.71 76 10:25 12.11.2020
5580 Fog 14 1017 93 5000 2.71 76 09:49 12.11.2020
5581 Fog 14 1017 93 5000 3.05 73 09:23 12.11.2020
5582 Clear 14 1016 93 10000 3.05 73 08:57 12.11.2020
5583 Clear 14 1016 93 10000 3.05 73 08:39 12.11.2020
5584 Clear 14 1016 93 10000 1.5 130 08:19 12.11.2020
5585 Clear 14 1016 93 10000 1.5 130 07:50 12.11.2020
5586 Clear 14 1016 93 10000 1.5 130 07:25 12.11.2020
5587 Clear 15 1017 93 10000 1.5 120 06:51 12.11.2020
5588 Clear 15 1017 93 10000 4.28 66 05:38 12.11.2020
5589 Clear 16 1018 87 10000 5.1 100 03:24 12.11.2020
5590 Clear 16 1018 87 10000 5.7 110 02:53 12.11.2020
5591 Clear 18 1017 82 10000 5.1 110 00:23 12.11.2020
5592 Clear 19 1016 63 10000 6.2 110 23:26 11.11.2020
5593 Clear 19 1016 63 10000 6.2 110 23:26 11.11.2020
5594 Clear 19 1016 64 10000 9.3 110 22:59 11.11.2020
5595 Clear 19 1016 64 10000 9.3 110 22:41 11.11.2020
5596 Clouds 20 1016 60 10000 8.2 120 22:21 11.11.2020
5597 Clouds 20 1016 60 10000 8.2 120 21:56 11.11.2020
5598 Clouds 21 1016 60 10000 8.2 120 21:36 11.11.2020
5599 Clouds 21 1017 56 10000 8.2 130 21:18 11.11.2020
5600 Clouds 21 1017 56 10000 8.2 130 20:41 11.11.2020
5601 Clouds 22 1017 53 10000 6.7 130 20:21 11.11.2020
5602 Clouds 22 1017 53 10000 6.7 130 19:49 11.11.2020
5603 Clouds 22 1017 53 10000 6.7 130 19:31 11.11.2020
5604 Clouds 22 1018 56 10000 6.2 120 18:55 11.11.2020
5605 Clouds 23 1018 56 10000 6.2 120 18:36 11.11.2020
5606 Clouds 22 1019 60 10000 5.7 130 17:45 11.11.2020
5607 Clouds 23 1019 64 10000 6.7 130 17:24 11.11.2020
5608 Clouds 23 1019 64 10000 6.7 130 16:57 11.11.2020
5609 Clouds 23 1019 56 10000 5.1 100 16:37 11.11.2020
5610 Clouds 22 1019 60 10000 3.6 120 15:56 11.11.2020
5611 Clouds 23 1019 60 10000 3.6 120 15:37 11.11.2020
5612 Clouds 21 1020 64 10000 4.6 80 15:18 11.11.2020
5613 Clouds 21 1020 64 10000 4.6 80 14:43 11.11.2020
5614 Clouds 20 1019 72 10000 5.7 80 14:23 11.11.2020
5615 Clouds 20 1019 72 10000 5.7 80 13:44 11.11.2020
5616 Clear 18 1019 77 10000 3.6 110 12:59 11.11.2020
5617 Clear 16 1018 87 10000 1.5 110 12:21 11.11.2020
5618 Clear 16 1018 87 10000 1.5 110 11:51 11.11.2020
5619 Clear 16 1018 87 10000 1.5 110 11:33 11.11.2020
5620 Clear 15 1018 93 10000 3.6 71 10:46 11.11.2020
5621 Clear 15 1018 93 10000 3.57 75 10:27 11.11.2020
5622 Clear 14 1018 87 10000 3.57 75 09:59 11.11.2020
5623 Clear 14 1018 87 10000 3.57 75 09:39 11.11.2020
5624 Rain 14 1017 87 10000 1 90 09:21 11.11.2020
5625 Clear 15 1017 87 10000 1 90 08:43 11.11.2020
5626 Clear 15 1017 87 10000 1 90 08:24 11.11.2020
5627 Clear 15 1017 87 10000 3.1 110 07:44 11.11.2020
5628 Clear 15 1017 87 10000 3.1 100 06:32 11.11.2020
5629 Clear 15 1018 87 10000 2.1 110 05:44 11.11.2020
5630 Clear 17 1018 87 10000 4.6 110 01:47 11.11.2020
5631 Clear 18 1017 77 10000 5.7 110 00:57 11.11.2020
5632 Clear 18 1017 77 10000 5.7 110 00:24 11.11.2020
5633 Clouds 18 1017 63 10000 5.7 100 23:40 10.11.2020
5634 Clouds 20 1016 56 10000 6.2 120 23:22 10.11.2020
5635 Clouds 20 1016 56 10000 6.2 120 22:50 10.11.2020
5636 Clouds 20 1016 56 10000 6.2 120 22:26 10.11.2020
5637 Clouds 22 1016 56 10000 7.2 120 21:42 10.11.2020
5638 Clouds 22 1016 56 10000 6.7 130 21:23 10.11.2020
5639 Clouds 22 1016 56 10000 6.7 130 20:58 10.11.2020
5640 Clouds 22 1016 56 10000 6.7 130 20:39 10.11.2020
5641 Clouds 22 1017 53 10000 6.7 110 20:21 10.11.2020
5642 Clouds 22 1017 53 10000 6.7 110 19:44 10.11.2020
5643 Clouds 22 1017 53 10000 6.7 110 19:24 10.11.2020
5644 Clouds 22 1017 60 10000 6.7 130 18:55 10.11.2020
5645 Clouds 22 1017 60 10000 6.7 130 18:37 10.11.2020
5646 Clouds 22 1017 56 10000 6.2 130 18:18 10.11.2020
5647 Clouds 22 1017 56 10000 6.2 130 17:41 10.11.2020
5648 Clouds 23 1018 56 10000 3.6 120 17:23 10.11.2020
5649 Clouds 22 1018 56 10000 3.6 120 16:42 10.11.2020
5650 Clouds 22 1020 56 10000 3.6 80 16:22 10.11.2020
5651 Clouds 21 1020 56 10000 3.6 80 15:54 10.11.2020
5652 Clouds 22 1020 56 10000 3.6 80 15:36 10.11.2020
5653 Clouds 21 1019 64 10000 3.6 80 15:18 10.11.2020
5654 Clouds 21 1019 64 10000 3.6 80 14:39 10.11.2020
5655 Clouds 20 1019 82 10000 3.6 110 14:18 10.11.2020
5656 Clouds 20 1019 82 10000 3.6 110 13:39 10.11.2020
5657 Clouds 18 1018 93 10000 3.1 110 13:20 10.11.2020
5658 Clouds 17 1018 93 10000 3.1 110 12:48 10.11.2020
5659 Clouds 17 1018 93 10000 3.1 110 12:29 10.11.2020
5660 Clear 16 1018 93 10000 3.1 110 11:43 10.11.2020
5661 Clear 16 1018 93 10000 2.6 160 11:22 10.11.2020
5662 Clear 15 1018 93 10000 2.6 160 10:58 10.11.2020
5663 Clear 15 1018 93 10000 2.6 160 10:39 10.11.2020
5664 Clear 14 1018 93 10000 2.1 110 10:21 10.11.2020
5665 Clear 15 1018 93 10000 2.1 110 09:46 10.11.2020
5666 Clear 14 1018 93 10000 2.1 110 09:25 10.11.2020
5667 Clear 15 1017 87 10000 3.1 120 08:57 10.11.2020
5668 Clear 15 1017 87 10000 3.1 120 08:29 10.11.2020
5669 Clear 16 1017 87 10000 3.6 120 07:46 10.11.2020
5670 Clear 16 1017 87 10000 3.6 120 07:26 10.11.2020
5671 Clear 16 1018 87 10000 3.1 110 06:42 10.11.2020
5672 Clear 16 1018 87 10000 2.6 110 05:56 10.11.2020
5673 Clear 16 1018 82 10000 3.1 100 05:24 10.11.2020
5674 Clear 17 1018 82 10000 4.1 90 02:48 10.11.2020
5675 Rain 17 1018 82 10000 4.6 100 01:32 10.11.2020
5676 Clouds 18 1018 82 10000 4.6 100 00:23 10.11.2020
5677 Rain 18 1017 77 10000 5.1 120 23:38 09.11.2020
5678 Rain 18 1017 77 10000 5.1 100 22:56 09.11.2020
5679 Rain 18 1017 77 10000 5.1 100 22:37 09.11.2020
5680 Rain 19 1018 72 10000 5.1 120 22:19 09.11.2020
5681 Rain 19 1018 72 10000 5.1 120 21:39 09.11.2020
5682 Rain 19 1018 68 10000 6.7 120 21:20 09.11.2020
5683 Rain 20 1018 68 10000 6.7 120 20:40 09.11.2020
5684 Rain 21 1019 60 10000 5.7 130 20:21 09.11.2020
5685 Clouds 21 1019 60 10000 5.7 130 19:42 09.11.2020
5686 Clouds 21 1019 60 10000 5.7 130 19:22 09.11.2020
5687 Clouds 21 1019 64 10000 4.1 120 18:47 09.11.2020
5688 Clouds 21 1020 60 10000 3.6 90 18:21 09.11.2020
5689 Clouds 20 1020 60 10000 3.6 90 17:59 09.11.2020
5690 Clouds 20 1020 60 10000 3.6 90 17:39 09.11.2020
5691 Clouds 20 1020 60 10000 4.6 60 17:21 09.11.2020
5692 Clouds 20 1020 60 10000 4.6 60 16:39 09.11.2020
5693 Rain 21 1020 64 10000 5.1 50 16:19 09.11.2020
5694 Clouds 21 1020 64 10000 5.1 50 15:42 09.11.2020
5695 Clouds 20 1021 68 10000 6.7 40 15:24 09.11.2020
5696 Clouds 20 1021 68 10000 6.7 40 14:46 09.11.2020
5697 Clouds 20 1021 68 10000 6.7 40 14:27 09.11.2020
5698 Clouds 20 1021 72 10000 6.7 40 13:52 09.11.2020
5699 Clouds 19 1021 72 10000 6.7 40 13:24 09.11.2020
5700 Clear 18 1021 82 10000 3.6 80 12:57 09.11.2020
5701 Clear 18 1021 82 10000 3.6 80 12:37 09.11.2020
5702 Clear 17 1021 87 10000 3.6 90 12:19 09.11.2020
5703 Clear 16 1021 87 10000 3.6 90 11:41 09.11.2020
5704 Clear 16 1020 93 10000 2.1 100 11:22 09.11.2020
5705 Clear 15 1020 93 10000 2.1 100 10:43 09.11.2020
5706 Clear 14 1020 93 10000 2.1 100 10:25 09.11.2020
5707 Clear 14 1020 93 10000 2.6 120 09:52 09.11.2020
5708 Clear 14 1020 93 10000 2.6 120 09:28 09.11.2020
5709 Clear 14 1020 93 10000 2.1 110 08:44 09.11.2020
5710 Clear 14 1020 93 10000 2.1 110 08:26 09.11.2020
5711 Clear 14 1020 87 10000 1.5 110 07:41 09.11.2020
5712 Clear 14 1020 87 10000 1.5 110 07:41 09.11.2020
5713 Clear 14 1020 87 10000 3.1 100 07:21 09.11.2020
5714 Clear 14 1020 87 10000 3.1 100 06:48 09.11.2020
5715 Clear 16 1021 87 10000 4.1 110 03:49 09.11.2020
5716 Clear 17 1021 77 10000 5.1 120 01:55 09.11.2020
5717 Clear 17 1021 77 10000 5.1 120 01:37 09.11.2020
5718 Rain 19 1019 59 10000 6.7 110 23:55 08.11.2020
5719 Rain 18 1019 59 10000 6.7 110 23:37 08.11.2020
5720 Clouds 20 1019 56 10000 7.7 120 23:18 08.11.2020
5721 Rain 20 1019 56 10000 7.7 120 22:41 08.11.2020
5722 Clouds 20 1019 56 10000 8.2 120 22:20 08.11.2020
5723 Clouds 21 1019 56 10000 8.2 120 21:43 08.11.2020
5724 Clouds 21 1020 56 10000 7.7 110 21:20 08.11.2020
5725 Clouds 21 1020 56 10000 7.7 110 20:55 08.11.2020
5726 Clouds 21 1020 56 10000 7.7 110 20:37 08.11.2020
5727 Clouds 22 1019 53 10000 6.2 120 20:19 08.11.2020
5728 Clouds 23 1019 53 10000 6.2 120 19:43 08.11.2020
5729 Clouds 22 1020 53 10000 5.7 130 19:21 08.11.2020
5730 Clouds 23 1020 53 10000 5.7 130 18:49 08.11.2020
5731 Clouds 23 1020 53 10000 5.7 130 18:49 08.11.2020
5732 Clouds 23 1020 47 10000 4.6 120 18:22 08.11.2020
5733 Clouds 23 1020 47 10000 4.6 120 17:59 08.11.2020
5734 Clouds 23 1020 47 10000 4.6 120 17:41 08.11.2020
5735 Clouds 23 1021 53 10000 4.6 90 17:20 08.11.2020
5736 Clouds 23 1021 53 10000 4.6 90 16:56 08.11.2020
5737 Clouds 23 1021 53 10000 4.6 90 16:37 08.11.2020
5738 Rain 23 1021 53 10000 3.1 110 16:18 08.11.2020
5739 Clouds 23 1021 53 10000 3.1 110 15:43 08.11.2020
5740 Clouds 23 1021 53 10000 3.1 110 15:23 08.11.2020
5741 Clear 21 1021 60 10000 3.6 50 14:42 08.11.2020
5742 Clear 21 1021 60 10000 3.6 50 14:22 08.11.2020
5743 Clear 20 1021 68 10000 3.6 70 13:47 08.11.2020
5744 Clear 20 1021 68 10000 3.6 70 13:24 08.11.2020
5745 Clear 18 1022 82 10000 4.6 40 12:47 08.11.2020
5746 Clear 17 1022 82 10000 4.6 40 12:29 08.11.2020
5747 Clear 15 1021 93 10000 3.1 50 11:58 08.11.2020
5748 Clear 15 1021 93 10000 3.1 50 11:40 08.11.2020
5749 Fog 15 1021 100 500 3.16 46 11:20 08.11.2020
5750 Fog 14 1021 100 500 3.16 46 10:50 08.11.2020
5751 Fog 13 1021 50 100 2.99 50 10:20 08.11.2020
5752 Fog 13 1021 50 100 2.99 50 09:57 08.11.2020
5753 Mist 14 1021 100 1000 2.99 50 09:39 08.11.2020
5754 Clear 14 1021 100 6000 2.99 52 09:18 08.11.2020
5755 Clear 14 1021 100 6000 2.99 52 08:39 08.11.2020
5756 Clear 14 1021 100 7000 2.1 110 08:20 08.11.2020
5757 Clear 14 1021 100 7000 2.1 110 07:52 08.11.2020
5758 Clear 15 1021 100 7000 2.1 110 07:28 08.11.2020
5759 Clear 15 1021 93 10000 3.6 110 06:23 08.11.2020
5760 Clear 15 1021 93 10000 3.6 110 05:52 08.11.2020
5761 Clear 16 1021 93 10000 3.6 130 04:50 08.11.2020
5762 Rain 17 1021 82 10000 5.7 110 01:53 08.11.2020
5763 Clear 17 1021 82 10000 4.1 120 01:19 08.11.2020
5764 Clear 18 1021 82 10000 4.1 120 00:28 08.11.2020
5765 Clear 19 1020 68 10000 6.7 120 23:47 07.11.2020
5766 Clear 19 1020 68 10000 6.7 120 23:29 07.11.2020
5767 Clouds 19 1020 64 10000 6.2 150 22:46 07.11.2020
5768 Clouds 20 1020 64 10000 6.2 150 22:26 07.11.2020
5769 Clouds 21 1020 60 10000 6.7 150 21:56 07.11.2020
5770 Clouds 21 1020 60 10000 6.7 150 21:37 07.11.2020
5771 Clouds 22 1020 53 10000 6.7 150 21:18 07.11.2020
5772 Clouds 22 1020 53 10000 6.7 150 20:42 07.11.2020
5773 Clouds 22 1020 53 10000 6.7 150 20:23 07.11.2020
5774 Clouds 22 1020 53 10000 6.7 150 19:44 07.11.2020
5775 Clouds 23 1020 53 10000 6.7 150 19:26 07.11.2020
5776 Clouds 24 1020 53 10000 5.1 170 18:41 07.11.2020
5777 Clouds 23 1021 50 10000 5.1 100 18:22 07.11.2020
5778 Clouds 23 1021 50 10000 5.1 100 17:46 07.11.2020
5779 Clouds 23 1021 50 10000 5.1 100 17:28 07.11.2020
5780 Clouds 23 1021 57 10000 4.1 150 16:46 07.11.2020
5781 Clouds 23 1021 57 10000 4.1 150 16:25 07.11.2020
5782 Clouds 22 1022 68 10000 4.6 150 15:52 07.11.2020
5783 Clouds 21 1022 68 10000 4.6 150 15:26 07.11.2020
5784 Clouds 21 1022 72 10000 2.6 60 15:00 07.11.2020
5785 Clouds 21 1022 72 10000 2.6 60 15:00 07.11.2020
5786 Clouds 21 1022 72 10000 2.6 60 14:41 07.11.2020
5787 Clouds 20 1022 68 10000 4.6 60 14:21 07.11.2020
5788 Clouds 20 1022 68 10000 4.6 60 13:43 07.11.2020
5789 Clouds 19 1022 68 10000 4.6 60 13:23 07.11.2020
5790 Clouds 18 1021 82 10000 4.6 60 12:40 07.11.2020
5791 Clouds 17 1021 87 10000 3.6 90 11:56 07.11.2020
5792 Clouds 17 1021 87 10000 3.6 90 11:37 07.11.2020
5793 Clear 16 1020 93 10000 2.6 80 11:18 07.11.2020
5794 Clear 16 1020 93 10000 2.6 80 10:42 07.11.2020
5795 Clear 16 1020 87 10000 3.1 60 10:23 07.11.2020
5796 Clear 16 1020 87 10000 3.1 60 09:49 07.11.2020
5797 Clear 16 1020 87 10000 3.1 60 09:24 07.11.2020
5798 Clear 16 1020 82 10000 2.6 70 08:51 07.11.2020
5799 Clear 16 1020 82 10000 2.6 70 08:31 07.11.2020
5800 Clear 17 1020 77 10000 2.1 70 07:48 07.11.2020
5801 Rain 17 1020 77 10000 2.1 70 06:58 07.11.2020
5802 Rain 17 1020 77 10000 2.1 70 06:37 07.11.2020
5803 Clear 17 1020 72 10000 3.6 70 04:32 07.11.2020
5804 Clouds 19 1019 72 10000 4.1 90 02:53 07.11.2020
5805 Clouds 19 1019 68 10000 4.6 80 01:28 07.11.2020
5806 Clouds 19 1019 68 10000 4.6 80 01:28 07.11.2020
5807 Clouds 20 1018 72 10000 3.1 90 00:39 07.11.2020
5808 Clouds 20 1017 68 10000 3.6 140 23:45 06.11.2020
5809 Clouds 20 1017 64 10000 5.7 130 23:19 06.11.2020
5810 Clouds 21 1017 64 10000 5.7 130 22:40 06.11.2020
5811 Clouds 22 1017 64 10000 6.7 130 22:19 06.11.2020
5812 Clouds 22 1017 64 10000 6.7 130 21:43 06.11.2020
5813 Clouds 22 1017 64 10000 5.7 130 21:21 06.11.2020
5814 Clouds 22 1017 64 10000 5.7 130 20:51 06.11.2020
5815 Clouds 22 1018 64 10000 5.1 120 20:20 06.11.2020
5816 Clouds 22 1018 64 10000 5.1 120 20:20 06.11.2020
5817 Clouds 22 1018 64 10000 5.1 120 19:47 06.11.2020
5818 Clouds 22 1018 64 10000 5.1 120 19:29 06.11.2020
5819 Clouds 22 1018 60 10000 4.6 110 18:59 06.11.2020
5820 Clouds 22 1018 60 10000 4.6 110 18:40 06.11.2020
5821 Clouds 24 1019 50 10000 4.1 80 18:22 06.11.2020
5822 Clouds 24 1019 50 10000 4.1 80 17:50 06.11.2020
5823 Clouds 23 1019 50 10000 4.1 80 17:25 06.11.2020
5824 Clouds 23 1019 53 10000 3.1 60 16:48 06.11.2020
5825 Clouds 23 1019 53 10000 3.1 60 16:25 06.11.2020
5826 Clouds 23 1020 60 10000 4.1 70 15:47 06.11.2020
5827 Clouds 22 1020 60 10000 4.1 70 15:28 06.11.2020
5828 Clouds 21 1021 64 10000 4.1 30 14:53 06.11.2020
5829 Clouds 20 1021 72 10000 5.1 50 14:25 06.11.2020
5830 Clouds 20 1021 72 10000 5.1 50 13:45 06.11.2020
5831 Clouds 19 1021 72 10000 5.1 50 13:23 06.11.2020
5832 Clear 17 1021 82 10000 5.1 50 12:45 06.11.2020
5833 Clear 17 1021 82 10000 5.1 50 12:23 06.11.2020
5834 Clear 15 1021 87 10000 3.6 60 11:49 06.11.2020
5835 Clear 15 1021 87 10000 3.6 60 11:28 06.11.2020
5836 Clear 13 1020 93 10000 1.5 70 10:44 06.11.2020
5837 Clear 13 1020 93 10000 1.5 70 10:25 06.11.2020
5838 Clear 12 1020 87 10000 1 40 09:49 06.11.2020
5839 Clear 12 1019 87 10000 2.6 20 09:22 06.11.2020
5840 Clear 13 1019 87 10000 2.6 20 08:51 06.11.2020
5841 Clear 12 1019 87 10000 2.6 20 08:29 06.11.2020
5842 Clear 13 1019 82 10000 3.1 20 07:53 06.11.2020
5843 Clear 13 1019 82 10000 3.1 20 07:34 06.11.2020
5844 Clear 14 1019 76 10000 3.6 20 06:58 06.11.2020
5845 Clear 15 1019 76 10000 3.6 20 06:24 06.11.2020
5846 Clear 16 1020 67 10000 5.7 40 04:42 06.11.2020
5847 Clear 18 1019 72 10000 4.1 120 01:23 06.11.2020
5848 Clouds 19 1019 77 10000 4.1 120 00:22 06.11.2020
5849 Clouds 19 1019 77 10000 4.1 120 23:35 05.11.2020
5850 Clouds 20 1019 77 10000 4.1 120 22:58 05.11.2020
5851 Clouds 21 1018 56 10000 4.1 100 22:40 05.11.2020
5852 Clouds 22 1018 46 10000 3.6 90 22:21 05.11.2020
5853 Clouds 22 1018 46 10000 3.6 90 21:44 05.11.2020
5854 Clouds 23 1018 41 10000 4.1 20 21:22 05.11.2020
5855 Clouds 24 1018 41 10000 4.1 20 20:57 05.11.2020
5856 Clouds 24 1018 41 10000 4.1 20 20:39 05.11.2020
5857 Clouds 23 1019 41 10000 5.7 30 20:21 05.11.2020
5858 Clouds 23 1019 41 10000 5.7 30 19:42 05.11.2020
5859 Clouds 23 1019 41 10000 5.7 30 19:23 05.11.2020
5860 Clouds 22 1020 40 10000 8.7 40 18:49 05.11.2020
5861 Clouds 22 1020 40 10000 8.7 40 18:30 05.11.2020
5862 Clouds 24 1020 34 10000 6.2 60 17:54 05.11.2020
5863 Clouds 24 1020 34 10000 6.2 60 17:36 05.11.2020
5864 Clouds 22 1021 53 10000 6.2 40 17:18 05.11.2020
5865 Clouds 22 1021 53 10000 6.2 40 16:41 05.11.2020
5866 Clouds 22 1022 56 10000 6.7 40 16:21 05.11.2020
5867 Clouds 22 1022 56 10000 6.7 40 15:49 05.11.2020
5868 Clouds 22 1022 56 10000 6.7 40 15:24 05.11.2020
5869 Clouds 20 1022 56 10000 6.2 40 14:47 05.11.2020
5870 Clouds 20 1022 56 10000 6.2 40 14:29 05.11.2020
5871 Clouds 18 1022 67 10000 7.2 40 13:49 05.11.2020
5872 Clouds 18 1022 67 10000 7.2 40 13:30 05.11.2020
5873 Clear 17 1022 77 10000 7.2 60 12:53 05.11.2020
5874 Clear 16 1022 77 10000 7.2 60 12:29 05.11.2020
5875 Clear 14 1022 82 10000 3.1 80 11:57 05.11.2020
5876 Clear 14 1022 82 10000 3.1 80 11:37 05.11.2020
5877 Clear 13 1022 81 10000 3.6 80 11:19 05.11.2020
5878 Clear 12 1022 81 10000 3.6 80 10:43 05.11.2020
5879 Clear 11 1022 81 10000 3.6 80 10:25 05.11.2020
5880 Clear 10 1022 81 10000 3.6 80 09:47 05.11.2020
5881 Clear 10 1022 81 10000 3.6 80 09:22 05.11.2020
5882 Clear 10 1021 87 10000 3.6 80 08:44 05.11.2020
5883 Clear 10 1021 87 10000 3.6 80 08:26 05.11.2020
5884 Clear 11 1021 76 10000 3.1 70 07:41 05.11.2020
5885 Clear 11 1021 76 10000 2.6 50 07:20 05.11.2020
5886 Clear 11 1021 76 10000 2.6 50 06:41 05.11.2020
5887 Clear 12 1022 71 10000 1.5 40 05:44 05.11.2020
5888 Clear 16 1022 45 10000 3.6 70 01:35 05.11.2020
5889 Clear 17 1022 67 10000 3.1 110 00:33 05.11.2020
5890 Clear 17 1021 63 10000 5.1 110 23:44 04.11.2020
5891 Clear 18 1021 63 10000 5.1 110 23:26 04.11.2020
5892 Clear 18 1021 67 10000 6.7 110 22:52 04.11.2020
5893 Clear 19 1021 60 10000 7.7 120 22:27 04.11.2020
5894 Clouds 20 1021 60 10000 6.7 100 21:59 04.11.2020
5895 Clouds 20 1021 60 10000 6.7 100 21:41 04.11.2020
5896 Clouds 20 1021 60 10000 6.7 100 21:22 04.11.2020
5897 Clouds 20 1022 52 10000 6.7 110 20:44 04.11.2020
5898 Clouds 20 1022 52 10000 6.7 110 20:26 04.11.2020
5899 Clouds 21 1023 52 10000 7.2 120 19:49 04.11.2020
5900 Clouds 21 1023 52 10000 7.2 120 19:30 04.11.2020
5901 Clouds 21 1023 52 10000 7.2 120 19:30 04.11.2020
5902 Clear 21 1024 40 10000 7.7 60 18:55 04.11.2020
5903 Clear 21 1024 40 10000 7.7 60 18:55 04.11.2020
5904 Clear 21 1024 40 10000 7.7 60 18:37 04.11.2020
5905 Clear 21 1024 40 10000 6.2 60 18:18 04.11.2020
5906 Clear 21 1024 40 10000 6.2 60 17:40 04.11.2020
5907 Clear 21 1025 40 10000 6.2 60 17:22 04.11.2020
5908 Clear 21 1025 40 10000 6.2 60 16:41 04.11.2020
5909 Clear 21 1025 40 10000 6.2 60 16:41 04.11.2020
5910 Clear 20 1026 42 10000 7.2 60 16:23 04.11.2020
5911 Clear 20 1026 42 10000 7.2 60 15:48 04.11.2020
5912 Clear 20 1026 42 10000 7.2 60 15:26 04.11.2020
5913 Clear 19 1026 48 10000 5.7 60 14:59 04.11.2020
5914 Clear 19 1026 48 10000 5.7 60 14:41 04.11.2020
5915 Clear 18 1026 51 10000 4.6 90 14:21 04.11.2020
5916 Clear 18 1026 51 10000 4.6 90 13:47 04.11.2020
5917 Clear 16 1026 62 10000 4.6 90 13:20 04.11.2020
5918 Clear 16 1026 62 10000 4.6 90 12:54 04.11.2020
5919 Clear 16 1026 62 10000 4.6 90 12:36 04.11.2020
5920 Clear 14 1026 71 10000 3.1 90 11:59 04.11.2020
5921 Clear 14 1026 71 10000 3.1 90 11:40 04.11.2020
5922 Clouds 13 1025 76 10000 1.5 50 11:20 04.11.2020
5923 Clouds 12 1025 76 10000 1.5 50 10:47 04.11.2020
5924 Clouds 11 1025 76 10000 1.5 50 10:22 04.11.2020
5925 Clear 11 1024 76 10000 3.1 80 09:53 04.11.2020
5926 Clear 11 1024 76 10000 3.1 80 09:25 04.11.2020
5927 Clouds 11 1024 76 10000 3.1 80 08:47 04.11.2020
5928 Clouds 11 1024 76 10000 2.1 80 08:21 04.11.2020
5929 Clouds 11 1024 76 10000 2.1 80 07:50 04.11.2020
5930 Clouds 11 1024 76 10000 2.1 80 07:28 04.11.2020
5931 Clear 12 1024 81 10000 1 40 06:55 04.11.2020
5932 Clear 12 1024 81 10000 1 40 06:36 04.11.2020
5933 Clear 14 1023 67 10000 4.1 90 03:55 04.11.2020
5934 Clear 16 1023 72 10000 6.2 90 02:24 04.11.2020
5935 Clouds 17 1022 72 10000 6.7 110 00:43 04.11.2020
5936 Clouds 18 1021 68 10000 7.2 100 23:48 03.11.2020
5937 Clouds 18 1021 68 10000 7.2 100 23:24 03.11.2020
5938 Clouds 19 1021 56 10000 7.7 120 22:42 03.11.2020
5939 Clouds 20 1021 56 10000 7.7 100 22:21 03.11.2020
5940 Clouds 20 1021 56 10000 7.7 100 21:59 03.11.2020
5941 Clouds 20 1021 56 10000 7.7 100 21:40 03.11.2020
5942 Clouds 21 1021 56 10000 8.2 120 21:21 03.11.2020
5943 Clouds 21 1021 56 10000 8.2 120 20:45 03.11.2020
5944 Clouds 21 1021 56 10000 8.2 120 20:26 03.11.2020
5945 Clouds 21 1021 56 10000 8.7 110 19:44 03.11.2020
5946 Clouds 21 1021 56 10000 8.7 110 19:25 03.11.2020
5947 Clouds 21 1021 56 10000 8.7 110 19:25 03.11.2020
5948 Clouds 21 1022 56 10000 7.7 110 18:56 03.11.2020
5949 Clouds 21 1022 56 10000 7.7 110 18:38 03.11.2020
5950 Clouds 21 1022 64 10000 5.7 90 18:18 03.11.2020
5951 Clouds 21 1022 64 10000 5.7 90 17:42 03.11.2020
5952 Clouds 21 1022 64 10000 5.7 120 17:23 03.11.2020
5953 Clouds 20 1022 64 10000 5.7 120 16:45 03.11.2020
5954 Clouds 20 1022 64 10000 5.7 120 16:24 03.11.2020
5955 Clouds 21 1022 60 10000 4.1 100 15:48 03.11.2020
5956 Clouds 20 1022 60 10000 4.1 100 15:29 03.11.2020
5957 Clouds 20 1022 63 10000 4.1 50 14:53 03.11.2020
5958 Clouds 20 1022 63 10000 4.1 50 14:33 03.11.2020
5959 Clouds 19 1022 68 10000 4.6 90 13:47 03.11.2020
5960 Clouds 19 1022 68 10000 4.6 90 13:24 03.11.2020
5961 Clear 18 1022 77 10000 2.6 80 12:59 03.11.2020
5962 Clear 18 1022 77 10000 2.6 80 12:39 03.11.2020
5963 Clear 16 1021 87 10000 3.1 100 12:20 03.11.2020
5964 Clear 16 1021 87 10000 3.1 100 11:44 03.11.2020
5965 Clouds 15 1020 87 10000 1.5 90 11:20 03.11.2020
5966 Clouds 14 1020 87 10000 1.5 90 10:40 03.11.2020
5967 Clouds 14 1020 87 10000 1.5 90 10:22 03.11.2020
5968 Clear 13 1019 82 10000 2.1 110 09:59 03.11.2020
5969 Clear 13 1019 82 10000 2.1 110 09:37 03.11.2020
5970 Clear 13 1019 82 10000 2.1 110 09:18 03.11.2020
5971 Clear 14 1019 82 10000 2.1 110 08:42 03.11.2020
5972 Clear 13 1019 82 10000 2.1 110 08:23 03.11.2020
5973 Clear 12 1019 87 10000 2.1 100 07:35 03.11.2020
5974 Clear 13 1019 76 10000 2.1 100 06:53 03.11.2020
5975 Clear 13 1020 76 10000 2.6 90 06:19 03.11.2020
5976 Clear 15 1020 72 10000 5.7 90 03:34 03.11.2020
5977 Clouds 17 1018 72 10000 7.7 120 00:43 03.11.2020
5978 Clear 17 1018 72 10000 5.7 110 00:20 03.11.2020
5979 Clear 17 1018 72 10000 5.7 110 23:41 02.11.2020
5980 Clear 19 1018 63 10000 5.1 110 22:56 02.11.2020
5981 Clear 19 1018 63 10000 5.1 110 22:37 02.11.2020
5982 Clear 19 1018 60 10000 6.2 120 22:19 02.11.2020
5983 Clear 20 1018 60 10000 6.2 120 21:38 02.11.2020
5984 Clear 21 1018 49 10000 5.1 150 21:20 02.11.2020
5985 Clear 21 1018 49 10000 5.1 150 20:41 02.11.2020
5986 Clouds 21 1019 40 10000 5.1 140 20:20 02.11.2020
5987 Clouds 21 1019 40 10000 5.1 140 19:59 02.11.2020
5988 Clouds 21 1019 40 10000 5.1 140 19:41 02.11.2020
5989 Clouds 21 1019 40 10000 5.1 140 19:21 02.11.2020
5990 Clouds 22 1019 35 10000 4.1 130 18:41 02.11.2020
5991 Clouds 21 1020 52 10000 4.1 140 18:21 02.11.2020
5992 Clouds 21 1020 52 10000 4.1 140 17:56 02.11.2020
5993 Clouds 22 1020 52 10000 4.1 140 17:37 02.11.2020
5994 Rain 21 1020 43 10000 2.6 70 17:18 02.11.2020
5995 Clouds 21 1020 43 10000 2.6 70 16:40 02.11.2020
5996 Clear 21 1020 49 10000 2.6 140 16:21 02.11.2020
5997 Clear 21 1020 49 10000 2.6 140 15:39 02.11.2020
5998 Clear 20 1021 56 10000 2.6 120 15:20 02.11.2020
5999 Rain 20 1021 56 10000 2.6 120 14:53 02.11.2020
6000 Clear 19 1021 72 10000 1.5 120 14:20 02.11.2020
6001 Rain 18 1021 72 10000 1.5 120 13:53 02.11.2020
6002 Rain 17 1021 77 10000 1.5 30 13:23 02.11.2020
6003 Clouds 16 1021 77 10000 1.5 30 12:55 02.11.2020
6004 Clouds 16 1021 77 10000 1.5 30 12:30 02.11.2020
6005 Clouds 13 1021 82 10000 1.5 10 11:56 02.11.2020
6006 Clouds 13 1021 82 10000 1.5 10 11:37 02.11.2020
6007 Clouds 10 1020 93 10000 1.4 341 11:18 02.11.2020
6008 Clouds 11 1020 93 10000 1.4 341 10:41 02.11.2020
6009 Clear 9 1020 93 10000 1.5 310 10:20 02.11.2020
6010 Clear 9 1020 93 10000 1.5 310 09:49 02.11.2020
6011 Clear 10 1020 93 10000 1.5 310 09:23 02.11.2020
6012 Clear 10 1019 81 10000 1.5 360 08:40 02.11.2020
6013 Clear 14 1019 76 10000 1.5 340 08:20 02.11.2020
6014 Rain 14 1019 76 10000 1.5 340 07:50 02.11.2020
6015 Clear 13 1020 67 10000 2.1 130 06:52 02.11.2020
6016 Clear 13 1020 67 10000 2.1 130 06:34 02.11.2020
6017 Rain 15 1021 55 10000 2.6 130 03:23 02.11.2020
6018 Rain 16 1021 67 10000 2.6 110 01:24 02.11.2020
6019 Rain 16 1021 67 10000 2.6 110 01:24 02.11.2020
6020 Clear 16 1021 67 10000 2.1 120 00:35 02.11.2020
6021 Clear 18 1021 48 10000 4.1 110 23:41 01.11.2020
6022 Clear 19 1021 40 10000 3.1 110 23:23 01.11.2020
6023 Clear 20 1021 40 10000 3.1 110 22:46 01.11.2020
6024 Clear 20 1021 40 10000 3.1 110 22:25 01.11.2020
6025 Clear 21 1021 35 10000 4.1 140 21:58 01.11.2020
6026 Clear 21 1021 35 10000 4.1 140 21:38 01.11.2020
6027 Clouds 21 1022 56 10000 4.6 180 21:20 01.11.2020
6028 Clouds 21 1022 56 10000 4.6 180 20:41 01.11.2020
6029 Clouds 21 1022 56 10000 4.6 180 20:23 01.11.2020
6030 Clouds 21 1022 56 10000 5.1 180 19:43 01.11.2020
6031 Clouds 21 1023 56 10000 5.1 180 19:24 01.11.2020
6032 Clouds 20 1023 56 10000 5.1 180 18:43 01.11.2020
6033 Rain 21 1023 49 10000 4.1 220 18:20 01.11.2020
6034 Rain 21 1023 49 10000 4.1 220 18:20 01.11.2020
6035 Rain 21 1023 49 10000 4.1 220 18:20 01.11.2020
6036 Clouds 21 1023 49 10000 4.1 220 17:58 01.11.2020
6037 Clouds 21 1023 49 10000 4.1 220 17:40 01.11.2020
6038 Clear 21 1024 49 10000 3.6 220 17:21 01.11.2020
6039 Clear 21 1024 49 10000 3.6 220 16:41 01.11.2020
6040 Clear 21 1024 49 10000 1.5 0 16:19 01.11.2020
6041 Clear 21 1024 49 10000 1.5 0 16:19 01.11.2020
6042 Clear 21 1024 49 10000 1.5 0 15:42 01.11.2020
6043 Clear 21 1024 49 10000 1.5 0 15:22 01.11.2020
6044 Clear 19 1024 52 10000 1.5 0 14:59 01.11.2020
6045 Clear 19 1024 52 10000 1.5 0 14:41 01.11.2020
6046 Clear 18 1025 67 10000 3.1 330 14:21 01.11.2020
6047 Clear 17 1025 67 10000 3.1 330 13:48 01.11.2020
6048 Clear 17 1025 67 10000 3.1 330 13:30 01.11.2020
6049 Clear 15 1025 77 10000 2.1 340 12:44 01.11.2020
6050 Clear 13 1025 87 10000 1.5 0 12:23 01.11.2020
6051 Clear 12 1025 87 10000 1.5 0 11:52 01.11.2020
6052 Clear 12 1024 93 10000 1.5 350 11:19 01.11.2020
6053 Clear 10 1024 93 10000 1.5 350 10:55 01.11.2020
6054 Mist 10 1024 93 2000 1 350 10:37 01.11.2020
6055 Mist 8 1023 93 3000 1.5 350 10:19 01.11.2020
6056 Mist 8 1023 93 3000 1.5 350 09:43 01.11.2020
6057 Clear 10 1023 93 10000 2.6 20 08:47 01.11.2020
6058 Clear 10 1023 93 10000 2.6 20 08:24 01.11.2020
6059 Clear 11 1023 87 10000 1.5 10 07:43 01.11.2020
6060 Clear 11 1025 76 10000 1.5 50 04:31 01.11.2020
6061 Clear 14 1025 62 10000 3.6 120 01:52 01.11.2020
6062 Clear 14 1025 62 10000 3.6 120 01:52 01.11.2020
6063 Rain 14 1025 72 10000 3.6 130 00:43 01.11.2020
6064 Rain 17 1025 63 10000 3.1 140 23:28 31.10.2020
6065 Clear 17 1025 59 10000 4.1 180 22:58 31.10.2020
6066 Clear 18 1025 59 10000 4.1 180 22:40 31.10.2020
6067 Clouds 19 1025 52 10000 5.1 180 22:21 31.10.2020
6068 Clouds 19 1025 52 10000 5.1 180 21:44 31.10.2020
6069 Clouds 19 1025 59 10000 6.2 150 21:20 31.10.2020
6070 Clouds 19 1025 59 10000 6.2 150 20:38 31.10.2020
6071 Clouds 19 1025 63 10000 6.2 180 20:18 31.10.2020
6072 Clouds 19 1025 63 10000 6.2 180 19:41 31.10.2020
6073 Clouds 19 1025 63 10000 6.2 180 19:23 31.10.2020
6074 Clouds 19 1026 63 10000 5.1 180 18:48 31.10.2020
6075 Clouds 19 1026 63 10000 5.1 180 18:30 31.10.2020
6076 Clouds 19 1026 63 10000 5.7 160 17:41 31.10.2020
6077 Clouds 19 1027 68 10000 5.1 150 17:23 31.10.2020
6078 Clouds 19 1027 68 10000 5.1 150 16:48 31.10.2020
6079 Clouds 19 1027 68 10000 5.1 150 16:29 31.10.2020
6080 Clouds 19 1027 48 10000 2.2 206 15:54 31.10.2020
6081 Clouds 19 1027 48 10000 1.61 229 15:25 31.10.2020
6082 Clouds 17 1027 67 10000 3.6 360 14:53 31.10.2020
6083 Clouds 17 1027 67 10000 3.6 360 14:31 31.10.2020
6084 Clouds 16 1027 77 10000 1.5 80 13:52 31.10.2020
6085 Clouds 16 1027 77 10000 1.5 80 13:28 31.10.2020
6086 Clouds 14 1027 76 10000 1.5 90 12:55 31.10.2020
6087 Clear 11 1027 87 10000 1.5 140 12:22 31.10.2020
6088 Clear 11 1027 87 10000 1.5 140 11:41 31.10.2020
6089 Clear 9 1026 93 10000 1.46 336 11:22 31.10.2020
6090 Clear 9 1026 93 10000 1.46 336 10:42 31.10.2020
6091 Clear 8 1026 93 10000 1.5 30 09:57 31.10.2020
6092 Clear 8 1026 93 10000 1.5 30 09:37 31.10.2020
6093 Clear 8 1026 93 10000 1.5 20 09:19 31.10.2020
6094 Clear 8 1026 93 10000 1.5 20 08:26 31.10.2020
6095 Clear 8 1026 87 10000 1.5 320 07:42 31.10.2020
6096 Clear 8 1026 87 10000 1.5 320 07:23 31.10.2020
6097 Clear 10 1027 81 10000 1.7 37 06:36 31.10.2020
6098 Clouds 12 1028 66 10000 4.6 100 03:49 31.10.2020
6099 Clear 12 1028 58 10000 5.1 110 02:48 31.10.2020
6100 Clear 13 1027 58 10000 4.1 130 00:55 31.10.2020
6101 Clear 13 1026 58 10000 5.1 150 23:58 30.10.2020
6102 Clear 13 1026 58 10000 5.1 150 23:38 30.10.2020
6103 Clear 14 1026 44 10000 3.6 140 23:20 30.10.2020
6104 Clear 14 1026 44 10000 3.6 140 23:20 30.10.2020
6105 Clear 15 1026 44 10000 3.6 140 22:40 30.10.2020
6106 Clear 15 1026 44 10000 3.6 140 22:22 30.10.2020
6107 Clear 16 1025 48 10000 5.1 190 21:49 30.10.2020
6108 Clear 16 1025 48 10000 5.1 190 21:27 30.10.2020
6109 Clear 16 1026 42 10000 5.1 160 20:58 30.10.2020
6110 Clear 16 1026 42 10000 5.1 160 20:36 30.10.2020
6111 Clear 17 1026 45 10000 5.1 180 20:18 30.10.2020
6112 Clear 17 1026 45 10000 5.1 180 19:41 30.10.2020
6113 Clear 17 1027 45 10000 5.1 180 19:18 30.10.2020
6114 Clear 17 1027 45 10000 5.1 180 18:44 30.10.2020
6115 Clear 17 1027 45 10000 5.1 180 18:24 30.10.2020
6116 Clear 16 1027 51 10000 4.1 170 17:47 30.10.2020
6117 Clear 17 1028 51 10000 6.2 180 17:22 30.10.2020
6118 Clear 16 1028 51 10000 6.2 180 16:55 30.10.2020
6119 Clear 16 1028 51 10000 6.2 180 16:26 30.10.2020
6120 Clear 16 1028 51 10000 3.6 210 15:58 30.10.2020
6121 Clear 15 1028 51 10000 3.6 210 15:40 30.10.2020
6122 Clear 15 1028 51 10000 2.6 170 15:18 30.10.2020
6123 Clear 15 1028 51 10000 2.6 170 14:44 30.10.2020
6124 Clear 15 1028 51 10000 2.6 170 14:25 30.10.2020
6125 Clouds 14 1028 58 10000 4.1 170 13:44 30.10.2020
6126 Clear 14 1028 58 10000 2.6 170 13:21 30.10.2020
6127 Clear 13 1028 58 10000 2.6 170 12:49 30.10.2020
6128 Clear 11 1027 81 10000 1.5 60 12:22 30.10.2020
6129 Clear 10 1027 81 10000 1.5 60 11:56 30.10.2020
6130 Clear 10 1027 75 10000 1 340 11:23 30.10.2020
6131 Clear 8 1027 75 10000 1 340 10:52 30.10.2020
6132 Clear 7 1027 75 10000 1 340 10:26 30.10.2020
6133 Clear 7 1013 81 10000 1.67 155 09:57 30.10.2020
6134 Rain 7 1013 81 10000 1.67 155 09:38 30.10.2020
6135 Clear 11 1025 57 10000 2.6 160 09:19 30.10.2020
6136 Clear 11 1025 57 10000 2.6 160 09:19 30.10.2020
6137 Clear 11 1025 57 10000 2.6 160 08:32 30.10.2020
6138 Clear 10 1025 57 10000 3.1 160 07:58 30.10.2020
6139 Clear 10 1025 57 10000 3.1 160 07:40 30.10.2020
6140 Clear 10 1025 57 10000 3.1 160 07:21 30.10.2020
6141 Clear 11 1025 54 10000 4.1 150 06:19 30.10.2020
6142 Clouds 11 1025 58 10000 5.1 160 03:59 30.10.2020
6143 Clouds 13 1024 66 10000 7.2 180 01:28 30.10.2020
6144 Clouds 13 1023 66 10000 6.2 180 00:31 30.10.2020
6145 Clouds 13 1023 71 10000 7.7 170 23:46 29.10.2020
6146 Clouds 13 1023 71 10000 7.7 170 23:28 29.10.2020
6147 Clouds 14 1022 71 10000 7.2 180 22:48 29.10.2020
6148 Clouds 15 1022 71 10000 7.2 180 22:27 29.10.2020
6149 Clouds 15 1022 67 10000 7.2 180 21:50 29.10.2020
6150 Clouds 16 1022 67 10000 7.2 180 21:26 29.10.2020
6151 Clouds 16 1021 62 10000 5.1 200 20:57 29.10.2020
6152 Clouds 16 1021 62 10000 5.1 200 20:39 29.10.2020
6153 Clouds 16 1021 63 10000 6.7 210 20:18 29.10.2020
6154 Clouds 16 1021 63 10000 6.7 210 19:39 29.10.2020
6155 Clouds 17 1021 59 10000 7.7 220 19:19 29.10.2020
6156 Clouds 17 1021 59 10000 7.7 220 18:46 29.10.2020
6157 Clouds 17 1021 59 10000 7.7 220 18:26 29.10.2020
6158 Clouds 16 1021 59 10000 6.2 210 17:43 29.10.2020
6159 Clouds 16 1021 59 10000 5.1 200 17:24 29.10.2020
6160 Clouds 16 1021 59 10000 5.1 200 16:55 29.10.2020
6161 Clouds 16 1021 59 10000 5.1 200 16:37 29.10.2020
6162 Clouds 16 1020 59 10000 6.2 200 16:18 29.10.2020
6163 Clouds 16 1020 59 10000 6.2 200 15:41 29.10.2020
6164 Clouds 15 1020 67 10000 8.2 200 15:22 29.10.2020
6165 Clouds 15 1020 67 10000 8.2 200 14:58 29.10.2020
6166 Clouds 15 1020 67 10000 8.2 200 14:40 29.10.2020
6167 Clouds 15 1018 62 10000 8.2 200 14:18 29.10.2020
6168 Clouds 15 1018 62 10000 8.2 200 13:41 29.10.2020
6169 Clouds 15 1018 62 10000 8.2 200 13:22 29.10.2020
6170 Clouds 14 1018 67 10000 8.7 200 12:42 29.10.2020
6171 Clouds 14 1017 71 10000 6.7 210 12:19 29.10.2020
6172 Clouds 14 1017 71 10000 6.7 210 11:48 29.10.2020
6173 Clouds 14 1017 71 10000 6.7 210 11:26 29.10.2020
6174 Clouds 13 1015 62 10000 4.6 230 10:38 29.10.2020
6175 Clouds 13 1014 71 10000 5.7 230 10:20 29.10.2020
6176 Clouds 13 1014 71 10000 5.7 230 09:56 29.10.2020
6177 Clouds 13 1014 71 10000 5.7 230 09:28 29.10.2020
6178 Clouds 14 1013 71 10000 3.6 250 08:59 29.10.2020
6179 Clouds 14 1013 71 10000 3.6 250 08:40 29.10.2020
6180 Clouds 14 1013 76 10000 3.6 250 08:18 29.10.2020
6181 Clouds 14 1013 76 10000 3.6 250 07:46 29.10.2020
6182 Clear 14 1013 67 10000 5.1 230 06:58 29.10.2020
6183 Clear 13 1013 67 10000 6.2 220 06:21 29.10.2020
6184 Clear 14 1013 67 10000 6.7 210 04:46 29.10.2020
6185 Clouds 16 1014 64 10000 2.68 182 01:25 29.10.2020
6186 Clouds 16 1013 60 10000 2.68 230 00:31 29.10.2020
6187 Clouds 16 1013 59 10000 2.24 210 23:59 28.10.2020
6188 Rain 16 1012 62 10000 3.13 217 23:22 28.10.2020
6189 Rain 16 1012 64 10000 2.68 199 22:45 28.10.2020
6190 Rain 17 1010 82 10000 5.1 200 22:27 28.10.2020
6191 Rain 17 1010 82 10000 5.1 200 21:59 28.10.2020
6192 Clouds 17 1010 82 10000 5.1 200 21:41 28.10.2020
6193 Rain 17 1008 67 10000 5.7 190 21:23 28.10.2020
6194 Rain 17 1008 67 10000 5.7 190 20:42 28.10.2020
6195 Clouds 18 1009 59 10000 6.7 220 20:22 28.10.2020
6196 Clouds 18 1009 59 10000 6.7 220 19:51 28.10.2020
6197 Clouds 18 1009 59 10000 6.7 220 19:30 28.10.2020
6198 Clouds 18 1009 72 10000 6.2 220 18:50 28.10.2020
6199 Clouds 18 1009 82 10000 6.2 200 18:22 28.10.2020
6200 Clouds 19 1009 82 10000 6.2 200 17:57 28.10.2020
6201 Clouds 18 1009 82 10000 6.2 200 17:39 28.10.2020
6202 Drizzle 18 1009 93 600 6.2 200 17:18 28.10.2020
6203 Drizzle 17 1009 93 600 6.2 200 16:44 28.10.2020
6204 Drizzle 17 1009 93 600 6.2 200 16:23 28.10.2020
6205 Drizzle 17 1009 93 600 6.2 200 16:23 28.10.2020
6206 Drizzle 17 1009 93 600 6.2 200 15:40 28.10.2020
6207 Clouds 17 1009 76 10000 2.68 169 15:19 28.10.2020
6208 Clouds 17 996 89 10000 3.58 242 15:19 28.10.2020
6209 Clouds 18 1008 88 10000 2.1 190 14:44 28.10.2020
6210 Clouds 18 1008 88 10000 2.1 190 14:26 28.10.2020
6211 Clouds 18 1008 72 10000 0.45 135 12:55 28.10.2020
6212 Rain 18 1008 72 10000 0.89 113 12:36 28.10.2020
6213 Clouds 18 1008 73 10000 0.89 19 12:18 28.10.2020
6214 Rain 17 1008 74 10000 0.89 134 11:41 28.10.2020
6215 Clouds 17 1008 76 10000 0.45 96 11:20 28.10.2020
6216 Rain 16 1008 85 10000 1.31 153 10:53 28.10.2020
6217 Clouds 15 1006 93 8000 4.1 180 10:33 28.10.2020
6218 Clouds 15 1006 93 8000 4.1 180 09:46 28.10.2020
6219 Clouds 15 1006 93 8000 4.1 180 09:24 28.10.2020
6220 Drizzle 15 1007 93 5000 5.7 190 08:51 28.10.2020
6221 Clouds 15 1007 93 10000 5.1 180 08:33 28.10.2020
6222 Clouds 15 1006 100 8000 5.1 180 07:56 28.10.2020
6223 Clouds 15 1006 100 8000 5.1 180 07:37 28.10.2020
6224 Drizzle 14 1007 100 5000 5.7 180 07:19 28.10.2020
6225 Drizzle 15 1007 93 2000 5.1 190 06:39 28.10.2020
6226 Clouds 15 1007 93 10000 5.1 170 05:44 28.10.2020
6227 Clouds 15 1007 87 10000 4.6 170 04:52 28.10.2020
6228 Clouds 15 1007 87 10000 4.6 170 04:23 28.10.2020
6229 Rain 14 1007 82 10000 4.1 150 02:25 28.10.2020
6230 Rain 15 1007 82 10000 5.1 150 00:36 28.10.2020
6231 Rain 15 1007 82 10000 6.2 170 23:51 27.10.2020
6232 Rain 16 1007 67 10000 6.2 190 23:22 27.10.2020
6233 Rain 17 1007 67 10000 6.2 190 22:45 27.10.2020
6234 Clouds 17 1007 68 10000 6.2 180 22:22 27.10.2020
6235 Clouds 18 1007 68 10000 6.2 180 21:57 27.10.2020
6236 Clouds 18 1007 68 10000 6.2 180 21:38 27.10.2020
6237 Clouds 18 1007 55 10000 5.1 180 21:20 27.10.2020
6238 Clouds 19 1007 55 10000 5.1 180 20:54 27.10.2020
6239 Clouds 19 1007 55 10000 5.1 180 20:36 27.10.2020
6240 Clouds 19 1007 63 10000 5.1 160 20:18 27.10.2020
6241 Clouds 19 1007 63 10000 5.1 160 20:18 27.10.2020
6242 Clouds 19 1007 63 10000 5.1 160 19:39 27.10.2020
6243 Clouds 19 1007 63 10000 5.1 160 19:20 27.10.2020
6244 Clouds 19 1008 52 10000 5.1 140 18:55 27.10.2020
6245 Clouds 19 1008 52 10000 5.1 140 18:37 27.10.2020
6246 Clouds 20 1008 59 10000 5.1 150 18:18 27.10.2020
6247 Clouds 19 1008 52 10000 5.1 140 17:40 27.10.2020
6248 Clouds 19 1008 52 10000 5.1 140 17:20 27.10.2020
6249 Clouds 19 1009 59 10000 5.1 130 16:48 27.10.2020
6250 Clouds 18 1010 68 10000 5.1 120 16:25 27.10.2020
6251 Clouds 18 1010 68 10000 5.1 120 15:47 27.10.2020
6252 Clouds 18 1010 68 10000 5.1 120 15:29 27.10.2020
6253 Clouds 18 1010 72 10000 3.6 180 14:55 27.10.2020
6254 Clouds 18 1010 72 10000 3.6 180 14:36 27.10.2020
6255 Clouds 17 1011 63 10000 4.1 140 14:18 27.10.2020
6256 Clouds 17 1011 63 10000 4.1 140 13:32 27.10.2020
6257 Clear 16 1011 77 10000 5.1 130 12:58 27.10.2020
6258 Clear 15 1011 77 10000 5.1 130 12:38 27.10.2020
6259 Clear 14 1010 76 10000 2.1 130 12:20 27.10.2020
6260 Clear 13 1010 76 10000 2.1 130 11:42 27.10.2020
6261 Clear 14 1010 76 10000 2.6 160 11:22 27.10.2020
6262 Clear 12 1010 76 10000 2.6 160 10:47 27.10.2020
6263 Clear 11 1010 76 10000 2.6 160 10:25 27.10.2020
6264 Clear 12 1010 71 10000 3.62 153 09:45 27.10.2020
6265 Clear 12 1010 66 10000 3.6 180 09:23 27.10.2020
6266 Clear 12 1010 66 10000 3.6 180 08:39 27.10.2020
6267 Clear 11 1011 66 10000 2.6 150 08:19 27.10.2020
6268 Clear 11 1011 66 10000 2.6 150 07:45 27.10.2020
6269 Clear 12 1011 66 10000 2.6 150 07:25 27.10.2020
6270 Clear 12 1012 62 10000 5.1 180 06:22 27.10.2020
6271 Clear 12 1012 62 10000 5.1 180 06:22 27.10.2020
6272 Clear 12 1012 62 10000 5.1 180 05:52 27.10.2020
6273 Clear 12 1012 62 10000 5.1 180 05:34 27.10.2020
6274 Clear 12 1014 62 10000 4.6 170 04:44 27.10.2020
6275 Clear 13 1014 66 10000 4.1 160 02:33 27.10.2020
6276 Clear 14 1013 62 10000 3.1 160 00:57 27.10.2020
6277 Clear 15 1013 67 10000 5.7 150 23:44 26.10.2020
6278 Clear 15 1013 67 10000 5.7 150 23:22 26.10.2020
6279 Clear 16 1012 67 10000 7.2 160 22:47 26.10.2020
6280 Clear 16 1012 67 10000 7.2 160 22:26 26.10.2020
6281 Clear 16 1012 59 10000 7.7 180 21:49 26.10.2020
6282 Clear 17 1012 63 10000 8.2 170 21:21 26.10.2020
6283 Clear 17 1012 63 10000 8.2 170 20:58 26.10.2020
6284 Clear 17 1012 63 10000 8.2 170 20:39 26.10.2020
6285 Clouds 17 1012 63 10000 9.3 180 20:19 26.10.2020
6286 Clouds 17 1012 63 10000 9.3 180 19:47 26.10.2020
6287 Clouds 17 1012 63 10000 9.3 180 19:23 26.10.2020
6288 Clouds 18 1012 63 10000 7.7 180 18:45 26.10.2020
6289 Clouds 18 1012 63 10000 7.7 180 18:24 26.10.2020
6290 Clouds 18 1012 68 10000 8.2 180 17:59 26.10.2020
6291 Clouds 18 1012 68 10000 8.2 180 17:39 26.10.2020
6292 Clouds 18 1013 72 10000 9.3 170 17:21 26.10.2020
6293 Clouds 18 1013 72 10000 9.3 170 16:40 26.10.2020
6294 Clouds 17 1013 72 10000 10.3 190 16:21 26.10.2020
6295 Clouds 17 1013 72 10000 10.3 190 15:43 26.10.2020
6296 Clouds 17 1013 72 10000 10.3 190 15:24 26.10.2020
6297 Clouds 17 1012 77 10000 9.3 190 14:53 26.10.2020
6298 Clouds 17 1013 72 10000 10.3 190 14:34 26.10.2020
6299 Clouds 17 1012 87 10000 7.7 200 13:45 26.10.2020
6300 Clouds 16 1012 87 10000 7.7 200 13:25 26.10.2020
6301 Clouds 16 1011 93 10000 8.2 180 12:55 26.10.2020
6302 Clouds 16 1011 93 10000 8.2 180 12:32 26.10.2020
6303 Clouds 17 1010 88 10000 6.2 200 11:57 26.10.2020
6304 Clouds 17 1010 88 10000 6.2 200 11:39 26.10.2020
6305 Clouds 17 1009 93 10000 5.7 210 11:21 26.10.2020
6306 Clouds 17 1009 93 10000 6.7 200 10:49 26.10.2020
6307 Rain 17 1009 93 10000 6.7 200 10:26 26.10.2020
6308 Clouds 17 1008 93 10000 8.2 210 09:56 26.10.2020
6309 Clouds 17 1008 93 10000 8.2 210 09:31 26.10.2020
6310 Clouds 17 1007 93 2000 6.2 190 08:55 26.10.2020
6311 Clouds 18 1007 93 10000 6.7 220 08:25 26.10.2020
6312 Clouds 18 1006 94 10000 7.7 230 07:48 26.10.2020
6313 Clouds 19 1006 94 10000 7.7 230 07:28 26.10.2020
6314 Rain 19 1006 93 10000 1.5 350 05:46 26.10.2020
6315 Clouds 20 1007 88 10000 3.1 20 04:19 26.10.2020
6316 Clouds 20 1007 88 10000 2.1 60 03:21 26.10.2020
6317 Clouds 20 1008 88 10000 1.5 340 01:34 26.10.2020
6318 Clouds 20 1007 82 10000 7.11 319 00:39 26.10.2020
6319 Clouds 21 1007 83 10000 3.1 120 00:20 26.10.2020
6320 Clouds 21 1007 83 10000 3.1 120 23:37 25.10.2020
6321 Clouds 21 1006 88 8000 2.6 180 22:48 25.10.2020
6322 Clouds 21 1006 88 8000 2.6 180 22:30 25.10.2020
6323 Rain 21 1004 88 3000 4.1 90 21:57 25.10.2020
6324 Rain 21 1004 88 3000 4.1 90 21:39 25.10.2020
6325 Rain 22 1008 94 3500 2.6 250 21:19 25.10.2020
6326 Rain 22 1008 94 3500 2.6 250 20:43 25.10.2020
6327 Rain 22 1008 94 3500 2.6 250 20:24 25.10.2020
6328 Rain 23 1008 94 2000 5.1 180 19:56 25.10.2020
6329 Rain 23 1008 94 8000 5.1 270 19:37 25.10.2020
6330 Rain 24 1008 69 10000 3.1 300 19:19 25.10.2020
6331 Rain 25 1008 69 10000 3.1 300 18:41 25.10.2020
6332 Clouds 25 1008 73 10000 4.1 360 18:22 25.10.2020
6333 Rain 24 1008 73 10000 4.1 360 17:57 25.10.2020
6334 Rain 24 1008 73 10000 4.1 360 17:38 25.10.2020
6335 Rain 24 1009 73 10000 6.2 40 17:19 25.10.2020
6336 Clouds 24 1009 73 10000 6.2 40 16:46 25.10.2020
6337 Clouds 24 1009 73 10000 6.2 40 16:28 25.10.2020
6338 Clouds 22 1009 78 10000 6.2 40 15:50 25.10.2020
6339 Clouds 22 1009 78 10000 6.2 40 15:29 25.10.2020
6340 Clouds 22 1009 78 10000 6.2 60 14:55 25.10.2020
6341 Clouds 22 1009 78 10000 6.2 60 14:31 25.10.2020
6342 Clouds 21 1010 83 10000 6.2 30 13:55 25.10.2020
6343 Rain 21 1010 83 10000 6.2 30 13:37 25.10.2020
6344 Clouds 19 1009 88 10000 6.7 60 13:18 25.10.2020
6345 Clouds 19 1009 88 10000 6.7 60 12:40 25.10.2020
6346 Clouds 19 1009 88 10000 6.7 60 12:22 25.10.2020
6347 Rain 18 1010 93 8000 4.1 30 11:43 25.10.2020
6348 Clouds 18 1010 93 10000 3.1 30 11:21 25.10.2020
6349 Clouds 18 1010 93 10000 3.1 30 10:48 25.10.2020
6350 Clouds 18 1010 93 10000 3.1 30 10:26 25.10.2020
6351 Clouds 17 1009 93 10000 3.1 30 09:55 25.10.2020
6352 Clouds 17 1009 93 10000 3.1 30 09:37 25.10.2020
6353 Clouds 17 1010 93 10000 4.1 40 09:18 25.10.2020
6354 Clouds 17 1010 93 10000 4.1 40 08:40 25.10.2020
6355 Clouds 16 1009 100 10000 3.1 60 08:22 25.10.2020
6356 Clouds 16 1009 100 10000 3.1 60 07:46 25.10.2020
6357 Clear 16 1010 100 8000 2.6 80 07:18 25.10.2020
6358 Clear 16 1010 100 8000 2.6 80 06:30 25.10.2020
6359 Clouds 17 1012 100 6000 3.1 110 05:22 25.10.2020
6360 Clouds 17 1012 100 6000 3.1 110 04:51 25.10.2020
6361 Clouds 17 1012 100 7000 5.1 110 02:38 25.10.2020
6362 Fog 17 1012 100 600 5.1 110 01:32 25.10.2020
6363 Clouds 17 1011 88 10000 5.1 120 00:48 25.10.2020
6364 Clouds 19 1011 77 10000 5.1 130 00:20 25.10.2020
6365 Clouds 19 1011 77 10000 5.1 130 23:53 24.10.2020
6366 Clouds 20 1011 77 10000 5.1 130 23:26 24.10.2020
6367 Clouds 20 1011 78 10000 6.2 140 22:55 24.10.2020
6368 Clouds 21 1011 78 10000 6.2 140 22:37 24.10.2020
6369 Clouds 22 1011 73 10000 5.1 150 22:18 24.10.2020
6370 Clouds 22 1011 73 10000 5.1 150 21:41 24.10.2020
6371 Clouds 23 1012 73 8000 5.1 180 21:20 24.10.2020
6372 Clouds 23 1012 73 8000 5.1 180 20:47 24.10.2020
6373 Clouds 23 1012 73 8000 5.1 180 20:23 24.10.2020
6374 Mist 23 1013 73 8000 5.1 180 19:48 24.10.2020
6375 Mist 22 1013 73 8000 5.1 180 19:28 24.10.2020
6376 Mist 22 1014 78 7000 4.1 180 18:57 24.10.2020
6377 Mist 22 1014 78 7000 4.1 180 18:39 24.10.2020
6378 Clouds 21 1014 83 8000 5.1 180 18:20 24.10.2020
6379 Clouds 22 1014 83 8000 5.1 180 17:38 24.10.2020
6380 Clouds 21 1014 83 8000 5.1 180 17:20 24.10.2020
6381 Clouds 21 1014 83 8000 5.1 180 16:44 24.10.2020
6382 Smoke 23 1015 73 6000 2.6 360 16:22 24.10.2020
6383 Smoke 23 1015 73 6000 2.6 360 15:40 24.10.2020
6384 Mist 21 1015 83 3000 2.1 80 15:19 24.10.2020
6385 Mist 20 1015 83 3000 2.1 80 14:50 24.10.2020
6386 Mist 20 1015 83 3000 2.1 80 14:28 24.10.2020
6387 Mist 18 1015 88 2000 1.5 90 13:46 24.10.2020
6388 Mist 18 1015 88 2000 1.5 90 13:24 24.10.2020
6389 Mist 17 1015 93 1500 1.5 360 12:48 24.10.2020
6390 Fog 16 1014 100 200 1.5 150 12:21 24.10.2020
6391 Fog 16 1014 100 200 1.5 150 11:53 24.10.2020
6392 Fog 16 1014 100 200 1.5 150 11:35 24.10.2020
6393 Fog 16 1014 100 200 2.1 180 10:54 24.10.2020
6394 Fog 16 1014 100 200 2.1 180 10:34 24.10.2020
6395 Fog 16 1013 100 200 1.5 140 09:56 24.10.2020
6396 Clouds 16 1013 93 10000 2.1 180 09:38 24.10.2020
6397 Clear 16 1014 88 10000 0.45 0 09:19 24.10.2020
6398 Clouds 16 1013 93 10000 2.1 150 08:20 24.10.2020
6399 Clouds 16 1013 93 10000 2.1 150 07:55 24.10.2020
6400 Clouds 16 1013 93 10000 2.1 150 07:37 24.10.2020
6401 Clouds 16 1014 93 10000 1.5 160 07:18 24.10.2020
6402 Clouds 16 1014 100 10000 2.6 160 06:23 24.10.2020
6403 Clouds 16 1015 100 7000 3.1 150 03:51 24.10.2020
6404 Fog 16 1014 93 500 4.1 140 02:20 24.10.2020
6405 Clouds 17 1014 82 10000 3.6 150 00:43 24.10.2020
6406 Fog 18 1014 93 800 3.1 140 00:22 24.10.2020
6407 Clouds 18 1014 82 10000 3.6 150 23:56 23.10.2020
6408 Clouds 19 1014 77 10000 2.6 150 23:36 23.10.2020
6409 Clouds 20 1013 77 10000 4.6 180 23:18 23.10.2020
6410 Clouds 21 1013 77 10000 4.6 180 22:42 23.10.2020
6411 Clouds 21 1013 77 10000 4.6 180 22:21 23.10.2020
6412 Clouds 22 1013 73 10000 5.1 180 21:52 23.10.2020
6413 Clouds 22 1013 73 10000 5.1 180 21:28 23.10.2020
6414 Clouds 22 1014 73 10000 3.6 190 20:44 23.10.2020
6415 Clouds 22 1014 73 10000 3.6 190 20:25 23.10.2020
6416 Clouds 22 1014 73 10000 3.1 170 19:59 23.10.2020
6417 Clouds 22 1014 73 10000 3.1 170 19:37 23.10.2020
6418 Clouds 22 1015 78 10000 4.18 110 19:18 23.10.2020
6419 Clouds 22 1015 78 10000 4.18 110 18:39 23.10.2020
6420 Clouds 22 1015 77 10000 2.6 60 18:20 23.10.2020
6421 Clouds 21 1015 77 10000 2.6 60 17:44 23.10.2020
6422 Clouds 21 1015 77 10000 2.6 60 17:21 23.10.2020
6423 Clouds 21 1015 77 10000 2.1 90 16:47 23.10.2020
6424 Clouds 21 1015 77 10000 2.1 90 16:26 23.10.2020
6425 Clouds 20 1016 82 10000 2.1 100 15:47 23.10.2020
6426 Clouds 20 1016 77 10000 2.1 30 15:25 23.10.2020
6427 Clouds 20 1016 77 10000 2.1 30 14:58 23.10.2020
6428 Clouds 20 1016 77 10000 2.1 30 14:39 23.10.2020
6429 Clouds 18 1016 88 10000 3.6 60 14:21 23.10.2020
6430 Clouds 18 1016 88 10000 3.6 60 13:38 23.10.2020
6431 Clouds 17 1016 100 10000 2.1 90 13:20 23.10.2020
6432 Clouds 16 1016 100 10000 2.1 90 12:48 23.10.2020
6433 Clouds 16 1016 100 10000 2.1 90 12:28 23.10.2020
6434 Mist 16 1016 100 3000 1.5 120 11:48 23.10.2020
6435 Mist 15 1016 100 3000 1.5 120 11:22 23.10.2020
6436 Clear 15 1016 100 10000 3.49 51 10:47 23.10.2020
6437 Clear 15 1016 100 10000 4.14 55 10:25 23.10.2020
6438 Clouds 15 1016 100 7000 1 0 09:47 23.10.2020
6439 Clouds 15 1016 100 7000 1 0 09:27 23.10.2020
6440 Clouds 15 1016 100 7000 2.6 110 08:53 23.10.2020
6441 Clouds 15 1016 100 7000 2.6 110 08:35 23.10.2020
6442 Clouds 15 1017 100 8000 4.6 100 07:47 23.10.2020
6443 Clouds 15 1017 100 8000 4.6 100 07:23 23.10.2020
6444 Clouds 15 1018 100 6000 3.6 110 06:31 23.10.2020
6445 Clouds 15 1017 93 8000 5.7 110 05:58 23.10.2020
6446 Thunderstorm 15 1019 93 10000 4.1 130 02:54 23.10.2020
6447 Rain 15 1019 93 10000 4.1 130 02:25 23.10.2020
6448 Rain 16 1016 93 10000 8.2 40 00:48 23.10.2020
6449 Rain 16 1017 93 10000 7.7 60 23:54 22.10.2020
6450 Rain 16 1017 93 10000 7.7 60 23:31 22.10.2020
6451 Rain 16 1018 93 10000 4.1 70 22:56 22.10.2020
6452 Clouds 16 1018 93 10000 4.1 70 22:38 22.10.2020
6453 Rain 16 1018 87 10000 5.7 70 22:19 22.10.2020
6454 Clouds 16 1018 87 10000 6.7 50 21:43 22.10.2020
6455 Clouds 16 1018 87 10000 6.7 50 21:23 22.10.2020
6456 Clouds 16 1018 87 10000 8.7 60 20:57 22.10.2020
6457 Rain 16 1018 87 10000 8.7 60 20:39 22.10.2020
6458 Clouds 15 1018 87 6000 8.2 60 20:18 22.10.2020
6459 Clouds 15 1020 87 10000 7.7 60 19:40 22.10.2020
6460 Clouds 15 1022 93 8000 7.7 80 19:19 22.10.2020
6461 Clouds 15 1022 93 8000 7.7 80 18:43 22.10.2020
6462 Rain 15 1023 93 4000 5.1 90 18:20 22.10.2020
6463 Rain 14 1023 93 4000 5.1 90 17:46 22.10.2020
6464 Rain 14 1023 93 4000 5.1 90 17:26 22.10.2020
6465 Rain 14 1024 100 4000 6.2 90 16:56 22.10.2020
6466 Rain 14 1024 100 4000 6.2 90 16:37 22.10.2020
6467 Rain 14 1023 93 1500 6.2 100 16:19 22.10.2020
6468 Rain 13 1023 93 1500 6.2 100 15:43 22.10.2020
6469 Thunderstorm 13 1024 93 3000 6.2 100 15:22 22.10.2020
6470 Rain 13 1023 93 4000 7.7 100 14:47 22.10.2020
6471 Rain 13 1023 93 4000 7.7 100 14:24 22.10.2020
6472 Rain 13 1022 93 2000 7.7 90 13:48 22.10.2020
6473 Clouds 13 1023 87 4000 8.7 100 13:24 22.10.2020
6474 Rain 13 1023 87 4000 8.7 100 12:47 22.10.2020
6475 Rain 13 1023 87 4000 8.7 100 12:23 22.10.2020
6476 Rain 13 1025 93 10000 8.2 110 11:50 22.10.2020
6477 Rain 12 1025 87 4000 8.2 120 11:20 22.10.2020
6478 Rain 12 1025 87 4000 8.2 120 10:51 22.10.2020
6479 Clouds 12 1025 87 4000 8.2 120 10:28 22.10.2020
6480 Rain 13 1025 87 3000 6.2 130 09:52 22.10.2020
6481 Clouds 13 1025 87 3000 6.2 130 09:33 22.10.2020
6482 Rain 12 1023 82 6000 6.2 110 08:51 22.10.2020
6483 Rain 12 1023 82 10000 5.7 100 08:30 22.10.2020
6484 Clouds 12 1024 82 10000 5.1 100 07:58 22.10.2020
6485 Rain 12 1024 82 10000 5.1 100 07:36 22.10.2020
6486 Clouds 12 1025 76 10000 4.1 100 06:58 22.10.2020
6487 Clouds 12 1025 76 10000 4.1 100 06:27 22.10.2020
6488 Rain 12 1025 76 10000 6.7 90 05:41 22.10.2020
6489 Rain 13 1025 76 10000 7.7 90 05:18 22.10.2020
6490 Rain 15 1025 72 10000 7.7 110 01:46 22.10.2020
6491 Rain 15 1025 67 10000 8.7 120 00:26 22.10.2020
6492 Rain 15 1024 62 10000 7.7 110 23:51 21.10.2020
6493 Rain 15 1024 62 10000 7.7 110 23:32 21.10.2020
6494 Clouds 16 1024 67 10000 7.7 110 22:43 21.10.2020
6495 Clouds 17 1025 63 10000 9.3 120 22:19 21.10.2020
6496 Clouds 17 1025 63 10000 9.3 120 21:56 21.10.2020
6497 Clouds 17 1025 63 10000 9.3 120 21:37 21.10.2020
6498 Clouds 18 1026 63 10000 7.7 120 21:18 21.10.2020
6499 Clouds 17 1026 63 10000 7.7 120 20:48 21.10.2020
6500 Clouds 18 1026 59 10000 8.2 120 20:19 21.10.2020
6501 Clouds 18 1026 59 10000 8.2 120 19:47 21.10.2020
6502 Clouds 17 1026 59 10000 8.2 120 19:26 21.10.2020
6503 Clouds 17 1026 63 10000 5.1 120 18:54 21.10.2020
6504 Clouds 17 1026 63 10000 5.1 120 18:36 21.10.2020
6505 Clouds 17 1027 63 10000 7.2 120 18:18 21.10.2020
6506 Rain 17 1027 63 10000 7.2 120 17:41 21.10.2020
6507 Clouds 17 1027 67 10000 7.7 100 17:19 21.10.2020
6508 Clouds 16 1027 67 10000 7.7 100 16:41 21.10.2020
6509 Clouds 16 1027 67 10000 7.7 100 16:21 21.10.2020
6510 Clouds 16 1028 67 10000 7.2 120 15:55 21.10.2020
6511 Clouds 16 1028 67 10000 7.2 120 15:37 21.10.2020
6512 Clouds 16 1028 67 10000 7.2 120 15:18 21.10.2020
6513 Clouds 15 1028 67 10000 6.7 80 14:43 21.10.2020
6514 Clouds 15 1028 67 10000 6.7 80 14:25 21.10.2020
6515 Clear 15 1028 71 10000 6.2 100 13:42 21.10.2020
6516 Clear 15 1028 71 10000 6.2 100 13:24 21.10.2020
6517 Clear 13 1028 76 10000 3.6 120 12:47 21.10.2020
6518 Clear 13 1028 76 10000 3.6 120 12:24 21.10.2020
6519 Clear 12 1027 76 10000 7.7 120 11:59 21.10.2020
6520 Clear 12 1027 76 10000 7.7 120 11:40 21.10.2020
6521 Clear 12 1027 76 10000 7.7 120 11:19 21.10.2020
6522 Clouds 12 1027 71 10000 6.2 120 10:41 21.10.2020
6523 Clouds 12 1027 71 10000 6.2 120 10:21 21.10.2020
6524 Clouds 11 1027 76 10000 6.2 130 09:52 21.10.2020
6525 Clouds 11 1027 76 10000 6.2 130 09:30 21.10.2020
6526 Clouds 11 1027 71 10000 6.2 130 08:42 21.10.2020
6527 Clouds 11 1027 71 10000 6.2 130 08:24 21.10.2020
6528 Clouds 11 1027 71 10000 5.7 120 07:58 21.10.2020
6529 Clouds 11 1027 71 10000 5.7 120 07:31 21.10.2020
6530 Clouds 11 1027 71 10000 5.7 120 07:31 21.10.2020
6531 Clouds 11 1026 66 10000 7.2 130 06:50 21.10.2020
6532 Clouds 11 1026 66 10000 7.2 130 06:26 21.10.2020
6533 Clouds 11 1027 54 10000 7.7 130 04:46 21.10.2020
6534 Clouds 12 1026 58 10000 6.2 130 00:51 21.10.2020
6535 Clouds 13 1026 54 10000 7.7 130 23:49 20.10.2020
6536 Clouds 13 1025 58 10000 9.3 130 22:53 20.10.2020
6537 Clouds 13 1025 58 10000 9.3 130 22:28 20.10.2020
6538 Clouds 13 1025 54 10000 7.7 140 21:50 20.10.2020
6539 Rain 13 1025 54 10000 7.7 140 21:20 20.10.2020
6540 Rain 14 1025 50 10000 7.2 130 20:45 20.10.2020
6541 Clouds 14 1025 50 10000 7.2 130 20:26 20.10.2020
6542 Clouds 13 1025 62 10000 6.7 110 19:59 20.10.2020
6543 Clouds 13 1025 62 10000 6.7 110 19:41 20.10.2020
6544 Clouds 11 1025 71 10000 6.2 110 19:21 20.10.2020
6545 Rain 11 1025 71 10000 6.2 110 18:47 20.10.2020
6546 Rain 11 1025 71 10000 6.2 110 18:29 20.10.2020
6547 Rain 10 1025 81 6000 5.1 110 17:47 20.10.2020
6548 Clouds 10 1025 81 6000 5.1 110 17:29 20.10.2020
6549 Clouds 10 1025 81 4000 4.6 150 16:48 20.10.2020
6550 Rain 10 1025 81 4000 4.6 150 16:28 20.10.2020
6551 Rain 10 1024 81 6000 5.1 100 15:56 20.10.2020
6552 Rain 10 1024 81 6000 5.1 100 15:38 20.10.2020
6553 Rain 10 1025 81 5000 5.1 140 15:19 20.10.2020
6554 Rain 10 1025 81 5000 5.1 140 14:41 20.10.2020
6555 Rain 10 1025 81 5000 5.1 140 14:22 20.10.2020
6556 Rain 11 1024 81 4000 4.6 120 13:44 20.10.2020
6557 Rain 11 1024 81 4000 4.6 120 13:23 20.10.2020
6558 Rain 11 1023 76 8000 5.1 120 12:58 20.10.2020
6559 Rain 11 1023 76 8000 5.1 120 12:40 20.10.2020
6560 Rain 11 1021 66 10000 9.3 130 12:21 20.10.2020
6561 Rain 11 1021 66 10000 9.3 130 11:40 20.10.2020
6562 Rain 11 1021 66 10000 9.3 130 11:20 20.10.2020
6563 Rain 11 1019 76 10000 9.8 120 10:37 20.10.2020
6564 Rain 11 1019 76 10000 9.8 120 10:19 20.10.2020
6565 Clouds 11 1021 76 8000 7.2 130 09:38 20.10.2020
6566 Rain 11 1021 76 8000 7.2 130 09:18 20.10.2020
6567 Rain 11 1019 81 10000 10.3 120 08:37 20.10.2020
6568 Rain 10 1020 93 8000 10.3 130 07:53 20.10.2020
6569 Clouds 10 1020 93 8000 10.3 130 07:26 20.10.2020
6570 Clouds 11 1021 93 4000 7.7 140 06:31 20.10.2020
6571 Rain 12 1020 100 6000 8.7 150 05:51 20.10.2020
6572 Rain 16 1018 87 8000 8.7 160 03:58 20.10.2020
6573 Rain 17 1016 88 10000 8.7 160 02:25 20.10.2020
6574 Clouds 20 1013 88 10000 8.2 180 00:59 20.10.2020
6575 Clouds 20 1013 88 10000 8.2 180 00:41 20.10.2020
6576 Clouds 20 1013 88 10000 8.2 180 00:21 20.10.2020
6577 Rain 21 1012 77 10000 10.3 180 23:47 19.10.2020
6578 Clouds 21 1012 77 10000 10.3 180 23:23 19.10.2020
6579 Clouds 22 1011 78 10000 8.7 180 22:44 19.10.2020
6580 Clouds 22 1011 78 10000 8.7 180 22:22 19.10.2020
6581 Clear 26 1009 51 10000 5.1 180 21:45 19.10.2020
6582 Clear 27 1009 51 10000 5.1 180 21:22 19.10.2020
6583 Clear 29 1009 51 10000 4.1 90 20:48 19.10.2020
6584 Clouds 29 1009 51 10000 4.1 90 20:29 19.10.2020
6585 Clouds 27 1010 54 10000 6.2 90 19:54 19.10.2020
6586 Clouds 27 1010 54 10000 6.2 90 19:36 19.10.2020
6587 Clouds 26 1011 61 10000 7.7 130 19:18 19.10.2020
6588 Clouds 26 1011 61 10000 7.7 130 18:42 19.10.2020
6589 Clouds 25 1011 65 10000 7.7 130 18:18 19.10.2020
6590 Clouds 25 1011 65 10000 7.7 130 18:18 19.10.2020
6591 Clouds 25 1011 65 10000 7.7 130 17:44 19.10.2020
6592 Clouds 25 1011 65 10000 7.7 130 17:24 19.10.2020
6593 Clouds 25 1011 57 10000 9.3 150 16:46 19.10.2020
6594 Clouds 25 1011 57 10000 9.3 150 16:28 19.10.2020
6595 Clouds 25 1012 55 10000 4.02 134 15:44 19.10.2020
6596 Clouds 24 1012 60 10000 4.92 192 15:25 19.10.2020
6597 Clouds 23 1008 73 10000 4.92 173 14:51 19.10.2020
6598 Clouds 23 1012 64 10000 3.58 150 14:26 19.10.2020
6599 Clouds 24 1012 63 10000 4.47 215 13:54 19.10.2020
6600 Clouds 24 1012 62 10000 2.24 255 13:34 19.10.2020
6601 Clouds 21 1006 77 10000 4.96 353 12:56 19.10.2020
6602 Clouds 21 1006 77 10000 4.96 353 12:38 19.10.2020
6603 Clouds 21 1010 67 10000 0.89 17 12:19 19.10.2020
6604 Clouds 20 1006 77 10000 4.1 20 11:39 19.10.2020
6605 Clouds 20 1006 77 10000 4.1 20 11:18 19.10.2020
6606 Clouds 20 1006 77 10000 4.1 20 10:40 19.10.2020
6607 Clear 21 1006 73 10000 3.6 20 10:20 19.10.2020
6608 Clear 21 1006 73 10000 3.6 20 09:48 19.10.2020
6609 Clear 21 1006 73 10000 3.6 20 09:19 19.10.2020
6610 Clear 22 1006 73 10000 3.6 20 08:49 19.10.2020
6611 Clear 22 1006 68 10000 4.1 30 08:23 19.10.2020
6612 Clouds 22 1006 68 10000 4.1 30 07:44 19.10.2020
6613 Clouds 23 1007 68 10000 4.1 20 07:19 19.10.2020
6614 Clouds 23 1007 60 10000 6.2 30 06:19 19.10.2020
6615 Clear 26 1008 61 10000 4.1 40 03:50 19.10.2020
6616 Clear 26 1008 61 10000 4.1 40 03:32 19.10.2020
6617 Clear 27 1008 65 10000 3.6 60 00:57 19.10.2020
6618 Clear 28 1008 65 10000 3.6 60 00:24 19.10.2020
6619 Clear 29 1007 52 10000 5.1 40 23:47 18.10.2020
6620 Clear 29 1007 52 10000 5.1 40 23:25 18.10.2020
6621 Clouds 30 1007 52 10000 3.6 20 22:52 18.10.2020
6622 Clouds 30 1008 52 10000 2.6 10 22:22 18.10.2020
6623 Clouds 30 1008 52 10000 2.6 10 21:56 18.10.2020
6624 Clouds 30 1008 52 10000 2.6 10 21:37 18.10.2020
6625 Clouds 30 1009 55 10000 3.1 360 21:18 18.10.2020
6626 Clouds 30 1009 55 10000 3.1 360 20:40 18.10.2020
6627 Clear 30 1009 55 10000 3.1 350 20:19 18.10.2020
6628 Clear 30 1009 55 10000 3.1 350 19:43 18.10.2020
6629 Clear 30 1009 55 10000 3.1 350 19:25 18.10.2020
6630 Clear 29 1010 58 10000 2.6 340 18:49 18.10.2020
6631 Clear 29 1010 58 10000 2.6 340 18:28 18.10.2020
6632 Clear 28 1011 61 10000 5.1 350 17:44 18.10.2020
6633 Clear 28 1011 61 10000 5.1 350 17:25 18.10.2020
6634 Clear 27 1011 54 10000 2.91 328 16:55 18.10.2020
6635 Clear 27 1011 61 10000 5.7 20 16:37 18.10.2020
6636 Clear 26 1011 61 10000 5.7 10 16:18 18.10.2020
6637 Clear 25 1011 61 10000 5.7 10 15:41 18.10.2020
6638 Clear 24 1011 69 10000 7.2 40 15:19 18.10.2020
6639 Clear 24 1011 69 10000 7.2 40 14:54 18.10.2020
6640 Clear 23 1011 69 10000 7.2 40 14:29 18.10.2020
6641 Clear 21 1011 77 10000 6.7 10 13:56 18.10.2020
6642 Clear 21 1011 77 10000 6.7 10 13:38 18.10.2020
6643 Clear 20 1010 88 10000 4.6 10 13:19 18.10.2020
6644 Clear 19 1010 88 10000 4.6 10 12:42 18.10.2020
6645 Clear 19 1010 88 10000 4.6 10 12:21 18.10.2020
6646 Clear 18 1010 88 10000 3.6 10 11:42 18.10.2020
6647 Clear 18 1010 88 10000 3.6 10 11:23 18.10.2020
6648 Clear 18 1010 88 10000 3.1 10 10:41 18.10.2020
6649 Clear 19 1009 82 10000 3.6 20 10:21 18.10.2020
6650 Clear 19 1009 82 10000 3.6 20 09:52 18.10.2020
6651 Clear 19 1009 82 10000 3.6 20 09:25 18.10.2020
6652 Clear 19 1010 82 10000 4.1 30 08:59 18.10.2020
6653 Clear 19 1010 82 10000 4.1 30 08:39 18.10.2020
6654 Clouds 19 1011 93 10000 4.1 30 08:21 18.10.2020
6655 Clouds 19 1011 93 10000 4.1 30 07:32 18.10.2020
6656 Clouds 19 1012 93 10000 3.6 60 05:33 18.10.2020
6657 Clouds 19 1014 88 6000 2.1 330 03:20 18.10.2020
6658